<?xml version="1.0" encoding="UTF-8" standalone="no" ?>
<gpx xmlns="http://www.topografix.com/GPX/1/1" xmlns:xsi="http://www.w3.org/2001/XMLSchema-instance" xsi:schemaLocation="http://www.topografix.com/GPX/1/1 http://www.topografix.com/GPX/1/1/gpx.xsd" version="1.1" creator="VisuGPX - https://www.visugpx.com">
  <metadata>
    <name>[11/11/2016] Rando Evreux</name>
    <desc><![CDATA[Rando club du 11 novembre à Evreux.]]></desc>
  </metadata>
  <trk>
    <name><![CDATA[[11/11/2016] Rando Evreux_1]]></name>
    <trkseg>
      <trkpt lat="49.02208" lon="1.14083">
        <ele>60.836357</ele>
        <time>2016-11-11T08:04:52Z</time>
      </trkpt>
      <trkpt lat="49.02208" lon="1.14083">
        <ele>60.836357</ele>
        <time>2016-11-11T08:04:53Z</time>
      </trkpt>
      <trkpt lat="49.022" lon="1.14093">
        <ele>60.7</ele>
        <time>2016-11-11T08:07:36Z</time>
      </trkpt>
      <trkpt lat="49.02192" lon="1.14102">
        <ele>60.7</ele>
        <time>2016-11-11T08:07:40Z</time>
      </trkpt>
      <trkpt lat="49.02181" lon="1.14109">
        <ele>60.7</ele>
        <time>2016-11-11T08:07:44Z</time>
      </trkpt>
      <trkpt lat="49.02172" lon="1.14112">
        <ele>60.7</ele>
        <time>2016-11-11T08:07:47Z</time>
      </trkpt>
      <trkpt lat="49.02162" lon="1.14115">
        <ele>60.6</ele>
        <time>2016-11-11T08:07:50Z</time>
      </trkpt>
      <trkpt lat="49.02151" lon="1.1412">
        <ele>60.6</ele>
        <time>2016-11-11T08:07:54Z</time>
      </trkpt>
      <trkpt lat="49.02142" lon="1.14124">
        <ele>60.6</ele>
        <time>2016-11-11T08:07:57Z</time>
      </trkpt>
      <trkpt lat="49.02133" lon="1.14127">
        <ele>60.6</ele>
        <time>2016-11-11T08:08:00Z</time>
      </trkpt>
      <trkpt lat="49.02123" lon="1.14131">
        <ele>60.6</ele>
        <time>2016-11-11T08:08:03Z</time>
      </trkpt>
      <trkpt lat="49.02113" lon="1.14135">
        <ele>60.6</ele>
        <time>2016-11-11T08:08:06Z</time>
      </trkpt>
      <trkpt lat="49.02102" lon="1.14139">
        <ele>60.6</ele>
        <time>2016-11-11T08:08:09Z</time>
      </trkpt>
      <trkpt lat="49.02092" lon="1.14143">
        <ele>60.6</ele>
        <time>2016-11-11T08:08:12Z</time>
      </trkpt>
      <trkpt lat="49.02082" lon="1.14148">
        <ele>60.6</ele>
        <time>2016-11-11T08:08:15Z</time>
      </trkpt>
      <trkpt lat="49.02071" lon="1.14152">
        <ele>60.6</ele>
        <time>2016-11-11T08:08:18Z</time>
      </trkpt>
      <trkpt lat="49.0206" lon="1.14156">
        <ele>60.6</ele>
        <time>2016-11-11T08:08:21Z</time>
      </trkpt>
      <trkpt lat="49.02048" lon="1.1416">
        <ele>60.6</ele>
        <time>2016-11-11T08:08:24Z</time>
      </trkpt>
      <trkpt lat="49.02036" lon="1.14165">
        <ele>60.6</ele>
        <time>2016-11-11T08:08:27Z</time>
      </trkpt>
      <trkpt lat="49.02025" lon="1.14169">
        <ele>60.6</ele>
        <time>2016-11-11T08:08:30Z</time>
      </trkpt>
      <trkpt lat="49.02013" lon="1.14174">
        <ele>60.6</ele>
        <time>2016-11-11T08:08:33Z</time>
      </trkpt>
      <trkpt lat="49.02002" lon="1.14178">
        <ele>60.6</ele>
        <time>2016-11-11T08:08:36Z</time>
      </trkpt>
      <trkpt lat="49.01991" lon="1.14183">
        <ele>60.6</ele>
        <time>2016-11-11T08:08:39Z</time>
      </trkpt>
      <trkpt lat="49.0198" lon="1.14188">
        <ele>60.7</ele>
        <time>2016-11-11T08:08:42Z</time>
      </trkpt>
      <trkpt lat="49.01969" lon="1.14193">
        <ele>60.8</ele>
        <time>2016-11-11T08:08:45Z</time>
      </trkpt>
      <trkpt lat="49.01958" lon="1.14197">
        <ele>61</ele>
        <time>2016-11-11T08:08:48Z</time>
      </trkpt>
      <trkpt lat="49.01948" lon="1.14201">
        <ele>61.2</ele>
        <time>2016-11-11T08:08:51Z</time>
      </trkpt>
      <trkpt lat="49.01938" lon="1.14205">
        <ele>61.4</ele>
        <time>2016-11-11T08:08:54Z</time>
      </trkpt>
      <trkpt lat="49.01927" lon="1.14209">
        <ele>61.6</ele>
        <time>2016-11-11T08:08:57Z</time>
      </trkpt>
      <trkpt lat="49.01917" lon="1.14215">
        <ele>61.8</ele>
        <time>2016-11-11T08:09:00Z</time>
      </trkpt>
      <trkpt lat="49.01906" lon="1.1422">
        <ele>62</ele>
        <time>2016-11-11T08:09:03Z</time>
      </trkpt>
      <trkpt lat="49.01897" lon="1.14226">
        <ele>62.1</ele>
        <time>2016-11-11T08:09:06Z</time>
      </trkpt>
      <trkpt lat="49.01888" lon="1.14232">
        <ele>62.3</ele>
        <time>2016-11-11T08:09:09Z</time>
      </trkpt>
      <trkpt lat="49.01878" lon="1.14238">
        <ele>62.5</ele>
        <time>2016-11-11T08:09:12Z</time>
      </trkpt>
      <trkpt lat="49.01868" lon="1.14242">
        <ele>62.8</ele>
        <time>2016-11-11T08:09:15Z</time>
      </trkpt>
      <trkpt lat="49.01858" lon="1.14248">
        <ele>63.1</ele>
        <time>2016-11-11T08:09:18Z</time>
      </trkpt>
      <trkpt lat="49.01849" lon="1.14254">
        <ele>63.3</ele>
        <time>2016-11-11T08:09:21Z</time>
      </trkpt>
      <trkpt lat="49.01839" lon="1.14262">
        <ele>63.6</ele>
        <time>2016-11-11T08:09:24Z</time>
      </trkpt>
      <trkpt lat="49.01828" lon="1.14267">
        <ele>63.8</ele>
        <time>2016-11-11T08:09:27Z</time>
      </trkpt>
      <trkpt lat="49.01818" lon="1.14273">
        <ele>64.1</ele>
        <time>2016-11-11T08:09:30Z</time>
      </trkpt>
      <trkpt lat="49.01807" lon="1.14279">
        <ele>64.3</ele>
        <time>2016-11-11T08:09:33Z</time>
      </trkpt>
      <trkpt lat="49.01796" lon="1.14286">
        <ele>64.5</ele>
        <time>2016-11-11T08:09:36Z</time>
      </trkpt>
      <trkpt lat="49.01786" lon="1.14292">
        <ele>64.8</ele>
        <time>2016-11-11T08:09:39Z</time>
      </trkpt>
      <trkpt lat="49.01776" lon="1.14297">
        <ele>65.1</ele>
        <time>2016-11-11T08:09:42Z</time>
      </trkpt>
      <trkpt lat="49.01769" lon="1.14306">
        <ele>65.4</ele>
        <time>2016-11-11T08:09:46Z</time>
      </trkpt>
      <trkpt lat="49.01762" lon="1.14315">
        <ele>65.8</ele>
        <time>2016-11-11T08:09:50Z</time>
      </trkpt>
      <trkpt lat="49.01753" lon="1.14324">
        <ele>66.2</ele>
        <time>2016-11-11T08:09:54Z</time>
      </trkpt>
      <trkpt lat="49.01743" lon="1.1433">
        <ele>66.6</ele>
        <time>2016-11-11T08:09:58Z</time>
      </trkpt>
      <trkpt lat="49.01706" lon="1.14346">
        <ele>67</ele>
        <time>2016-11-11T08:10:07Z</time>
      </trkpt>
      <trkpt lat="49.01686" lon="1.14356">
        <ele>68.5</ele>
        <time>2016-11-11T08:10:12Z</time>
      </trkpt>
      <trkpt lat="49.01675" lon="1.14362">
        <ele>68.8</ele>
        <time>2016-11-11T08:10:15Z</time>
      </trkpt>
      <trkpt lat="49.01665" lon="1.14368">
        <ele>69.1</ele>
        <time>2016-11-11T08:10:18Z</time>
      </trkpt>
      <trkpt lat="49.01656" lon="1.14374">
        <ele>69.5</ele>
        <time>2016-11-11T08:10:21Z</time>
      </trkpt>
      <trkpt lat="49.01645" lon="1.14381">
        <ele>70.1</ele>
        <time>2016-11-11T08:10:25Z</time>
      </trkpt>
      <trkpt lat="49.01636" lon="1.14387">
        <ele>70.5</ele>
        <time>2016-11-11T08:10:28Z</time>
      </trkpt>
      <trkpt lat="49.01627" lon="1.14393">
        <ele>71</ele>
        <time>2016-11-11T08:10:31Z</time>
      </trkpt>
      <trkpt lat="49.01617" lon="1.14399">
        <ele>71.4</ele>
        <time>2016-11-11T08:10:34Z</time>
      </trkpt>
      <trkpt lat="49.01607" lon="1.14405">
        <ele>71.9</ele>
        <time>2016-11-11T08:10:37Z</time>
      </trkpt>
      <trkpt lat="49.01597" lon="1.1441">
        <ele>72.3</ele>
        <time>2016-11-11T08:10:40Z</time>
      </trkpt>
      <trkpt lat="49.01588" lon="1.14414">
        <ele>72.8</ele>
        <time>2016-11-11T08:10:43Z</time>
      </trkpt>
      <trkpt lat="49.01578" lon="1.14417">
        <ele>73.3</ele>
        <time>2016-11-11T08:10:46Z</time>
      </trkpt>
      <trkpt lat="49.01568" lon="1.1442">
        <ele>73.8</ele>
        <time>2016-11-11T08:10:49Z</time>
      </trkpt>
      <trkpt lat="49.01558" lon="1.1442">
        <ele>74.3</ele>
        <time>2016-11-11T08:10:52Z</time>
      </trkpt>
      <trkpt lat="49.01548" lon="1.1442">
        <ele>74.7</ele>
        <time>2016-11-11T08:10:55Z</time>
      </trkpt>
      <trkpt lat="49.01539" lon="1.14421">
        <ele>75.1</ele>
        <time>2016-11-11T08:10:58Z</time>
      </trkpt>
      <trkpt lat="49.01527" lon="1.1442">
        <ele>75.7</ele>
        <time>2016-11-11T08:11:02Z</time>
      </trkpt>
      <trkpt lat="49.01515" lon="1.14419">
        <ele>76.3</ele>
        <time>2016-11-11T08:11:06Z</time>
      </trkpt>
      <trkpt lat="49.01503" lon="1.14417">
        <ele>76.8</ele>
        <time>2016-11-11T08:11:10Z</time>
      </trkpt>
      <trkpt lat="49.01494" lon="1.14414">
        <ele>77.2</ele>
        <time>2016-11-11T08:11:13Z</time>
      </trkpt>
      <trkpt lat="49.01483" lon="1.1441">
        <ele>77.8</ele>
        <time>2016-11-11T08:11:17Z</time>
      </trkpt>
      <trkpt lat="49.01472" lon="1.14406">
        <ele>78.4</ele>
        <time>2016-11-11T08:11:21Z</time>
      </trkpt>
      <trkpt lat="49.01461" lon="1.14399">
        <ele>79</ele>
        <time>2016-11-11T08:11:25Z</time>
      </trkpt>
      <trkpt lat="49.01451" lon="1.14391">
        <ele>79.7</ele>
        <time>2016-11-11T08:11:29Z</time>
      </trkpt>
      <trkpt lat="49.01441" lon="1.14382">
        <ele>80.3</ele>
        <time>2016-11-11T08:11:33Z</time>
      </trkpt>
      <trkpt lat="49.01432" lon="1.1437">
        <ele>80.9</ele>
        <time>2016-11-11T08:11:37Z</time>
      </trkpt>
      <trkpt lat="49.01425" lon="1.14361">
        <ele>81.4</ele>
        <time>2016-11-11T08:11:40Z</time>
      </trkpt>
      <trkpt lat="49.01418" lon="1.14351">
        <ele>81.9</ele>
        <time>2016-11-11T08:11:43Z</time>
      </trkpt>
      <trkpt lat="49.01411" lon="1.14342">
        <ele>82.3</ele>
        <time>2016-11-11T08:11:46Z</time>
      </trkpt>
      <trkpt lat="49.01404" lon="1.14333">
        <ele>82.6</ele>
        <time>2016-11-11T08:11:49Z</time>
      </trkpt>
      <trkpt lat="49.01395" lon="1.14322">
        <ele>83.2</ele>
        <time>2016-11-11T08:11:53Z</time>
      </trkpt>
      <trkpt lat="49.01387" lon="1.14313">
        <ele>83.7</ele>
        <time>2016-11-11T08:11:56Z</time>
      </trkpt>
      <trkpt lat="49.01378" lon="1.14301">
        <ele>84.2</ele>
        <time>2016-11-11T08:12:00Z</time>
      </trkpt>
      <trkpt lat="49.01369" lon="1.1429">
        <ele>84.7</ele>
        <time>2016-11-11T08:12:04Z</time>
      </trkpt>
      <trkpt lat="49.0136" lon="1.14278">
        <ele>85.3</ele>
        <time>2016-11-11T08:12:08Z</time>
      </trkpt>
      <trkpt lat="49.01353" lon="1.14268">
        <ele>85.7</ele>
        <time>2016-11-11T08:12:11Z</time>
      </trkpt>
      <trkpt lat="49.01345" lon="1.14259">
        <ele>86</ele>
        <time>2016-11-11T08:12:14Z</time>
      </trkpt>
      <trkpt lat="49.01338" lon="1.1425">
        <ele>86.4</ele>
        <time>2016-11-11T08:12:17Z</time>
      </trkpt>
      <trkpt lat="49.0133" lon="1.14241">
        <ele>86.8</ele>
        <time>2016-11-11T08:12:20Z</time>
      </trkpt>
      <trkpt lat="49.01322" lon="1.14232">
        <ele>87.3</ele>
        <time>2016-11-11T08:12:23Z</time>
      </trkpt>
      <trkpt lat="49.01314" lon="1.14224">
        <ele>87.7</ele>
        <time>2016-11-11T08:12:26Z</time>
      </trkpt>
      <trkpt lat="49.01304" lon="1.14216">
        <ele>88.1</ele>
        <time>2016-11-11T08:12:29Z</time>
      </trkpt>
      <trkpt lat="49.01295" lon="1.14209">
        <ele>88.4</ele>
        <time>2016-11-11T08:12:32Z</time>
      </trkpt>
      <trkpt lat="49.01286" lon="1.14202">
        <ele>88.9</ele>
        <time>2016-11-11T08:12:35Z</time>
      </trkpt>
      <trkpt lat="49.01276" lon="1.14195">
        <ele>89.3</ele>
        <time>2016-11-11T08:12:38Z</time>
      </trkpt>
      <trkpt lat="49.01266" lon="1.1419">
        <ele>89.7</ele>
        <time>2016-11-11T08:12:41Z</time>
      </trkpt>
      <trkpt lat="49.01256" lon="1.14185">
        <ele>90.1</ele>
        <time>2016-11-11T08:12:44Z</time>
      </trkpt>
      <trkpt lat="49.01245" lon="1.14181">
        <ele>90.4</ele>
        <time>2016-11-11T08:12:47Z</time>
      </trkpt>
      <trkpt lat="49.01235" lon="1.14177">
        <ele>90.6</ele>
        <time>2016-11-11T08:12:50Z</time>
      </trkpt>
      <trkpt lat="49.01224" lon="1.14175">
        <ele>90.9</ele>
        <time>2016-11-11T08:12:53Z</time>
      </trkpt>
      <trkpt lat="49.01213" lon="1.14172">
        <ele>91.2</ele>
        <time>2016-11-11T08:12:56Z</time>
      </trkpt>
      <trkpt lat="49.01203" lon="1.14171">
        <ele>91.5</ele>
        <time>2016-11-11T08:12:59Z</time>
      </trkpt>
      <trkpt lat="49.01192" lon="1.1417">
        <ele>91.8</ele>
        <time>2016-11-11T08:13:02Z</time>
      </trkpt>
      <trkpt lat="49.01182" lon="1.1417">
        <ele>92.1</ele>
        <time>2016-11-11T08:13:05Z</time>
      </trkpt>
      <trkpt lat="49.01173" lon="1.1417">
        <ele>92.4</ele>
        <time>2016-11-11T08:13:08Z</time>
      </trkpt>
      <trkpt lat="49.01163" lon="1.14165">
        <ele>92.9</ele>
        <time>2016-11-11T08:13:12Z</time>
      </trkpt>
      <trkpt lat="49.01158" lon="1.14154">
        <ele>94.1</ele>
        <time>2016-11-11T08:13:22Z</time>
      </trkpt>
      <trkpt lat="49.01149" lon="1.14149">
        <ele>94.8</ele>
        <time>2016-11-11T08:13:30Z</time>
      </trkpt>
      <trkpt lat="49.01144" lon="1.14136">
        <ele>95.1</ele>
        <time>2016-11-11T08:13:41Z</time>
      </trkpt>
      <trkpt lat="49.01137" lon="1.14127">
        <ele>95.2</ele>
        <time>2016-11-11T08:13:47Z</time>
      </trkpt>
      <trkpt lat="49.01131" lon="1.14115">
        <ele>95.2</ele>
        <time>2016-11-11T08:13:54Z</time>
      </trkpt>
      <trkpt lat="49.01128" lon="1.14101">
        <ele>95.4</ele>
        <time>2016-11-11T08:14:01Z</time>
      </trkpt>
      <trkpt lat="49.01123" lon="1.1409">
        <ele>95.7</ele>
        <time>2016-11-11T08:14:06Z</time>
      </trkpt>
      <trkpt lat="49.01116" lon="1.14076">
        <ele>96</ele>
        <time>2016-11-11T08:14:12Z</time>
      </trkpt>
      <trkpt lat="49.01111" lon="1.14065">
        <ele>96.4</ele>
        <time>2016-11-11T08:14:18Z</time>
      </trkpt>
      <trkpt lat="49.01102" lon="1.14056">
        <ele>96.7</ele>
        <time>2016-11-11T08:14:22Z</time>
      </trkpt>
      <trkpt lat="49.01094" lon="1.14048">
        <ele>97.2</ele>
        <time>2016-11-11T08:14:27Z</time>
      </trkpt>
      <trkpt lat="49.01087" lon="1.14038">
        <ele>97.8</ele>
        <time>2016-11-11T08:14:33Z</time>
      </trkpt>
      <trkpt lat="49.01082" lon="1.14025">
        <ele>98.5</ele>
        <time>2016-11-11T08:14:40Z</time>
      </trkpt>
      <trkpt lat="49.01075" lon="1.14014">
        <ele>99.1</ele>
        <time>2016-11-11T08:14:46Z</time>
      </trkpt>
      <trkpt lat="49.01064" lon="1.14011">
        <ele>99.6</ele>
        <time>2016-11-11T08:14:51Z</time>
      </trkpt>
      <trkpt lat="49.01055" lon="1.14009">
        <ele>100</ele>
        <time>2016-11-11T08:14:56Z</time>
      </trkpt>
      <trkpt lat="49.01046" lon="1.14003">
        <ele>100.4</ele>
        <time>2016-11-11T08:15:02Z</time>
      </trkpt>
      <trkpt lat="49.01036" lon="1.14">
        <ele>101</ele>
        <time>2016-11-11T08:15:07Z</time>
      </trkpt>
      <trkpt lat="49.01027" lon="1.13994">
        <ele>101.4</ele>
        <time>2016-11-11T08:15:11Z</time>
      </trkpt>
      <trkpt lat="49.01017" lon="1.13988">
        <ele>102</ele>
        <time>2016-11-11T08:15:16Z</time>
      </trkpt>
      <trkpt lat="49.01009" lon="1.13982">
        <ele>102.5</ele>
        <time>2016-11-11T08:15:21Z</time>
      </trkpt>
      <trkpt lat="49.00999" lon="1.13979">
        <ele>103</ele>
        <time>2016-11-11T08:15:25Z</time>
      </trkpt>
      <trkpt lat="49.00993" lon="1.13968">
        <ele>105.3</ele>
        <time>2016-11-11T08:15:46Z</time>
      </trkpt>
      <trkpt lat="49.01001" lon="1.13959">
        <ele>105.8</ele>
        <time>2016-11-11T08:15:58Z</time>
      </trkpt>
      <trkpt lat="49.0101" lon="1.13954">
        <ele>106.1</ele>
        <time>2016-11-11T08:16:05Z</time>
      </trkpt>
      <trkpt lat="49.01" lon="1.1395">
        <ele>106.2</ele>
        <time>2016-11-11T08:16:16Z</time>
      </trkpt>
      <trkpt lat="49.0099" lon="1.13946">
        <ele>105.9</ele>
        <time>2016-11-11T08:16:20Z</time>
      </trkpt>
      <trkpt lat="49.00981" lon="1.13941">
        <ele>105.7</ele>
        <time>2016-11-11T08:16:25Z</time>
      </trkpt>
      <trkpt lat="49.00971" lon="1.13936">
        <ele>105.6</ele>
        <time>2016-11-11T08:16:29Z</time>
      </trkpt>
      <trkpt lat="49.00959" lon="1.1393">
        <ele>105.8</ele>
        <time>2016-11-11T08:16:34Z</time>
      </trkpt>
      <trkpt lat="49.00951" lon="1.13925">
        <ele>106</ele>
        <time>2016-11-11T08:16:37Z</time>
      </trkpt>
      <trkpt lat="49.00941" lon="1.1392">
        <ele>106.4</ele>
        <time>2016-11-11T08:16:41Z</time>
      </trkpt>
      <trkpt lat="49.00932" lon="1.13912">
        <ele>107.3</ele>
        <time>2016-11-11T08:16:46Z</time>
      </trkpt>
      <trkpt lat="49.00923" lon="1.13906">
        <ele>108.5</ele>
        <time>2016-11-11T08:16:52Z</time>
      </trkpt>
      <trkpt lat="49.00913" lon="1.13898">
        <ele>109.5</ele>
        <time>2016-11-11T08:16:56Z</time>
      </trkpt>
      <trkpt lat="49.00903" lon="1.13894">
        <ele>111.2</ele>
        <time>2016-11-11T08:17:02Z</time>
      </trkpt>
      <trkpt lat="49.00894" lon="1.13895">
        <ele>112.2</ele>
        <time>2016-11-11T08:17:07Z</time>
      </trkpt>
      <trkpt lat="49.00884" lon="1.13902">
        <ele>112.8</ele>
        <time>2016-11-11T08:17:11Z</time>
      </trkpt>
      <trkpt lat="49.00873" lon="1.13907">
        <ele>113</ele>
        <time>2016-11-11T08:17:14Z</time>
      </trkpt>
      <trkpt lat="49.00865" lon="1.13911">
        <ele>113.1</ele>
        <time>2016-11-11T08:17:16Z</time>
      </trkpt>
      <trkpt lat="49.00857" lon="1.13917">
        <ele>113.2</ele>
        <time>2016-11-11T08:17:18Z</time>
      </trkpt>
      <trkpt lat="49.00845" lon="1.13923">
        <ele>113.2</ele>
        <time>2016-11-11T08:17:21Z</time>
      </trkpt>
      <trkpt lat="49.00834" lon="1.13928">
        <ele>113.2</ele>
        <time>2016-11-11T08:17:24Z</time>
      </trkpt>
      <trkpt lat="49.00824" lon="1.13933">
        <ele>113.1</ele>
        <time>2016-11-11T08:17:27Z</time>
      </trkpt>
      <trkpt lat="49.00815" lon="1.1394">
        <ele>113.1</ele>
        <time>2016-11-11T08:17:31Z</time>
      </trkpt>
      <trkpt lat="49.00807" lon="1.1393">
        <ele>113</ele>
        <time>2016-11-11T08:17:40Z</time>
      </trkpt>
      <trkpt lat="49.00804" lon="1.13915">
        <ele>112.9</ele>
        <time>2016-11-11T08:17:46Z</time>
      </trkpt>
      <trkpt lat="49.00802" lon="1.13901">
        <ele>112.9</ele>
        <time>2016-11-11T08:17:50Z</time>
      </trkpt>
      <trkpt lat="49.00798" lon="1.13888">
        <ele>113.3</ele>
        <time>2016-11-11T08:17:55Z</time>
      </trkpt>
      <trkpt lat="49.00788" lon="1.13882">
        <ele>114.1</ele>
        <time>2016-11-11T08:18:02Z</time>
      </trkpt>
      <trkpt lat="49.00779" lon="1.13884">
        <ele>114.7</ele>
        <time>2016-11-11T08:18:10Z</time>
      </trkpt>
      <trkpt lat="49.0077" lon="1.1388">
        <ele>115.7</ele>
        <time>2016-11-11T08:20:09Z</time>
      </trkpt>
      <trkpt lat="49.00765" lon="1.13894">
        <ele>115.5</ele>
        <time>2016-11-11T08:20:41Z</time>
      </trkpt>
      <trkpt lat="49.00764" lon="1.1391">
        <ele>115</ele>
        <time>2016-11-11T08:20:45Z</time>
      </trkpt>
      <trkpt lat="49.00755" lon="1.13914">
        <ele>114.5</ele>
        <time>2016-11-11T08:20:49Z</time>
      </trkpt>
      <trkpt lat="49.00744" lon="1.13918">
        <ele>114</ele>
        <time>2016-11-11T08:20:53Z</time>
      </trkpt>
      <trkpt lat="49.00734" lon="1.13926">
        <ele>113.7</ele>
        <time>2016-11-11T08:20:57Z</time>
      </trkpt>
      <trkpt lat="49.00725" lon="1.13921">
        <ele>113.4</ele>
        <time>2016-11-11T08:21:02Z</time>
      </trkpt>
      <trkpt lat="49.00721" lon="1.13909">
        <ele>113.2</ele>
        <time>2016-11-11T08:21:06Z</time>
      </trkpt>
      <trkpt lat="49.00712" lon="1.139">
        <ele>113.3</ele>
        <time>2016-11-11T08:21:11Z</time>
      </trkpt>
      <trkpt lat="49.00706" lon="1.13912">
        <ele>113.5</ele>
        <time>2016-11-11T08:21:17Z</time>
      </trkpt>
      <trkpt lat="49.00697" lon="1.13915">
        <ele>113.5</ele>
        <time>2016-11-11T08:21:21Z</time>
      </trkpt>
      <trkpt lat="49.00687" lon="1.13921">
        <ele>113.7</ele>
        <time>2016-11-11T08:21:26Z</time>
      </trkpt>
      <trkpt lat="49.00678" lon="1.13924">
        <ele>114</ele>
        <time>2016-11-11T08:21:31Z</time>
      </trkpt>
      <trkpt lat="49.00667" lon="1.13922">
        <ele>114.2</ele>
        <time>2016-11-11T08:21:35Z</time>
      </trkpt>
      <trkpt lat="49.0066" lon="1.13913">
        <ele>114.3</ele>
        <time>2016-11-11T08:21:39Z</time>
      </trkpt>
      <trkpt lat="49.0065" lon="1.13908">
        <ele>114.4</ele>
        <time>2016-11-11T08:21:43Z</time>
      </trkpt>
      <trkpt lat="49.00638" lon="1.13901">
        <ele>114.5</ele>
        <time>2016-11-11T08:21:47Z</time>
      </trkpt>
      <trkpt lat="49.00627" lon="1.13893">
        <ele>114.6</ele>
        <time>2016-11-11T08:21:51Z</time>
      </trkpt>
      <trkpt lat="49.00618" lon="1.13886">
        <ele>114.7</ele>
        <time>2016-11-11T08:21:54Z</time>
      </trkpt>
      <trkpt lat="49.00608" lon="1.13877">
        <ele>115</ele>
        <time>2016-11-11T08:21:59Z</time>
      </trkpt>
      <trkpt lat="49.00599" lon="1.13871">
        <ele>115.1</ele>
        <time>2016-11-11T08:22:02Z</time>
      </trkpt>
      <trkpt lat="49.00602" lon="1.13854">
        <ele>115.4</ele>
        <time>2016-11-11T08:22:08Z</time>
      </trkpt>
      <trkpt lat="49.00609" lon="1.13841">
        <ele>115.6</ele>
        <time>2016-11-11T08:22:11Z</time>
      </trkpt>
      <trkpt lat="49.00615" lon="1.13829">
        <ele>115.6</ele>
        <time>2016-11-11T08:22:14Z</time>
      </trkpt>
      <trkpt lat="49.00622" lon="1.13817">
        <ele>115.7</ele>
        <time>2016-11-11T08:22:17Z</time>
      </trkpt>
      <trkpt lat="49.00629" lon="1.13801">
        <ele>115.8</ele>
        <time>2016-11-11T08:22:20Z</time>
      </trkpt>
      <trkpt lat="49.00638" lon="1.13786">
        <ele>115.8</ele>
        <time>2016-11-11T08:22:24Z</time>
      </trkpt>
      <trkpt lat="49.00641" lon="1.13769">
        <ele>115.9</ele>
        <time>2016-11-11T08:22:27Z</time>
      </trkpt>
      <trkpt lat="49.0064" lon="1.13754">
        <ele>115.9</ele>
        <time>2016-11-11T08:22:30Z</time>
      </trkpt>
      <trkpt lat="49.00636" lon="1.13736">
        <ele>116</ele>
        <time>2016-11-11T08:22:34Z</time>
      </trkpt>
      <trkpt lat="49.00634" lon="1.13717">
        <ele>116</ele>
        <time>2016-11-11T08:22:38Z</time>
      </trkpt>
      <trkpt lat="49.00631" lon="1.13704">
        <ele>116</ele>
        <time>2016-11-11T08:22:40Z</time>
      </trkpt>
      <trkpt lat="49.00629" lon="1.13687">
        <ele>116</ele>
        <time>2016-11-11T08:22:43Z</time>
      </trkpt>
      <trkpt lat="49.00627" lon="1.13668">
        <ele>116.2</ele>
        <time>2016-11-11T08:22:47Z</time>
      </trkpt>
      <trkpt lat="49.00627" lon="1.1365">
        <ele>116.4</ele>
        <time>2016-11-11T08:22:50Z</time>
      </trkpt>
      <trkpt lat="49.00627" lon="1.13635">
        <ele>116.6</ele>
        <time>2016-11-11T08:22:53Z</time>
      </trkpt>
      <trkpt lat="49.00626" lon="1.13617">
        <ele>116.8</ele>
        <time>2016-11-11T08:22:56Z</time>
      </trkpt>
      <trkpt lat="49.00627" lon="1.136">
        <ele>117</ele>
        <time>2016-11-11T08:22:59Z</time>
      </trkpt>
      <trkpt lat="49.00629" lon="1.13587">
        <ele>117.4</ele>
        <time>2016-11-11T08:23:03Z</time>
      </trkpt>
      <trkpt lat="49.00638" lon="1.1358">
        <ele>117.8</ele>
        <time>2016-11-11T08:23:07Z</time>
      </trkpt>
      <trkpt lat="49.00645" lon="1.13569">
        <ele>118.1</ele>
        <time>2016-11-11T08:23:12Z</time>
      </trkpt>
      <trkpt lat="49.00654" lon="1.13568">
        <ele>118.4</ele>
        <time>2016-11-11T08:23:17Z</time>
      </trkpt>
      <trkpt lat="49.00666" lon="1.13561">
        <ele>118.5</ele>
        <time>2016-11-11T08:23:21Z</time>
      </trkpt>
      <trkpt lat="49.00676" lon="1.13554">
        <ele>118.7</ele>
        <time>2016-11-11T08:23:24Z</time>
      </trkpt>
      <trkpt lat="49.00686" lon="1.13547">
        <ele>119</ele>
        <time>2016-11-11T08:23:28Z</time>
      </trkpt>
      <trkpt lat="49.00697" lon="1.13543">
        <ele>119.2</ele>
        <time>2016-11-11T08:23:32Z</time>
      </trkpt>
      <trkpt lat="49.00708" lon="1.13536">
        <ele>119.4</ele>
        <time>2016-11-11T08:23:35Z</time>
      </trkpt>
      <trkpt lat="49.00717" lon="1.13529">
        <ele>119.7</ele>
        <time>2016-11-11T08:23:38Z</time>
      </trkpt>
      <trkpt lat="49.00721" lon="1.13517">
        <ele>120.1</ele>
        <time>2016-11-11T08:23:42Z</time>
      </trkpt>
      <trkpt lat="49.00721" lon="1.135">
        <ele>120.6</ele>
        <time>2016-11-11T08:23:47Z</time>
      </trkpt>
      <trkpt lat="49.00718" lon="1.13486">
        <ele>120.9</ele>
        <time>2016-11-11T08:23:50Z</time>
      </trkpt>
      <trkpt lat="49.00716" lon="1.1347">
        <ele>121.1</ele>
        <time>2016-11-11T08:23:53Z</time>
      </trkpt>
      <trkpt lat="49.00714" lon="1.13452">
        <ele>121.4</ele>
        <time>2016-11-11T08:23:56Z</time>
      </trkpt>
      <trkpt lat="49.00709" lon="1.13436">
        <ele>121.6</ele>
        <time>2016-11-11T08:23:59Z</time>
      </trkpt>
      <trkpt lat="49.00705" lon="1.1342">
        <ele>121.9</ele>
        <time>2016-11-11T08:24:02Z</time>
      </trkpt>
      <trkpt lat="49.00701" lon="1.13403">
        <ele>122.1</ele>
        <time>2016-11-11T08:24:05Z</time>
      </trkpt>
      <trkpt lat="49.00698" lon="1.13387">
        <ele>122.4</ele>
        <time>2016-11-11T08:24:08Z</time>
      </trkpt>
      <trkpt lat="49.00694" lon="1.13369">
        <ele>122.6</ele>
        <time>2016-11-11T08:24:11Z</time>
      </trkpt>
      <trkpt lat="49.00693" lon="1.13352">
        <ele>122.8</ele>
        <time>2016-11-11T08:24:14Z</time>
      </trkpt>
      <trkpt lat="49.00688" lon="1.13334">
        <ele>122.9</ele>
        <time>2016-11-11T08:24:17Z</time>
      </trkpt>
      <trkpt lat="49.00682" lon="1.13323">
        <ele>123.1</ele>
        <time>2016-11-11T08:24:20Z</time>
      </trkpt>
      <trkpt lat="49.00673" lon="1.1332">
        <ele>123.2</ele>
        <time>2016-11-11T08:24:23Z</time>
      </trkpt>
      <trkpt lat="49.00661" lon="1.1332">
        <ele>123.3</ele>
        <time>2016-11-11T08:24:26Z</time>
      </trkpt>
      <trkpt lat="49.0065" lon="1.1332">
        <ele>123.3</ele>
        <time>2016-11-11T08:24:29Z</time>
      </trkpt>
      <trkpt lat="49.0064" lon="1.13325">
        <ele>123.2</ele>
        <time>2016-11-11T08:24:32Z</time>
      </trkpt>
      <trkpt lat="49.0063" lon="1.13322">
        <ele>123.1</ele>
        <time>2016-11-11T08:24:35Z</time>
      </trkpt>
      <trkpt lat="49.00619" lon="1.13322">
        <ele>122.8</ele>
        <time>2016-11-11T08:24:38Z</time>
      </trkpt>
      <trkpt lat="49.00608" lon="1.13323">
        <ele>122.6</ele>
        <time>2016-11-11T08:24:41Z</time>
      </trkpt>
      <trkpt lat="49.00599" lon="1.13313">
        <ele>122.2</ele>
        <time>2016-11-11T08:24:46Z</time>
      </trkpt>
      <trkpt lat="49.00599" lon="1.13298">
        <ele>121.8</ele>
        <time>2016-11-11T08:24:51Z</time>
      </trkpt>
      <trkpt lat="49.00602" lon="1.13282">
        <ele>121.6</ele>
        <time>2016-11-11T08:24:55Z</time>
      </trkpt>
      <trkpt lat="49.00602" lon="1.13264">
        <ele>121.5</ele>
        <time>2016-11-11T08:24:58Z</time>
      </trkpt>
      <trkpt lat="49.00603" lon="1.13246">
        <ele>121.4</ele>
        <time>2016-11-11T08:25:01Z</time>
      </trkpt>
      <trkpt lat="49.00605" lon="1.13231">
        <ele>121.3</ele>
        <time>2016-11-11T08:25:04Z</time>
      </trkpt>
      <trkpt lat="49.00604" lon="1.13216">
        <ele>121.2</ele>
        <time>2016-11-11T08:25:08Z</time>
      </trkpt>
      <trkpt lat="49.00603" lon="1.13201">
        <ele>121.2</ele>
        <time>2016-11-11T08:25:12Z</time>
      </trkpt>
      <trkpt lat="49.00607" lon="1.13188">
        <ele>121.2</ele>
        <time>2016-11-11T08:25:16Z</time>
      </trkpt>
      <trkpt lat="49.00612" lon="1.13176">
        <ele>121.4</ele>
        <time>2016-11-11T08:25:20Z</time>
      </trkpt>
      <trkpt lat="49.00617" lon="1.13163">
        <ele>121.6</ele>
        <time>2016-11-11T08:25:23Z</time>
      </trkpt>
      <trkpt lat="49.00622" lon="1.13148">
        <ele>121.7</ele>
        <time>2016-11-11T08:25:26Z</time>
      </trkpt>
      <trkpt lat="49.00624" lon="1.13133">
        <ele>121.8</ele>
        <time>2016-11-11T08:25:29Z</time>
      </trkpt>
      <trkpt lat="49.00621" lon="1.13117">
        <ele>121.9</ele>
        <time>2016-11-11T08:25:32Z</time>
      </trkpt>
      <trkpt lat="49.00619" lon="1.131">
        <ele>122</ele>
        <time>2016-11-11T08:25:35Z</time>
      </trkpt>
      <trkpt lat="49.00616" lon="1.13084">
        <ele>122.1</ele>
        <time>2016-11-11T08:25:38Z</time>
      </trkpt>
      <trkpt lat="49.00613" lon="1.13069">
        <ele>122.1</ele>
        <time>2016-11-11T08:25:40Z</time>
      </trkpt>
      <trkpt lat="49.0061" lon="1.13055">
        <ele>122.2</ele>
        <time>2016-11-11T08:25:42Z</time>
      </trkpt>
      <trkpt lat="49.00607" lon="1.13035">
        <ele>122.2</ele>
        <time>2016-11-11T08:25:45Z</time>
      </trkpt>
      <trkpt lat="49.00603" lon="1.13021">
        <ele>122.2</ele>
        <time>2016-11-11T08:25:47Z</time>
      </trkpt>
      <trkpt lat="49.006" lon="1.13007">
        <ele>122.3</ele>
        <time>2016-11-11T08:25:49Z</time>
      </trkpt>
      <trkpt lat="49.00595" lon="1.12991">
        <ele>122.3</ele>
        <time>2016-11-11T08:25:51Z</time>
      </trkpt>
      <trkpt lat="49.00592" lon="1.12974">
        <ele>122.3</ele>
        <time>2016-11-11T08:25:54Z</time>
      </trkpt>
      <trkpt lat="49.00589" lon="1.12958">
        <ele>122.3</ele>
        <time>2016-11-11T08:25:57Z</time>
      </trkpt>
      <trkpt lat="49.00584" lon="1.12941">
        <ele>122.3</ele>
        <time>2016-11-11T08:26:00Z</time>
      </trkpt>
      <trkpt lat="49.00583" lon="1.12923">
        <ele>122.4</ele>
        <time>2016-11-11T08:26:03Z</time>
      </trkpt>
      <trkpt lat="49.00578" lon="1.12909">
        <ele>122.4</ele>
        <time>2016-11-11T08:26:06Z</time>
      </trkpt>
      <trkpt lat="49.00576" lon="1.12895">
        <ele>122.4</ele>
        <time>2016-11-11T08:26:09Z</time>
      </trkpt>
      <trkpt lat="49.00573" lon="1.12876">
        <ele>122.3</ele>
        <time>2016-11-11T08:26:12Z</time>
      </trkpt>
      <trkpt lat="49.0057" lon="1.12855">
        <ele>122.3</ele>
        <time>2016-11-11T08:26:15Z</time>
      </trkpt>
      <trkpt lat="49.00566" lon="1.1284">
        <ele>122.3</ele>
        <time>2016-11-11T08:26:18Z</time>
      </trkpt>
      <trkpt lat="49.00556" lon="1.12839">
        <ele>122.3</ele>
        <time>2016-11-11T08:26:21Z</time>
      </trkpt>
      <trkpt lat="49.00546" lon="1.1284">
        <ele>122.3</ele>
        <time>2016-11-11T08:26:24Z</time>
      </trkpt>
      <trkpt lat="49.00537" lon="1.12839">
        <ele>122.3</ele>
        <time>2016-11-11T08:26:27Z</time>
      </trkpt>
      <trkpt lat="49.00524" lon="1.12841">
        <ele>122.3</ele>
        <time>2016-11-11T08:26:30Z</time>
      </trkpt>
      <trkpt lat="49.00513" lon="1.12846">
        <ele>122.3</ele>
        <time>2016-11-11T08:26:33Z</time>
      </trkpt>
      <trkpt lat="49.00503" lon="1.1285">
        <ele>122.3</ele>
        <time>2016-11-11T08:26:36Z</time>
      </trkpt>
      <trkpt lat="49.00492" lon="1.12853">
        <ele>122.3</ele>
        <time>2016-11-11T08:26:40Z</time>
      </trkpt>
      <trkpt lat="49.00481" lon="1.12856">
        <ele>122.3</ele>
        <time>2016-11-11T08:26:44Z</time>
      </trkpt>
      <trkpt lat="49.00469" lon="1.12855">
        <ele>122.3</ele>
        <time>2016-11-11T08:26:47Z</time>
      </trkpt>
      <trkpt lat="49.00455" lon="1.12856">
        <ele>122.3</ele>
        <time>2016-11-11T08:26:50Z</time>
      </trkpt>
      <trkpt lat="49.00444" lon="1.12854">
        <ele>122.3</ele>
        <time>2016-11-11T08:26:52Z</time>
      </trkpt>
      <trkpt lat="49.00434" lon="1.12854">
        <ele>122.3</ele>
        <time>2016-11-11T08:26:54Z</time>
      </trkpt>
      <trkpt lat="49.00421" lon="1.12854">
        <ele>122.3</ele>
        <time>2016-11-11T08:26:57Z</time>
      </trkpt>
      <trkpt lat="49.00408" lon="1.12855">
        <ele>122.3</ele>
        <time>2016-11-11T08:27:00Z</time>
      </trkpt>
      <trkpt lat="49.00397" lon="1.12853">
        <ele>122.3</ele>
        <time>2016-11-11T08:27:02Z</time>
      </trkpt>
      <trkpt lat="49.00385" lon="1.1285">
        <ele>122.3</ele>
        <time>2016-11-11T08:27:04Z</time>
      </trkpt>
      <trkpt lat="49.00374" lon="1.12853">
        <ele>122.3</ele>
        <time>2016-11-11T08:27:06Z</time>
      </trkpt>
      <trkpt lat="49.00364" lon="1.12851">
        <ele>122.3</ele>
        <time>2016-11-11T08:27:08Z</time>
      </trkpt>
      <trkpt lat="49.00352" lon="1.12851">
        <ele>122.3</ele>
        <time>2016-11-11T08:27:11Z</time>
      </trkpt>
      <trkpt lat="49.00338" lon="1.1285">
        <ele>122.3</ele>
        <time>2016-11-11T08:27:14Z</time>
      </trkpt>
      <trkpt lat="49.00327" lon="1.12851">
        <ele>122.3</ele>
        <time>2016-11-11T08:27:16Z</time>
      </trkpt>
      <trkpt lat="49.00316" lon="1.1285">
        <ele>122.3</ele>
        <time>2016-11-11T08:27:18Z</time>
      </trkpt>
      <trkpt lat="49.00305" lon="1.12849">
        <ele>122.3</ele>
        <time>2016-11-11T08:27:20Z</time>
      </trkpt>
      <trkpt lat="49.00295" lon="1.12848">
        <ele>122.4</ele>
        <time>2016-11-11T08:27:22Z</time>
      </trkpt>
      <trkpt lat="49.00285" lon="1.12847">
        <ele>122.6</ele>
        <time>2016-11-11T08:27:24Z</time>
      </trkpt>
      <trkpt lat="49.00276" lon="1.12846">
        <ele>122.7</ele>
        <time>2016-11-11T08:27:26Z</time>
      </trkpt>
      <trkpt lat="49.00267" lon="1.12851">
        <ele>123</ele>
        <time>2016-11-11T08:27:29Z</time>
      </trkpt>
      <trkpt lat="49.00257" lon="1.12854">
        <ele>123.6</ele>
        <time>2016-11-11T08:27:33Z</time>
      </trkpt>
      <trkpt lat="49.00254" lon="1.12841">
        <ele>124.4</ele>
        <time>2016-11-11T08:27:39Z</time>
      </trkpt>
      <trkpt lat="49.00257" lon="1.12825">
        <ele>125.2</ele>
        <time>2016-11-11T08:27:47Z</time>
      </trkpt>
      <trkpt lat="49.00257" lon="1.12807">
        <ele>125.4</ele>
        <time>2016-11-11T08:27:51Z</time>
      </trkpt>
      <trkpt lat="49.00259" lon="1.1279">
        <ele>125.6</ele>
        <time>2016-11-11T08:27:54Z</time>
      </trkpt>
      <trkpt lat="49.00261" lon="1.12771">
        <ele>125.7</ele>
        <time>2016-11-11T08:27:57Z</time>
      </trkpt>
      <trkpt lat="49.00262" lon="1.12753">
        <ele>125.7</ele>
        <time>2016-11-11T08:28:00Z</time>
      </trkpt>
      <trkpt lat="49.00265" lon="1.12739">
        <ele>125.6</ele>
        <time>2016-11-11T08:28:02Z</time>
      </trkpt>
      <trkpt lat="49.0027" lon="1.12727">
        <ele>125.5</ele>
        <time>2016-11-11T08:28:04Z</time>
      </trkpt>
      <trkpt lat="49.00274" lon="1.12715">
        <ele>125.4</ele>
        <time>2016-11-11T08:28:06Z</time>
      </trkpt>
      <trkpt lat="49.00279" lon="1.12699">
        <ele>125.1</ele>
        <time>2016-11-11T08:28:09Z</time>
      </trkpt>
      <trkpt lat="49.00282" lon="1.12684">
        <ele>124.9</ele>
        <time>2016-11-11T08:28:12Z</time>
      </trkpt>
      <trkpt lat="49.0029" lon="1.12672">
        <ele>124.7</ele>
        <time>2016-11-11T08:28:15Z</time>
      </trkpt>
      <trkpt lat="49.00298" lon="1.12663">
        <ele>124.6</ele>
        <time>2016-11-11T08:28:17Z</time>
      </trkpt>
      <trkpt lat="49.00306" lon="1.12656">
        <ele>124.4</ele>
        <time>2016-11-11T08:28:20Z</time>
      </trkpt>
      <trkpt lat="49.00318" lon="1.12651">
        <ele>124.3</ele>
        <time>2016-11-11T08:28:23Z</time>
      </trkpt>
      <trkpt lat="49.00332" lon="1.12646">
        <ele>124.2</ele>
        <time>2016-11-11T08:28:26Z</time>
      </trkpt>
      <trkpt lat="49.00341" lon="1.12644">
        <ele>124.1</ele>
        <time>2016-11-11T08:28:28Z</time>
      </trkpt>
      <trkpt lat="49.00352" lon="1.12643">
        <ele>124</ele>
        <time>2016-11-11T08:28:31Z</time>
      </trkpt>
      <trkpt lat="49.00361" lon="1.12649">
        <ele>124</ele>
        <time>2016-11-11T08:28:33Z</time>
      </trkpt>
      <trkpt lat="49.00375" lon="1.12653">
        <ele>123.8</ele>
        <time>2016-11-11T08:28:36Z</time>
      </trkpt>
      <trkpt lat="49.00383" lon="1.12647">
        <ele>123.7</ele>
        <time>2016-11-11T08:28:39Z</time>
      </trkpt>
      <trkpt lat="49.00394" lon="1.12642">
        <ele>123.6</ele>
        <time>2016-11-11T08:28:42Z</time>
      </trkpt>
      <trkpt lat="49.00403" lon="1.12641">
        <ele>123.4</ele>
        <time>2016-11-11T08:28:46Z</time>
      </trkpt>
      <trkpt lat="49.00413" lon="1.12638">
        <ele>123.3</ele>
        <time>2016-11-11T08:28:50Z</time>
      </trkpt>
      <trkpt lat="49.00421" lon="1.12634">
        <ele>123.2</ele>
        <time>2016-11-11T08:28:54Z</time>
      </trkpt>
      <trkpt lat="49.00431" lon="1.12628">
        <ele>123.1</ele>
        <time>2016-11-11T08:28:59Z</time>
      </trkpt>
      <trkpt lat="49.00439" lon="1.12638">
        <ele>122.9</ele>
        <time>2016-11-11T08:29:39Z</time>
      </trkpt>
      <trkpt lat="49.00447" lon="1.12645">
        <ele>122.9</ele>
        <time>2016-11-11T08:29:42Z</time>
      </trkpt>
      <trkpt lat="49.00458" lon="1.12647">
        <ele>122.9</ele>
        <time>2016-11-11T08:29:45Z</time>
      </trkpt>
      <trkpt lat="49.00468" lon="1.12657">
        <ele>122.9</ele>
        <time>2016-11-11T08:29:48Z</time>
      </trkpt>
      <trkpt lat="49.00477" lon="1.1267">
        <ele>122.9</ele>
        <time>2016-11-11T08:29:51Z</time>
      </trkpt>
      <trkpt lat="49.00484" lon="1.12685">
        <ele>122.8</ele>
        <time>2016-11-11T08:29:54Z</time>
      </trkpt>
      <trkpt lat="49.00485" lon="1.12699">
        <ele>122.7</ele>
        <time>2016-11-11T08:29:59Z</time>
      </trkpt>
      <trkpt lat="49.0048" lon="1.12714">
        <ele>122.6</ele>
        <time>2016-11-11T08:30:04Z</time>
      </trkpt>
      <trkpt lat="49.00485" lon="1.12728">
        <ele>122.3</ele>
        <time>2016-11-11T08:30:08Z</time>
      </trkpt>
      <trkpt lat="49.00493" lon="1.12734">
        <ele>122.1</ele>
        <time>2016-11-11T08:30:13Z</time>
      </trkpt>
      <trkpt lat="49.00501" lon="1.1274">
        <ele>122</ele>
        <time>2016-11-11T08:30:19Z</time>
      </trkpt>
      <trkpt lat="49.00509" lon="1.12749">
        <ele>121.9</ele>
        <time>2016-11-11T08:30:22Z</time>
      </trkpt>
      <trkpt lat="49.00519" lon="1.1275">
        <ele>121.8</ele>
        <time>2016-11-11T08:30:30Z</time>
      </trkpt>
      <trkpt lat="49.00527" lon="1.12741">
        <ele>121.7</ele>
        <time>2016-11-11T08:30:36Z</time>
      </trkpt>
      <trkpt lat="49.00535" lon="1.12732">
        <ele>121.6</ele>
        <time>2016-11-11T08:30:40Z</time>
      </trkpt>
      <trkpt lat="49.00543" lon="1.12721">
        <ele>121.5</ele>
        <time>2016-11-11T08:30:44Z</time>
      </trkpt>
      <trkpt lat="49.00548" lon="1.12709">
        <ele>121.4</ele>
        <time>2016-11-11T08:30:47Z</time>
      </trkpt>
      <trkpt lat="49.00557" lon="1.12696">
        <ele>121.4</ele>
        <time>2016-11-11T08:30:50Z</time>
      </trkpt>
      <trkpt lat="49.00561" lon="1.1268">
        <ele>121.4</ele>
        <time>2016-11-11T08:30:54Z</time>
      </trkpt>
      <trkpt lat="49.00567" lon="1.12665">
        <ele>121.6</ele>
        <time>2016-11-11T08:30:59Z</time>
      </trkpt>
      <trkpt lat="49.00572" lon="1.12654">
        <ele>121.6</ele>
        <time>2016-11-11T08:31:03Z</time>
      </trkpt>
      <trkpt lat="49.00579" lon="1.12643">
        <ele>121.7</ele>
        <time>2016-11-11T08:31:06Z</time>
      </trkpt>
      <trkpt lat="49.00583" lon="1.12629">
        <ele>121.9</ele>
        <time>2016-11-11T08:31:09Z</time>
      </trkpt>
      <trkpt lat="49.00591" lon="1.1262">
        <ele>122</ele>
        <time>2016-11-11T08:31:11Z</time>
      </trkpt>
      <trkpt lat="49.00597" lon="1.12609">
        <ele>122.1</ele>
        <time>2016-11-11T08:31:15Z</time>
      </trkpt>
      <trkpt lat="49.00604" lon="1.12597">
        <ele>122.3</ele>
        <time>2016-11-11T08:31:20Z</time>
      </trkpt>
      <trkpt lat="49.0061" lon="1.12583">
        <ele>122.3</ele>
        <time>2016-11-11T08:31:23Z</time>
      </trkpt>
      <trkpt lat="49.00612" lon="1.12568">
        <ele>122.4</ele>
        <time>2016-11-11T08:31:27Z</time>
      </trkpt>
      <trkpt lat="49.00617" lon="1.12555">
        <ele>122.4</ele>
        <time>2016-11-11T08:31:31Z</time>
      </trkpt>
      <trkpt lat="49.00616" lon="1.12537">
        <ele>122.5</ele>
        <time>2016-11-11T08:31:37Z</time>
      </trkpt>
      <trkpt lat="49.0061" lon="1.12524">
        <ele>122.5</ele>
        <time>2016-11-11T08:31:44Z</time>
      </trkpt>
      <trkpt lat="49.00607" lon="1.12507">
        <ele>122.5</ele>
        <time>2016-11-11T08:31:50Z</time>
      </trkpt>
      <trkpt lat="49.00608" lon="1.12493">
        <ele>122.6</ele>
        <time>2016-11-11T08:31:54Z</time>
      </trkpt>
      <trkpt lat="49.00608" lon="1.12479">
        <ele>122.6</ele>
        <time>2016-11-11T08:31:57Z</time>
      </trkpt>
      <trkpt lat="49.00609" lon="1.12465">
        <ele>122.6</ele>
        <time>2016-11-11T08:32:00Z</time>
      </trkpt>
      <trkpt lat="49.00609" lon="1.12451">
        <ele>122.6</ele>
        <time>2016-11-11T08:32:03Z</time>
      </trkpt>
      <trkpt lat="49.00607" lon="1.12435">
        <ele>122.6</ele>
        <time>2016-11-11T08:32:06Z</time>
      </trkpt>
      <trkpt lat="49.00612" lon="1.1242">
        <ele>122.6</ele>
        <time>2016-11-11T08:32:10Z</time>
      </trkpt>
      <trkpt lat="49.00615" lon="1.12403">
        <ele>122.6</ele>
        <time>2016-11-11T08:32:15Z</time>
      </trkpt>
      <trkpt lat="49.00611" lon="1.12387">
        <ele>122.6</ele>
        <time>2016-11-11T08:32:18Z</time>
      </trkpt>
      <trkpt lat="49.00608" lon="1.1237">
        <ele>122.6</ele>
        <time>2016-11-11T08:32:21Z</time>
      </trkpt>
      <trkpt lat="49.00604" lon="1.12349">
        <ele>122.5</ele>
        <time>2016-11-11T08:32:24Z</time>
      </trkpt>
      <trkpt lat="49.00601" lon="1.12335">
        <ele>122.5</ele>
        <time>2016-11-11T08:32:26Z</time>
      </trkpt>
      <trkpt lat="49.00597" lon="1.12321">
        <ele>122.5</ele>
        <time>2016-11-11T08:32:28Z</time>
      </trkpt>
      <trkpt lat="49.00594" lon="1.12308">
        <ele>122.5</ele>
        <time>2016-11-11T08:32:30Z</time>
      </trkpt>
      <trkpt lat="49.0059" lon="1.12295">
        <ele>122.5</ele>
        <time>2016-11-11T08:32:32Z</time>
      </trkpt>
      <trkpt lat="49.00584" lon="1.12279">
        <ele>122.4</ele>
        <time>2016-11-11T08:32:35Z</time>
      </trkpt>
      <trkpt lat="49.00578" lon="1.12264">
        <ele>122.4</ele>
        <time>2016-11-11T08:32:38Z</time>
      </trkpt>
      <trkpt lat="49.00568" lon="1.1225">
        <ele>122</ele>
        <time>2016-11-11T08:32:41Z</time>
      </trkpt>
      <trkpt lat="49.00561" lon="1.12242">
        <ele>121.7</ele>
        <time>2016-11-11T08:32:43Z</time>
      </trkpt>
      <trkpt lat="49.00552" lon="1.12235">
        <ele>121.4</ele>
        <time>2016-11-11T08:32:45Z</time>
      </trkpt>
      <trkpt lat="49.00552" lon="1.12219">
        <ele>120.7</ele>
        <time>2016-11-11T08:32:51Z</time>
      </trkpt>
      <trkpt lat="49.00554" lon="1.12204">
        <ele>120.4</ele>
        <time>2016-11-11T08:32:55Z</time>
      </trkpt>
      <trkpt lat="49.0056" lon="1.12192">
        <ele>120.1</ele>
        <time>2016-11-11T08:32:59Z</time>
      </trkpt>
      <trkpt lat="49.0057" lon="1.12186">
        <ele>119.9</ele>
        <time>2016-11-11T08:33:03Z</time>
      </trkpt>
      <trkpt lat="49.0058" lon="1.12186">
        <ele>119.8</ele>
        <time>2016-11-11T08:33:07Z</time>
      </trkpt>
      <trkpt lat="49.00589" lon="1.12176">
        <ele>119.6</ele>
        <time>2016-11-11T08:33:12Z</time>
      </trkpt>
      <trkpt lat="49.00596" lon="1.12163">
        <ele>119.7</ele>
        <time>2016-11-11T08:33:16Z</time>
      </trkpt>
      <trkpt lat="49.00603" lon="1.1215">
        <ele>119.7</ele>
        <time>2016-11-11T08:33:19Z</time>
      </trkpt>
      <trkpt lat="49.00608" lon="1.12139">
        <ele>119.7</ele>
        <time>2016-11-11T08:33:22Z</time>
      </trkpt>
      <trkpt lat="49.00612" lon="1.12125">
        <ele>119.7</ele>
        <time>2016-11-11T08:33:26Z</time>
      </trkpt>
      <trkpt lat="49.00618" lon="1.1211">
        <ele>119.8</ele>
        <time>2016-11-11T08:33:29Z</time>
      </trkpt>
      <trkpt lat="49.00627" lon="1.12105">
        <ele>119.8</ele>
        <time>2016-11-11T08:33:33Z</time>
      </trkpt>
      <trkpt lat="49.00635" lon="1.12114">
        <ele>119.9</ele>
        <time>2016-11-11T08:33:38Z</time>
      </trkpt>
      <trkpt lat="49.00646" lon="1.12119">
        <ele>119.9</ele>
        <time>2016-11-11T08:33:43Z</time>
      </trkpt>
      <trkpt lat="49.00656" lon="1.12124">
        <ele>119.9</ele>
        <time>2016-11-11T08:33:47Z</time>
      </trkpt>
      <trkpt lat="49.00666" lon="1.1212">
        <ele>120</ele>
        <time>2016-11-11T08:33:52Z</time>
      </trkpt>
      <trkpt lat="49.00678" lon="1.12122">
        <ele>120</ele>
        <time>2016-11-11T08:33:57Z</time>
      </trkpt>
      <trkpt lat="49.00687" lon="1.12116">
        <ele>119.9</ele>
        <time>2016-11-11T08:34:01Z</time>
      </trkpt>
      <trkpt lat="49.00695" lon="1.12104">
        <ele>119.9</ele>
        <time>2016-11-11T08:34:05Z</time>
      </trkpt>
      <trkpt lat="49.00705" lon="1.12097">
        <ele>120</ele>
        <time>2016-11-11T08:34:08Z</time>
      </trkpt>
      <trkpt lat="49.00714" lon="1.12093">
        <ele>120.2</ele>
        <time>2016-11-11T08:34:15Z</time>
      </trkpt>
      <trkpt lat="49.00715" lon="1.12076">
        <ele>120.5</ele>
        <time>2016-11-11T08:34:20Z</time>
      </trkpt>
      <trkpt lat="49.00716" lon="1.12057">
        <ele>120.6</ele>
        <time>2016-11-11T08:34:24Z</time>
      </trkpt>
      <trkpt lat="49.00714" lon="1.1204">
        <ele>120.7</ele>
        <time>2016-11-11T08:34:27Z</time>
      </trkpt>
      <trkpt lat="49.00713" lon="1.12024">
        <ele>120.8</ele>
        <time>2016-11-11T08:34:30Z</time>
      </trkpt>
      <trkpt lat="49.0071" lon="1.12007">
        <ele>120.9</ele>
        <time>2016-11-11T08:34:33Z</time>
      </trkpt>
      <trkpt lat="49.00707" lon="1.1199">
        <ele>121</ele>
        <time>2016-11-11T08:34:36Z</time>
      </trkpt>
      <trkpt lat="49.00702" lon="1.11972">
        <ele>121.1</ele>
        <time>2016-11-11T08:34:39Z</time>
      </trkpt>
      <trkpt lat="49.007" lon="1.11955">
        <ele>121.2</ele>
        <time>2016-11-11T08:34:42Z</time>
      </trkpt>
      <trkpt lat="49.00696" lon="1.11938">
        <ele>121.3</ele>
        <time>2016-11-11T08:34:45Z</time>
      </trkpt>
      <trkpt lat="49.00691" lon="1.11919">
        <ele>121.4</ele>
        <time>2016-11-11T08:34:48Z</time>
      </trkpt>
      <trkpt lat="49.00686" lon="1.11902">
        <ele>121.5</ele>
        <time>2016-11-11T08:34:51Z</time>
      </trkpt>
      <trkpt lat="49.00682" lon="1.11883">
        <ele>121.6</ele>
        <time>2016-11-11T08:34:54Z</time>
      </trkpt>
      <trkpt lat="49.00678" lon="1.11869">
        <ele>121.7</ele>
        <time>2016-11-11T08:34:56Z</time>
      </trkpt>
      <trkpt lat="49.00674" lon="1.11856">
        <ele>121.7</ele>
        <time>2016-11-11T08:34:58Z</time>
      </trkpt>
      <trkpt lat="49.0067" lon="1.11838">
        <ele>121.8</ele>
        <time>2016-11-11T08:35:01Z</time>
      </trkpt>
      <trkpt lat="49.00667" lon="1.11819">
        <ele>121.7</ele>
        <time>2016-11-11T08:35:04Z</time>
      </trkpt>
      <trkpt lat="49.00662" lon="1.11805">
        <ele>121.7</ele>
        <time>2016-11-11T08:35:06Z</time>
      </trkpt>
      <trkpt lat="49.00659" lon="1.11792">
        <ele>121.6</ele>
        <time>2016-11-11T08:35:08Z</time>
      </trkpt>
      <trkpt lat="49.00655" lon="1.11778">
        <ele>121.6</ele>
        <time>2016-11-11T08:35:10Z</time>
      </trkpt>
      <trkpt lat="49.00651" lon="1.11766">
        <ele>121.5</ele>
        <time>2016-11-11T08:35:12Z</time>
      </trkpt>
      <trkpt lat="49.00647" lon="1.11748">
        <ele>121.4</ele>
        <time>2016-11-11T08:35:15Z</time>
      </trkpt>
      <trkpt lat="49.00642" lon="1.11735">
        <ele>121.4</ele>
        <time>2016-11-11T08:35:17Z</time>
      </trkpt>
      <trkpt lat="49.00637" lon="1.11718">
        <ele>121.2</ele>
        <time>2016-11-11T08:35:20Z</time>
      </trkpt>
      <trkpt lat="49.00633" lon="1.11704">
        <ele>121</ele>
        <time>2016-11-11T08:35:23Z</time>
      </trkpt>
      <trkpt lat="49.00628" lon="1.11688">
        <ele>120.6</ele>
        <time>2016-11-11T08:35:27Z</time>
      </trkpt>
      <trkpt lat="49.00626" lon="1.11672">
        <ele>119.8</ele>
        <time>2016-11-11T08:35:31Z</time>
      </trkpt>
      <trkpt lat="49.00621" lon="1.11656">
        <ele>118.7</ele>
        <time>2016-11-11T08:35:35Z</time>
      </trkpt>
      <trkpt lat="49.00618" lon="1.11642">
        <ele>117.5</ele>
        <time>2016-11-11T08:35:38Z</time>
      </trkpt>
      <trkpt lat="49.00614" lon="1.11628">
        <ele>116</ele>
        <time>2016-11-11T08:35:41Z</time>
      </trkpt>
      <trkpt lat="49.00605" lon="1.1162">
        <ele>114.5</ele>
        <time>2016-11-11T08:35:44Z</time>
      </trkpt>
      <trkpt lat="49.00594" lon="1.11617">
        <ele>112.6</ele>
        <time>2016-11-11T08:35:49Z</time>
      </trkpt>
      <trkpt lat="49.00585" lon="1.11613">
        <ele>112</ele>
        <time>2016-11-11T08:35:52Z</time>
      </trkpt>
      <trkpt lat="49.00575" lon="1.11607">
        <ele>111.3</ele>
        <time>2016-11-11T08:35:57Z</time>
      </trkpt>
      <trkpt lat="49.00565" lon="1.11603">
        <ele>111.2</ele>
        <time>2016-11-11T08:36:01Z</time>
      </trkpt>
      <trkpt lat="49.00554" lon="1.11599">
        <ele>111.6</ele>
        <time>2016-11-11T08:36:06Z</time>
      </trkpt>
      <trkpt lat="49.00543" lon="1.11595">
        <ele>112</ele>
        <time>2016-11-11T08:36:11Z</time>
      </trkpt>
      <trkpt lat="49.00534" lon="1.116">
        <ele>112.7</ele>
        <time>2016-11-11T08:36:16Z</time>
      </trkpt>
      <trkpt lat="49.0053" lon="1.11614">
        <ele>113.4</ele>
        <time>2016-11-11T08:36:22Z</time>
      </trkpt>
      <trkpt lat="49.00527" lon="1.11629">
        <ele>114</ele>
        <time>2016-11-11T08:36:27Z</time>
      </trkpt>
      <trkpt lat="49.00526" lon="1.11642">
        <ele>114.5</ele>
        <time>2016-11-11T08:36:31Z</time>
      </trkpt>
      <trkpt lat="49.00524" lon="1.11658">
        <ele>115</ele>
        <time>2016-11-11T08:36:35Z</time>
      </trkpt>
      <trkpt lat="49.00521" lon="1.11672">
        <ele>115.4</ele>
        <time>2016-11-11T08:36:39Z</time>
      </trkpt>
      <trkpt lat="49.00518" lon="1.11687">
        <ele>115.8</ele>
        <time>2016-11-11T08:36:43Z</time>
      </trkpt>
      <trkpt lat="49.00517" lon="1.11705">
        <ele>116.1</ele>
        <time>2016-11-11T08:36:47Z</time>
      </trkpt>
      <trkpt lat="49.00515" lon="1.11723">
        <ele>116.3</ele>
        <time>2016-11-11T08:36:51Z</time>
      </trkpt>
      <trkpt lat="49.00513" lon="1.11738">
        <ele>116.7</ele>
        <time>2016-11-11T08:36:54Z</time>
      </trkpt>
      <trkpt lat="49.00512" lon="1.11756">
        <ele>117.1</ele>
        <time>2016-11-11T08:36:58Z</time>
      </trkpt>
      <trkpt lat="49.00511" lon="1.11772">
        <ele>117.4</ele>
        <time>2016-11-11T08:37:02Z</time>
      </trkpt>
      <trkpt lat="49.00506" lon="1.11787">
        <ele>117.8</ele>
        <time>2016-11-11T08:37:06Z</time>
      </trkpt>
      <trkpt lat="49.00507" lon="1.11804">
        <ele>118.1</ele>
        <time>2016-11-11T08:37:10Z</time>
      </trkpt>
      <trkpt lat="49.005" lon="1.11815">
        <ele>118.5</ele>
        <time>2016-11-11T08:37:15Z</time>
      </trkpt>
      <trkpt lat="49.00489" lon="1.11812">
        <ele>118.7</ele>
        <time>2016-11-11T08:37:19Z</time>
      </trkpt>
      <trkpt lat="49.0048" lon="1.1181">
        <ele>118.5</ele>
        <time>2016-11-11T08:37:24Z</time>
      </trkpt>
      <trkpt lat="49.00474" lon="1.11799">
        <ele>117.9</ele>
        <time>2016-11-11T08:37:28Z</time>
      </trkpt>
      <trkpt lat="49.00466" lon="1.11787">
        <ele>116.9</ele>
        <time>2016-11-11T08:37:33Z</time>
      </trkpt>
      <trkpt lat="49.00456" lon="1.11783">
        <ele>115.9</ele>
        <time>2016-11-11T08:37:37Z</time>
      </trkpt>
      <trkpt lat="49.00446" lon="1.11788">
        <ele>114.5</ele>
        <time>2016-11-11T08:37:41Z</time>
      </trkpt>
      <trkpt lat="49.00438" lon="1.11796">
        <ele>113.1</ele>
        <time>2016-11-11T08:37:45Z</time>
      </trkpt>
      <trkpt lat="49.00432" lon="1.11811">
        <ele>111.9</ele>
        <time>2016-11-11T08:37:49Z</time>
      </trkpt>
      <trkpt lat="49.00424" lon="1.11821">
        <ele>111</ele>
        <time>2016-11-11T08:37:53Z</time>
      </trkpt>
      <trkpt lat="49.00418" lon="1.11834">
        <ele>110.3</ele>
        <time>2016-11-11T08:37:56Z</time>
      </trkpt>
      <trkpt lat="49.00412" lon="1.11845">
        <ele>109.7</ele>
        <time>2016-11-11T08:37:59Z</time>
      </trkpt>
      <trkpt lat="49.00407" lon="1.11858">
        <ele>109.2</ele>
        <time>2016-11-11T08:38:02Z</time>
      </trkpt>
      <trkpt lat="49.00396" lon="1.11865">
        <ele>108.5</ele>
        <time>2016-11-11T08:38:06Z</time>
      </trkpt>
      <trkpt lat="49.00384" lon="1.11878">
        <ele>107.9</ele>
        <time>2016-11-11T08:38:09Z</time>
      </trkpt>
      <trkpt lat="49.00376" lon="1.11887">
        <ele>107.6</ele>
        <time>2016-11-11T08:38:11Z</time>
      </trkpt>
      <trkpt lat="49.00368" lon="1.11901">
        <ele>107</ele>
        <time>2016-11-11T08:38:15Z</time>
      </trkpt>
      <trkpt lat="49.00367" lon="1.11916">
        <ele>106.9</ele>
        <time>2016-11-11T08:38:19Z</time>
      </trkpt>
      <trkpt lat="49.0036" lon="1.11928">
        <ele>107</ele>
        <time>2016-11-11T08:38:22Z</time>
      </trkpt>
      <trkpt lat="49.00355" lon="1.11942">
        <ele>107.2</ele>
        <time>2016-11-11T08:38:25Z</time>
      </trkpt>
      <trkpt lat="49.0035" lon="1.11954">
        <ele>107.4</ele>
        <time>2016-11-11T08:38:28Z</time>
      </trkpt>
      <trkpt lat="49.00343" lon="1.1197">
        <ele>107.6</ele>
        <time>2016-11-11T08:38:32Z</time>
      </trkpt>
      <trkpt lat="49.00337" lon="1.11985">
        <ele>107.7</ele>
        <time>2016-11-11T08:38:36Z</time>
      </trkpt>
      <trkpt lat="49.00331" lon="1.12002">
        <ele>107.6</ele>
        <time>2016-11-11T08:38:39Z</time>
      </trkpt>
      <trkpt lat="49.00322" lon="1.12009">
        <ele>107.4</ele>
        <time>2016-11-11T08:38:42Z</time>
      </trkpt>
      <trkpt lat="49.00313" lon="1.12014">
        <ele>107.2</ele>
        <time>2016-11-11T08:38:47Z</time>
      </trkpt>
      <trkpt lat="49.00304" lon="1.1202">
        <ele>106.7</ele>
        <time>2016-11-11T08:38:50Z</time>
      </trkpt>
      <trkpt lat="49.00293" lon="1.12028">
        <ele>105.5</ele>
        <time>2016-11-11T08:38:54Z</time>
      </trkpt>
      <trkpt lat="49.00284" lon="1.12036">
        <ele>104.2</ele>
        <time>2016-11-11T08:38:58Z</time>
      </trkpt>
      <trkpt lat="49.00277" lon="1.12052">
        <ele>103</ele>
        <time>2016-11-11T08:39:01Z</time>
      </trkpt>
      <trkpt lat="49.00269" lon="1.1206">
        <ele>101.7</ele>
        <time>2016-11-11T08:39:04Z</time>
      </trkpt>
      <trkpt lat="49.0026" lon="1.12067">
        <ele>100.3</ele>
        <time>2016-11-11T08:39:08Z</time>
      </trkpt>
      <trkpt lat="49.00251" lon="1.12077">
        <ele>98.8</ele>
        <time>2016-11-11T08:39:13Z</time>
      </trkpt>
      <trkpt lat="49.00244" lon="1.12093">
        <ele>97.9</ele>
        <time>2016-11-11T08:39:16Z</time>
      </trkpt>
      <trkpt lat="49.00242" lon="1.12109">
        <ele>96.7</ele>
        <time>2016-11-11T08:39:21Z</time>
      </trkpt>
      <trkpt lat="49.00244" lon="1.12125">
        <ele>96</ele>
        <time>2016-11-11T08:39:25Z</time>
      </trkpt>
      <trkpt lat="49.00249" lon="1.12139">
        <ele>95.5</ele>
        <time>2016-11-11T08:39:30Z</time>
      </trkpt>
      <trkpt lat="49.00255" lon="1.1215">
        <ele>95.4</ele>
        <time>2016-11-11T08:39:36Z</time>
      </trkpt>
      <trkpt lat="49.00264" lon="1.12156">
        <ele>96</ele>
        <time>2016-11-11T08:39:42Z</time>
      </trkpt>
      <trkpt lat="49.00273" lon="1.12164">
        <ele>96.6</ele>
        <time>2016-11-11T08:39:47Z</time>
      </trkpt>
      <trkpt lat="49.00282" lon="1.12169">
        <ele>97.3</ele>
        <time>2016-11-11T08:39:51Z</time>
      </trkpt>
      <trkpt lat="49.0029" lon="1.12177">
        <ele>98.1</ele>
        <time>2016-11-11T08:39:55Z</time>
      </trkpt>
      <trkpt lat="49.00299" lon="1.12183">
        <ele>98.9</ele>
        <time>2016-11-11T08:39:59Z</time>
      </trkpt>
      <trkpt lat="49.00309" lon="1.1219">
        <ele>99.9</ele>
        <time>2016-11-11T08:40:03Z</time>
      </trkpt>
      <trkpt lat="49.00318" lon="1.12198">
        <ele>100.8</ele>
        <time>2016-11-11T08:40:06Z</time>
      </trkpt>
      <trkpt lat="49.00326" lon="1.12203">
        <ele>101.6</ele>
        <time>2016-11-11T08:40:09Z</time>
      </trkpt>
      <trkpt lat="49.00337" lon="1.12212">
        <ele>102.8</ele>
        <time>2016-11-11T08:40:14Z</time>
      </trkpt>
      <trkpt lat="49.00335" lon="1.12226">
        <ele>103.9</ele>
        <time>2016-11-11T08:40:19Z</time>
      </trkpt>
      <trkpt lat="49.00331" lon="1.12238">
        <ele>105.4</ele>
        <time>2016-11-11T08:40:25Z</time>
      </trkpt>
      <trkpt lat="49.00324" lon="1.12249">
        <ele>107.2</ele>
        <time>2016-11-11T08:40:32Z</time>
      </trkpt>
      <trkpt lat="49.00316" lon="1.12257">
        <ele>108.8</ele>
        <time>2016-11-11T08:40:39Z</time>
      </trkpt>
      <trkpt lat="49.00307" lon="1.12258">
        <ele>109.8</ele>
        <time>2016-11-11T08:40:45Z</time>
      </trkpt>
      <trkpt lat="49.00298" lon="1.12259">
        <ele>110.3</ele>
        <time>2016-11-11T08:40:49Z</time>
      </trkpt>
      <trkpt lat="49.00288" lon="1.12257">
        <ele>110.7</ele>
        <time>2016-11-11T08:40:53Z</time>
      </trkpt>
      <trkpt lat="49.00278" lon="1.12256">
        <ele>111</ele>
        <time>2016-11-11T08:40:57Z</time>
      </trkpt>
      <trkpt lat="49.00269" lon="1.12253">
        <ele>111.3</ele>
        <time>2016-11-11T08:41:01Z</time>
      </trkpt>
      <trkpt lat="49.00258" lon="1.12248">
        <ele>111.5</ele>
        <time>2016-11-11T08:41:05Z</time>
      </trkpt>
      <trkpt lat="49.00251" lon="1.12239">
        <ele>111.6</ele>
        <time>2016-11-11T08:41:08Z</time>
      </trkpt>
      <trkpt lat="49.00243" lon="1.1223">
        <ele>111.8</ele>
        <time>2016-11-11T08:41:11Z</time>
      </trkpt>
      <trkpt lat="49.00235" lon="1.12222">
        <ele>111.9</ele>
        <time>2016-11-11T08:41:14Z</time>
      </trkpt>
      <trkpt lat="49.00224" lon="1.12221">
        <ele>111.9</ele>
        <time>2016-11-11T08:41:18Z</time>
      </trkpt>
      <trkpt lat="49.00214" lon="1.12224">
        <ele>111.9</ele>
        <time>2016-11-11T08:41:22Z</time>
      </trkpt>
      <trkpt lat="49.00204" lon="1.12218">
        <ele>111.9</ele>
        <time>2016-11-11T08:41:27Z</time>
      </trkpt>
      <trkpt lat="49.00195" lon="1.12223">
        <ele>112</ele>
        <time>2016-11-11T08:41:45Z</time>
      </trkpt>
      <trkpt lat="49.00201" lon="1.12235">
        <ele>112</ele>
        <time>2016-11-11T08:44:49Z</time>
      </trkpt>
      <trkpt lat="49.00202" lon="1.12249">
        <ele>112.2</ele>
        <time>2016-11-11T08:44:54Z</time>
      </trkpt>
      <trkpt lat="49.00196" lon="1.12262">
        <ele>112.6</ele>
        <time>2016-11-11T08:45:00Z</time>
      </trkpt>
      <trkpt lat="49.00188" lon="1.12275">
        <ele>112.8</ele>
        <time>2016-11-11T08:45:04Z</time>
      </trkpt>
      <trkpt lat="49.00182" lon="1.12289">
        <ele>113.1</ele>
        <time>2016-11-11T08:45:08Z</time>
      </trkpt>
      <trkpt lat="49.00178" lon="1.12304">
        <ele>113.5</ele>
        <time>2016-11-11T08:45:12Z</time>
      </trkpt>
      <trkpt lat="49.00171" lon="1.12313">
        <ele>113.8</ele>
        <time>2016-11-11T08:45:16Z</time>
      </trkpt>
      <trkpt lat="49.00168" lon="1.12329">
        <ele>114.1</ele>
        <time>2016-11-11T08:45:20Z</time>
      </trkpt>
      <trkpt lat="49.00168" lon="1.12344">
        <ele>114.3</ele>
        <time>2016-11-11T08:45:23Z</time>
      </trkpt>
      <trkpt lat="49.0017" lon="1.12361">
        <ele>114.7</ele>
        <time>2016-11-11T08:45:27Z</time>
      </trkpt>
      <trkpt lat="49.0017" lon="1.12377">
        <ele>115.1</ele>
        <time>2016-11-11T08:45:31Z</time>
      </trkpt>
      <trkpt lat="49.0017" lon="1.12394">
        <ele>115.7</ele>
        <time>2016-11-11T08:45:35Z</time>
      </trkpt>
      <trkpt lat="49.00171" lon="1.1241">
        <ele>116.2</ele>
        <time>2016-11-11T08:45:39Z</time>
      </trkpt>
      <trkpt lat="49.00172" lon="1.12425">
        <ele>116.7</ele>
        <time>2016-11-11T08:45:43Z</time>
      </trkpt>
      <trkpt lat="49.0017" lon="1.12439">
        <ele>117.1</ele>
        <time>2016-11-11T08:45:46Z</time>
      </trkpt>
      <trkpt lat="49.00171" lon="1.12453">
        <ele>117.5</ele>
        <time>2016-11-11T08:45:49Z</time>
      </trkpt>
      <trkpt lat="49.00175" lon="1.12466">
        <ele>117.9</ele>
        <time>2016-11-11T08:45:52Z</time>
      </trkpt>
      <trkpt lat="49.00177" lon="1.1248">
        <ele>118.3</ele>
        <time>2016-11-11T08:45:56Z</time>
      </trkpt>
      <trkpt lat="49.00179" lon="1.12498">
        <ele>118.8</ele>
        <time>2016-11-11T08:46:00Z</time>
      </trkpt>
      <trkpt lat="49.00182" lon="1.12512">
        <ele>119.2</ele>
        <time>2016-11-11T08:46:04Z</time>
      </trkpt>
      <trkpt lat="49.00187" lon="1.12524">
        <ele>119.6</ele>
        <time>2016-11-11T08:46:08Z</time>
      </trkpt>
      <trkpt lat="49.00193" lon="1.12539">
        <ele>119.8</ele>
        <time>2016-11-11T08:46:12Z</time>
      </trkpt>
      <trkpt lat="49.00202" lon="1.12551">
        <ele>120.2</ele>
        <time>2016-11-11T08:46:16Z</time>
      </trkpt>
      <trkpt lat="49.00209" lon="1.1256">
        <ele>120.4</ele>
        <time>2016-11-11T08:46:19Z</time>
      </trkpt>
      <trkpt lat="49.00216" lon="1.12573">
        <ele>120.7</ele>
        <time>2016-11-11T08:46:23Z</time>
      </trkpt>
      <trkpt lat="49.00223" lon="1.12585">
        <ele>121</ele>
        <time>2016-11-11T08:46:27Z</time>
      </trkpt>
      <trkpt lat="49.00232" lon="1.12591">
        <ele>121.3</ele>
        <time>2016-11-11T08:46:31Z</time>
      </trkpt>
      <trkpt lat="49.0024" lon="1.12599">
        <ele>121.5</ele>
        <time>2016-11-11T08:46:34Z</time>
      </trkpt>
      <trkpt lat="49.00245" lon="1.12613">
        <ele>121.7</ele>
        <time>2016-11-11T08:46:38Z</time>
      </trkpt>
      <trkpt lat="49.0025" lon="1.1263">
        <ele>121.9</ele>
        <time>2016-11-11T08:46:42Z</time>
      </trkpt>
      <trkpt lat="49.00254" lon="1.12648">
        <ele>122.1</ele>
        <time>2016-11-11T08:46:46Z</time>
      </trkpt>
      <trkpt lat="49.00256" lon="1.12661">
        <ele>122.2</ele>
        <time>2016-11-11T08:46:49Z</time>
      </trkpt>
      <trkpt lat="49.00257" lon="1.12676">
        <ele>122.3</ele>
        <time>2016-11-11T08:46:52Z</time>
      </trkpt>
      <trkpt lat="49.00259" lon="1.12694">
        <ele>122.4</ele>
        <time>2016-11-11T08:46:56Z</time>
      </trkpt>
      <trkpt lat="49.00258" lon="1.1271">
        <ele>122.4</ele>
        <time>2016-11-11T08:46:59Z</time>
      </trkpt>
      <trkpt lat="49.00254" lon="1.12727">
        <ele>122.5</ele>
        <time>2016-11-11T08:47:02Z</time>
      </trkpt>
      <trkpt lat="49.00254" lon="1.12743">
        <ele>122.8</ele>
        <time>2016-11-11T08:47:05Z</time>
      </trkpt>
      <trkpt lat="49.00254" lon="1.12759">
        <ele>123</ele>
        <time>2016-11-11T08:47:08Z</time>
      </trkpt>
      <trkpt lat="49.00254" lon="1.12775">
        <ele>123.4</ele>
        <time>2016-11-11T08:47:11Z</time>
      </trkpt>
      <trkpt lat="49.00255" lon="1.12792">
        <ele>123.7</ele>
        <time>2016-11-11T08:47:14Z</time>
      </trkpt>
      <trkpt lat="49.00258" lon="1.12809">
        <ele>124</ele>
        <time>2016-11-11T08:47:18Z</time>
      </trkpt>
      <trkpt lat="49.00259" lon="1.12823">
        <ele>124.3</ele>
        <time>2016-11-11T08:47:22Z</time>
      </trkpt>
      <trkpt lat="49.00256" lon="1.12837">
        <ele>124.5</ele>
        <time>2016-11-11T08:47:26Z</time>
      </trkpt>
      <trkpt lat="49.00246" lon="1.12836">
        <ele>124.8</ele>
        <time>2016-11-11T08:47:32Z</time>
      </trkpt>
      <trkpt lat="49.00236" lon="1.12832">
        <ele>125.1</ele>
        <time>2016-11-11T08:47:37Z</time>
      </trkpt>
      <trkpt lat="49.00226" lon="1.12831">
        <ele>125.3</ele>
        <time>2016-11-11T08:47:40Z</time>
      </trkpt>
      <trkpt lat="49.00216" lon="1.12831">
        <ele>125.4</ele>
        <time>2016-11-11T08:47:43Z</time>
      </trkpt>
      <trkpt lat="49.00205" lon="1.12831">
        <ele>125.6</ele>
        <time>2016-11-11T08:47:46Z</time>
      </trkpt>
      <trkpt lat="49.00195" lon="1.12832">
        <ele>125.8</ele>
        <time>2016-11-11T08:47:49Z</time>
      </trkpt>
      <trkpt lat="49.00184" lon="1.1283">
        <ele>126.1</ele>
        <time>2016-11-11T08:47:52Z</time>
      </trkpt>
      <trkpt lat="49.00173" lon="1.12828">
        <ele>126.3</ele>
        <time>2016-11-11T08:47:55Z</time>
      </trkpt>
      <trkpt lat="49.00163" lon="1.12829">
        <ele>126.5</ele>
        <time>2016-11-11T08:47:59Z</time>
      </trkpt>
      <trkpt lat="49.00154" lon="1.12829">
        <ele>126.6</ele>
        <time>2016-11-11T08:48:02Z</time>
      </trkpt>
      <trkpt lat="49.00144" lon="1.1283">
        <ele>126.8</ele>
        <time>2016-11-11T08:48:05Z</time>
      </trkpt>
      <trkpt lat="49.00134" lon="1.12829">
        <ele>126.9</ele>
        <time>2016-11-11T08:48:08Z</time>
      </trkpt>
      <trkpt lat="49.00123" lon="1.1283">
        <ele>127.1</ele>
        <time>2016-11-11T08:48:12Z</time>
      </trkpt>
      <trkpt lat="49.00112" lon="1.12828">
        <ele>127.3</ele>
        <time>2016-11-11T08:48:16Z</time>
      </trkpt>
      <trkpt lat="49.001" lon="1.12827">
        <ele>127.6</ele>
        <time>2016-11-11T08:48:20Z</time>
      </trkpt>
      <trkpt lat="49.00089" lon="1.12827">
        <ele>127.8</ele>
        <time>2016-11-11T08:48:23Z</time>
      </trkpt>
      <trkpt lat="49.00078" lon="1.12825">
        <ele>128</ele>
        <time>2016-11-11T08:48:26Z</time>
      </trkpt>
      <trkpt lat="49.00067" lon="1.12823">
        <ele>128.3</ele>
        <time>2016-11-11T08:48:29Z</time>
      </trkpt>
      <trkpt lat="49.00057" lon="1.12822">
        <ele>128.5</ele>
        <time>2016-11-11T08:48:32Z</time>
      </trkpt>
      <trkpt lat="49.00047" lon="1.12821">
        <ele>128.7</ele>
        <time>2016-11-11T08:48:35Z</time>
      </trkpt>
      <trkpt lat="49.00037" lon="1.12821">
        <ele>129</ele>
        <time>2016-11-11T08:48:38Z</time>
      </trkpt>
      <trkpt lat="49.00026" lon="1.1282">
        <ele>129.2</ele>
        <time>2016-11-11T08:48:41Z</time>
      </trkpt>
      <trkpt lat="49.00015" lon="1.12819">
        <ele>129.4</ele>
        <time>2016-11-11T08:48:44Z</time>
      </trkpt>
      <trkpt lat="49.00003" lon="1.12817">
        <ele>129.7</ele>
        <time>2016-11-11T08:48:47Z</time>
      </trkpt>
      <trkpt lat="48.99991" lon="1.12816">
        <ele>130</ele>
        <time>2016-11-11T08:48:50Z</time>
      </trkpt>
      <trkpt lat="48.9998" lon="1.12814">
        <ele>130.3</ele>
        <time>2016-11-11T08:48:53Z</time>
      </trkpt>
      <trkpt lat="48.99968" lon="1.12813">
        <ele>130.6</ele>
        <time>2016-11-11T08:48:56Z</time>
      </trkpt>
      <trkpt lat="48.99957" lon="1.12813">
        <ele>130.9</ele>
        <time>2016-11-11T08:48:59Z</time>
      </trkpt>
      <trkpt lat="48.99946" lon="1.12812">
        <ele>131.2</ele>
        <time>2016-11-11T08:49:02Z</time>
      </trkpt>
      <trkpt lat="48.99936" lon="1.1281">
        <ele>131.4</ele>
        <time>2016-11-11T08:49:05Z</time>
      </trkpt>
      <trkpt lat="48.99925" lon="1.12803">
        <ele>131.7</ele>
        <time>2016-11-11T08:49:09Z</time>
      </trkpt>
      <trkpt lat="48.99918" lon="1.12792">
        <ele>131.9</ele>
        <time>2016-11-11T08:49:12Z</time>
      </trkpt>
      <trkpt lat="48.99914" lon="1.12776">
        <ele>132.1</ele>
        <time>2016-11-11T08:49:15Z</time>
      </trkpt>
      <trkpt lat="48.9991" lon="1.12758">
        <ele>132.3</ele>
        <time>2016-11-11T08:49:18Z</time>
      </trkpt>
      <trkpt lat="48.99907" lon="1.12744">
        <ele>132.3</ele>
        <time>2016-11-11T08:49:20Z</time>
      </trkpt>
      <trkpt lat="48.99905" lon="1.1273">
        <ele>132.3</ele>
        <time>2016-11-11T08:49:22Z</time>
      </trkpt>
      <trkpt lat="48.99903" lon="1.12716">
        <ele>132.2</ele>
        <time>2016-11-11T08:49:24Z</time>
      </trkpt>
      <trkpt lat="48.99901" lon="1.12702">
        <ele>132.1</ele>
        <time>2016-11-11T08:49:26Z</time>
      </trkpt>
      <trkpt lat="48.99898" lon="1.12682">
        <ele>131.9</ele>
        <time>2016-11-11T08:49:29Z</time>
      </trkpt>
      <trkpt lat="48.99893" lon="1.12664">
        <ele>131.6</ele>
        <time>2016-11-11T08:49:32Z</time>
      </trkpt>
      <trkpt lat="48.99891" lon="1.12647">
        <ele>131.3</ele>
        <time>2016-11-11T08:49:35Z</time>
      </trkpt>
      <trkpt lat="48.999" lon="1.12639">
        <ele>130.9</ele>
        <time>2016-11-11T08:49:39Z</time>
      </trkpt>
      <trkpt lat="48.99911" lon="1.12642">
        <ele>130.5</ele>
        <time>2016-11-11T08:49:43Z</time>
      </trkpt>
      <trkpt lat="48.99921" lon="1.12643">
        <ele>130.3</ele>
        <time>2016-11-11T08:49:46Z</time>
      </trkpt>
      <trkpt lat="48.99931" lon="1.1264">
        <ele>130.1</ele>
        <time>2016-11-11T08:49:49Z</time>
      </trkpt>
      <trkpt lat="48.9994" lon="1.12629">
        <ele>129.9</ele>
        <time>2016-11-11T08:49:52Z</time>
      </trkpt>
      <trkpt lat="48.9995" lon="1.12617">
        <ele>129.6</ele>
        <time>2016-11-11T08:49:55Z</time>
      </trkpt>
      <trkpt lat="48.99958" lon="1.12609">
        <ele>129.4</ele>
        <time>2016-11-11T08:49:57Z</time>
      </trkpt>
      <trkpt lat="48.99966" lon="1.126">
        <ele>129.1</ele>
        <time>2016-11-11T08:49:59Z</time>
      </trkpt>
      <trkpt lat="48.99973" lon="1.12588">
        <ele>128.7</ele>
        <time>2016-11-11T08:50:01Z</time>
      </trkpt>
      <trkpt lat="48.9998" lon="1.12575">
        <ele>128.4</ele>
        <time>2016-11-11T08:50:03Z</time>
      </trkpt>
      <trkpt lat="48.99985" lon="1.1256">
        <ele>127.9</ele>
        <time>2016-11-11T08:50:05Z</time>
      </trkpt>
      <trkpt lat="48.99988" lon="1.12541">
        <ele>127.3</ele>
        <time>2016-11-11T08:50:07Z</time>
      </trkpt>
      <trkpt lat="48.99993" lon="1.12521">
        <ele>126.6</ele>
        <time>2016-11-11T08:50:09Z</time>
      </trkpt>
      <trkpt lat="48.99997" lon="1.12497">
        <ele>125.7</ele>
        <time>2016-11-11T08:50:11Z</time>
      </trkpt>
      <trkpt lat="49.00002" lon="1.12474">
        <ele>124.8</ele>
        <time>2016-11-11T08:50:13Z</time>
      </trkpt>
      <trkpt lat="49.00009" lon="1.12456">
        <ele>123.9</ele>
        <time>2016-11-11T08:50:15Z</time>
      </trkpt>
      <trkpt lat="49.00017" lon="1.12447">
        <ele>123</ele>
        <time>2016-11-11T08:50:17Z</time>
      </trkpt>
      <trkpt lat="49.00027" lon="1.12443">
        <ele>122.3</ele>
        <time>2016-11-11T08:50:19Z</time>
      </trkpt>
      <trkpt lat="49.00036" lon="1.12439">
        <ele>121.5</ele>
        <time>2016-11-11T08:50:21Z</time>
      </trkpt>
      <trkpt lat="49.00045" lon="1.12435">
        <ele>120.8</ele>
        <time>2016-11-11T08:50:23Z</time>
      </trkpt>
      <trkpt lat="49.00055" lon="1.12432">
        <ele>119.9</ele>
        <time>2016-11-11T08:50:26Z</time>
      </trkpt>
      <trkpt lat="49.00066" lon="1.12425">
        <ele>119</ele>
        <time>2016-11-11T08:50:29Z</time>
      </trkpt>
      <trkpt lat="49.00074" lon="1.12417">
        <ele>118.5</ele>
        <time>2016-11-11T08:50:31Z</time>
      </trkpt>
      <trkpt lat="49.00081" lon="1.12408">
        <ele>118.1</ele>
        <time>2016-11-11T08:50:33Z</time>
      </trkpt>
      <trkpt lat="49.00088" lon="1.12397">
        <ele>117.5</ele>
        <time>2016-11-11T08:50:35Z</time>
      </trkpt>
      <trkpt lat="49.00095" lon="1.12384">
        <ele>116.5</ele>
        <time>2016-11-11T08:50:38Z</time>
      </trkpt>
      <trkpt lat="49.00096" lon="1.1237">
        <ele>114.4</ele>
        <time>2016-11-11T08:50:44Z</time>
      </trkpt>
      <trkpt lat="49.00094" lon="1.12354">
        <ele>113</ele>
        <time>2016-11-11T08:50:49Z</time>
      </trkpt>
      <trkpt lat="49.00094" lon="1.12338">
        <ele>111.8</ele>
        <time>2016-11-11T08:50:54Z</time>
      </trkpt>
      <trkpt lat="49.00098" lon="1.12324">
        <ele>110.8</ele>
        <time>2016-11-11T08:50:58Z</time>
      </trkpt>
      <trkpt lat="49.00106" lon="1.12316">
        <ele>109.6</ele>
        <time>2016-11-11T08:51:03Z</time>
      </trkpt>
      <trkpt lat="49.00112" lon="1.12326">
        <ele>108.5</ele>
        <time>2016-11-11T08:51:08Z</time>
      </trkpt>
      <trkpt lat="49.00113" lon="1.12342">
        <ele>107.7</ele>
        <time>2016-11-11T08:51:13Z</time>
      </trkpt>
      <trkpt lat="49.00115" lon="1.12356">
        <ele>107.5</ele>
        <time>2016-11-11T08:51:18Z</time>
      </trkpt>
      <trkpt lat="49.0012" lon="1.1237">
        <ele>107.8</ele>
        <time>2016-11-11T08:51:23Z</time>
      </trkpt>
      <trkpt lat="49.00123" lon="1.12387">
        <ele>108.3</ele>
        <time>2016-11-11T08:51:27Z</time>
      </trkpt>
      <trkpt lat="49.00125" lon="1.12402">
        <ele>109</ele>
        <time>2016-11-11T08:51:31Z</time>
      </trkpt>
      <trkpt lat="49.00127" lon="1.12386">
        <ele>110.7</ele>
        <time>2016-11-11T08:51:43Z</time>
      </trkpt>
      <trkpt lat="49.00126" lon="1.12368">
        <ele>110.9</ele>
        <time>2016-11-11T08:51:46Z</time>
      </trkpt>
      <trkpt lat="49.00126" lon="1.12351">
        <ele>110.8</ele>
        <time>2016-11-11T08:51:48Z</time>
      </trkpt>
      <trkpt lat="49.00128" lon="1.12331">
        <ele>110.6</ele>
        <time>2016-11-11T08:51:50Z</time>
      </trkpt>
      <trkpt lat="49.00131" lon="1.12307">
        <ele>110.2</ele>
        <time>2016-11-11T08:51:52Z</time>
      </trkpt>
      <trkpt lat="49.00136" lon="1.12284">
        <ele>109.8</ele>
        <time>2016-11-11T08:51:54Z</time>
      </trkpt>
      <trkpt lat="49.00144" lon="1.1226">
        <ele>109.3</ele>
        <time>2016-11-11T08:51:56Z</time>
      </trkpt>
      <trkpt lat="49.00152" lon="1.12237">
        <ele>108.6</ele>
        <time>2016-11-11T08:51:58Z</time>
      </trkpt>
      <trkpt lat="49.0016" lon="1.12214">
        <ele>107.9</ele>
        <time>2016-11-11T08:52:00Z</time>
      </trkpt>
      <trkpt lat="49.00169" lon="1.12192">
        <ele>107.2</ele>
        <time>2016-11-11T08:52:02Z</time>
      </trkpt>
      <trkpt lat="49.00177" lon="1.12169">
        <ele>106.5</ele>
        <time>2016-11-11T08:52:04Z</time>
      </trkpt>
      <trkpt lat="49.00185" lon="1.12146">
        <ele>105.8</ele>
        <time>2016-11-11T08:52:06Z</time>
      </trkpt>
      <trkpt lat="49.00194" lon="1.12124">
        <ele>104.9</ele>
        <time>2016-11-11T08:52:08Z</time>
      </trkpt>
      <trkpt lat="49.00203" lon="1.12102">
        <ele>104</ele>
        <time>2016-11-11T08:52:10Z</time>
      </trkpt>
      <trkpt lat="49.00213" lon="1.12079">
        <ele>103.2</ele>
        <time>2016-11-11T08:52:12Z</time>
      </trkpt>
      <trkpt lat="49.00218" lon="1.12067">
        <ele>102.8</ele>
        <time>2016-11-11T08:52:13Z</time>
      </trkpt>
      <trkpt lat="49.00223" lon="1.12055">
        <ele>102.4</ele>
        <time>2016-11-11T08:52:14Z</time>
      </trkpt>
      <trkpt lat="49.00228" lon="1.12043">
        <ele>101.9</ele>
        <time>2016-11-11T08:52:15Z</time>
      </trkpt>
      <trkpt lat="49.00236" lon="1.12019">
        <ele>101</ele>
        <time>2016-11-11T08:52:17Z</time>
      </trkpt>
      <trkpt lat="49.00245" lon="1.11996">
        <ele>100.1</ele>
        <time>2016-11-11T08:52:19Z</time>
      </trkpt>
      <trkpt lat="49.0025" lon="1.11984">
        <ele>99.7</ele>
        <time>2016-11-11T08:52:20Z</time>
      </trkpt>
      <trkpt lat="49.00254" lon="1.11971">
        <ele>99.2</ele>
        <time>2016-11-11T08:52:21Z</time>
      </trkpt>
      <trkpt lat="49.00257" lon="1.11959">
        <ele>98.7</ele>
        <time>2016-11-11T08:52:22Z</time>
      </trkpt>
      <trkpt lat="49.00264" lon="1.11934">
        <ele>97.8</ele>
        <time>2016-11-11T08:52:24Z</time>
      </trkpt>
      <trkpt lat="49.00275" lon="1.11911">
        <ele>96.8</ele>
        <time>2016-11-11T08:52:26Z</time>
      </trkpt>
      <trkpt lat="49.00283" lon="1.11887">
        <ele>95.8</ele>
        <time>2016-11-11T08:52:28Z</time>
      </trkpt>
      <trkpt lat="49.00292" lon="1.11864">
        <ele>94.9</ele>
        <time>2016-11-11T08:52:30Z</time>
      </trkpt>
      <trkpt lat="49.00302" lon="1.11842">
        <ele>93.9</ele>
        <time>2016-11-11T08:52:32Z</time>
      </trkpt>
      <trkpt lat="49.00306" lon="1.1183">
        <ele>93.4</ele>
        <time>2016-11-11T08:52:33Z</time>
      </trkpt>
      <trkpt lat="49.00315" lon="1.11807">
        <ele>92.4</ele>
        <time>2016-11-11T08:52:35Z</time>
      </trkpt>
      <trkpt lat="49.00324" lon="1.11784">
        <ele>91.4</ele>
        <time>2016-11-11T08:52:37Z</time>
      </trkpt>
      <trkpt lat="49.00333" lon="1.1176">
        <ele>90.4</ele>
        <time>2016-11-11T08:52:39Z</time>
      </trkpt>
      <trkpt lat="49.0034" lon="1.11737">
        <ele>89.5</ele>
        <time>2016-11-11T08:52:41Z</time>
      </trkpt>
      <trkpt lat="49.00347" lon="1.11716">
        <ele>88.7</ele>
        <time>2016-11-11T08:52:43Z</time>
      </trkpt>
      <trkpt lat="49.00354" lon="1.11695">
        <ele>88</ele>
        <time>2016-11-11T08:52:45Z</time>
      </trkpt>
      <trkpt lat="49.00359" lon="1.11676">
        <ele>87.2</ele>
        <time>2016-11-11T08:52:47Z</time>
      </trkpt>
      <trkpt lat="49.00364" lon="1.11658">
        <ele>86.5</ele>
        <time>2016-11-11T08:52:49Z</time>
      </trkpt>
      <trkpt lat="49.0037" lon="1.1164">
        <ele>85.9</ele>
        <time>2016-11-11T08:52:51Z</time>
      </trkpt>
      <trkpt lat="49.00375" lon="1.11621">
        <ele>85.3</ele>
        <time>2016-11-11T08:52:53Z</time>
      </trkpt>
      <trkpt lat="49.0038" lon="1.11603">
        <ele>84.7</ele>
        <time>2016-11-11T08:52:55Z</time>
      </trkpt>
      <trkpt lat="49.00384" lon="1.11586">
        <ele>84.1</ele>
        <time>2016-11-11T08:52:57Z</time>
      </trkpt>
      <trkpt lat="49.00389" lon="1.11567">
        <ele>83.5</ele>
        <time>2016-11-11T08:52:59Z</time>
      </trkpt>
      <trkpt lat="49.00393" lon="1.1155">
        <ele>83</ele>
        <time>2016-11-11T08:53:01Z</time>
      </trkpt>
      <trkpt lat="49.00397" lon="1.11532">
        <ele>82.4</ele>
        <time>2016-11-11T08:53:03Z</time>
      </trkpt>
      <trkpt lat="49.004" lon="1.11517">
        <ele>81.8</ele>
        <time>2016-11-11T08:53:05Z</time>
      </trkpt>
      <trkpt lat="49.00405" lon="1.115">
        <ele>81</ele>
        <time>2016-11-11T08:53:08Z</time>
      </trkpt>
      <trkpt lat="49.00407" lon="1.11485">
        <ele>80.2</ele>
        <time>2016-11-11T08:53:11Z</time>
      </trkpt>
      <trkpt lat="49.00409" lon="1.11465">
        <ele>79.6</ele>
        <time>2016-11-11T08:53:14Z</time>
      </trkpt>
      <trkpt lat="49.0041" lon="1.1145">
        <ele>79.2</ele>
        <time>2016-11-11T08:53:16Z</time>
      </trkpt>
      <trkpt lat="49.00412" lon="1.11434">
        <ele>78.9</ele>
        <time>2016-11-11T08:53:18Z</time>
      </trkpt>
      <trkpt lat="49.00416" lon="1.11417">
        <ele>78.6</ele>
        <time>2016-11-11T08:53:20Z</time>
      </trkpt>
      <trkpt lat="49.0042" lon="1.11401">
        <ele>78.2</ele>
        <time>2016-11-11T08:53:22Z</time>
      </trkpt>
      <trkpt lat="49.00426" lon="1.11386">
        <ele>77.7</ele>
        <time>2016-11-11T08:53:24Z</time>
      </trkpt>
      <trkpt lat="49.00432" lon="1.11373">
        <ele>77.2</ele>
        <time>2016-11-11T08:53:26Z</time>
      </trkpt>
      <trkpt lat="49.00437" lon="1.11358">
        <ele>76.4</ele>
        <time>2016-11-11T08:53:29Z</time>
      </trkpt>
      <trkpt lat="49.00443" lon="1.11344">
        <ele>75.7</ele>
        <time>2016-11-11T08:53:32Z</time>
      </trkpt>
      <trkpt lat="49.00446" lon="1.1133">
        <ele>75</ele>
        <time>2016-11-11T08:53:35Z</time>
      </trkpt>
      <trkpt lat="49.00441" lon="1.11319">
        <ele>73.8</ele>
        <time>2016-11-11T08:53:43Z</time>
      </trkpt>
      <trkpt lat="49.00432" lon="1.11329">
        <ele>73</ele>
        <time>2016-11-11T08:53:51Z</time>
      </trkpt>
      <trkpt lat="49.00425" lon="1.11341">
        <ele>72.4</ele>
        <time>2016-11-11T08:53:54Z</time>
      </trkpt>
      <trkpt lat="49.00415" lon="1.11353">
        <ele>71.9</ele>
        <time>2016-11-11T08:53:57Z</time>
      </trkpt>
      <trkpt lat="49.00408" lon="1.11364">
        <ele>71</ele>
        <time>2016-11-11T08:54:01Z</time>
      </trkpt>
      <trkpt lat="49.00405" lon="1.11378">
        <ele>69</ele>
        <time>2016-11-11T08:54:11Z</time>
      </trkpt>
      <trkpt lat="49.00403" lon="1.11393">
        <ele>68.3</ele>
        <time>2016-11-11T08:54:17Z</time>
      </trkpt>
      <trkpt lat="49.00394" lon="1.11397">
        <ele>67.6</ele>
        <time>2016-11-11T08:54:25Z</time>
      </trkpt>
      <trkpt lat="49.00388" lon="1.11385">
        <ele>67.2</ele>
        <time>2016-11-11T08:54:32Z</time>
      </trkpt>
      <trkpt lat="49.00394" lon="1.114">
        <ele>66.2</ele>
        <time>2016-11-11T08:56:43Z</time>
      </trkpt>
      <trkpt lat="49.00393" lon="1.11418">
        <ele>66.2</ele>
        <time>2016-11-11T08:56:47Z</time>
      </trkpt>
      <trkpt lat="49.00389" lon="1.11433">
        <ele>66.2</ele>
        <time>2016-11-11T08:56:50Z</time>
      </trkpt>
      <trkpt lat="49.00385" lon="1.11448">
        <ele>66.2</ele>
        <time>2016-11-11T08:56:53Z</time>
      </trkpt>
      <trkpt lat="49.00382" lon="1.11461">
        <ele>66.4</ele>
        <time>2016-11-11T08:56:56Z</time>
      </trkpt>
      <trkpt lat="49.00379" lon="1.11478">
        <ele>66.8</ele>
        <time>2016-11-11T08:57:00Z</time>
      </trkpt>
      <trkpt lat="49.00375" lon="1.11494">
        <ele>67.4</ele>
        <time>2016-11-11T08:57:04Z</time>
      </trkpt>
      <trkpt lat="49.00372" lon="1.11509">
        <ele>68.1</ele>
        <time>2016-11-11T08:57:08Z</time>
      </trkpt>
      <trkpt lat="49.00368" lon="1.11525">
        <ele>68.9</ele>
        <time>2016-11-11T08:57:12Z</time>
      </trkpt>
      <trkpt lat="49.00364" lon="1.1154">
        <ele>69.8</ele>
        <time>2016-11-11T08:57:16Z</time>
      </trkpt>
      <trkpt lat="49.00361" lon="1.11554">
        <ele>70.8</ele>
        <time>2016-11-11T08:57:20Z</time>
      </trkpt>
      <trkpt lat="49.00357" lon="1.11569">
        <ele>71.8</ele>
        <time>2016-11-11T08:57:24Z</time>
      </trkpt>
      <trkpt lat="49.00353" lon="1.11585">
        <ele>72.9</ele>
        <time>2016-11-11T08:57:28Z</time>
      </trkpt>
      <trkpt lat="49.0035" lon="1.116">
        <ele>74.1</ele>
        <time>2016-11-11T08:57:32Z</time>
      </trkpt>
      <trkpt lat="49.00346" lon="1.11614">
        <ele>75.2</ele>
        <time>2016-11-11T08:57:36Z</time>
      </trkpt>
      <trkpt lat="49.00342" lon="1.11631">
        <ele>76.4</ele>
        <time>2016-11-11T08:57:40Z</time>
      </trkpt>
      <trkpt lat="49.00338" lon="1.11647">
        <ele>77.6</ele>
        <time>2016-11-11T08:57:44Z</time>
      </trkpt>
      <trkpt lat="49.00335" lon="1.11664">
        <ele>78.8</ele>
        <time>2016-11-11T08:57:48Z</time>
      </trkpt>
      <trkpt lat="49.00332" lon="1.11678">
        <ele>79.6</ele>
        <time>2016-11-11T08:57:51Z</time>
      </trkpt>
      <trkpt lat="49.00329" lon="1.11694">
        <ele>80.3</ele>
        <time>2016-11-11T08:57:54Z</time>
      </trkpt>
      <trkpt lat="49.00326" lon="1.1171">
        <ele>80.9</ele>
        <time>2016-11-11T08:57:57Z</time>
      </trkpt>
      <trkpt lat="49.00322" lon="1.11725">
        <ele>81.4</ele>
        <time>2016-11-11T08:58:00Z</time>
      </trkpt>
      <trkpt lat="49.00317" lon="1.11738">
        <ele>81.8</ele>
        <time>2016-11-11T08:58:03Z</time>
      </trkpt>
      <trkpt lat="49.00312" lon="1.11754">
        <ele>82.3</ele>
        <time>2016-11-11T08:58:07Z</time>
      </trkpt>
      <trkpt lat="49.00307" lon="1.11768">
        <ele>82.6</ele>
        <time>2016-11-11T08:58:10Z</time>
      </trkpt>
      <trkpt lat="49.00302" lon="1.11783">
        <ele>82.8</ele>
        <time>2016-11-11T08:58:13Z</time>
      </trkpt>
      <trkpt lat="49.00297" lon="1.11797">
        <ele>83</ele>
        <time>2016-11-11T08:58:16Z</time>
      </trkpt>
      <trkpt lat="49.00291" lon="1.11811">
        <ele>83.2</ele>
        <time>2016-11-11T08:58:19Z</time>
      </trkpt>
      <trkpt lat="49.00286" lon="1.11826">
        <ele>83.4</ele>
        <time>2016-11-11T08:58:22Z</time>
      </trkpt>
      <trkpt lat="49.00281" lon="1.11841">
        <ele>83.6</ele>
        <time>2016-11-11T08:58:25Z</time>
      </trkpt>
      <trkpt lat="49.00276" lon="1.11855">
        <ele>83.8</ele>
        <time>2016-11-11T08:58:28Z</time>
      </trkpt>
      <trkpt lat="49.00271" lon="1.1187">
        <ele>83.9</ele>
        <time>2016-11-11T08:58:31Z</time>
      </trkpt>
      <trkpt lat="49.00265" lon="1.11885">
        <ele>84</ele>
        <time>2016-11-11T08:58:34Z</time>
      </trkpt>
      <trkpt lat="49.00259" lon="1.119">
        <ele>84.2</ele>
        <time>2016-11-11T08:58:37Z</time>
      </trkpt>
      <trkpt lat="49.00253" lon="1.11916">
        <ele>84.3</ele>
        <time>2016-11-11T08:58:40Z</time>
      </trkpt>
      <trkpt lat="49.00248" lon="1.11931">
        <ele>84.4</ele>
        <time>2016-11-11T08:58:43Z</time>
      </trkpt>
      <trkpt lat="49.00242" lon="1.11946">
        <ele>84.6</ele>
        <time>2016-11-11T08:58:46Z</time>
      </trkpt>
      <trkpt lat="49.00236" lon="1.11961">
        <ele>84.7</ele>
        <time>2016-11-11T08:58:49Z</time>
      </trkpt>
      <trkpt lat="49.0023" lon="1.11975">
        <ele>84.9</ele>
        <time>2016-11-11T08:58:52Z</time>
      </trkpt>
      <trkpt lat="49.00224" lon="1.11989">
        <ele>85.1</ele>
        <time>2016-11-11T08:58:55Z</time>
      </trkpt>
      <trkpt lat="49.00219" lon="1.12002">
        <ele>85.5</ele>
        <time>2016-11-11T08:58:58Z</time>
      </trkpt>
      <trkpt lat="49.00213" lon="1.12016">
        <ele>85.8</ele>
        <time>2016-11-11T08:59:01Z</time>
      </trkpt>
      <trkpt lat="49.00208" lon="1.12028">
        <ele>86.1</ele>
        <time>2016-11-11T08:59:04Z</time>
      </trkpt>
      <trkpt lat="49.00202" lon="1.12042">
        <ele>86.4</ele>
        <time>2016-11-11T08:59:08Z</time>
      </trkpt>
      <trkpt lat="49.00197" lon="1.12055">
        <ele>86.8</ele>
        <time>2016-11-11T08:59:14Z</time>
      </trkpt>
      <trkpt lat="49.00187" lon="1.12052">
        <ele>87.3</ele>
        <time>2016-11-11T08:59:21Z</time>
      </trkpt>
      <trkpt lat="49.00177" lon="1.12047">
        <ele>87.6</ele>
        <time>2016-11-11T08:59:28Z</time>
      </trkpt>
      <trkpt lat="49.00185" lon="1.12054">
        <ele>87.9</ele>
        <time>2016-11-11T08:59:35Z</time>
      </trkpt>
      <trkpt lat="49.00194" lon="1.12062">
        <ele>88</ele>
        <time>2016-11-11T08:59:40Z</time>
      </trkpt>
      <trkpt lat="49.00201" lon="1.12053">
        <ele>88.3</ele>
        <time>2016-11-11T09:02:11Z</time>
      </trkpt>
      <trkpt lat="49.00191" lon="1.12058">
        <ele>87.6</ele>
        <time>2016-11-11T09:05:19Z</time>
      </trkpt>
      <trkpt lat="49.00181" lon="1.12051">
        <ele>87.6</ele>
        <time>2016-11-11T09:05:24Z</time>
      </trkpt>
      <trkpt lat="49.00172" lon="1.12047">
        <ele>87.5</ele>
        <time>2016-11-11T09:05:27Z</time>
      </trkpt>
      <trkpt lat="49.00163" lon="1.12041">
        <ele>87.5</ele>
        <time>2016-11-11T09:05:30Z</time>
      </trkpt>
      <trkpt lat="49.00154" lon="1.12035">
        <ele>87.5</ele>
        <time>2016-11-11T09:05:33Z</time>
      </trkpt>
      <trkpt lat="49.00144" lon="1.12028">
        <ele>87.5</ele>
        <time>2016-11-11T09:05:36Z</time>
      </trkpt>
      <trkpt lat="49.00136" lon="1.12019">
        <ele>87.5</ele>
        <time>2016-11-11T09:05:40Z</time>
      </trkpt>
      <trkpt lat="49.00127" lon="1.1201">
        <ele>87.6</ele>
        <time>2016-11-11T09:05:46Z</time>
      </trkpt>
      <trkpt lat="49.00116" lon="1.12002">
        <ele>87.7</ele>
        <time>2016-11-11T09:05:50Z</time>
      </trkpt>
      <trkpt lat="49.00108" lon="1.11993">
        <ele>87.8</ele>
        <time>2016-11-11T09:05:54Z</time>
      </trkpt>
      <trkpt lat="49.00099" lon="1.11986">
        <ele>88.1</ele>
        <time>2016-11-11T09:05:58Z</time>
      </trkpt>
      <trkpt lat="49.00089" lon="1.11976">
        <ele>88.3</ele>
        <time>2016-11-11T09:06:02Z</time>
      </trkpt>
      <trkpt lat="49.00079" lon="1.1197">
        <ele>88.6</ele>
        <time>2016-11-11T09:06:06Z</time>
      </trkpt>
      <trkpt lat="49.0007" lon="1.11964">
        <ele>89</ele>
        <time>2016-11-11T09:06:10Z</time>
      </trkpt>
      <trkpt lat="49.0006" lon="1.11958">
        <ele>89.4</ele>
        <time>2016-11-11T09:06:15Z</time>
      </trkpt>
      <trkpt lat="49.00048" lon="1.11956">
        <ele>89.6</ele>
        <time>2016-11-11T09:06:18Z</time>
      </trkpt>
      <trkpt lat="49.00041" lon="1.11967">
        <ele>90.4</ele>
        <time>2016-11-11T09:06:23Z</time>
      </trkpt>
      <trkpt lat="49.00035" lon="1.11978">
        <ele>91.8</ele>
        <time>2016-11-11T09:06:28Z</time>
      </trkpt>
      <trkpt lat="49.00028" lon="1.11991">
        <ele>93.1</ele>
        <time>2016-11-11T09:06:33Z</time>
      </trkpt>
      <trkpt lat="49.00021" lon="1.12003">
        <ele>94.7</ele>
        <time>2016-11-11T09:06:38Z</time>
      </trkpt>
      <trkpt lat="49.00013" lon="1.12012">
        <ele>96.5</ele>
        <time>2016-11-11T09:06:44Z</time>
      </trkpt>
      <trkpt lat="49.00005" lon="1.1202">
        <ele>98.1</ele>
        <time>2016-11-11T09:06:49Z</time>
      </trkpt>
      <trkpt lat="48.99994" lon="1.12027">
        <ele>99.8</ele>
        <time>2016-11-11T09:06:55Z</time>
      </trkpt>
      <trkpt lat="48.99986" lon="1.12033">
        <ele>100.9</ele>
        <time>2016-11-11T09:06:59Z</time>
      </trkpt>
      <trkpt lat="48.99976" lon="1.1204">
        <ele>102.1</ele>
        <time>2016-11-11T09:07:04Z</time>
      </trkpt>
      <trkpt lat="48.99965" lon="1.12043">
        <ele>103.5</ele>
        <time>2016-11-11T09:07:09Z</time>
      </trkpt>
      <trkpt lat="48.99955" lon="1.12042">
        <ele>104.5</ele>
        <time>2016-11-11T09:07:13Z</time>
      </trkpt>
      <trkpt lat="48.99946" lon="1.12035">
        <ele>105.3</ele>
        <time>2016-11-11T09:07:17Z</time>
      </trkpt>
      <trkpt lat="48.99938" lon="1.1203">
        <ele>106.2</ele>
        <time>2016-11-11T09:07:21Z</time>
      </trkpt>
      <trkpt lat="48.99928" lon="1.12025">
        <ele>106.9</ele>
        <time>2016-11-11T09:07:25Z</time>
      </trkpt>
      <trkpt lat="48.9992" lon="1.12015">
        <ele>107.5</ele>
        <time>2016-11-11T09:07:29Z</time>
      </trkpt>
      <trkpt lat="48.99911" lon="1.12006">
        <ele>108</ele>
        <time>2016-11-11T09:07:33Z</time>
      </trkpt>
      <trkpt lat="48.999" lon="1.12001">
        <ele>108.4</ele>
        <time>2016-11-11T09:07:37Z</time>
      </trkpt>
      <trkpt lat="48.99891" lon="1.11999">
        <ele>108.7</ele>
        <time>2016-11-11T09:07:40Z</time>
      </trkpt>
      <trkpt lat="48.99882" lon="1.12002">
        <ele>109.1</ele>
        <time>2016-11-11T09:07:43Z</time>
      </trkpt>
      <trkpt lat="48.99872" lon="1.12009">
        <ele>109.6</ele>
        <time>2016-11-11T09:07:47Z</time>
      </trkpt>
      <trkpt lat="48.99864" lon="1.12016">
        <ele>110.1</ele>
        <time>2016-11-11T09:07:50Z</time>
      </trkpt>
      <trkpt lat="48.99853" lon="1.12022">
        <ele>110.9</ele>
        <time>2016-11-11T09:07:54Z</time>
      </trkpt>
      <trkpt lat="48.99843" lon="1.12023">
        <ele>111.4</ele>
        <time>2016-11-11T09:07:57Z</time>
      </trkpt>
      <trkpt lat="48.99833" lon="1.12025">
        <ele>111.8</ele>
        <time>2016-11-11T09:08:00Z</time>
      </trkpt>
      <trkpt lat="48.99821" lon="1.12024">
        <ele>112.4</ele>
        <time>2016-11-11T09:08:04Z</time>
      </trkpt>
      <trkpt lat="48.99812" lon="1.12018">
        <ele>112.7</ele>
        <time>2016-11-11T09:08:07Z</time>
      </trkpt>
      <trkpt lat="48.99803" lon="1.12016">
        <ele>113.2</ele>
        <time>2016-11-11T09:08:11Z</time>
      </trkpt>
      <trkpt lat="48.99796" lon="1.12027">
        <ele>113.8</ele>
        <time>2016-11-11T09:08:18Z</time>
      </trkpt>
      <trkpt lat="48.99804" lon="1.12019">
        <ele>114.4</ele>
        <time>2016-11-11T09:08:27Z</time>
      </trkpt>
      <trkpt lat="48.99795" lon="1.12015">
        <ele>114.6</ele>
        <time>2016-11-11T09:08:33Z</time>
      </trkpt>
      <trkpt lat="48.99786" lon="1.12017">
        <ele>115</ele>
        <time>2016-11-11T09:08:54Z</time>
      </trkpt>
      <trkpt lat="48.99776" lon="1.12017">
        <ele>115.1</ele>
        <time>2016-11-11T09:09:00Z</time>
      </trkpt>
      <trkpt lat="48.99765" lon="1.12021">
        <ele>115.3</ele>
        <time>2016-11-11T09:09:05Z</time>
      </trkpt>
      <trkpt lat="48.99756" lon="1.12024">
        <ele>115.5</ele>
        <time>2016-11-11T09:09:09Z</time>
      </trkpt>
      <trkpt lat="48.99747" lon="1.12028">
        <ele>115.8</ele>
        <time>2016-11-11T09:09:13Z</time>
      </trkpt>
      <trkpt lat="48.99737" lon="1.12031">
        <ele>116.2</ele>
        <time>2016-11-11T09:09:17Z</time>
      </trkpt>
      <trkpt lat="48.99728" lon="1.12035">
        <ele>116.6</ele>
        <time>2016-11-11T09:09:21Z</time>
      </trkpt>
      <trkpt lat="48.99717" lon="1.12039">
        <ele>116.9</ele>
        <time>2016-11-11T09:09:25Z</time>
      </trkpt>
      <trkpt lat="48.99706" lon="1.12043">
        <ele>117.3</ele>
        <time>2016-11-11T09:09:29Z</time>
      </trkpt>
      <trkpt lat="48.99694" lon="1.12046">
        <ele>117.8</ele>
        <time>2016-11-11T09:09:33Z</time>
      </trkpt>
      <trkpt lat="48.99684" lon="1.1205">
        <ele>118.2</ele>
        <time>2016-11-11T09:09:37Z</time>
      </trkpt>
      <trkpt lat="48.99678" lon="1.12063">
        <ele>118.7</ele>
        <time>2016-11-11T09:09:42Z</time>
      </trkpt>
      <trkpt lat="48.99676" lon="1.1208">
        <ele>119</ele>
        <time>2016-11-11T09:09:46Z</time>
      </trkpt>
      <trkpt lat="48.99678" lon="1.12094">
        <ele>119.3</ele>
        <time>2016-11-11T09:09:50Z</time>
      </trkpt>
      <trkpt lat="48.99688" lon="1.12098">
        <ele>119.6</ele>
        <time>2016-11-11T09:09:54Z</time>
      </trkpt>
      <trkpt lat="48.99688" lon="1.12112">
        <ele>119.8</ele>
        <time>2016-11-11T09:09:58Z</time>
      </trkpt>
      <trkpt lat="48.9968" lon="1.12121">
        <ele>119.9</ele>
        <time>2016-11-11T09:10:02Z</time>
      </trkpt>
      <trkpt lat="48.99671" lon="1.1213">
        <ele>120</ele>
        <time>2016-11-11T09:10:06Z</time>
      </trkpt>
      <trkpt lat="48.99663" lon="1.12137">
        <ele>120.1</ele>
        <time>2016-11-11T09:10:10Z</time>
      </trkpt>
      <trkpt lat="48.99653" lon="1.12143">
        <ele>120.2</ele>
        <time>2016-11-11T09:10:14Z</time>
      </trkpt>
      <trkpt lat="48.9965" lon="1.12157">
        <ele>120.4</ele>
        <time>2016-11-11T09:10:18Z</time>
      </trkpt>
      <trkpt lat="48.99648" lon="1.12172">
        <ele>120.6</ele>
        <time>2016-11-11T09:10:22Z</time>
      </trkpt>
      <trkpt lat="48.99641" lon="1.12181">
        <ele>120.9</ele>
        <time>2016-11-11T09:10:26Z</time>
      </trkpt>
      <trkpt lat="48.99642" lon="1.12196">
        <ele>121.4</ele>
        <time>2016-11-11T09:10:31Z</time>
      </trkpt>
      <trkpt lat="48.99644" lon="1.1221">
        <ele>121.7</ele>
        <time>2016-11-11T09:10:34Z</time>
      </trkpt>
      <trkpt lat="48.99646" lon="1.12224">
        <ele>122</ele>
        <time>2016-11-11T09:10:37Z</time>
      </trkpt>
      <trkpt lat="48.99649" lon="1.12238">
        <ele>122.3</ele>
        <time>2016-11-11T09:10:40Z</time>
      </trkpt>
      <trkpt lat="48.9965" lon="1.12253">
        <ele>122.5</ele>
        <time>2016-11-11T09:10:43Z</time>
      </trkpt>
      <trkpt lat="48.99652" lon="1.12271">
        <ele>122.6</ele>
        <time>2016-11-11T09:10:46Z</time>
      </trkpt>
      <trkpt lat="48.99655" lon="1.12285">
        <ele>122.8</ele>
        <time>2016-11-11T09:10:49Z</time>
      </trkpt>
      <trkpt lat="48.99658" lon="1.12302">
        <ele>122.9</ele>
        <time>2016-11-11T09:10:53Z</time>
      </trkpt>
      <trkpt lat="48.99659" lon="1.1232">
        <ele>123</ele>
        <time>2016-11-11T09:10:57Z</time>
      </trkpt>
      <trkpt lat="48.99661" lon="1.12336">
        <ele>123.1</ele>
        <time>2016-11-11T09:11:00Z</time>
      </trkpt>
      <trkpt lat="48.99663" lon="1.12352">
        <ele>123.2</ele>
        <time>2016-11-11T09:11:03Z</time>
      </trkpt>
      <trkpt lat="48.99665" lon="1.12366">
        <ele>123.2</ele>
        <time>2016-11-11T09:11:06Z</time>
      </trkpt>
      <trkpt lat="48.99668" lon="1.12384">
        <ele>123.3</ele>
        <time>2016-11-11T09:11:10Z</time>
      </trkpt>
      <trkpt lat="48.99671" lon="1.12401">
        <ele>123.4</ele>
        <time>2016-11-11T09:11:14Z</time>
      </trkpt>
      <trkpt lat="48.99675" lon="1.12416">
        <ele>123.5</ele>
        <time>2016-11-11T09:11:17Z</time>
      </trkpt>
      <trkpt lat="48.99678" lon="1.1243">
        <ele>123.5</ele>
        <time>2016-11-11T09:11:20Z</time>
      </trkpt>
      <trkpt lat="48.9968" lon="1.12445">
        <ele>123.6</ele>
        <time>2016-11-11T09:11:23Z</time>
      </trkpt>
      <trkpt lat="48.99681" lon="1.12459">
        <ele>123.7</ele>
        <time>2016-11-11T09:11:26Z</time>
      </trkpt>
      <trkpt lat="48.99685" lon="1.12474">
        <ele>123.7</ele>
        <time>2016-11-11T09:11:29Z</time>
      </trkpt>
      <trkpt lat="48.99687" lon="1.1249">
        <ele>123.7</ele>
        <time>2016-11-11T09:11:32Z</time>
      </trkpt>
      <trkpt lat="48.99688" lon="1.12506">
        <ele>123.8</ele>
        <time>2016-11-11T09:11:35Z</time>
      </trkpt>
      <trkpt lat="48.99692" lon="1.12521">
        <ele>123.8</ele>
        <time>2016-11-11T09:11:38Z</time>
      </trkpt>
      <trkpt lat="48.99696" lon="1.12539">
        <ele>123.8</ele>
        <time>2016-11-11T09:11:42Z</time>
      </trkpt>
      <trkpt lat="48.99699" lon="1.12554">
        <ele>123.9</ele>
        <time>2016-11-11T09:11:45Z</time>
      </trkpt>
      <trkpt lat="48.99701" lon="1.12568">
        <ele>124.1</ele>
        <time>2016-11-11T09:11:48Z</time>
      </trkpt>
      <trkpt lat="48.99705" lon="1.12582">
        <ele>124.3</ele>
        <time>2016-11-11T09:11:51Z</time>
      </trkpt>
      <trkpt lat="48.99707" lon="1.12596">
        <ele>124.5</ele>
        <time>2016-11-11T09:11:54Z</time>
      </trkpt>
      <trkpt lat="48.9971" lon="1.12613">
        <ele>124.9</ele>
        <time>2016-11-11T09:11:58Z</time>
      </trkpt>
      <trkpt lat="48.9971" lon="1.12631">
        <ele>125.3</ele>
        <time>2016-11-11T09:12:02Z</time>
      </trkpt>
      <trkpt lat="48.99712" lon="1.12644">
        <ele>125.7</ele>
        <time>2016-11-11T09:12:05Z</time>
      </trkpt>
      <trkpt lat="48.99715" lon="1.12661">
        <ele>126.3</ele>
        <time>2016-11-11T09:12:09Z</time>
      </trkpt>
      <trkpt lat="48.99718" lon="1.12676">
        <ele>126.8</ele>
        <time>2016-11-11T09:12:13Z</time>
      </trkpt>
      <trkpt lat="48.99719" lon="1.12691">
        <ele>127.1</ele>
        <time>2016-11-11T09:12:16Z</time>
      </trkpt>
      <trkpt lat="48.99721" lon="1.12705">
        <ele>127.4</ele>
        <time>2016-11-11T09:12:19Z</time>
      </trkpt>
      <trkpt lat="48.99723" lon="1.1272">
        <ele>127.6</ele>
        <time>2016-11-11T09:12:22Z</time>
      </trkpt>
      <trkpt lat="48.99725" lon="1.12735">
        <ele>127.9</ele>
        <time>2016-11-11T09:12:25Z</time>
      </trkpt>
      <trkpt lat="48.99724" lon="1.12749">
        <ele>128.2</ele>
        <time>2016-11-11T09:12:28Z</time>
      </trkpt>
      <trkpt lat="48.99722" lon="1.12765">
        <ele>128.6</ele>
        <time>2016-11-11T09:12:32Z</time>
      </trkpt>
      <trkpt lat="48.99719" lon="1.12781">
        <ele>128.9</ele>
        <time>2016-11-11T09:12:36Z</time>
      </trkpt>
      <trkpt lat="48.99716" lon="1.12796">
        <ele>129.2</ele>
        <time>2016-11-11T09:12:39Z</time>
      </trkpt>
      <trkpt lat="48.99712" lon="1.1281">
        <ele>129.4</ele>
        <time>2016-11-11T09:12:42Z</time>
      </trkpt>
      <trkpt lat="48.99711" lon="1.12825">
        <ele>129.6</ele>
        <time>2016-11-11T09:12:45Z</time>
      </trkpt>
      <trkpt lat="48.99714" lon="1.12843">
        <ele>129.9</ele>
        <time>2016-11-11T09:12:49Z</time>
      </trkpt>
      <trkpt lat="48.99715" lon="1.12858">
        <ele>130.2</ele>
        <time>2016-11-11T09:12:52Z</time>
      </trkpt>
      <trkpt lat="48.99718" lon="1.12871">
        <ele>130.5</ele>
        <time>2016-11-11T09:12:55Z</time>
      </trkpt>
      <trkpt lat="48.99721" lon="1.12887">
        <ele>130.7</ele>
        <time>2016-11-11T09:12:58Z</time>
      </trkpt>
      <trkpt lat="48.99723" lon="1.12904">
        <ele>131.1</ele>
        <time>2016-11-11T09:13:02Z</time>
      </trkpt>
      <trkpt lat="48.99725" lon="1.12918">
        <ele>131.4</ele>
        <time>2016-11-11T09:13:05Z</time>
      </trkpt>
      <trkpt lat="48.99728" lon="1.12935">
        <ele>131.8</ele>
        <time>2016-11-11T09:13:09Z</time>
      </trkpt>
      <trkpt lat="48.9973" lon="1.12949">
        <ele>132.1</ele>
        <time>2016-11-11T09:13:12Z</time>
      </trkpt>
      <trkpt lat="48.99733" lon="1.12967">
        <ele>132.5</ele>
        <time>2016-11-11T09:13:16Z</time>
      </trkpt>
      <trkpt lat="48.99734" lon="1.12981">
        <ele>132.9</ele>
        <time>2016-11-11T09:13:19Z</time>
      </trkpt>
      <trkpt lat="48.99736" lon="1.12996">
        <ele>133.2</ele>
        <time>2016-11-11T09:13:22Z</time>
      </trkpt>
      <trkpt lat="48.99739" lon="1.13011">
        <ele>133.5</ele>
        <time>2016-11-11T09:13:25Z</time>
      </trkpt>
      <trkpt lat="48.9974" lon="1.13026">
        <ele>133.7</ele>
        <time>2016-11-11T09:13:28Z</time>
      </trkpt>
      <trkpt lat="48.99742" lon="1.13041">
        <ele>133.9</ele>
        <time>2016-11-11T09:13:31Z</time>
      </trkpt>
      <trkpt lat="48.99744" lon="1.13056">
        <ele>134.1</ele>
        <time>2016-11-11T09:13:34Z</time>
      </trkpt>
      <trkpt lat="48.99748" lon="1.1307">
        <ele>134.2</ele>
        <time>2016-11-11T09:13:37Z</time>
      </trkpt>
      <trkpt lat="48.99759" lon="1.13073">
        <ele>134.6</ele>
        <time>2016-11-11T09:13:43Z</time>
      </trkpt>
      <trkpt lat="48.99768" lon="1.13075">
        <ele>134.8</ele>
        <time>2016-11-11T09:13:48Z</time>
      </trkpt>
      <trkpt lat="48.9978" lon="1.13073">
        <ele>134.9</ele>
        <time>2016-11-11T09:13:53Z</time>
      </trkpt>
      <trkpt lat="48.9979" lon="1.13075">
        <ele>135</ele>
        <time>2016-11-11T09:13:57Z</time>
      </trkpt>
      <trkpt lat="48.99799" lon="1.13077">
        <ele>135.1</ele>
        <time>2016-11-11T09:14:00Z</time>
      </trkpt>
      <trkpt lat="48.99809" lon="1.13087">
        <ele>135.2</ele>
        <time>2016-11-11T09:14:04Z</time>
      </trkpt>
      <trkpt lat="48.99816" lon="1.13095">
        <ele>135.3</ele>
        <time>2016-11-11T09:14:07Z</time>
      </trkpt>
      <trkpt lat="48.99828" lon="1.13101">
        <ele>135.4</ele>
        <time>2016-11-11T09:14:11Z</time>
      </trkpt>
      <trkpt lat="48.99837" lon="1.13104">
        <ele>135.4</ele>
        <time>2016-11-11T09:14:15Z</time>
      </trkpt>
      <trkpt lat="48.99845" lon="1.13109">
        <ele>135.4</ele>
        <time>2016-11-11T09:14:18Z</time>
      </trkpt>
      <trkpt lat="48.99856" lon="1.1311">
        <ele>135.5</ele>
        <time>2016-11-11T09:14:22Z</time>
      </trkpt>
      <trkpt lat="48.99866" lon="1.13099">
        <ele>135.5</ele>
        <time>2016-11-11T09:14:26Z</time>
      </trkpt>
      <trkpt lat="48.9987" lon="1.13087">
        <ele>135.4</ele>
        <time>2016-11-11T09:14:29Z</time>
      </trkpt>
      <trkpt lat="48.99874" lon="1.13071">
        <ele>135.4</ele>
        <time>2016-11-11T09:14:33Z</time>
      </trkpt>
      <trkpt lat="48.99879" lon="1.13059">
        <ele>135.3</ele>
        <time>2016-11-11T09:14:36Z</time>
      </trkpt>
      <trkpt lat="48.99885" lon="1.13044">
        <ele>135.1</ele>
        <time>2016-11-11T09:14:40Z</time>
      </trkpt>
      <trkpt lat="48.99888" lon="1.13027">
        <ele>134.8</ele>
        <time>2016-11-11T09:14:44Z</time>
      </trkpt>
      <trkpt lat="48.99894" lon="1.13015">
        <ele>134.6</ele>
        <time>2016-11-11T09:14:47Z</time>
      </trkpt>
      <trkpt lat="48.99899" lon="1.13001">
        <ele>134.4</ele>
        <time>2016-11-11T09:14:50Z</time>
      </trkpt>
      <trkpt lat="48.99902" lon="1.12988">
        <ele>134.2</ele>
        <time>2016-11-11T09:14:53Z</time>
      </trkpt>
      <trkpt lat="48.99905" lon="1.12973">
        <ele>134</ele>
        <time>2016-11-11T09:14:56Z</time>
      </trkpt>
      <trkpt lat="48.99908" lon="1.12957">
        <ele>133.8</ele>
        <time>2016-11-11T09:14:59Z</time>
      </trkpt>
      <trkpt lat="48.99913" lon="1.12944">
        <ele>133.6</ele>
        <time>2016-11-11T09:15:02Z</time>
      </trkpt>
      <trkpt lat="48.99919" lon="1.12931">
        <ele>133.4</ele>
        <time>2016-11-11T09:15:05Z</time>
      </trkpt>
      <trkpt lat="48.99921" lon="1.12916">
        <ele>133.1</ele>
        <time>2016-11-11T09:15:10Z</time>
      </trkpt>
      <trkpt lat="48.99913" lon="1.12905">
        <ele>132.7</ele>
        <time>2016-11-11T09:15:14Z</time>
      </trkpt>
      <trkpt lat="48.99904" lon="1.129">
        <ele>132.4</ele>
        <time>2016-11-11T09:15:18Z</time>
      </trkpt>
      <trkpt lat="48.999" lon="1.12886">
        <ele>132.1</ele>
        <time>2016-11-11T09:15:22Z</time>
      </trkpt>
      <trkpt lat="48.99902" lon="1.1287">
        <ele>131.9</ele>
        <time>2016-11-11T09:15:26Z</time>
      </trkpt>
      <trkpt lat="48.99905" lon="1.12852">
        <ele>131.8</ele>
        <time>2016-11-11T09:15:30Z</time>
      </trkpt>
      <trkpt lat="48.99909" lon="1.12836">
        <ele>131.4</ele>
        <time>2016-11-11T09:15:34Z</time>
      </trkpt>
      <trkpt lat="48.99912" lon="1.12822">
        <ele>130.9</ele>
        <time>2016-11-11T09:15:38Z</time>
      </trkpt>
      <trkpt lat="48.99919" lon="1.1281">
        <ele>130.6</ele>
        <time>2016-11-11T09:15:42Z</time>
      </trkpt>
      <trkpt lat="48.9993" lon="1.12811">
        <ele>130.3</ele>
        <time>2016-11-11T09:15:46Z</time>
      </trkpt>
      <trkpt lat="48.99941" lon="1.12813">
        <ele>130.1</ele>
        <time>2016-11-11T09:15:50Z</time>
      </trkpt>
      <trkpt lat="48.99951" lon="1.12813">
        <ele>130</ele>
        <time>2016-11-11T09:15:53Z</time>
      </trkpt>
      <trkpt lat="48.9996" lon="1.12815">
        <ele>129.8</ele>
        <time>2016-11-11T09:15:56Z</time>
      </trkpt>
      <trkpt lat="48.9997" lon="1.12816">
        <ele>129.6</ele>
        <time>2016-11-11T09:15:59Z</time>
      </trkpt>
      <trkpt lat="48.9998" lon="1.12817">
        <ele>129.5</ele>
        <time>2016-11-11T09:16:02Z</time>
      </trkpt>
      <trkpt lat="48.99989" lon="1.12818">
        <ele>129.3</ele>
        <time>2016-11-11T09:16:05Z</time>
      </trkpt>
      <trkpt lat="49" lon="1.12819">
        <ele>129.1</ele>
        <time>2016-11-11T09:16:08Z</time>
      </trkpt>
      <trkpt lat="49.00012" lon="1.1282">
        <ele>128.9</ele>
        <time>2016-11-11T09:16:11Z</time>
      </trkpt>
      <trkpt lat="49.00023" lon="1.12821">
        <ele>128.7</ele>
        <time>2016-11-11T09:16:14Z</time>
      </trkpt>
      <trkpt lat="49.00035" lon="1.12823">
        <ele>128.4</ele>
        <time>2016-11-11T09:16:17Z</time>
      </trkpt>
      <trkpt lat="49.00044" lon="1.12824">
        <ele>128.3</ele>
        <time>2016-11-11T09:16:19Z</time>
      </trkpt>
      <trkpt lat="49.00054" lon="1.12825">
        <ele>128.1</ele>
        <time>2016-11-11T09:16:21Z</time>
      </trkpt>
      <trkpt lat="49.00064" lon="1.12825">
        <ele>127.9</ele>
        <time>2016-11-11T09:16:23Z</time>
      </trkpt>
      <trkpt lat="49.00073" lon="1.12825">
        <ele>127.7</ele>
        <time>2016-11-11T09:16:25Z</time>
      </trkpt>
      <trkpt lat="49.00083" lon="1.12825">
        <ele>127.4</ele>
        <time>2016-11-11T09:16:28Z</time>
      </trkpt>
      <trkpt lat="49.00099" lon="1.12828">
        <ele>127.1</ele>
        <time>2016-11-11T09:16:31Z</time>
      </trkpt>
      <trkpt lat="49.00109" lon="1.12829">
        <ele>126.9</ele>
        <time>2016-11-11T09:16:33Z</time>
      </trkpt>
      <trkpt lat="49.00123" lon="1.12828">
        <ele>126.5</ele>
        <time>2016-11-11T09:16:36Z</time>
      </trkpt>
      <trkpt lat="49.00134" lon="1.1283">
        <ele>126.2</ele>
        <time>2016-11-11T09:16:38Z</time>
      </trkpt>
      <trkpt lat="49.00144" lon="1.12832">
        <ele>126</ele>
        <time>2016-11-11T09:16:40Z</time>
      </trkpt>
      <trkpt lat="49.00156" lon="1.12833">
        <ele>125.7</ele>
        <time>2016-11-11T09:16:42Z</time>
      </trkpt>
      <trkpt lat="49.00167" lon="1.12835">
        <ele>125.5</ele>
        <time>2016-11-11T09:16:44Z</time>
      </trkpt>
      <trkpt lat="49.00176" lon="1.12836">
        <ele>125.3</ele>
        <time>2016-11-11T09:16:46Z</time>
      </trkpt>
      <trkpt lat="49.00189" lon="1.12839">
        <ele>125</ele>
        <time>2016-11-11T09:16:49Z</time>
      </trkpt>
      <trkpt lat="49.00199" lon="1.12839">
        <ele>124.9</ele>
        <time>2016-11-11T09:16:51Z</time>
      </trkpt>
      <trkpt lat="49.00208" lon="1.12841">
        <ele>124.7</ele>
        <time>2016-11-11T09:16:53Z</time>
      </trkpt>
      <trkpt lat="49.00218" lon="1.12842">
        <ele>124.6</ele>
        <time>2016-11-11T09:16:55Z</time>
      </trkpt>
      <trkpt lat="49.00229" lon="1.12844">
        <ele>124.3</ele>
        <time>2016-11-11T09:16:58Z</time>
      </trkpt>
      <trkpt lat="49.00238" lon="1.1285">
        <ele>124</ele>
        <time>2016-11-11T09:17:01Z</time>
      </trkpt>
      <trkpt lat="49.00248" lon="1.12855">
        <ele>123.6</ele>
        <time>2016-11-11T09:17:05Z</time>
      </trkpt>
      <trkpt lat="49.00257" lon="1.12847">
        <ele>123.1</ele>
        <time>2016-11-11T09:17:10Z</time>
      </trkpt>
      <trkpt lat="49.00268" lon="1.12848">
        <ele>122.5</ele>
        <time>2016-11-11T09:17:15Z</time>
      </trkpt>
      <trkpt lat="49.00278" lon="1.12849">
        <ele>122</ele>
        <time>2016-11-11T09:17:18Z</time>
      </trkpt>
      <trkpt lat="49.00292" lon="1.12851">
        <ele>121.6</ele>
        <time>2016-11-11T09:17:21Z</time>
      </trkpt>
      <trkpt lat="49.00304" lon="1.12852">
        <ele>121.2</ele>
        <time>2016-11-11T09:17:24Z</time>
      </trkpt>
      <trkpt lat="49.00315" lon="1.12852">
        <ele>120.8</ele>
        <time>2016-11-11T09:17:27Z</time>
      </trkpt>
      <trkpt lat="49.00325" lon="1.12853">
        <ele>120.4</ele>
        <time>2016-11-11T09:17:30Z</time>
      </trkpt>
      <trkpt lat="49.00335" lon="1.12853">
        <ele>120</ele>
        <time>2016-11-11T09:17:33Z</time>
      </trkpt>
      <trkpt lat="49.00348" lon="1.12854">
        <ele>119.7</ele>
        <time>2016-11-11T09:17:36Z</time>
      </trkpt>
      <trkpt lat="49.00361" lon="1.12855">
        <ele>119.4</ele>
        <time>2016-11-11T09:17:39Z</time>
      </trkpt>
      <trkpt lat="49.00371" lon="1.12849">
        <ele>119.1</ele>
        <time>2016-11-11T09:17:42Z</time>
      </trkpt>
      <trkpt lat="49.00377" lon="1.12833">
        <ele>118.9</ele>
        <time>2016-11-11T09:17:45Z</time>
      </trkpt>
      <trkpt lat="49.00383" lon="1.12816">
        <ele>118.7</ele>
        <time>2016-11-11T09:17:48Z</time>
      </trkpt>
      <trkpt lat="49.00387" lon="1.12803">
        <ele>118.5</ele>
        <time>2016-11-11T09:17:50Z</time>
      </trkpt>
      <trkpt lat="49.0039" lon="1.1279">
        <ele>118.4</ele>
        <time>2016-11-11T09:17:52Z</time>
      </trkpt>
      <trkpt lat="49.00392" lon="1.12771">
        <ele>118.2</ele>
        <time>2016-11-11T09:17:55Z</time>
      </trkpt>
      <trkpt lat="49.00395" lon="1.12758">
        <ele>118.1</ele>
        <time>2016-11-11T09:17:57Z</time>
      </trkpt>
      <trkpt lat="49.00398" lon="1.12743">
        <ele>118</ele>
        <time>2016-11-11T09:17:59Z</time>
      </trkpt>
      <trkpt lat="49.00399" lon="1.12727">
        <ele>117.9</ele>
        <time>2016-11-11T09:18:01Z</time>
      </trkpt>
      <trkpt lat="49.00402" lon="1.1271">
        <ele>117.8</ele>
        <time>2016-11-11T09:18:04Z</time>
      </trkpt>
      <trkpt lat="49.00407" lon="1.1269">
        <ele>117.6</ele>
        <time>2016-11-11T09:18:07Z</time>
      </trkpt>
      <trkpt lat="49.00408" lon="1.12671">
        <ele>117.5</ele>
        <time>2016-11-11T09:18:10Z</time>
      </trkpt>
      <trkpt lat="49.0041" lon="1.12652">
        <ele>117.4</ele>
        <time>2016-11-11T09:18:13Z</time>
      </trkpt>
      <trkpt lat="49.00413" lon="1.12633">
        <ele>117.3</ele>
        <time>2016-11-11T09:18:16Z</time>
      </trkpt>
      <trkpt lat="49.00416" lon="1.12616">
        <ele>117.3</ele>
        <time>2016-11-11T09:18:19Z</time>
      </trkpt>
      <trkpt lat="49.00419" lon="1.12597">
        <ele>117.2</ele>
        <time>2016-11-11T09:18:22Z</time>
      </trkpt>
      <trkpt lat="49.00421" lon="1.12579">
        <ele>117.2</ele>
        <time>2016-11-11T09:18:25Z</time>
      </trkpt>
      <trkpt lat="49.00423" lon="1.12561">
        <ele>117.2</ele>
        <time>2016-11-11T09:18:28Z</time>
      </trkpt>
      <trkpt lat="49.00426" lon="1.12542">
        <ele>117.3</ele>
        <time>2016-11-11T09:18:31Z</time>
      </trkpt>
      <trkpt lat="49.00427" lon="1.12528">
        <ele>117.3</ele>
        <time>2016-11-11T09:18:33Z</time>
      </trkpt>
      <trkpt lat="49.00429" lon="1.12514">
        <ele>117.3</ele>
        <time>2016-11-11T09:18:35Z</time>
      </trkpt>
      <trkpt lat="49.00429" lon="1.12499">
        <ele>117.3</ele>
        <time>2016-11-11T09:18:37Z</time>
      </trkpt>
      <trkpt lat="49.00431" lon="1.12478">
        <ele>117.3</ele>
        <time>2016-11-11T09:18:40Z</time>
      </trkpt>
      <trkpt lat="49.00434" lon="1.12458">
        <ele>117.3</ele>
        <time>2016-11-11T09:18:43Z</time>
      </trkpt>
      <trkpt lat="49.00436" lon="1.12445">
        <ele>117.4</ele>
        <time>2016-11-11T09:18:45Z</time>
      </trkpt>
      <trkpt lat="49.00436" lon="1.12428">
        <ele>117.4</ele>
        <time>2016-11-11T09:18:47Z</time>
      </trkpt>
      <trkpt lat="49.00438" lon="1.12412">
        <ele>117.3</ele>
        <time>2016-11-11T09:18:49Z</time>
      </trkpt>
      <trkpt lat="49.0044" lon="1.12396">
        <ele>117.3</ele>
        <time>2016-11-11T09:18:51Z</time>
      </trkpt>
      <trkpt lat="49.00441" lon="1.12381">
        <ele>117.2</ele>
        <time>2016-11-11T09:18:53Z</time>
      </trkpt>
      <trkpt lat="49.00442" lon="1.12367">
        <ele>117.2</ele>
        <time>2016-11-11T09:18:55Z</time>
      </trkpt>
      <trkpt lat="49.00444" lon="1.12353">
        <ele>117.1</ele>
        <time>2016-11-11T09:18:57Z</time>
      </trkpt>
      <trkpt lat="49.00447" lon="1.12339">
        <ele>116.9</ele>
        <time>2016-11-11T09:18:59Z</time>
      </trkpt>
      <trkpt lat="49.00449" lon="1.12325">
        <ele>116.7</ele>
        <time>2016-11-11T09:19:01Z</time>
      </trkpt>
      <trkpt lat="49.00451" lon="1.12307">
        <ele>116.4</ele>
        <time>2016-11-11T09:19:03Z</time>
      </trkpt>
      <trkpt lat="49.00454" lon="1.12287">
        <ele>116.1</ele>
        <time>2016-11-11T09:19:05Z</time>
      </trkpt>
      <trkpt lat="49.00456" lon="1.12264">
        <ele>115.6</ele>
        <time>2016-11-11T09:19:07Z</time>
      </trkpt>
      <trkpt lat="49.00459" lon="1.12247">
        <ele>115.2</ele>
        <time>2016-11-11T09:19:09Z</time>
      </trkpt>
      <trkpt lat="49.00463" lon="1.12231">
        <ele>114.9</ele>
        <time>2016-11-11T09:19:11Z</time>
      </trkpt>
      <trkpt lat="49.00464" lon="1.12213">
        <ele>114.6</ele>
        <time>2016-11-11T09:19:13Z</time>
      </trkpt>
      <trkpt lat="49.00465" lon="1.12198">
        <ele>114.4</ele>
        <time>2016-11-11T09:19:15Z</time>
      </trkpt>
      <trkpt lat="49.00467" lon="1.12179">
        <ele>114.3</ele>
        <time>2016-11-11T09:19:18Z</time>
      </trkpt>
      <trkpt lat="49.0047" lon="1.12161">
        <ele>114.2</ele>
        <time>2016-11-11T09:19:21Z</time>
      </trkpt>
      <trkpt lat="49.0047" lon="1.12147">
        <ele>114.2</ele>
        <time>2016-11-11T09:19:23Z</time>
      </trkpt>
      <trkpt lat="49.0047" lon="1.12131">
        <ele>114.2</ele>
        <time>2016-11-11T09:19:25Z</time>
      </trkpt>
      <trkpt lat="49.00472" lon="1.12117">
        <ele>114.2</ele>
        <time>2016-11-11T09:19:27Z</time>
      </trkpt>
      <trkpt lat="49.00474" lon="1.12102">
        <ele>114.2</ele>
        <time>2016-11-11T09:19:29Z</time>
      </trkpt>
      <trkpt lat="49.00475" lon="1.12087">
        <ele>114.2</ele>
        <time>2016-11-11T09:19:31Z</time>
      </trkpt>
      <trkpt lat="49.00475" lon="1.12072">
        <ele>114.3</ele>
        <time>2016-11-11T09:19:33Z</time>
      </trkpt>
      <trkpt lat="49.00478" lon="1.12059">
        <ele>114.3</ele>
        <time>2016-11-11T09:19:35Z</time>
      </trkpt>
      <trkpt lat="49.0048" lon="1.12043">
        <ele>114.3</ele>
        <time>2016-11-11T09:19:37Z</time>
      </trkpt>
      <trkpt lat="49.00482" lon="1.1203">
        <ele>114.3</ele>
        <time>2016-11-11T09:19:39Z</time>
      </trkpt>
      <trkpt lat="49.00484" lon="1.12015">
        <ele>114.3</ele>
        <time>2016-11-11T09:19:41Z</time>
      </trkpt>
      <trkpt lat="49.00486" lon="1.11998">
        <ele>114.4</ele>
        <time>2016-11-11T09:19:43Z</time>
      </trkpt>
      <trkpt lat="49.00488" lon="1.11984">
        <ele>114.4</ele>
        <time>2016-11-11T09:19:45Z</time>
      </trkpt>
      <trkpt lat="49.0049" lon="1.11968">
        <ele>114.4</ele>
        <time>2016-11-11T09:19:47Z</time>
      </trkpt>
      <trkpt lat="49.00493" lon="1.11953">
        <ele>114.4</ele>
        <time>2016-11-11T09:19:49Z</time>
      </trkpt>
      <trkpt lat="49.00495" lon="1.11938">
        <ele>114.4</ele>
        <time>2016-11-11T09:19:51Z</time>
      </trkpt>
      <trkpt lat="49.00495" lon="1.11923">
        <ele>114.4</ele>
        <time>2016-11-11T09:19:53Z</time>
      </trkpt>
      <trkpt lat="49.00498" lon="1.11908">
        <ele>114.4</ele>
        <time>2016-11-11T09:19:55Z</time>
      </trkpt>
      <trkpt lat="49.00501" lon="1.11894">
        <ele>114.4</ele>
        <time>2016-11-11T09:19:57Z</time>
      </trkpt>
      <trkpt lat="49.00503" lon="1.11874">
        <ele>114.4</ele>
        <time>2016-11-11T09:20:00Z</time>
      </trkpt>
      <trkpt lat="49.00505" lon="1.1186">
        <ele>114.4</ele>
        <time>2016-11-11T09:20:02Z</time>
      </trkpt>
      <trkpt lat="49.00509" lon="1.11841">
        <ele>114.5</ele>
        <time>2016-11-11T09:20:05Z</time>
      </trkpt>
      <trkpt lat="49.0051" lon="1.11826">
        <ele>114.5</ele>
        <time>2016-11-11T09:20:07Z</time>
      </trkpt>
      <trkpt lat="49.00511" lon="1.11809">
        <ele>114.5</ele>
        <time>2016-11-11T09:20:09Z</time>
      </trkpt>
      <trkpt lat="49.00512" lon="1.11794">
        <ele>114.5</ele>
        <time>2016-11-11T09:20:11Z</time>
      </trkpt>
      <trkpt lat="49.00514" lon="1.11779">
        <ele>114.5</ele>
        <time>2016-11-11T09:20:13Z</time>
      </trkpt>
      <trkpt lat="49.00516" lon="1.11763">
        <ele>114.5</ele>
        <time>2016-11-11T09:20:15Z</time>
      </trkpt>
      <trkpt lat="49.00518" lon="1.11746">
        <ele>114.4</ele>
        <time>2016-11-11T09:20:17Z</time>
      </trkpt>
      <trkpt lat="49.0052" lon="1.11731">
        <ele>114.3</ele>
        <time>2016-11-11T09:20:19Z</time>
      </trkpt>
      <trkpt lat="49.00523" lon="1.11716">
        <ele>114.2</ele>
        <time>2016-11-11T09:20:21Z</time>
      </trkpt>
      <trkpt lat="49.00524" lon="1.117">
        <ele>114.1</ele>
        <time>2016-11-11T09:20:23Z</time>
      </trkpt>
      <trkpt lat="49.00526" lon="1.11685">
        <ele>113.9</ele>
        <time>2016-11-11T09:20:25Z</time>
      </trkpt>
      <trkpt lat="49.00527" lon="1.11669">
        <ele>113.8</ele>
        <time>2016-11-11T09:20:27Z</time>
      </trkpt>
      <trkpt lat="49.00528" lon="1.11653">
        <ele>113.7</ele>
        <time>2016-11-11T09:20:29Z</time>
      </trkpt>
      <trkpt lat="49.00529" lon="1.11637">
        <ele>113.6</ele>
        <time>2016-11-11T09:20:31Z</time>
      </trkpt>
      <trkpt lat="49.00531" lon="1.11622">
        <ele>113.3</ele>
        <time>2016-11-11T09:20:33Z</time>
      </trkpt>
      <trkpt lat="49.00541" lon="1.11612">
        <ele>112.9</ele>
        <time>2016-11-11T09:20:36Z</time>
      </trkpt>
      <trkpt lat="49.00554" lon="1.11613">
        <ele>112.2</ele>
        <time>2016-11-11T09:20:39Z</time>
      </trkpt>
      <trkpt lat="49.00565" lon="1.11615">
        <ele>111.6</ele>
        <time>2016-11-11T09:20:41Z</time>
      </trkpt>
      <trkpt lat="49.00578" lon="1.11618">
        <ele>111</ele>
        <time>2016-11-11T09:20:43Z</time>
      </trkpt>
      <trkpt lat="49.00591" lon="1.11622">
        <ele>110.3</ele>
        <time>2016-11-11T09:20:45Z</time>
      </trkpt>
      <trkpt lat="49.00608" lon="1.11627">
        <ele>109.5</ele>
        <time>2016-11-11T09:20:47Z</time>
      </trkpt>
      <trkpt lat="49.00625" lon="1.11632">
        <ele>108.6</ele>
        <time>2016-11-11T09:20:49Z</time>
      </trkpt>
      <trkpt lat="49.00634" lon="1.11635">
        <ele>108.2</ele>
        <time>2016-11-11T09:20:50Z</time>
      </trkpt>
      <trkpt lat="49.00643" lon="1.11638">
        <ele>107.7</ele>
        <time>2016-11-11T09:20:51Z</time>
      </trkpt>
      <trkpt lat="49.00652" lon="1.11641">
        <ele>107.2</ele>
        <time>2016-11-11T09:20:52Z</time>
      </trkpt>
      <trkpt lat="49.00661" lon="1.11644">
        <ele>106.7</ele>
        <time>2016-11-11T09:20:53Z</time>
      </trkpt>
      <trkpt lat="49.00671" lon="1.11647">
        <ele>106.1</ele>
        <time>2016-11-11T09:20:54Z</time>
      </trkpt>
      <trkpt lat="49.0068" lon="1.11651">
        <ele>105.5</ele>
        <time>2016-11-11T09:20:55Z</time>
      </trkpt>
      <trkpt lat="49.00689" lon="1.11654">
        <ele>104.9</ele>
        <time>2016-11-11T09:20:56Z</time>
      </trkpt>
      <trkpt lat="49.00699" lon="1.11657">
        <ele>104.3</ele>
        <time>2016-11-11T09:20:57Z</time>
      </trkpt>
      <trkpt lat="49.00709" lon="1.1166">
        <ele>103.7</ele>
        <time>2016-11-11T09:20:58Z</time>
      </trkpt>
      <trkpt lat="49.00718" lon="1.11663">
        <ele>103</ele>
        <time>2016-11-11T09:20:59Z</time>
      </trkpt>
      <trkpt lat="49.00728" lon="1.11666">
        <ele>102.2</ele>
        <time>2016-11-11T09:21:00Z</time>
      </trkpt>
      <trkpt lat="49.00738" lon="1.1167">
        <ele>101.5</ele>
        <time>2016-11-11T09:21:01Z</time>
      </trkpt>
      <trkpt lat="49.00748" lon="1.11673">
        <ele>100.7</ele>
        <time>2016-11-11T09:21:02Z</time>
      </trkpt>
      <trkpt lat="49.00757" lon="1.11675">
        <ele>99.9</ele>
        <time>2016-11-11T09:21:03Z</time>
      </trkpt>
      <trkpt lat="49.00767" lon="1.11678">
        <ele>99.2</ele>
        <time>2016-11-11T09:21:04Z</time>
      </trkpt>
      <trkpt lat="49.00776" lon="1.11681">
        <ele>98.5</ele>
        <time>2016-11-11T09:21:05Z</time>
      </trkpt>
      <trkpt lat="49.00785" lon="1.11683">
        <ele>97.8</ele>
        <time>2016-11-11T09:21:06Z</time>
      </trkpt>
      <trkpt lat="49.00803" lon="1.11689">
        <ele>96.4</ele>
        <time>2016-11-11T09:21:08Z</time>
      </trkpt>
      <trkpt lat="49.00811" lon="1.11692">
        <ele>95.5</ele>
        <time>2016-11-11T09:21:09Z</time>
      </trkpt>
      <trkpt lat="49.00829" lon="1.11698">
        <ele>93.9</ele>
        <time>2016-11-11T09:21:11Z</time>
      </trkpt>
      <trkpt lat="49.00845" lon="1.11703">
        <ele>92.5</ele>
        <time>2016-11-11T09:21:13Z</time>
      </trkpt>
      <trkpt lat="49.00861" lon="1.11707">
        <ele>91.1</ele>
        <time>2016-11-11T09:21:15Z</time>
      </trkpt>
      <trkpt lat="49.00877" lon="1.11713">
        <ele>89.7</ele>
        <time>2016-11-11T09:21:17Z</time>
      </trkpt>
      <trkpt lat="49.00893" lon="1.11718">
        <ele>88.1</ele>
        <time>2016-11-11T09:21:19Z</time>
      </trkpt>
      <trkpt lat="49.00908" lon="1.11724">
        <ele>86.4</ele>
        <time>2016-11-11T09:21:21Z</time>
      </trkpt>
      <trkpt lat="49.00919" lon="1.11725">
        <ele>84.6</ele>
        <time>2016-11-11T09:21:23Z</time>
      </trkpt>
      <trkpt lat="49.00929" lon="1.1172">
        <ele>82.9</ele>
        <time>2016-11-11T09:21:25Z</time>
      </trkpt>
      <trkpt lat="49.00938" lon="1.11713">
        <ele>81.3</ele>
        <time>2016-11-11T09:21:27Z</time>
      </trkpt>
      <trkpt lat="49.00948" lon="1.11716">
        <ele>80</ele>
        <time>2016-11-11T09:21:29Z</time>
      </trkpt>
      <trkpt lat="49.00961" lon="1.11723">
        <ele>78.6</ele>
        <time>2016-11-11T09:21:31Z</time>
      </trkpt>
      <trkpt lat="49.00977" lon="1.11729">
        <ele>77.2</ele>
        <time>2016-11-11T09:21:33Z</time>
      </trkpt>
      <trkpt lat="49.00994" lon="1.11735">
        <ele>75.7</ele>
        <time>2016-11-11T09:21:35Z</time>
      </trkpt>
      <trkpt lat="49.01011" lon="1.11742">
        <ele>74.2</ele>
        <time>2016-11-11T09:21:37Z</time>
      </trkpt>
      <trkpt lat="49.01026" lon="1.11748">
        <ele>72.6</ele>
        <time>2016-11-11T09:21:39Z</time>
      </trkpt>
      <trkpt lat="49.01036" lon="1.11753">
        <ele>71.1</ele>
        <time>2016-11-11T09:21:41Z</time>
      </trkpt>
      <trkpt lat="49.01046" lon="1.11757">
        <ele>67.7</ele>
        <time>2016-11-11T09:21:46Z</time>
      </trkpt>
      <trkpt lat="49.01055" lon="1.11753">
        <ele>58.5</ele>
        <time>2016-11-11T09:22:25Z</time>
      </trkpt>
      <trkpt lat="49.01066" lon="1.1176">
        <ele>58.3</ele>
        <time>2016-11-11T09:22:29Z</time>
      </trkpt>
      <trkpt lat="49.01077" lon="1.11769">
        <ele>58.2</ele>
        <time>2016-11-11T09:22:32Z</time>
      </trkpt>
      <trkpt lat="49.01088" lon="1.11777">
        <ele>58.1</ele>
        <time>2016-11-11T09:22:35Z</time>
      </trkpt>
      <trkpt lat="49.01101" lon="1.11785">
        <ele>58</ele>
        <time>2016-11-11T09:22:38Z</time>
      </trkpt>
      <trkpt lat="49.0111" lon="1.1179">
        <ele>58</ele>
        <time>2016-11-11T09:22:40Z</time>
      </trkpt>
      <trkpt lat="49.01119" lon="1.11796">
        <ele>57.9</ele>
        <time>2016-11-11T09:22:42Z</time>
      </trkpt>
      <trkpt lat="49.01128" lon="1.11802">
        <ele>57.9</ele>
        <time>2016-11-11T09:22:44Z</time>
      </trkpt>
      <trkpt lat="49.01138" lon="1.11808">
        <ele>57.9</ele>
        <time>2016-11-11T09:22:46Z</time>
      </trkpt>
      <trkpt lat="49.01148" lon="1.11814">
        <ele>57.8</ele>
        <time>2016-11-11T09:22:48Z</time>
      </trkpt>
      <trkpt lat="49.01158" lon="1.11819">
        <ele>57.7</ele>
        <time>2016-11-11T09:22:50Z</time>
      </trkpt>
      <trkpt lat="49.01168" lon="1.11825">
        <ele>57.7</ele>
        <time>2016-11-11T09:22:52Z</time>
      </trkpt>
      <trkpt lat="49.01177" lon="1.11831">
        <ele>57.6</ele>
        <time>2016-11-11T09:22:54Z</time>
      </trkpt>
      <trkpt lat="49.01187" lon="1.11836">
        <ele>57.6</ele>
        <time>2016-11-11T09:22:56Z</time>
      </trkpt>
      <trkpt lat="49.01195" lon="1.11841">
        <ele>57.5</ele>
        <time>2016-11-11T09:22:58Z</time>
      </trkpt>
      <trkpt lat="49.01208" lon="1.11848">
        <ele>57.5</ele>
        <time>2016-11-11T09:23:01Z</time>
      </trkpt>
      <trkpt lat="49.01219" lon="1.11855">
        <ele>57.4</ele>
        <time>2016-11-11T09:23:04Z</time>
      </trkpt>
      <trkpt lat="49.01231" lon="1.11861">
        <ele>57.4</ele>
        <time>2016-11-11T09:23:07Z</time>
      </trkpt>
      <trkpt lat="49.01243" lon="1.11868">
        <ele>57.3</ele>
        <time>2016-11-11T09:23:10Z</time>
      </trkpt>
      <trkpt lat="49.01252" lon="1.11873">
        <ele>57.3</ele>
        <time>2016-11-11T09:23:12Z</time>
      </trkpt>
      <trkpt lat="49.01261" lon="1.11878">
        <ele>57.3</ele>
        <time>2016-11-11T09:23:14Z</time>
      </trkpt>
      <trkpt lat="49.01269" lon="1.11883">
        <ele>57.3</ele>
        <time>2016-11-11T09:23:16Z</time>
      </trkpt>
      <trkpt lat="49.01278" lon="1.11888">
        <ele>57.3</ele>
        <time>2016-11-11T09:23:18Z</time>
      </trkpt>
      <trkpt lat="49.0129" lon="1.11895">
        <ele>57.3</ele>
        <time>2016-11-11T09:23:21Z</time>
      </trkpt>
      <trkpt lat="49.01302" lon="1.11901">
        <ele>57.3</ele>
        <time>2016-11-11T09:23:24Z</time>
      </trkpt>
      <trkpt lat="49.01314" lon="1.11901">
        <ele>57.3</ele>
        <time>2016-11-11T09:23:27Z</time>
      </trkpt>
      <trkpt lat="49.01322" lon="1.11887">
        <ele>57.2</ele>
        <time>2016-11-11T09:23:30Z</time>
      </trkpt>
      <trkpt lat="49.01328" lon="1.11869">
        <ele>57.2</ele>
        <time>2016-11-11T09:23:33Z</time>
      </trkpt>
      <trkpt lat="49.01334" lon="1.11851">
        <ele>57.2</ele>
        <time>2016-11-11T09:23:36Z</time>
      </trkpt>
      <trkpt lat="49.01338" lon="1.11837">
        <ele>57.2</ele>
        <time>2016-11-11T09:23:38Z</time>
      </trkpt>
      <trkpt lat="49.01343" lon="1.11823">
        <ele>57.2</ele>
        <time>2016-11-11T09:23:40Z</time>
      </trkpt>
      <trkpt lat="49.01347" lon="1.11809">
        <ele>57.2</ele>
        <time>2016-11-11T09:23:42Z</time>
      </trkpt>
      <trkpt lat="49.01352" lon="1.11796">
        <ele>57.2</ele>
        <time>2016-11-11T09:23:44Z</time>
      </trkpt>
      <trkpt lat="49.01356" lon="1.11783">
        <ele>57.2</ele>
        <time>2016-11-11T09:23:46Z</time>
      </trkpt>
      <trkpt lat="49.0136" lon="1.11771">
        <ele>57.2</ele>
        <time>2016-11-11T09:23:48Z</time>
      </trkpt>
      <trkpt lat="49.01364" lon="1.11758">
        <ele>57.1</ele>
        <time>2016-11-11T09:23:50Z</time>
      </trkpt>
      <trkpt lat="49.01368" lon="1.11745">
        <ele>57.1</ele>
        <time>2016-11-11T09:23:52Z</time>
      </trkpt>
      <trkpt lat="49.01373" lon="1.11732">
        <ele>57</ele>
        <time>2016-11-11T09:23:54Z</time>
      </trkpt>
      <trkpt lat="49.01377" lon="1.1172">
        <ele>56.9</ele>
        <time>2016-11-11T09:23:56Z</time>
      </trkpt>
      <trkpt lat="49.01381" lon="1.11707">
        <ele>56.8</ele>
        <time>2016-11-11T09:23:58Z</time>
      </trkpt>
      <trkpt lat="49.01385" lon="1.11694">
        <ele>56.7</ele>
        <time>2016-11-11T09:24:00Z</time>
      </trkpt>
      <trkpt lat="49.01389" lon="1.11682">
        <ele>56.7</ele>
        <time>2016-11-11T09:24:02Z</time>
      </trkpt>
      <trkpt lat="49.01393" lon="1.11669">
        <ele>56.6</ele>
        <time>2016-11-11T09:24:04Z</time>
      </trkpt>
      <trkpt lat="49.01398" lon="1.11657">
        <ele>56.5</ele>
        <time>2016-11-11T09:24:06Z</time>
      </trkpt>
      <trkpt lat="49.01402" lon="1.11644">
        <ele>56.5</ele>
        <time>2016-11-11T09:24:08Z</time>
      </trkpt>
      <trkpt lat="49.01407" lon="1.1163">
        <ele>56.4</ele>
        <time>2016-11-11T09:24:10Z</time>
      </trkpt>
      <trkpt lat="49.01411" lon="1.11616">
        <ele>56.4</ele>
        <time>2016-11-11T09:24:12Z</time>
      </trkpt>
      <trkpt lat="49.01416" lon="1.11603">
        <ele>56.4</ele>
        <time>2016-11-11T09:24:14Z</time>
      </trkpt>
      <trkpt lat="49.01421" lon="1.11588">
        <ele>56.3</ele>
        <time>2016-11-11T09:24:16Z</time>
      </trkpt>
      <trkpt lat="49.01426" lon="1.11574">
        <ele>56.3</ele>
        <time>2016-11-11T09:24:18Z</time>
      </trkpt>
      <trkpt lat="49.01431" lon="1.11559">
        <ele>56.3</ele>
        <time>2016-11-11T09:24:20Z</time>
      </trkpt>
      <trkpt lat="49.01436" lon="1.11544">
        <ele>56.3</ele>
        <time>2016-11-11T09:24:22Z</time>
      </trkpt>
      <trkpt lat="49.0144" lon="1.1153">
        <ele>56.3</ele>
        <time>2016-11-11T09:24:24Z</time>
      </trkpt>
      <trkpt lat="49.01446" lon="1.11512">
        <ele>56.2</ele>
        <time>2016-11-11T09:24:27Z</time>
      </trkpt>
      <trkpt lat="49.01446" lon="1.11498">
        <ele>56.2</ele>
        <time>2016-11-11T09:24:30Z</time>
      </trkpt>
      <trkpt lat="49.01437" lon="1.11488">
        <ele>56.2</ele>
        <time>2016-11-11T09:24:33Z</time>
      </trkpt>
      <trkpt lat="49.01426" lon="1.11479">
        <ele>56.2</ele>
        <time>2016-11-11T09:24:36Z</time>
      </trkpt>
      <trkpt lat="49.01416" lon="1.11467">
        <ele>56.2</ele>
        <time>2016-11-11T09:24:39Z</time>
      </trkpt>
      <trkpt lat="49.01405" lon="1.11457">
        <ele>56.2</ele>
        <time>2016-11-11T09:24:42Z</time>
      </trkpt>
      <trkpt lat="49.01394" lon="1.11449">
        <ele>56.2</ele>
        <time>2016-11-11T09:24:45Z</time>
      </trkpt>
      <trkpt lat="49.01383" lon="1.11441">
        <ele>56.3</ele>
        <time>2016-11-11T09:24:48Z</time>
      </trkpt>
      <trkpt lat="49.01373" lon="1.11432">
        <ele>56.4</ele>
        <time>2016-11-11T09:24:51Z</time>
      </trkpt>
      <trkpt lat="49.01364" lon="1.11424">
        <ele>56.4</ele>
        <time>2016-11-11T09:24:53Z</time>
      </trkpt>
      <trkpt lat="49.01356" lon="1.11418">
        <ele>56.3</ele>
        <time>2016-11-11T09:24:55Z</time>
      </trkpt>
      <trkpt lat="49.01344" lon="1.11409">
        <ele>56.2</ele>
        <time>2016-11-11T09:24:58Z</time>
      </trkpt>
      <trkpt lat="49.01333" lon="1.11405">
        <ele>56.1</ele>
        <time>2016-11-11T09:25:01Z</time>
      </trkpt>
      <trkpt lat="49.01324" lon="1.11399">
        <ele>56.1</ele>
        <time>2016-11-11T09:25:04Z</time>
      </trkpt>
      <trkpt lat="49.01316" lon="1.11387">
        <ele>56</ele>
        <time>2016-11-11T09:25:07Z</time>
      </trkpt>
      <trkpt lat="49.01305" lon="1.11385">
        <ele>56</ele>
        <time>2016-11-11T09:25:10Z</time>
      </trkpt>
      <trkpt lat="49.01293" lon="1.1138">
        <ele>56</ele>
        <time>2016-11-11T09:25:13Z</time>
      </trkpt>
      <trkpt lat="49.01283" lon="1.11372">
        <ele>55.9</ele>
        <time>2016-11-11T09:25:16Z</time>
      </trkpt>
      <trkpt lat="49.01272" lon="1.11363">
        <ele>55.9</ele>
        <time>2016-11-11T09:25:19Z</time>
      </trkpt>
      <trkpt lat="49.01262" lon="1.11353">
        <ele>55.9</ele>
        <time>2016-11-11T09:25:22Z</time>
      </trkpt>
      <trkpt lat="49.01254" lon="1.11337">
        <ele>55.9</ele>
        <time>2016-11-11T09:25:25Z</time>
      </trkpt>
      <trkpt lat="49.0125" lon="1.11318">
        <ele>55.9</ele>
        <time>2016-11-11T09:25:28Z</time>
      </trkpt>
      <trkpt lat="49.01247" lon="1.11304">
        <ele>55.9</ele>
        <time>2016-11-11T09:25:30Z</time>
      </trkpt>
      <trkpt lat="49.01244" lon="1.11285">
        <ele>55.8</ele>
        <time>2016-11-11T09:25:33Z</time>
      </trkpt>
      <trkpt lat="49.01241" lon="1.11271">
        <ele>55.8</ele>
        <time>2016-11-11T09:25:35Z</time>
      </trkpt>
      <trkpt lat="49.01238" lon="1.11257">
        <ele>55.8</ele>
        <time>2016-11-11T09:25:37Z</time>
      </trkpt>
      <trkpt lat="49.01234" lon="1.11244">
        <ele>55.8</ele>
        <time>2016-11-11T09:25:39Z</time>
      </trkpt>
      <trkpt lat="49.01233" lon="1.1123">
        <ele>55.8</ele>
        <time>2016-11-11T09:25:41Z</time>
      </trkpt>
      <trkpt lat="49.01241" lon="1.11214">
        <ele>55.8</ele>
        <time>2016-11-11T09:25:44Z</time>
      </trkpt>
      <trkpt lat="49.01249" lon="1.11203">
        <ele>55.8</ele>
        <time>2016-11-11T09:25:46Z</time>
      </trkpt>
      <trkpt lat="49.01255" lon="1.1119">
        <ele>56.1</ele>
        <time>2016-11-11T09:25:49Z</time>
      </trkpt>
      <trkpt lat="49.0126" lon="1.11176">
        <ele>56.1</ele>
        <time>2016-11-11T09:25:51Z</time>
      </trkpt>
      <trkpt lat="49.01265" lon="1.11161">
        <ele>56.1</ele>
        <time>2016-11-11T09:25:53Z</time>
      </trkpt>
      <trkpt lat="49.01269" lon="1.11149">
        <ele>56.1</ele>
        <time>2016-11-11T09:25:55Z</time>
      </trkpt>
      <trkpt lat="49.01275" lon="1.11131">
        <ele>56.1</ele>
        <time>2016-11-11T09:25:58Z</time>
      </trkpt>
      <trkpt lat="49.01281" lon="1.11115">
        <ele>56.1</ele>
        <time>2016-11-11T09:26:01Z</time>
      </trkpt>
      <trkpt lat="49.01287" lon="1.11098">
        <ele>56.2</ele>
        <time>2016-11-11T09:26:04Z</time>
      </trkpt>
      <trkpt lat="49.01292" lon="1.11081">
        <ele>56.1</ele>
        <time>2016-11-11T09:26:07Z</time>
      </trkpt>
      <trkpt lat="49.01298" lon="1.11064">
        <ele>56.1</ele>
        <time>2016-11-11T09:26:10Z</time>
      </trkpt>
      <trkpt lat="49.01302" lon="1.11047">
        <ele>56.1</ele>
        <time>2016-11-11T09:26:13Z</time>
      </trkpt>
      <trkpt lat="49.01308" lon="1.11031">
        <ele>56.1</ele>
        <time>2016-11-11T09:26:16Z</time>
      </trkpt>
      <trkpt lat="49.01314" lon="1.11015">
        <ele>56.1</ele>
        <time>2016-11-11T09:26:19Z</time>
      </trkpt>
      <trkpt lat="49.0132" lon="1.10999">
        <ele>56.2</ele>
        <time>2016-11-11T09:26:22Z</time>
      </trkpt>
      <trkpt lat="49.01325" lon="1.10982">
        <ele>56.2</ele>
        <time>2016-11-11T09:26:25Z</time>
      </trkpt>
      <trkpt lat="49.0133" lon="1.10965">
        <ele>56.2</ele>
        <time>2016-11-11T09:26:28Z</time>
      </trkpt>
      <trkpt lat="49.01335" lon="1.10949">
        <ele>56.2</ele>
        <time>2016-11-11T09:26:31Z</time>
      </trkpt>
      <trkpt lat="49.01342" lon="1.10932">
        <ele>56.2</ele>
        <time>2016-11-11T09:26:34Z</time>
      </trkpt>
      <trkpt lat="49.01347" lon="1.10914">
        <ele>56.1</ele>
        <time>2016-11-11T09:26:37Z</time>
      </trkpt>
      <trkpt lat="49.01353" lon="1.10897">
        <ele>56.1</ele>
        <time>2016-11-11T09:26:40Z</time>
      </trkpt>
      <trkpt lat="49.01361" lon="1.10881">
        <ele>56.1</ele>
        <time>2016-11-11T09:26:43Z</time>
      </trkpt>
      <trkpt lat="49.01369" lon="1.10873">
        <ele>56.1</ele>
        <time>2016-11-11T09:26:46Z</time>
      </trkpt>
      <trkpt lat="49.01376" lon="1.10882">
        <ele>55.9</ele>
        <time>2016-11-11T09:27:18Z</time>
      </trkpt>
      <trkpt lat="49.01385" lon="1.10889">
        <ele>55.7</ele>
        <time>2016-11-11T09:28:35Z</time>
      </trkpt>
      <trkpt lat="49.01393" lon="1.10898">
        <ele>55.7</ele>
        <time>2016-11-11T09:28:38Z</time>
      </trkpt>
      <trkpt lat="49.01402" lon="1.1091">
        <ele>55.6</ele>
        <time>2016-11-11T09:28:42Z</time>
      </trkpt>
      <trkpt lat="49.0141" lon="1.10919">
        <ele>55.5</ele>
        <time>2016-11-11T09:28:45Z</time>
      </trkpt>
      <trkpt lat="49.01418" lon="1.1093">
        <ele>55.5</ele>
        <time>2016-11-11T09:28:48Z</time>
      </trkpt>
      <trkpt lat="49.01427" lon="1.10941">
        <ele>55.5</ele>
        <time>2016-11-11T09:28:51Z</time>
      </trkpt>
      <trkpt lat="49.01435" lon="1.10953">
        <ele>55.4</ele>
        <time>2016-11-11T09:28:54Z</time>
      </trkpt>
      <trkpt lat="49.01442" lon="1.10966">
        <ele>55.4</ele>
        <time>2016-11-11T09:28:57Z</time>
      </trkpt>
      <trkpt lat="49.01446" lon="1.10979">
        <ele>55.4</ele>
        <time>2016-11-11T09:29:00Z</time>
      </trkpt>
      <trkpt lat="49.01452" lon="1.10995">
        <ele>55.4</ele>
        <time>2016-11-11T09:29:04Z</time>
      </trkpt>
      <trkpt lat="49.01456" lon="1.11008">
        <ele>55.4</ele>
        <time>2016-11-11T09:29:07Z</time>
      </trkpt>
      <trkpt lat="49.01461" lon="1.11024">
        <ele>55.4</ele>
        <time>2016-11-11T09:29:10Z</time>
      </trkpt>
      <trkpt lat="49.01465" lon="1.11039">
        <ele>55.4</ele>
        <time>2016-11-11T09:29:13Z</time>
      </trkpt>
      <trkpt lat="49.01469" lon="1.11053">
        <ele>55.4</ele>
        <time>2016-11-11T09:29:16Z</time>
      </trkpt>
      <trkpt lat="49.01473" lon="1.11067">
        <ele>55.3</ele>
        <time>2016-11-11T09:29:19Z</time>
      </trkpt>
      <trkpt lat="49.01479" lon="1.1108">
        <ele>55.3</ele>
        <time>2016-11-11T09:29:22Z</time>
      </trkpt>
      <trkpt lat="49.01485" lon="1.11094">
        <ele>55.3</ele>
        <time>2016-11-11T09:29:26Z</time>
      </trkpt>
      <trkpt lat="49.01489" lon="1.11107">
        <ele>55.2</ele>
        <time>2016-11-11T09:29:29Z</time>
      </trkpt>
      <trkpt lat="49.01494" lon="1.1112">
        <ele>55.2</ele>
        <time>2016-11-11T09:29:32Z</time>
      </trkpt>
      <trkpt lat="49.015" lon="1.11132">
        <ele>55.2</ele>
        <time>2016-11-11T09:29:35Z</time>
      </trkpt>
      <trkpt lat="49.01505" lon="1.11146">
        <ele>55.2</ele>
        <time>2016-11-11T09:29:38Z</time>
      </trkpt>
      <trkpt lat="49.0151" lon="1.11162">
        <ele>55.2</ele>
        <time>2016-11-11T09:29:41Z</time>
      </trkpt>
      <trkpt lat="49.01515" lon="1.11175">
        <ele>55.3</ele>
        <time>2016-11-11T09:29:44Z</time>
      </trkpt>
      <trkpt lat="49.01523" lon="1.11187">
        <ele>55.3</ele>
        <time>2016-11-11T09:29:47Z</time>
      </trkpt>
      <trkpt lat="49.01532" lon="1.11198">
        <ele>55.3</ele>
        <time>2016-11-11T09:29:51Z</time>
      </trkpt>
      <trkpt lat="49.01539" lon="1.11208">
        <ele>55.3</ele>
        <time>2016-11-11T09:29:56Z</time>
      </trkpt>
      <trkpt lat="49.01544" lon="1.1122">
        <ele>55.3</ele>
        <time>2016-11-11T09:30:02Z</time>
      </trkpt>
      <trkpt lat="49.01554" lon="1.11227">
        <ele>55.4</ele>
        <time>2016-11-11T09:30:07Z</time>
      </trkpt>
      <trkpt lat="49.01562" lon="1.11236">
        <ele>55.4</ele>
        <time>2016-11-11T09:30:10Z</time>
      </trkpt>
      <trkpt lat="49.0157" lon="1.11245">
        <ele>55.4</ele>
        <time>2016-11-11T09:30:13Z</time>
      </trkpt>
      <trkpt lat="49.01579" lon="1.11257">
        <ele>55.4</ele>
        <time>2016-11-11T09:30:16Z</time>
      </trkpt>
      <trkpt lat="49.01589" lon="1.11269">
        <ele>55.4</ele>
        <time>2016-11-11T09:30:19Z</time>
      </trkpt>
      <trkpt lat="49.01598" lon="1.11282">
        <ele>55.4</ele>
        <time>2016-11-11T09:30:22Z</time>
      </trkpt>
      <trkpt lat="49.01607" lon="1.11294">
        <ele>55.4</ele>
        <time>2016-11-11T09:30:25Z</time>
      </trkpt>
      <trkpt lat="49.01617" lon="1.11306">
        <ele>55.4</ele>
        <time>2016-11-11T09:30:28Z</time>
      </trkpt>
      <trkpt lat="49.01626" lon="1.11318">
        <ele>55.4</ele>
        <time>2016-11-11T09:30:31Z</time>
      </trkpt>
      <trkpt lat="49.01636" lon="1.1133">
        <ele>55.4</ele>
        <time>2016-11-11T09:30:34Z</time>
      </trkpt>
      <trkpt lat="49.01646" lon="1.11342">
        <ele>55.4</ele>
        <time>2016-11-11T09:30:37Z</time>
      </trkpt>
      <trkpt lat="49.01657" lon="1.11355">
        <ele>55.4</ele>
        <time>2016-11-11T09:30:40Z</time>
      </trkpt>
      <trkpt lat="49.01667" lon="1.11367">
        <ele>55.4</ele>
        <time>2016-11-11T09:30:43Z</time>
      </trkpt>
      <trkpt lat="49.01677" lon="1.1138">
        <ele>55.4</ele>
        <time>2016-11-11T09:30:46Z</time>
      </trkpt>
      <trkpt lat="49.01669" lon="1.11371">
        <ele>55.4</ele>
        <time>2016-11-11T09:31:05Z</time>
      </trkpt>
      <trkpt lat="49.0166" lon="1.1136">
        <ele>55.4</ele>
        <time>2016-11-11T09:31:09Z</time>
      </trkpt>
      <trkpt lat="49.01666" lon="1.1137">
        <ele>55.4</ele>
        <time>2016-11-11T09:32:17Z</time>
      </trkpt>
      <trkpt lat="49.01676" lon="1.11382">
        <ele>55.4</ele>
        <time>2016-11-11T09:32:20Z</time>
      </trkpt>
      <trkpt lat="49.01686" lon="1.11395">
        <ele>55.4</ele>
        <time>2016-11-11T09:32:23Z</time>
      </trkpt>
      <trkpt lat="49.01693" lon="1.11404">
        <ele>55.4</ele>
        <time>2016-11-11T09:32:25Z</time>
      </trkpt>
      <trkpt lat="49.017" lon="1.11413">
        <ele>55.4</ele>
        <time>2016-11-11T09:32:27Z</time>
      </trkpt>
      <trkpt lat="49.01707" lon="1.11424">
        <ele>55.4</ele>
        <time>2016-11-11T09:32:29Z</time>
      </trkpt>
      <trkpt lat="49.01712" lon="1.11435">
        <ele>55.4</ele>
        <time>2016-11-11T09:32:31Z</time>
      </trkpt>
      <trkpt lat="49.01718" lon="1.11447">
        <ele>55.4</ele>
        <time>2016-11-11T09:32:33Z</time>
      </trkpt>
      <trkpt lat="49.01723" lon="1.11458">
        <ele>55.4</ele>
        <time>2016-11-11T09:32:35Z</time>
      </trkpt>
      <trkpt lat="49.01728" lon="1.11474">
        <ele>55.4</ele>
        <time>2016-11-11T09:32:38Z</time>
      </trkpt>
      <trkpt lat="49.01719" lon="1.11484">
        <ele>55.4</ele>
        <time>2016-11-11T09:32:42Z</time>
      </trkpt>
      <trkpt lat="49.01708" lon="1.11491">
        <ele>55.4</ele>
        <time>2016-11-11T09:32:45Z</time>
      </trkpt>
      <trkpt lat="49.01698" lon="1.11497">
        <ele>55.3</ele>
        <time>2016-11-11T09:32:48Z</time>
      </trkpt>
      <trkpt lat="49.01686" lon="1.11504">
        <ele>55.3</ele>
        <time>2016-11-11T09:32:51Z</time>
      </trkpt>
      <trkpt lat="49.01675" lon="1.11511">
        <ele>55.3</ele>
        <time>2016-11-11T09:32:54Z</time>
      </trkpt>
      <trkpt lat="49.01664" lon="1.11518">
        <ele>55.2</ele>
        <time>2016-11-11T09:32:57Z</time>
      </trkpt>
      <trkpt lat="49.01656" lon="1.11529">
        <ele>55.2</ele>
        <time>2016-11-11T09:33:00Z</time>
      </trkpt>
      <trkpt lat="49.01654" lon="1.11547">
        <ele>55.1</ele>
        <time>2016-11-11T09:33:03Z</time>
      </trkpt>
      <trkpt lat="49.01652" lon="1.11565">
        <ele>55</ele>
        <time>2016-11-11T09:33:06Z</time>
      </trkpt>
      <trkpt lat="49.01658" lon="1.1158">
        <ele>54.9</ele>
        <time>2016-11-11T09:33:09Z</time>
      </trkpt>
      <trkpt lat="49.01666" lon="1.11592">
        <ele>54.7</ele>
        <time>2016-11-11T09:33:12Z</time>
      </trkpt>
      <trkpt lat="49.01674" lon="1.11603">
        <ele>54.6</ele>
        <time>2016-11-11T09:33:15Z</time>
      </trkpt>
      <trkpt lat="49.01682" lon="1.11614">
        <ele>54.5</ele>
        <time>2016-11-11T09:33:18Z</time>
      </trkpt>
      <trkpt lat="49.01687" lon="1.11629">
        <ele>54.4</ele>
        <time>2016-11-11T09:33:21Z</time>
      </trkpt>
      <trkpt lat="49.01693" lon="1.11644">
        <ele>54.3</ele>
        <time>2016-11-11T09:33:24Z</time>
      </trkpt>
      <trkpt lat="49.01701" lon="1.11657">
        <ele>54.2</ele>
        <time>2016-11-11T09:33:27Z</time>
      </trkpt>
      <trkpt lat="49.01708" lon="1.11667">
        <ele>54.2</ele>
        <time>2016-11-11T09:33:30Z</time>
      </trkpt>
      <trkpt lat="49.01715" lon="1.11679">
        <ele>54.1</ele>
        <time>2016-11-11T09:33:33Z</time>
      </trkpt>
      <trkpt lat="49.01721" lon="1.11693">
        <ele>54</ele>
        <time>2016-11-11T09:33:36Z</time>
      </trkpt>
      <trkpt lat="49.01729" lon="1.11702">
        <ele>54</ele>
        <time>2016-11-11T09:33:39Z</time>
      </trkpt>
      <trkpt lat="49.01738" lon="1.11709">
        <ele>54</ele>
        <time>2016-11-11T09:33:42Z</time>
      </trkpt>
      <trkpt lat="49.01748" lon="1.11716">
        <ele>53.9</ele>
        <time>2016-11-11T09:33:45Z</time>
      </trkpt>
      <trkpt lat="49.01757" lon="1.11724">
        <ele>53.9</ele>
        <time>2016-11-11T09:33:48Z</time>
      </trkpt>
      <trkpt lat="49.01766" lon="1.11731">
        <ele>53.8</ele>
        <time>2016-11-11T09:33:52Z</time>
      </trkpt>
      <trkpt lat="49.01775" lon="1.11738">
        <ele>53.8</ele>
        <time>2016-11-11T09:33:55Z</time>
      </trkpt>
      <trkpt lat="49.01784" lon="1.11746">
        <ele>53.7</ele>
        <time>2016-11-11T09:33:58Z</time>
      </trkpt>
      <trkpt lat="49.01794" lon="1.11753">
        <ele>53.7</ele>
        <time>2016-11-11T09:34:01Z</time>
      </trkpt>
      <trkpt lat="49.01802" lon="1.1176">
        <ele>53.6</ele>
        <time>2016-11-11T09:34:04Z</time>
      </trkpt>
      <trkpt lat="49.01808" lon="1.1177">
        <ele>53.6</ele>
        <time>2016-11-11T09:34:08Z</time>
      </trkpt>
      <trkpt lat="49.01816" lon="1.11781">
        <ele>53.6</ele>
        <time>2016-11-11T09:34:12Z</time>
      </trkpt>
      <trkpt lat="49.01827" lon="1.1179">
        <ele>53.6</ele>
        <time>2016-11-11T09:34:15Z</time>
      </trkpt>
      <trkpt lat="49.01836" lon="1.11796">
        <ele>53.5</ele>
        <time>2016-11-11T09:34:17Z</time>
      </trkpt>
      <trkpt lat="49.01844" lon="1.11802">
        <ele>53.5</ele>
        <time>2016-11-11T09:34:19Z</time>
      </trkpt>
      <trkpt lat="49.01852" lon="1.11808">
        <ele>53.5</ele>
        <time>2016-11-11T09:34:21Z</time>
      </trkpt>
      <trkpt lat="49.0186" lon="1.11814">
        <ele>53.5</ele>
        <time>2016-11-11T09:34:23Z</time>
      </trkpt>
      <trkpt lat="49.0187" lon="1.11823">
        <ele>53.5</ele>
        <time>2016-11-11T09:34:26Z</time>
      </trkpt>
      <trkpt lat="49.01879" lon="1.11828">
        <ele>53.5</ele>
        <time>2016-11-11T09:34:41Z</time>
      </trkpt>
      <trkpt lat="49.01888" lon="1.11834">
        <ele>53.5</ele>
        <time>2016-11-11T09:34:44Z</time>
      </trkpt>
      <trkpt lat="49.01898" lon="1.11843">
        <ele>53.5</ele>
        <time>2016-11-11T09:34:47Z</time>
      </trkpt>
      <trkpt lat="49.01906" lon="1.11855">
        <ele>53.5</ele>
        <time>2016-11-11T09:34:50Z</time>
      </trkpt>
      <trkpt lat="49.01912" lon="1.11865">
        <ele>53.5</ele>
        <time>2016-11-11T09:34:54Z</time>
      </trkpt>
      <trkpt lat="49.01919" lon="1.11877">
        <ele>53.5</ele>
        <time>2016-11-11T09:34:59Z</time>
      </trkpt>
      <trkpt lat="49.01927" lon="1.11891">
        <ele>53.5</ele>
        <time>2016-11-11T09:35:02Z</time>
      </trkpt>
      <trkpt lat="49.01934" lon="1.11902">
        <ele>53.5</ele>
        <time>2016-11-11T09:35:04Z</time>
      </trkpt>
      <trkpt lat="49.01941" lon="1.11912">
        <ele>53.5</ele>
        <time>2016-11-11T09:35:06Z</time>
      </trkpt>
      <trkpt lat="49.01948" lon="1.11923">
        <ele>53.5</ele>
        <time>2016-11-11T09:35:08Z</time>
      </trkpt>
      <trkpt lat="49.01956" lon="1.11934">
        <ele>53.5</ele>
        <time>2016-11-11T09:35:10Z</time>
      </trkpt>
      <trkpt lat="49.01964" lon="1.11945">
        <ele>53.5</ele>
        <time>2016-11-11T09:35:12Z</time>
      </trkpt>
      <trkpt lat="49.01972" lon="1.11956">
        <ele>53.5</ele>
        <time>2016-11-11T09:35:14Z</time>
      </trkpt>
      <trkpt lat="49.0198" lon="1.11968">
        <ele>53.5</ele>
        <time>2016-11-11T09:35:16Z</time>
      </trkpt>
      <trkpt lat="49.01988" lon="1.11979">
        <ele>53.5</ele>
        <time>2016-11-11T09:35:18Z</time>
      </trkpt>
      <trkpt lat="49.01996" lon="1.11991">
        <ele>53.5</ele>
        <time>2016-11-11T09:35:20Z</time>
      </trkpt>
      <trkpt lat="49.02004" lon="1.12002">
        <ele>53.5</ele>
        <time>2016-11-11T09:35:22Z</time>
      </trkpt>
      <trkpt lat="49.02013" lon="1.12014">
        <ele>53.5</ele>
        <time>2016-11-11T09:35:24Z</time>
      </trkpt>
      <trkpt lat="49.02021" lon="1.12026">
        <ele>53.5</ele>
        <time>2016-11-11T09:35:26Z</time>
      </trkpt>
      <trkpt lat="49.02029" lon="1.12037">
        <ele>53.5</ele>
        <time>2016-11-11T09:35:28Z</time>
      </trkpt>
      <trkpt lat="49.02037" lon="1.12049">
        <ele>53.5</ele>
        <time>2016-11-11T09:35:30Z</time>
      </trkpt>
      <trkpt lat="49.02045" lon="1.12061">
        <ele>53.5</ele>
        <time>2016-11-11T09:35:32Z</time>
      </trkpt>
      <trkpt lat="49.02053" lon="1.12073">
        <ele>53.5</ele>
        <time>2016-11-11T09:35:34Z</time>
      </trkpt>
      <trkpt lat="49.02061" lon="1.12084">
        <ele>53.5</ele>
        <time>2016-11-11T09:35:36Z</time>
      </trkpt>
      <trkpt lat="49.02069" lon="1.12095">
        <ele>53.5</ele>
        <time>2016-11-11T09:35:38Z</time>
      </trkpt>
      <trkpt lat="49.02077" lon="1.12107">
        <ele>53.4</ele>
        <time>2016-11-11T09:35:40Z</time>
      </trkpt>
      <trkpt lat="49.02085" lon="1.12118">
        <ele>53.4</ele>
        <time>2016-11-11T09:35:42Z</time>
      </trkpt>
      <trkpt lat="49.02093" lon="1.12129">
        <ele>53.4</ele>
        <time>2016-11-11T09:35:44Z</time>
      </trkpt>
      <trkpt lat="49.02101" lon="1.12141">
        <ele>53.4</ele>
        <time>2016-11-11T09:35:46Z</time>
      </trkpt>
      <trkpt lat="49.02109" lon="1.12152">
        <ele>53.3</ele>
        <time>2016-11-11T09:35:48Z</time>
      </trkpt>
      <trkpt lat="49.02117" lon="1.12164">
        <ele>53.2</ele>
        <time>2016-11-11T09:35:50Z</time>
      </trkpt>
      <trkpt lat="49.02126" lon="1.12176">
        <ele>53.2</ele>
        <time>2016-11-11T09:35:52Z</time>
      </trkpt>
      <trkpt lat="49.02134" lon="1.12187">
        <ele>53.1</ele>
        <time>2016-11-11T09:35:54Z</time>
      </trkpt>
      <trkpt lat="49.02142" lon="1.12199">
        <ele>53</ele>
        <time>2016-11-11T09:35:56Z</time>
      </trkpt>
      <trkpt lat="49.0215" lon="1.1221">
        <ele>52.9</ele>
        <time>2016-11-11T09:35:58Z</time>
      </trkpt>
      <trkpt lat="49.02158" lon="1.1222">
        <ele>52.7</ele>
        <time>2016-11-11T09:36:00Z</time>
      </trkpt>
      <trkpt lat="49.02165" lon="1.12231">
        <ele>52.6</ele>
        <time>2016-11-11T09:36:02Z</time>
      </trkpt>
      <trkpt lat="49.02173" lon="1.12243">
        <ele>52.5</ele>
        <time>2016-11-11T09:36:04Z</time>
      </trkpt>
      <trkpt lat="49.02181" lon="1.12254">
        <ele>52.5</ele>
        <time>2016-11-11T09:36:06Z</time>
      </trkpt>
      <trkpt lat="49.02189" lon="1.12266">
        <ele>52.4</ele>
        <time>2016-11-11T09:36:08Z</time>
      </trkpt>
      <trkpt lat="49.02198" lon="1.12278">
        <ele>52.3</ele>
        <time>2016-11-11T09:36:10Z</time>
      </trkpt>
      <trkpt lat="49.02206" lon="1.12289">
        <ele>52.3</ele>
        <time>2016-11-11T09:36:12Z</time>
      </trkpt>
      <trkpt lat="49.02214" lon="1.12301">
        <ele>52.3</ele>
        <time>2016-11-11T09:36:14Z</time>
      </trkpt>
      <trkpt lat="49.02223" lon="1.12313">
        <ele>52.2</ele>
        <time>2016-11-11T09:36:16Z</time>
      </trkpt>
      <trkpt lat="49.02231" lon="1.12325">
        <ele>52.2</ele>
        <time>2016-11-11T09:36:18Z</time>
      </trkpt>
      <trkpt lat="49.02239" lon="1.12337">
        <ele>52.2</ele>
        <time>2016-11-11T09:36:20Z</time>
      </trkpt>
      <trkpt lat="49.02247" lon="1.12348">
        <ele>52.2</ele>
        <time>2016-11-11T09:36:22Z</time>
      </trkpt>
      <trkpt lat="49.02256" lon="1.1236">
        <ele>52.2</ele>
        <time>2016-11-11T09:36:24Z</time>
      </trkpt>
      <trkpt lat="49.02264" lon="1.12371">
        <ele>52.2</ele>
        <time>2016-11-11T09:36:26Z</time>
      </trkpt>
      <trkpt lat="49.02272" lon="1.12382">
        <ele>52.1</ele>
        <time>2016-11-11T09:36:28Z</time>
      </trkpt>
      <trkpt lat="49.0228" lon="1.12393">
        <ele>52.1</ele>
        <time>2016-11-11T09:36:30Z</time>
      </trkpt>
      <trkpt lat="49.02288" lon="1.12405">
        <ele>52.1</ele>
        <time>2016-11-11T09:36:32Z</time>
      </trkpt>
      <trkpt lat="49.02295" lon="1.12415">
        <ele>52.2</ele>
        <time>2016-11-11T09:36:34Z</time>
      </trkpt>
      <trkpt lat="49.02303" lon="1.12426">
        <ele>52.2</ele>
        <time>2016-11-11T09:36:36Z</time>
      </trkpt>
      <trkpt lat="49.0231" lon="1.12437">
        <ele>52.2</ele>
        <time>2016-11-11T09:36:38Z</time>
      </trkpt>
      <trkpt lat="49.02318" lon="1.12447">
        <ele>52.2</ele>
        <time>2016-11-11T09:36:40Z</time>
      </trkpt>
      <trkpt lat="49.02326" lon="1.12458">
        <ele>52.2</ele>
        <time>2016-11-11T09:36:42Z</time>
      </trkpt>
      <trkpt lat="49.02334" lon="1.12469">
        <ele>52.2</ele>
        <time>2016-11-11T09:36:44Z</time>
      </trkpt>
      <trkpt lat="49.02341" lon="1.1248">
        <ele>52.2</ele>
        <time>2016-11-11T09:36:46Z</time>
      </trkpt>
      <trkpt lat="49.02349" lon="1.12492">
        <ele>52.2</ele>
        <time>2016-11-11T09:36:48Z</time>
      </trkpt>
      <trkpt lat="49.02357" lon="1.12502">
        <ele>52.2</ele>
        <time>2016-11-11T09:36:50Z</time>
      </trkpt>
      <trkpt lat="49.02365" lon="1.12512">
        <ele>52.3</ele>
        <time>2016-11-11T09:36:52Z</time>
      </trkpt>
      <trkpt lat="49.02373" lon="1.12523">
        <ele>52.3</ele>
        <time>2016-11-11T09:36:54Z</time>
      </trkpt>
      <trkpt lat="49.02381" lon="1.12533">
        <ele>52.3</ele>
        <time>2016-11-11T09:36:56Z</time>
      </trkpt>
      <trkpt lat="49.02388" lon="1.12542">
        <ele>52.3</ele>
        <time>2016-11-11T09:36:58Z</time>
      </trkpt>
      <trkpt lat="49.02395" lon="1.1255">
        <ele>52.4</ele>
        <time>2016-11-11T09:37:23Z</time>
      </trkpt>
      <trkpt lat="49.02405" lon="1.1255">
        <ele>52.4</ele>
        <time>2016-11-11T09:37:29Z</time>
      </trkpt>
      <trkpt lat="49.02412" lon="1.12538">
        <ele>52.4</ele>
        <time>2016-11-11T09:37:32Z</time>
      </trkpt>
      <trkpt lat="49.02417" lon="1.12518">
        <ele>52.5</ele>
        <time>2016-11-11T09:37:35Z</time>
      </trkpt>
      <trkpt lat="49.02419" lon="1.12505">
        <ele>52.6</ele>
        <time>2016-11-11T09:37:37Z</time>
      </trkpt>
      <trkpt lat="49.02423" lon="1.12486">
        <ele>52.7</ele>
        <time>2016-11-11T09:37:40Z</time>
      </trkpt>
      <trkpt lat="49.02423" lon="1.12467">
        <ele>52.8</ele>
        <time>2016-11-11T09:37:43Z</time>
      </trkpt>
      <trkpt lat="49.02422" lon="1.12449">
        <ele>53.1</ele>
        <time>2016-11-11T09:37:46Z</time>
      </trkpt>
      <trkpt lat="49.02423" lon="1.12431">
        <ele>53.4</ele>
        <time>2016-11-11T09:37:49Z</time>
      </trkpt>
      <trkpt lat="49.02424" lon="1.12414">
        <ele>53.6</ele>
        <time>2016-11-11T09:37:52Z</time>
      </trkpt>
      <trkpt lat="49.02425" lon="1.12397">
        <ele>54</ele>
        <time>2016-11-11T09:37:55Z</time>
      </trkpt>
      <trkpt lat="49.02426" lon="1.1238">
        <ele>54.3</ele>
        <time>2016-11-11T09:37:58Z</time>
      </trkpt>
      <trkpt lat="49.02426" lon="1.12363">
        <ele>54.6</ele>
        <time>2016-11-11T09:38:01Z</time>
      </trkpt>
      <trkpt lat="49.02427" lon="1.12346">
        <ele>55.1</ele>
        <time>2016-11-11T09:38:04Z</time>
      </trkpt>
      <trkpt lat="49.02428" lon="1.12329">
        <ele>55.5</ele>
        <time>2016-11-11T09:38:07Z</time>
      </trkpt>
      <trkpt lat="49.0243" lon="1.12313">
        <ele>56</ele>
        <time>2016-11-11T09:38:10Z</time>
      </trkpt>
      <trkpt lat="49.02432" lon="1.12298">
        <ele>56.4</ele>
        <time>2016-11-11T09:38:13Z</time>
      </trkpt>
      <trkpt lat="49.02433" lon="1.12284">
        <ele>57</ele>
        <time>2016-11-11T09:38:16Z</time>
      </trkpt>
      <trkpt lat="49.02433" lon="1.12269">
        <ele>57.4</ele>
        <time>2016-11-11T09:38:19Z</time>
      </trkpt>
      <trkpt lat="49.02434" lon="1.12253">
        <ele>57.9</ele>
        <time>2016-11-11T09:38:22Z</time>
      </trkpt>
      <trkpt lat="49.02435" lon="1.12236">
        <ele>58.4</ele>
        <time>2016-11-11T09:38:25Z</time>
      </trkpt>
      <trkpt lat="49.02437" lon="1.12221">
        <ele>59</ele>
        <time>2016-11-11T09:38:28Z</time>
      </trkpt>
      <trkpt lat="49.02438" lon="1.12205">
        <ele>59.4</ele>
        <time>2016-11-11T09:38:31Z</time>
      </trkpt>
      <trkpt lat="49.02439" lon="1.1219">
        <ele>59.9</ele>
        <time>2016-11-11T09:38:34Z</time>
      </trkpt>
      <trkpt lat="49.0244" lon="1.12174">
        <ele>60.4</ele>
        <time>2016-11-11T09:38:37Z</time>
      </trkpt>
      <trkpt lat="49.02441" lon="1.12159">
        <ele>60.9</ele>
        <time>2016-11-11T09:38:40Z</time>
      </trkpt>
      <trkpt lat="49.02442" lon="1.12145">
        <ele>61.3</ele>
        <time>2016-11-11T09:38:43Z</time>
      </trkpt>
      <trkpt lat="49.02443" lon="1.1213">
        <ele>61.9</ele>
        <time>2016-11-11T09:38:46Z</time>
      </trkpt>
      <trkpt lat="49.02445" lon="1.12115">
        <ele>62.4</ele>
        <time>2016-11-11T09:38:49Z</time>
      </trkpt>
      <trkpt lat="49.02451" lon="1.121">
        <ele>63.1</ele>
        <time>2016-11-11T09:38:53Z</time>
      </trkpt>
      <trkpt lat="49.02457" lon="1.12087">
        <ele>63.9</ele>
        <time>2016-11-11T09:38:57Z</time>
      </trkpt>
      <trkpt lat="49.02462" lon="1.12074">
        <ele>64.9</ele>
        <time>2016-11-11T09:39:01Z</time>
      </trkpt>
      <trkpt lat="49.02462" lon="1.12056">
        <ele>65.8</ele>
        <time>2016-11-11T09:39:05Z</time>
      </trkpt>
      <trkpt lat="49.02461" lon="1.12038">
        <ele>66.5</ele>
        <time>2016-11-11T09:39:09Z</time>
      </trkpt>
      <trkpt lat="49.02463" lon="1.12022">
        <ele>67.2</ele>
        <time>2016-11-11T09:39:13Z</time>
      </trkpt>
      <trkpt lat="49.02466" lon="1.12006">
        <ele>67.9</ele>
        <time>2016-11-11T09:39:17Z</time>
      </trkpt>
      <trkpt lat="49.02467" lon="1.11992">
        <ele>68.4</ele>
        <time>2016-11-11T09:39:20Z</time>
      </trkpt>
      <trkpt lat="49.02467" lon="1.11978">
        <ele>68.8</ele>
        <time>2016-11-11T09:39:23Z</time>
      </trkpt>
      <trkpt lat="49.02468" lon="1.11964">
        <ele>69.2</ele>
        <time>2016-11-11T09:39:26Z</time>
      </trkpt>
      <trkpt lat="49.02469" lon="1.1195">
        <ele>69.7</ele>
        <time>2016-11-11T09:39:29Z</time>
      </trkpt>
      <trkpt lat="49.0247" lon="1.11935">
        <ele>70.2</ele>
        <time>2016-11-11T09:39:32Z</time>
      </trkpt>
      <trkpt lat="49.02472" lon="1.11919">
        <ele>70.7</ele>
        <time>2016-11-11T09:39:35Z</time>
      </trkpt>
      <trkpt lat="49.02473" lon="1.11903">
        <ele>71.2</ele>
        <time>2016-11-11T09:39:38Z</time>
      </trkpt>
      <trkpt lat="49.02476" lon="1.11887">
        <ele>71.8</ele>
        <time>2016-11-11T09:39:41Z</time>
      </trkpt>
      <trkpt lat="49.02477" lon="1.11872">
        <ele>72.3</ele>
        <time>2016-11-11T09:39:44Z</time>
      </trkpt>
      <trkpt lat="49.02479" lon="1.11858">
        <ele>72.8</ele>
        <time>2016-11-11T09:39:47Z</time>
      </trkpt>
      <trkpt lat="49.02481" lon="1.11842">
        <ele>73.4</ele>
        <time>2016-11-11T09:39:50Z</time>
      </trkpt>
      <trkpt lat="49.02483" lon="1.11827">
        <ele>74</ele>
        <time>2016-11-11T09:39:53Z</time>
      </trkpt>
      <trkpt lat="49.02485" lon="1.11811">
        <ele>74.6</ele>
        <time>2016-11-11T09:39:56Z</time>
      </trkpt>
      <trkpt lat="49.02487" lon="1.11795">
        <ele>75.1</ele>
        <time>2016-11-11T09:39:59Z</time>
      </trkpt>
      <trkpt lat="49.0249" lon="1.1178">
        <ele>75.6</ele>
        <time>2016-11-11T09:40:02Z</time>
      </trkpt>
      <trkpt lat="49.02492" lon="1.11764">
        <ele>76.2</ele>
        <time>2016-11-11T09:40:05Z</time>
      </trkpt>
      <trkpt lat="49.02495" lon="1.1175">
        <ele>76.8</ele>
        <time>2016-11-11T09:40:08Z</time>
      </trkpt>
      <trkpt lat="49.02498" lon="1.11736">
        <ele>77.4</ele>
        <time>2016-11-11T09:40:11Z</time>
      </trkpt>
      <trkpt lat="49.02501" lon="1.11722">
        <ele>77.9</ele>
        <time>2016-11-11T09:40:14Z</time>
      </trkpt>
      <trkpt lat="49.02504" lon="1.11709">
        <ele>78.6</ele>
        <time>2016-11-11T09:40:17Z</time>
      </trkpt>
      <trkpt lat="49.02508" lon="1.11696">
        <ele>79.2</ele>
        <time>2016-11-11T09:40:20Z</time>
      </trkpt>
      <trkpt lat="49.02512" lon="1.11683">
        <ele>79.7</ele>
        <time>2016-11-11T09:40:23Z</time>
      </trkpt>
      <trkpt lat="49.02517" lon="1.11671">
        <ele>80.4</ele>
        <time>2016-11-11T09:40:26Z</time>
      </trkpt>
      <trkpt lat="49.02522" lon="1.11656">
        <ele>81.1</ele>
        <time>2016-11-11T09:40:30Z</time>
      </trkpt>
      <trkpt lat="49.02528" lon="1.11641">
        <ele>81.9</ele>
        <time>2016-11-11T09:40:34Z</time>
      </trkpt>
      <trkpt lat="49.02532" lon="1.11628">
        <ele>82.3</ele>
        <time>2016-11-11T09:40:37Z</time>
      </trkpt>
      <trkpt lat="49.02538" lon="1.11613">
        <ele>83.1</ele>
        <time>2016-11-11T09:40:41Z</time>
      </trkpt>
      <trkpt lat="49.02544" lon="1.11599">
        <ele>83.8</ele>
        <time>2016-11-11T09:40:45Z</time>
      </trkpt>
      <trkpt lat="49.0255" lon="1.11583">
        <ele>84.5</ele>
        <time>2016-11-11T09:40:49Z</time>
      </trkpt>
      <trkpt lat="49.02557" lon="1.11569">
        <ele>85.3</ele>
        <time>2016-11-11T09:40:53Z</time>
      </trkpt>
      <trkpt lat="49.02564" lon="1.11554">
        <ele>86</ele>
        <time>2016-11-11T09:40:57Z</time>
      </trkpt>
      <trkpt lat="49.02571" lon="1.1154">
        <ele>86.7</ele>
        <time>2016-11-11T09:41:01Z</time>
      </trkpt>
      <trkpt lat="49.02578" lon="1.11526">
        <ele>87.4</ele>
        <time>2016-11-11T09:41:05Z</time>
      </trkpt>
      <trkpt lat="49.02585" lon="1.11512">
        <ele>88.2</ele>
        <time>2016-11-11T09:41:09Z</time>
      </trkpt>
      <trkpt lat="49.02593" lon="1.11499">
        <ele>89</ele>
        <time>2016-11-11T09:41:13Z</time>
      </trkpt>
      <trkpt lat="49.026" lon="1.11486">
        <ele>89.6</ele>
        <time>2016-11-11T09:41:17Z</time>
      </trkpt>
      <trkpt lat="49.02609" lon="1.11474">
        <ele>90.3</ele>
        <time>2016-11-11T09:41:21Z</time>
      </trkpt>
      <trkpt lat="49.02617" lon="1.11463">
        <ele>91.1</ele>
        <time>2016-11-11T09:41:25Z</time>
      </trkpt>
      <trkpt lat="49.02626" lon="1.11453">
        <ele>91.8</ele>
        <time>2016-11-11T09:41:29Z</time>
      </trkpt>
      <trkpt lat="49.02635" lon="1.11442">
        <ele>92.5</ele>
        <time>2016-11-11T09:41:33Z</time>
      </trkpt>
      <trkpt lat="49.02644" lon="1.1143">
        <ele>93.2</ele>
        <time>2016-11-11T09:41:37Z</time>
      </trkpt>
      <trkpt lat="49.02653" lon="1.11418">
        <ele>93.9</ele>
        <time>2016-11-11T09:41:41Z</time>
      </trkpt>
      <trkpt lat="49.0266" lon="1.1141">
        <ele>94.4</ele>
        <time>2016-11-11T09:41:44Z</time>
      </trkpt>
      <trkpt lat="49.02668" lon="1.11402">
        <ele>94.9</ele>
        <time>2016-11-11T09:41:47Z</time>
      </trkpt>
      <trkpt lat="49.02675" lon="1.11394">
        <ele>95.4</ele>
        <time>2016-11-11T09:41:50Z</time>
      </trkpt>
      <trkpt lat="49.02683" lon="1.11386">
        <ele>95.9</ele>
        <time>2016-11-11T09:41:53Z</time>
      </trkpt>
      <trkpt lat="49.0269" lon="1.11377">
        <ele>96.3</ele>
        <time>2016-11-11T09:41:56Z</time>
      </trkpt>
      <trkpt lat="49.02698" lon="1.11369">
        <ele>96.7</ele>
        <time>2016-11-11T09:41:59Z</time>
      </trkpt>
      <trkpt lat="49.02706" lon="1.1136">
        <ele>97.2</ele>
        <time>2016-11-11T09:42:02Z</time>
      </trkpt>
      <trkpt lat="49.02713" lon="1.11352">
        <ele>97.6</ele>
        <time>2016-11-11T09:42:05Z</time>
      </trkpt>
      <trkpt lat="49.02721" lon="1.11344">
        <ele>98</ele>
        <time>2016-11-11T09:42:08Z</time>
      </trkpt>
      <trkpt lat="49.02729" lon="1.11336">
        <ele>98.4</ele>
        <time>2016-11-11T09:42:11Z</time>
      </trkpt>
      <trkpt lat="49.02737" lon="1.11328">
        <ele>98.8</ele>
        <time>2016-11-11T09:42:14Z</time>
      </trkpt>
      <trkpt lat="49.02746" lon="1.11319">
        <ele>99.2</ele>
        <time>2016-11-11T09:42:17Z</time>
      </trkpt>
      <trkpt lat="49.02754" lon="1.1131">
        <ele>99.5</ele>
        <time>2016-11-11T09:42:20Z</time>
      </trkpt>
      <trkpt lat="49.02762" lon="1.11301">
        <ele>99.7</ele>
        <time>2016-11-11T09:42:23Z</time>
      </trkpt>
      <trkpt lat="49.02771" lon="1.11293">
        <ele>100</ele>
        <time>2016-11-11T09:42:26Z</time>
      </trkpt>
      <trkpt lat="49.02779" lon="1.11286">
        <ele>100.2</ele>
        <time>2016-11-11T09:42:29Z</time>
      </trkpt>
      <trkpt lat="49.02788" lon="1.11283">
        <ele>100.3</ele>
        <time>2016-11-11T09:42:32Z</time>
      </trkpt>
      <trkpt lat="49.028" lon="1.11286">
        <ele>100.5</ele>
        <time>2016-11-11T09:42:36Z</time>
      </trkpt>
      <trkpt lat="49.0281" lon="1.11294">
        <ele>100.6</ele>
        <time>2016-11-11T09:42:39Z</time>
      </trkpt>
      <trkpt lat="49.02819" lon="1.11307">
        <ele>100.5</ele>
        <time>2016-11-11T09:42:42Z</time>
      </trkpt>
      <trkpt lat="49.02827" lon="1.11325">
        <ele>100.4</ele>
        <time>2016-11-11T09:42:45Z</time>
      </trkpt>
      <trkpt lat="49.02832" lon="1.11339">
        <ele>100.2</ele>
        <time>2016-11-11T09:42:47Z</time>
      </trkpt>
      <trkpt lat="49.02838" lon="1.11355">
        <ele>100</ele>
        <time>2016-11-11T09:42:49Z</time>
      </trkpt>
      <trkpt lat="49.02845" lon="1.11371">
        <ele>99.6</ele>
        <time>2016-11-11T09:42:51Z</time>
      </trkpt>
      <trkpt lat="49.02852" lon="1.11386">
        <ele>99.2</ele>
        <time>2016-11-11T09:42:53Z</time>
      </trkpt>
      <trkpt lat="49.02859" lon="1.11402">
        <ele>98.7</ele>
        <time>2016-11-11T09:42:55Z</time>
      </trkpt>
      <trkpt lat="49.02867" lon="1.11418">
        <ele>98.1</ele>
        <time>2016-11-11T09:42:57Z</time>
      </trkpt>
      <trkpt lat="49.02875" lon="1.11435">
        <ele>97.5</ele>
        <time>2016-11-11T09:42:59Z</time>
      </trkpt>
      <trkpt lat="49.02883" lon="1.11453">
        <ele>96.9</ele>
        <time>2016-11-11T09:43:01Z</time>
      </trkpt>
      <trkpt lat="49.02891" lon="1.11471">
        <ele>96.3</ele>
        <time>2016-11-11T09:43:03Z</time>
      </trkpt>
      <trkpt lat="49.02898" lon="1.11489">
        <ele>95.7</ele>
        <time>2016-11-11T09:43:05Z</time>
      </trkpt>
      <trkpt lat="49.02904" lon="1.11508">
        <ele>95.1</ele>
        <time>2016-11-11T09:43:07Z</time>
      </trkpt>
      <trkpt lat="49.02909" lon="1.11526">
        <ele>94.5</ele>
        <time>2016-11-11T09:43:09Z</time>
      </trkpt>
      <trkpt lat="49.02913" lon="1.11543">
        <ele>94</ele>
        <time>2016-11-11T09:43:11Z</time>
      </trkpt>
      <trkpt lat="49.02917" lon="1.11559">
        <ele>93.6</ele>
        <time>2016-11-11T09:43:13Z</time>
      </trkpt>
      <trkpt lat="49.02921" lon="1.11574">
        <ele>93.2</ele>
        <time>2016-11-11T09:43:15Z</time>
      </trkpt>
      <trkpt lat="49.02924" lon="1.11587">
        <ele>92.8</ele>
        <time>2016-11-11T09:43:17Z</time>
      </trkpt>
      <trkpt lat="49.02929" lon="1.11604">
        <ele>92.4</ele>
        <time>2016-11-11T09:43:20Z</time>
      </trkpt>
      <trkpt lat="49.02933" lon="1.11619">
        <ele>92</ele>
        <time>2016-11-11T09:43:23Z</time>
      </trkpt>
      <trkpt lat="49.02938" lon="1.11633">
        <ele>91.6</ele>
        <time>2016-11-11T09:43:27Z</time>
      </trkpt>
      <trkpt lat="49.02943" lon="1.11646">
        <ele>91.4</ele>
        <time>2016-11-11T09:43:30Z</time>
      </trkpt>
      <trkpt lat="49.0295" lon="1.11658">
        <ele>91.2</ele>
        <time>2016-11-11T09:43:33Z</time>
      </trkpt>
      <trkpt lat="49.02956" lon="1.11673">
        <ele>91</ele>
        <time>2016-11-11T09:43:37Z</time>
      </trkpt>
      <trkpt lat="49.02959" lon="1.11686">
        <ele>90.8</ele>
        <time>2016-11-11T09:43:40Z</time>
      </trkpt>
      <trkpt lat="49.02967" lon="1.11696">
        <ele>90.7</ele>
        <time>2016-11-11T09:43:43Z</time>
      </trkpt>
      <trkpt lat="49.02979" lon="1.11699">
        <ele>90.6</ele>
        <time>2016-11-11T09:43:46Z</time>
      </trkpt>
      <trkpt lat="49.02989" lon="1.11699">
        <ele>90.5</ele>
        <time>2016-11-11T09:43:49Z</time>
      </trkpt>
      <trkpt lat="49.03001" lon="1.11705">
        <ele>90.4</ele>
        <time>2016-11-11T09:43:52Z</time>
      </trkpt>
      <trkpt lat="49.03012" lon="1.11714">
        <ele>90.3</ele>
        <time>2016-11-11T09:43:55Z</time>
      </trkpt>
      <trkpt lat="49.03024" lon="1.11722">
        <ele>90.4</ele>
        <time>2016-11-11T09:43:58Z</time>
      </trkpt>
      <trkpt lat="49.03033" lon="1.11726">
        <ele>90.4</ele>
        <time>2016-11-11T09:44:00Z</time>
      </trkpt>
      <trkpt lat="49.03042" lon="1.1173">
        <ele>90.5</ele>
        <time>2016-11-11T09:44:02Z</time>
      </trkpt>
      <trkpt lat="49.03051" lon="1.11733">
        <ele>90.6</ele>
        <time>2016-11-11T09:44:04Z</time>
      </trkpt>
      <trkpt lat="49.0306" lon="1.11736">
        <ele>90.7</ele>
        <time>2016-11-11T09:44:06Z</time>
      </trkpt>
      <trkpt lat="49.03073" lon="1.11741">
        <ele>90.9</ele>
        <time>2016-11-11T09:44:09Z</time>
      </trkpt>
      <trkpt lat="49.03086" lon="1.11745">
        <ele>91.1</ele>
        <time>2016-11-11T09:44:12Z</time>
      </trkpt>
      <trkpt lat="49.03099" lon="1.11749">
        <ele>91.4</ele>
        <time>2016-11-11T09:44:15Z</time>
      </trkpt>
      <trkpt lat="49.03112" lon="1.11753">
        <ele>91.7</ele>
        <time>2016-11-11T09:44:18Z</time>
      </trkpt>
      <trkpt lat="49.03119" lon="1.11763">
        <ele>92</ele>
        <time>2016-11-11T09:44:21Z</time>
      </trkpt>
      <trkpt lat="49.03126" lon="1.11773">
        <ele>92.2</ele>
        <time>2016-11-11T09:44:24Z</time>
      </trkpt>
      <trkpt lat="49.03136" lon="1.11776">
        <ele>92.4</ele>
        <time>2016-11-11T09:44:27Z</time>
      </trkpt>
      <trkpt lat="49.03148" lon="1.11781">
        <ele>92.5</ele>
        <time>2016-11-11T09:44:30Z</time>
      </trkpt>
      <trkpt lat="49.03159" lon="1.11784">
        <ele>92.6</ele>
        <time>2016-11-11T09:44:33Z</time>
      </trkpt>
      <trkpt lat="49.03171" lon="1.11789">
        <ele>92.7</ele>
        <time>2016-11-11T09:44:36Z</time>
      </trkpt>
      <trkpt lat="49.0318" lon="1.11791">
        <ele>92.8</ele>
        <time>2016-11-11T09:44:38Z</time>
      </trkpt>
      <trkpt lat="49.03193" lon="1.11795">
        <ele>92.7</ele>
        <time>2016-11-11T09:44:41Z</time>
      </trkpt>
      <trkpt lat="49.03206" lon="1.11798">
        <ele>92.7</ele>
        <time>2016-11-11T09:44:44Z</time>
      </trkpt>
      <trkpt lat="49.03219" lon="1.11803">
        <ele>92.6</ele>
        <time>2016-11-11T09:44:47Z</time>
      </trkpt>
      <trkpt lat="49.03228" lon="1.11805">
        <ele>92.6</ele>
        <time>2016-11-11T09:44:49Z</time>
      </trkpt>
      <trkpt lat="49.03241" lon="1.11809">
        <ele>92.5</ele>
        <time>2016-11-11T09:44:52Z</time>
      </trkpt>
      <trkpt lat="49.03254" lon="1.11815">
        <ele>92.4</ele>
        <time>2016-11-11T09:44:55Z</time>
      </trkpt>
      <trkpt lat="49.03263" lon="1.11817">
        <ele>92.3</ele>
        <time>2016-11-11T09:44:57Z</time>
      </trkpt>
      <trkpt lat="49.03272" lon="1.1182">
        <ele>92.2</ele>
        <time>2016-11-11T09:44:59Z</time>
      </trkpt>
      <trkpt lat="49.03281" lon="1.11824">
        <ele>92.1</ele>
        <time>2016-11-11T09:45:01Z</time>
      </trkpt>
      <trkpt lat="49.0329" lon="1.11829">
        <ele>92.1</ele>
        <time>2016-11-11T09:45:03Z</time>
      </trkpt>
      <trkpt lat="49.03299" lon="1.11832">
        <ele>92</ele>
        <time>2016-11-11T09:45:05Z</time>
      </trkpt>
      <trkpt lat="49.0331" lon="1.11836">
        <ele>91.9</ele>
        <time>2016-11-11T09:45:07Z</time>
      </trkpt>
      <trkpt lat="49.03322" lon="1.1184">
        <ele>91.7</ele>
        <time>2016-11-11T09:45:09Z</time>
      </trkpt>
      <trkpt lat="49.03335" lon="1.11844">
        <ele>91.4</ele>
        <time>2016-11-11T09:45:11Z</time>
      </trkpt>
      <trkpt lat="49.03348" lon="1.11843">
        <ele>91.2</ele>
        <time>2016-11-11T09:45:13Z</time>
      </trkpt>
      <trkpt lat="49.03359" lon="1.11838">
        <ele>90.8</ele>
        <time>2016-11-11T09:45:15Z</time>
      </trkpt>
      <trkpt lat="49.03367" lon="1.11829">
        <ele>90.5</ele>
        <time>2016-11-11T09:45:17Z</time>
      </trkpt>
      <trkpt lat="49.03375" lon="1.1182">
        <ele>90.3</ele>
        <time>2016-11-11T09:45:19Z</time>
      </trkpt>
      <trkpt lat="49.03388" lon="1.11823">
        <ele>89.8</ele>
        <time>2016-11-11T09:45:22Z</time>
      </trkpt>
      <trkpt lat="49.034" lon="1.11831">
        <ele>89.4</ele>
        <time>2016-11-11T09:45:25Z</time>
      </trkpt>
      <trkpt lat="49.03411" lon="1.11832">
        <ele>88.9</ele>
        <time>2016-11-11T09:45:28Z</time>
      </trkpt>
      <trkpt lat="49.03422" lon="1.11834">
        <ele>88.4</ele>
        <time>2016-11-11T09:45:32Z</time>
      </trkpt>
      <trkpt lat="49.03432" lon="1.11841">
        <ele>88</ele>
        <time>2016-11-11T09:45:36Z</time>
      </trkpt>
      <trkpt lat="49.03438" lon="1.11857">
        <ele>87.6</ele>
        <time>2016-11-11T09:45:40Z</time>
      </trkpt>
      <trkpt lat="49.03443" lon="1.11872">
        <ele>87.3</ele>
        <time>2016-11-11T09:45:43Z</time>
      </trkpt>
      <trkpt lat="49.03447" lon="1.1189">
        <ele>87</ele>
        <time>2016-11-11T09:45:46Z</time>
      </trkpt>
      <trkpt lat="49.03449" lon="1.11906">
        <ele>86.8</ele>
        <time>2016-11-11T09:45:48Z</time>
      </trkpt>
      <trkpt lat="49.03452" lon="1.11922">
        <ele>86.6</ele>
        <time>2016-11-11T09:45:50Z</time>
      </trkpt>
      <trkpt lat="49.03458" lon="1.11934">
        <ele>86.3</ele>
        <time>2016-11-11T09:45:52Z</time>
      </trkpt>
      <trkpt lat="49.03466" lon="1.11947">
        <ele>86.1</ele>
        <time>2016-11-11T09:45:54Z</time>
      </trkpt>
      <trkpt lat="49.03476" lon="1.1196">
        <ele>85.7</ele>
        <time>2016-11-11T09:45:56Z</time>
      </trkpt>
      <trkpt lat="49.03486" lon="1.11972">
        <ele>85.2</ele>
        <time>2016-11-11T09:45:58Z</time>
      </trkpt>
      <trkpt lat="49.03498" lon="1.1198">
        <ele>84.6</ele>
        <time>2016-11-11T09:46:00Z</time>
      </trkpt>
      <trkpt lat="49.03507" lon="1.11973">
        <ele>83.7</ele>
        <time>2016-11-11T09:46:03Z</time>
      </trkpt>
      <trkpt lat="49.03515" lon="1.1196">
        <ele>83</ele>
        <time>2016-11-11T09:46:06Z</time>
      </trkpt>
      <trkpt lat="49.03523" lon="1.11947">
        <ele>82.4</ele>
        <time>2016-11-11T09:46:09Z</time>
      </trkpt>
      <trkpt lat="49.03531" lon="1.11933">
        <ele>81.9</ele>
        <time>2016-11-11T09:46:12Z</time>
      </trkpt>
      <trkpt lat="49.03539" lon="1.1192">
        <ele>81.5</ele>
        <time>2016-11-11T09:46:15Z</time>
      </trkpt>
      <trkpt lat="49.03547" lon="1.11906">
        <ele>81.2</ele>
        <time>2016-11-11T09:46:18Z</time>
      </trkpt>
      <trkpt lat="49.03555" lon="1.11891">
        <ele>80.9</ele>
        <time>2016-11-11T09:46:21Z</time>
      </trkpt>
      <trkpt lat="49.03563" lon="1.11878">
        <ele>80.7</ele>
        <time>2016-11-11T09:46:24Z</time>
      </trkpt>
      <trkpt lat="49.0357" lon="1.11864">
        <ele>80.5</ele>
        <time>2016-11-11T09:46:27Z</time>
      </trkpt>
      <trkpt lat="49.03577" lon="1.11851">
        <ele>80.4</ele>
        <time>2016-11-11T09:46:30Z</time>
      </trkpt>
      <trkpt lat="49.03585" lon="1.11837">
        <ele>80.2</ele>
        <time>2016-11-11T09:46:33Z</time>
      </trkpt>
      <trkpt lat="49.03592" lon="1.11823">
        <ele>80.1</ele>
        <time>2016-11-11T09:46:36Z</time>
      </trkpt>
      <trkpt lat="49.03599" lon="1.1181">
        <ele>80.1</ele>
        <time>2016-11-11T09:46:39Z</time>
      </trkpt>
      <trkpt lat="49.03609" lon="1.11804">
        <ele>80</ele>
        <time>2016-11-11T09:46:43Z</time>
      </trkpt>
      <trkpt lat="49.03605" lon="1.11818">
        <ele>80.2</ele>
        <time>2016-11-11T09:46:56Z</time>
      </trkpt>
      <trkpt lat="49.03597" lon="1.11832">
        <ele>80.6</ele>
        <time>2016-11-11T09:47:01Z</time>
      </trkpt>
      <trkpt lat="49.03593" lon="1.11848">
        <ele>81</ele>
        <time>2016-11-11T09:47:05Z</time>
      </trkpt>
      <trkpt lat="49.03593" lon="1.11864">
        <ele>81.6</ele>
        <time>2016-11-11T09:47:09Z</time>
      </trkpt>
      <trkpt lat="49.03596" lon="1.11877">
        <ele>82.3</ele>
        <time>2016-11-11T09:47:13Z</time>
      </trkpt>
      <trkpt lat="49.036" lon="1.11891">
        <ele>83.5</ele>
        <time>2016-11-11T09:47:18Z</time>
      </trkpt>
      <trkpt lat="49.03603" lon="1.11908">
        <ele>84.5</ele>
        <time>2016-11-11T09:47:22Z</time>
      </trkpt>
      <trkpt lat="49.03608" lon="1.11921">
        <ele>85.6</ele>
        <time>2016-11-11T09:47:26Z</time>
      </trkpt>
      <trkpt lat="49.03614" lon="1.11934">
        <ele>86.7</ele>
        <time>2016-11-11T09:47:30Z</time>
      </trkpt>
      <trkpt lat="49.0362" lon="1.11947">
        <ele>87.8</ele>
        <time>2016-11-11T09:47:34Z</time>
      </trkpt>
      <trkpt lat="49.03624" lon="1.1196">
        <ele>88.9</ele>
        <time>2016-11-11T09:47:38Z</time>
      </trkpt>
      <trkpt lat="49.03628" lon="1.11974">
        <ele>90</ele>
        <time>2016-11-11T09:47:42Z</time>
      </trkpt>
      <trkpt lat="49.03633" lon="1.11986">
        <ele>91</ele>
        <time>2016-11-11T09:47:46Z</time>
      </trkpt>
      <trkpt lat="49.03636" lon="1.12">
        <ele>92.3</ele>
        <time>2016-11-11T09:47:51Z</time>
      </trkpt>
      <trkpt lat="49.03641" lon="1.12017">
        <ele>93.4</ele>
        <time>2016-11-11T09:47:56Z</time>
      </trkpt>
      <trkpt lat="49.03647" lon="1.12034">
        <ele>94.2</ele>
        <time>2016-11-11T09:48:00Z</time>
      </trkpt>
      <trkpt lat="49.03651" lon="1.12048">
        <ele>95.1</ele>
        <time>2016-11-11T09:48:04Z</time>
      </trkpt>
      <trkpt lat="49.03654" lon="1.12062">
        <ele>95.8</ele>
        <time>2016-11-11T09:48:07Z</time>
      </trkpt>
      <trkpt lat="49.03657" lon="1.12076">
        <ele>96.8</ele>
        <time>2016-11-11T09:48:11Z</time>
      </trkpt>
      <trkpt lat="49.03662" lon="1.12091">
        <ele>97.8</ele>
        <time>2016-11-11T09:48:15Z</time>
      </trkpt>
      <trkpt lat="49.03666" lon="1.12104">
        <ele>98.6</ele>
        <time>2016-11-11T09:48:18Z</time>
      </trkpt>
      <trkpt lat="49.03668" lon="1.12121">
        <ele>99.7</ele>
        <time>2016-11-11T09:48:22Z</time>
      </trkpt>
      <trkpt lat="49.03669" lon="1.12136">
        <ele>101</ele>
        <time>2016-11-11T09:48:26Z</time>
      </trkpt>
      <trkpt lat="49.03671" lon="1.1215">
        <ele>102</ele>
        <time>2016-11-11T09:48:29Z</time>
      </trkpt>
      <trkpt lat="49.03674" lon="1.12165">
        <ele>103</ele>
        <time>2016-11-11T09:48:32Z</time>
      </trkpt>
      <trkpt lat="49.03675" lon="1.12179">
        <ele>103.9</ele>
        <time>2016-11-11T09:48:35Z</time>
      </trkpt>
      <trkpt lat="49.03678" lon="1.12196">
        <ele>104.7</ele>
        <time>2016-11-11T09:48:38Z</time>
      </trkpt>
      <trkpt lat="49.0368" lon="1.12212">
        <ele>105.4</ele>
        <time>2016-11-11T09:48:41Z</time>
      </trkpt>
      <trkpt lat="49.03682" lon="1.12229">
        <ele>106.1</ele>
        <time>2016-11-11T09:48:44Z</time>
      </trkpt>
      <trkpt lat="49.03683" lon="1.12243">
        <ele>106.9</ele>
        <time>2016-11-11T09:48:47Z</time>
      </trkpt>
      <trkpt lat="49.03683" lon="1.12261">
        <ele>108</ele>
        <time>2016-11-11T09:48:51Z</time>
      </trkpt>
      <trkpt lat="49.03683" lon="1.12277">
        <ele>108.8</ele>
        <time>2016-11-11T09:48:54Z</time>
      </trkpt>
      <trkpt lat="49.03681" lon="1.12291">
        <ele>109.6</ele>
        <time>2016-11-11T09:48:57Z</time>
      </trkpt>
      <trkpt lat="49.03679" lon="1.12306">
        <ele>110.3</ele>
        <time>2016-11-11T09:49:00Z</time>
      </trkpt>
      <trkpt lat="49.03679" lon="1.12322">
        <ele>111</ele>
        <time>2016-11-11T09:49:03Z</time>
      </trkpt>
      <trkpt lat="49.03681" lon="1.12338">
        <ele>111.6</ele>
        <time>2016-11-11T09:49:06Z</time>
      </trkpt>
      <trkpt lat="49.03682" lon="1.12355">
        <ele>112.2</ele>
        <time>2016-11-11T09:49:09Z</time>
      </trkpt>
      <trkpt lat="49.03682" lon="1.12371">
        <ele>112.6</ele>
        <time>2016-11-11T09:49:12Z</time>
      </trkpt>
      <trkpt lat="49.03683" lon="1.12387">
        <ele>113</ele>
        <time>2016-11-11T09:49:15Z</time>
      </trkpt>
      <trkpt lat="49.03682" lon="1.12403">
        <ele>113.4</ele>
        <time>2016-11-11T09:49:19Z</time>
      </trkpt>
      <trkpt lat="49.03688" lon="1.12414">
        <ele>115.1</ele>
        <time>2016-11-11T09:51:42Z</time>
      </trkpt>
      <trkpt lat="49.03681" lon="1.12406">
        <ele>115.2</ele>
        <time>2016-11-11T09:57:51Z</time>
      </trkpt>
      <trkpt lat="49.03689" lon="1.12413">
        <ele>115.2</ele>
        <time>2016-11-11T09:58:29Z</time>
      </trkpt>
      <trkpt lat="49.0368" lon="1.12424">
        <ele>114.9</ele>
        <time>2016-11-11T09:59:35Z</time>
      </trkpt>
      <trkpt lat="49.03669" lon="1.12425">
        <ele>114.7</ele>
        <time>2016-11-11T09:59:39Z</time>
      </trkpt>
      <trkpt lat="49.03659" lon="1.12423">
        <ele>114.5</ele>
        <time>2016-11-11T09:59:42Z</time>
      </trkpt>
      <trkpt lat="49.03651" lon="1.12429">
        <ele>113.8</ele>
        <time>2016-11-11T09:59:47Z</time>
      </trkpt>
      <trkpt lat="49.03644" lon="1.1244">
        <ele>113.2</ele>
        <time>2016-11-11T09:59:51Z</time>
      </trkpt>
      <trkpt lat="49.03638" lon="1.12454">
        <ele>112.4</ele>
        <time>2016-11-11T09:59:54Z</time>
      </trkpt>
      <trkpt lat="49.03628" lon="1.12462">
        <ele>111.5</ele>
        <time>2016-11-11T09:59:57Z</time>
      </trkpt>
      <trkpt lat="49.03618" lon="1.12465">
        <ele>109.7</ele>
        <time>2016-11-11T10:00:02Z</time>
      </trkpt>
      <trkpt lat="49.03611" lon="1.12476">
        <ele>108</ele>
        <time>2016-11-11T10:00:08Z</time>
      </trkpt>
      <trkpt lat="49.03609" lon="1.1249">
        <ele>107.3</ele>
        <time>2016-11-11T10:00:13Z</time>
      </trkpt>
      <trkpt lat="49.03611" lon="1.12505">
        <ele>107.3</ele>
        <time>2016-11-11T10:00:19Z</time>
      </trkpt>
      <trkpt lat="49.03616" lon="1.12518">
        <ele>107.8</ele>
        <time>2016-11-11T10:00:24Z</time>
      </trkpt>
      <trkpt lat="49.03623" lon="1.1253">
        <ele>108.2</ele>
        <time>2016-11-11T10:00:29Z</time>
      </trkpt>
      <trkpt lat="49.03629" lon="1.12542">
        <ele>108.9</ele>
        <time>2016-11-11T10:00:35Z</time>
      </trkpt>
      <trkpt lat="49.03636" lon="1.12532">
        <ele>109.5</ele>
        <time>2016-11-11T10:00:42Z</time>
      </trkpt>
      <trkpt lat="49.03642" lon="1.12521">
        <ele>109.8</ele>
        <time>2016-11-11T10:00:46Z</time>
      </trkpt>
      <trkpt lat="49.03649" lon="1.12512">
        <ele>110.1</ele>
        <time>2016-11-11T10:00:51Z</time>
      </trkpt>
      <trkpt lat="49.03657" lon="1.12521">
        <ele>110.3</ele>
        <time>2016-11-11T10:00:57Z</time>
      </trkpt>
      <trkpt lat="49.03658" lon="1.12535">
        <ele>110.6</ele>
        <time>2016-11-11T10:01:02Z</time>
      </trkpt>
      <trkpt lat="49.03659" lon="1.12549">
        <ele>110.8</ele>
        <time>2016-11-11T10:01:06Z</time>
      </trkpt>
      <trkpt lat="49.03666" lon="1.1256">
        <ele>111.2</ele>
        <time>2016-11-11T10:01:11Z</time>
      </trkpt>
      <trkpt lat="49.03675" lon="1.12549">
        <ele>111.5</ele>
        <time>2016-11-11T10:01:16Z</time>
      </trkpt>
      <trkpt lat="49.03686" lon="1.12543">
        <ele>111.8</ele>
        <time>2016-11-11T10:01:20Z</time>
      </trkpt>
      <trkpt lat="49.03696" lon="1.12536">
        <ele>112.2</ele>
        <time>2016-11-11T10:01:24Z</time>
      </trkpt>
      <trkpt lat="49.03705" lon="1.12531">
        <ele>112.4</ele>
        <time>2016-11-11T10:01:27Z</time>
      </trkpt>
      <trkpt lat="49.03716" lon="1.12525">
        <ele>112.8</ele>
        <time>2016-11-11T10:01:31Z</time>
      </trkpt>
      <trkpt lat="49.03723" lon="1.12513">
        <ele>113</ele>
        <time>2016-11-11T10:01:35Z</time>
      </trkpt>
      <trkpt lat="49.03731" lon="1.12504">
        <ele>113.2</ele>
        <time>2016-11-11T10:01:38Z</time>
      </trkpt>
      <trkpt lat="49.03741" lon="1.12494">
        <ele>113.4</ele>
        <time>2016-11-11T10:01:42Z</time>
      </trkpt>
      <trkpt lat="49.03748" lon="1.12486">
        <ele>113.7</ele>
        <time>2016-11-11T10:01:45Z</time>
      </trkpt>
      <trkpt lat="49.03757" lon="1.12472">
        <ele>114.1</ele>
        <time>2016-11-11T10:01:49Z</time>
      </trkpt>
      <trkpt lat="49.03766" lon="1.1246">
        <ele>114.4</ele>
        <time>2016-11-11T10:01:53Z</time>
      </trkpt>
      <trkpt lat="49.03775" lon="1.12449">
        <ele>114.7</ele>
        <time>2016-11-11T10:01:57Z</time>
      </trkpt>
      <trkpt lat="49.03773" lon="1.12433">
        <ele>115.2</ele>
        <time>2016-11-11T10:02:03Z</time>
      </trkpt>
      <trkpt lat="49.03775" lon="1.12417">
        <ele>115.5</ele>
        <time>2016-11-11T10:02:08Z</time>
      </trkpt>
      <trkpt lat="49.03776" lon="1.12402">
        <ele>115.9</ele>
        <time>2016-11-11T10:02:13Z</time>
      </trkpt>
      <trkpt lat="49.0378" lon="1.12385">
        <ele>116.3</ele>
        <time>2016-11-11T10:02:18Z</time>
      </trkpt>
      <trkpt lat="49.03784" lon="1.12371">
        <ele>116.7</ele>
        <time>2016-11-11T10:02:22Z</time>
      </trkpt>
      <trkpt lat="49.03786" lon="1.12358">
        <ele>117.1</ele>
        <time>2016-11-11T10:02:26Z</time>
      </trkpt>
      <trkpt lat="49.03787" lon="1.12342">
        <ele>117.3</ele>
        <time>2016-11-11T10:02:30Z</time>
      </trkpt>
      <trkpt lat="49.03787" lon="1.12325">
        <ele>117.5</ele>
        <time>2016-11-11T10:02:34Z</time>
      </trkpt>
      <trkpt lat="49.03787" lon="1.12308">
        <ele>117.7</ele>
        <time>2016-11-11T10:02:38Z</time>
      </trkpt>
      <trkpt lat="49.03791" lon="1.12291">
        <ele>117.8</ele>
        <time>2016-11-11T10:02:42Z</time>
      </trkpt>
      <trkpt lat="49.03796" lon="1.12278">
        <ele>118</ele>
        <time>2016-11-11T10:02:45Z</time>
      </trkpt>
      <trkpt lat="49.03796" lon="1.12262">
        <ele>118.3</ele>
        <time>2016-11-11T10:02:49Z</time>
      </trkpt>
      <trkpt lat="49.03798" lon="1.12247">
        <ele>118.4</ele>
        <time>2016-11-11T10:02:53Z</time>
      </trkpt>
      <trkpt lat="49.03802" lon="1.12233">
        <ele>118.6</ele>
        <time>2016-11-11T10:02:57Z</time>
      </trkpt>
      <trkpt lat="49.03811" lon="1.12221">
        <ele>118.7</ele>
        <time>2016-11-11T10:03:01Z</time>
      </trkpt>
      <trkpt lat="49.0382" lon="1.12217">
        <ele>118.7</ele>
        <time>2016-11-11T10:03:05Z</time>
      </trkpt>
      <trkpt lat="49.03828" lon="1.12207">
        <ele>118.8</ele>
        <time>2016-11-11T10:03:08Z</time>
      </trkpt>
      <trkpt lat="49.03837" lon="1.12197">
        <ele>118.8</ele>
        <time>2016-11-11T10:03:11Z</time>
      </trkpt>
      <trkpt lat="49.03844" lon="1.12185">
        <ele>118.9</ele>
        <time>2016-11-11T10:03:14Z</time>
      </trkpt>
      <trkpt lat="49.03851" lon="1.1217">
        <ele>118.9</ele>
        <time>2016-11-11T10:03:17Z</time>
      </trkpt>
      <trkpt lat="49.03859" lon="1.12163">
        <ele>118.9</ele>
        <time>2016-11-11T10:03:20Z</time>
      </trkpt>
      <trkpt lat="49.03867" lon="1.12154">
        <ele>119</ele>
        <time>2016-11-11T10:03:23Z</time>
      </trkpt>
      <trkpt lat="49.03874" lon="1.12143">
        <ele>119</ele>
        <time>2016-11-11T10:03:26Z</time>
      </trkpt>
      <trkpt lat="49.03886" lon="1.12138">
        <ele>119.1</ele>
        <time>2016-11-11T10:03:30Z</time>
      </trkpt>
      <trkpt lat="49.03897" lon="1.12137">
        <ele>119.3</ele>
        <time>2016-11-11T10:03:34Z</time>
      </trkpt>
      <trkpt lat="49.03907" lon="1.12133">
        <ele>119.3</ele>
        <time>2016-11-11T10:03:37Z</time>
      </trkpt>
      <trkpt lat="49.03917" lon="1.12131">
        <ele>119.4</ele>
        <time>2016-11-11T10:03:40Z</time>
      </trkpt>
      <trkpt lat="49.03928" lon="1.12128">
        <ele>119.6</ele>
        <time>2016-11-11T10:03:44Z</time>
      </trkpt>
      <trkpt lat="49.03932" lon="1.12111">
        <ele>119.9</ele>
        <time>2016-11-11T10:03:48Z</time>
      </trkpt>
      <trkpt lat="49.03935" lon="1.12097">
        <ele>120.1</ele>
        <time>2016-11-11T10:03:51Z</time>
      </trkpt>
      <trkpt lat="49.0394" lon="1.12084">
        <ele>120.4</ele>
        <time>2016-11-11T10:03:56Z</time>
      </trkpt>
      <trkpt lat="49.03943" lon="1.12071">
        <ele>120.9</ele>
        <time>2016-11-11T10:04:18Z</time>
      </trkpt>
      <trkpt lat="49.03946" lon="1.12054">
        <ele>120.9</ele>
        <time>2016-11-11T10:04:23Z</time>
      </trkpt>
      <trkpt lat="49.03949" lon="1.12041">
        <ele>120.9</ele>
        <time>2016-11-11T10:04:26Z</time>
      </trkpt>
      <trkpt lat="49.03951" lon="1.12025">
        <ele>120.9</ele>
        <time>2016-11-11T10:04:29Z</time>
      </trkpt>
      <trkpt lat="49.03953" lon="1.12006">
        <ele>120.8</ele>
        <time>2016-11-11T10:04:32Z</time>
      </trkpt>
      <trkpt lat="49.03954" lon="1.11993">
        <ele>120.6</ele>
        <time>2016-11-11T10:04:34Z</time>
      </trkpt>
      <trkpt lat="49.03956" lon="1.11974">
        <ele>120.4</ele>
        <time>2016-11-11T10:04:37Z</time>
      </trkpt>
      <trkpt lat="49.03959" lon="1.11956">
        <ele>120.2</ele>
        <time>2016-11-11T10:04:40Z</time>
      </trkpt>
      <trkpt lat="49.03961" lon="1.11936">
        <ele>119.9</ele>
        <time>2016-11-11T10:04:43Z</time>
      </trkpt>
      <trkpt lat="49.03964" lon="1.11919">
        <ele>119.6</ele>
        <time>2016-11-11T10:04:46Z</time>
      </trkpt>
      <trkpt lat="49.03964" lon="1.119">
        <ele>119.4</ele>
        <time>2016-11-11T10:04:49Z</time>
      </trkpt>
      <trkpt lat="49.03956" lon="1.11885">
        <ele>119.1</ele>
        <time>2016-11-11T10:04:52Z</time>
      </trkpt>
      <trkpt lat="49.03952" lon="1.11871">
        <ele>118.9</ele>
        <time>2016-11-11T10:04:55Z</time>
      </trkpt>
      <trkpt lat="49.0395" lon="1.11857">
        <ele>118.6</ele>
        <time>2016-11-11T10:04:58Z</time>
      </trkpt>
      <trkpt lat="49.03949" lon="1.11837">
        <ele>117.9</ele>
        <time>2016-11-11T10:05:02Z</time>
      </trkpt>
      <trkpt lat="49.03948" lon="1.11821">
        <ele>117.6</ele>
        <time>2016-11-11T10:05:04Z</time>
      </trkpt>
      <trkpt lat="49.03948" lon="1.11805">
        <ele>117.2</ele>
        <time>2016-11-11T10:05:06Z</time>
      </trkpt>
      <trkpt lat="49.03947" lon="1.11788">
        <ele>116.8</ele>
        <time>2016-11-11T10:05:08Z</time>
      </trkpt>
      <trkpt lat="49.03949" lon="1.11769">
        <ele>116.4</ele>
        <time>2016-11-11T10:05:11Z</time>
      </trkpt>
      <trkpt lat="49.03951" lon="1.1175">
        <ele>115.9</ele>
        <time>2016-11-11T10:05:14Z</time>
      </trkpt>
      <trkpt lat="49.03954" lon="1.11736">
        <ele>115.6</ele>
        <time>2016-11-11T10:05:16Z</time>
      </trkpt>
      <trkpt lat="49.03957" lon="1.11716">
        <ele>115.1</ele>
        <time>2016-11-11T10:05:19Z</time>
      </trkpt>
      <trkpt lat="49.03958" lon="1.11702">
        <ele>114.7</ele>
        <time>2016-11-11T10:05:21Z</time>
      </trkpt>
      <trkpt lat="49.03952" lon="1.11687">
        <ele>114.3</ele>
        <time>2016-11-11T10:05:24Z</time>
      </trkpt>
      <trkpt lat="49.03948" lon="1.11669">
        <ele>114</ele>
        <time>2016-11-11T10:05:27Z</time>
      </trkpt>
      <trkpt lat="49.03949" lon="1.11651">
        <ele>113.8</ele>
        <time>2016-11-11T10:05:30Z</time>
      </trkpt>
      <trkpt lat="49.0395" lon="1.11632">
        <ele>113.6</ele>
        <time>2016-11-11T10:05:33Z</time>
      </trkpt>
      <trkpt lat="49.03947" lon="1.11617">
        <ele>113.5</ele>
        <time>2016-11-11T10:05:36Z</time>
      </trkpt>
      <trkpt lat="49.0394" lon="1.11601">
        <ele>113.4</ele>
        <time>2016-11-11T10:05:39Z</time>
      </trkpt>
      <trkpt lat="49.03936" lon="1.11588">
        <ele>113.3</ele>
        <time>2016-11-11T10:05:41Z</time>
      </trkpt>
      <trkpt lat="49.03934" lon="1.1157">
        <ele>113.2</ele>
        <time>2016-11-11T10:05:44Z</time>
      </trkpt>
      <trkpt lat="49.03937" lon="1.11556">
        <ele>113.2</ele>
        <time>2016-11-11T10:05:47Z</time>
      </trkpt>
      <trkpt lat="49.03943" lon="1.11541">
        <ele>113.2</ele>
        <time>2016-11-11T10:05:51Z</time>
      </trkpt>
      <trkpt lat="49.0395" lon="1.1153">
        <ele>113.4</ele>
        <time>2016-11-11T10:05:54Z</time>
      </trkpt>
      <trkpt lat="49.03951" lon="1.11516">
        <ele>113.7</ele>
        <time>2016-11-11T10:05:57Z</time>
      </trkpt>
      <trkpt lat="49.03948" lon="1.115">
        <ele>114</ele>
        <time>2016-11-11T10:06:00Z</time>
      </trkpt>
      <trkpt lat="49.0394" lon="1.11486">
        <ele>114.2</ele>
        <time>2016-11-11T10:06:03Z</time>
      </trkpt>
      <trkpt lat="49.03933" lon="1.11472">
        <ele>114.4</ele>
        <time>2016-11-11T10:06:06Z</time>
      </trkpt>
      <trkpt lat="49.03925" lon="1.11457">
        <ele>114.5</ele>
        <time>2016-11-11T10:06:09Z</time>
      </trkpt>
      <trkpt lat="49.03919" lon="1.1144">
        <ele>114.6</ele>
        <time>2016-11-11T10:06:12Z</time>
      </trkpt>
      <trkpt lat="49.03915" lon="1.11424">
        <ele>114.5</ele>
        <time>2016-11-11T10:06:15Z</time>
      </trkpt>
      <trkpt lat="49.03908" lon="1.11412">
        <ele>114.5</ele>
        <time>2016-11-11T10:06:17Z</time>
      </trkpt>
      <trkpt lat="49.03905" lon="1.11394">
        <ele>114.4</ele>
        <time>2016-11-11T10:06:20Z</time>
      </trkpt>
      <trkpt lat="49.03902" lon="1.11379">
        <ele>114.4</ele>
        <time>2016-11-11T10:06:22Z</time>
      </trkpt>
      <trkpt lat="49.03897" lon="1.1136">
        <ele>114.3</ele>
        <time>2016-11-11T10:06:25Z</time>
      </trkpt>
      <trkpt lat="49.03891" lon="1.11348">
        <ele>114.2</ele>
        <time>2016-11-11T10:06:27Z</time>
      </trkpt>
      <trkpt lat="49.03886" lon="1.11337">
        <ele>114.1</ele>
        <time>2016-11-11T10:06:29Z</time>
      </trkpt>
      <trkpt lat="49.03878" lon="1.11325">
        <ele>114</ele>
        <time>2016-11-11T10:06:31Z</time>
      </trkpt>
      <trkpt lat="49.0387" lon="1.11311">
        <ele>113.7</ele>
        <time>2016-11-11T10:06:34Z</time>
      </trkpt>
      <trkpt lat="49.03871" lon="1.11292">
        <ele>113.4</ele>
        <time>2016-11-11T10:06:37Z</time>
      </trkpt>
      <trkpt lat="49.03875" lon="1.11276">
        <ele>113.1</ele>
        <time>2016-11-11T10:06:40Z</time>
      </trkpt>
      <trkpt lat="49.0388" lon="1.11262">
        <ele>113</ele>
        <time>2016-11-11T10:06:43Z</time>
      </trkpt>
      <trkpt lat="49.03884" lon="1.11247">
        <ele>112.9</ele>
        <time>2016-11-11T10:06:46Z</time>
      </trkpt>
      <trkpt lat="49.0389" lon="1.11232">
        <ele>112.9</ele>
        <time>2016-11-11T10:06:49Z</time>
      </trkpt>
      <trkpt lat="49.03897" lon="1.11217">
        <ele>112.9</ele>
        <time>2016-11-11T10:06:52Z</time>
      </trkpt>
      <trkpt lat="49.03906" lon="1.1121">
        <ele>112.9</ele>
        <time>2016-11-11T10:06:55Z</time>
      </trkpt>
      <trkpt lat="49.03916" lon="1.11213">
        <ele>113.1</ele>
        <time>2016-11-11T10:07:00Z</time>
      </trkpt>
      <trkpt lat="49.03925" lon="1.11221">
        <ele>113.2</ele>
        <time>2016-11-11T10:07:04Z</time>
      </trkpt>
      <trkpt lat="49.03935" lon="1.11218">
        <ele>113.4</ele>
        <time>2016-11-11T10:07:07Z</time>
      </trkpt>
      <trkpt lat="49.03944" lon="1.11213">
        <ele>113.6</ele>
        <time>2016-11-11T10:07:10Z</time>
      </trkpt>
      <trkpt lat="49.03953" lon="1.11208">
        <ele>113.8</ele>
        <time>2016-11-11T10:07:13Z</time>
      </trkpt>
      <trkpt lat="49.03964" lon="1.11198">
        <ele>113.9</ele>
        <time>2016-11-11T10:07:16Z</time>
      </trkpt>
      <trkpt lat="49.03971" lon="1.11188">
        <ele>114</ele>
        <time>2016-11-11T10:07:19Z</time>
      </trkpt>
      <trkpt lat="49.03982" lon="1.11181">
        <ele>114.2</ele>
        <time>2016-11-11T10:07:24Z</time>
      </trkpt>
      <trkpt lat="49.03992" lon="1.11179">
        <ele>114.4</ele>
        <time>2016-11-11T10:07:27Z</time>
      </trkpt>
      <trkpt lat="49.04003" lon="1.11179">
        <ele>114.5</ele>
        <time>2016-11-11T10:07:30Z</time>
      </trkpt>
      <trkpt lat="49.04014" lon="1.11183">
        <ele>114.6</ele>
        <time>2016-11-11T10:07:33Z</time>
      </trkpt>
      <trkpt lat="49.04022" lon="1.11189">
        <ele>114.7</ele>
        <time>2016-11-11T10:07:36Z</time>
      </trkpt>
      <trkpt lat="49.04034" lon="1.11189">
        <ele>114.7</ele>
        <time>2016-11-11T10:07:39Z</time>
      </trkpt>
      <trkpt lat="49.04042" lon="1.11199">
        <ele>114.8</ele>
        <time>2016-11-11T10:07:42Z</time>
      </trkpt>
      <trkpt lat="49.04044" lon="1.11214">
        <ele>115</ele>
        <time>2016-11-11T10:07:46Z</time>
      </trkpt>
      <trkpt lat="49.0405" lon="1.11226">
        <ele>115.2</ele>
        <time>2016-11-11T10:07:49Z</time>
      </trkpt>
      <trkpt lat="49.0406" lon="1.11227">
        <ele>115.5</ele>
        <time>2016-11-11T10:07:54Z</time>
      </trkpt>
      <trkpt lat="49.0407" lon="1.1122">
        <ele>115.6</ele>
        <time>2016-11-11T10:07:58Z</time>
      </trkpt>
      <trkpt lat="49.04079" lon="1.11211">
        <ele>115.8</ele>
        <time>2016-11-11T10:08:02Z</time>
      </trkpt>
      <trkpt lat="49.04085" lon="1.11197">
        <ele>115.9</ele>
        <time>2016-11-11T10:08:07Z</time>
      </trkpt>
      <trkpt lat="49.04093" lon="1.11187">
        <ele>115.9</ele>
        <time>2016-11-11T10:08:11Z</time>
      </trkpt>
      <trkpt lat="49.04103" lon="1.11181">
        <ele>116</ele>
        <time>2016-11-11T10:08:15Z</time>
      </trkpt>
      <trkpt lat="49.04115" lon="1.11181">
        <ele>116</ele>
        <time>2016-11-11T10:08:19Z</time>
      </trkpt>
      <trkpt lat="49.04125" lon="1.11182">
        <ele>115.9</ele>
        <time>2016-11-11T10:08:23Z</time>
      </trkpt>
      <trkpt lat="49.04134" lon="1.11176">
        <ele>115.9</ele>
        <time>2016-11-11T10:08:26Z</time>
      </trkpt>
      <trkpt lat="49.04144" lon="1.11171">
        <ele>115.8</ele>
        <time>2016-11-11T10:08:29Z</time>
      </trkpt>
      <trkpt lat="49.04153" lon="1.11169">
        <ele>115.7</ele>
        <time>2016-11-11T10:08:32Z</time>
      </trkpt>
      <trkpt lat="49.04166" lon="1.11161">
        <ele>115.4</ele>
        <time>2016-11-11T10:08:35Z</time>
      </trkpt>
      <trkpt lat="49.04175" lon="1.11155">
        <ele>115.2</ele>
        <time>2016-11-11T10:08:38Z</time>
      </trkpt>
      <trkpt lat="49.04185" lon="1.11156">
        <ele>115.1</ele>
        <time>2016-11-11T10:08:41Z</time>
      </trkpt>
      <trkpt lat="49.04195" lon="1.11155">
        <ele>114.9</ele>
        <time>2016-11-11T10:08:44Z</time>
      </trkpt>
      <trkpt lat="49.04205" lon="1.11152">
        <ele>114.8</ele>
        <time>2016-11-11T10:08:47Z</time>
      </trkpt>
      <trkpt lat="49.04215" lon="1.11148">
        <ele>114.7</ele>
        <time>2016-11-11T10:08:50Z</time>
      </trkpt>
      <trkpt lat="49.04224" lon="1.11149">
        <ele>114.6</ele>
        <time>2016-11-11T10:08:53Z</time>
      </trkpt>
      <trkpt lat="49.04229" lon="1.11163">
        <ele>114.5</ele>
        <time>2016-11-11T10:08:56Z</time>
      </trkpt>
      <trkpt lat="49.04233" lon="1.1118">
        <ele>114.3</ele>
        <time>2016-11-11T10:08:59Z</time>
      </trkpt>
      <trkpt lat="49.04238" lon="1.11198">
        <ele>113.8</ele>
        <time>2016-11-11T10:09:02Z</time>
      </trkpt>
      <trkpt lat="49.04242" lon="1.11212">
        <ele>113.6</ele>
        <time>2016-11-11T10:09:04Z</time>
      </trkpt>
      <trkpt lat="49.04246" lon="1.11224">
        <ele>113.4</ele>
        <time>2016-11-11T10:09:06Z</time>
      </trkpt>
      <trkpt lat="49.0425" lon="1.11237">
        <ele>113.3</ele>
        <time>2016-11-11T10:09:08Z</time>
      </trkpt>
      <trkpt lat="49.04256" lon="1.11255">
        <ele>113</ele>
        <time>2016-11-11T10:09:11Z</time>
      </trkpt>
      <trkpt lat="49.04259" lon="1.11268">
        <ele>112.9</ele>
        <time>2016-11-11T10:09:13Z</time>
      </trkpt>
      <trkpt lat="49.04263" lon="1.11281">
        <ele>112.7</ele>
        <time>2016-11-11T10:09:15Z</time>
      </trkpt>
      <trkpt lat="49.04268" lon="1.11294">
        <ele>112.6</ele>
        <time>2016-11-11T10:09:17Z</time>
      </trkpt>
      <trkpt lat="49.04272" lon="1.11313">
        <ele>112.4</ele>
        <time>2016-11-11T10:09:20Z</time>
      </trkpt>
      <trkpt lat="49.04275" lon="1.11326">
        <ele>112.3</ele>
        <time>2016-11-11T10:09:22Z</time>
      </trkpt>
      <trkpt lat="49.04279" lon="1.11339">
        <ele>112.1</ele>
        <time>2016-11-11T10:09:24Z</time>
      </trkpt>
      <trkpt lat="49.04284" lon="1.11357">
        <ele>111.8</ele>
        <time>2016-11-11T10:09:27Z</time>
      </trkpt>
      <trkpt lat="49.04288" lon="1.11374">
        <ele>111.5</ele>
        <time>2016-11-11T10:09:30Z</time>
      </trkpt>
      <trkpt lat="49.04293" lon="1.11386">
        <ele>111.3</ele>
        <time>2016-11-11T10:09:32Z</time>
      </trkpt>
      <trkpt lat="49.04301" lon="1.11397">
        <ele>110.9</ele>
        <time>2016-11-11T10:09:35Z</time>
      </trkpt>
      <trkpt lat="49.04313" lon="1.11401">
        <ele>110.3</ele>
        <time>2016-11-11T10:09:39Z</time>
      </trkpt>
      <trkpt lat="49.04325" lon="1.11403">
        <ele>109.8</ele>
        <time>2016-11-11T10:09:43Z</time>
      </trkpt>
      <trkpt lat="49.04336" lon="1.114">
        <ele>109.5</ele>
        <time>2016-11-11T10:09:47Z</time>
      </trkpt>
      <trkpt lat="49.04347" lon="1.11395">
        <ele>109.4</ele>
        <time>2016-11-11T10:09:51Z</time>
      </trkpt>
      <trkpt lat="49.04357" lon="1.11393">
        <ele>109.7</ele>
        <time>2016-11-11T10:09:56Z</time>
      </trkpt>
      <trkpt lat="49.04367" lon="1.11387">
        <ele>110.3</ele>
        <time>2016-11-11T10:10:02Z</time>
      </trkpt>
      <trkpt lat="49.04376" lon="1.11383">
        <ele>111.3</ele>
        <time>2016-11-11T10:10:11Z</time>
      </trkpt>
      <trkpt lat="49.04366" lon="1.11393">
        <ele>112.4</ele>
        <time>2016-11-11T10:10:33Z</time>
      </trkpt>
      <trkpt lat="49.04354" lon="1.11398">
        <ele>112.3</ele>
        <time>2016-11-11T10:10:36Z</time>
      </trkpt>
      <trkpt lat="49.04342" lon="1.11401">
        <ele>112</ele>
        <time>2016-11-11T10:10:38Z</time>
      </trkpt>
      <trkpt lat="49.04328" lon="1.11405">
        <ele>111.6</ele>
        <time>2016-11-11T10:10:40Z</time>
      </trkpt>
      <trkpt lat="49.04315" lon="1.11401">
        <ele>111.3</ele>
        <time>2016-11-11T10:10:42Z</time>
      </trkpt>
      <trkpt lat="49.04326" lon="1.11406">
        <ele>107.2</ele>
        <time>2016-11-11T10:13:37Z</time>
      </trkpt>
      <trkpt lat="49.04336" lon="1.11403">
        <ele>107.3</ele>
        <time>2016-11-11T10:13:41Z</time>
      </trkpt>
      <trkpt lat="49.04345" lon="1.114">
        <ele>107.5</ele>
        <time>2016-11-11T10:13:45Z</time>
      </trkpt>
      <trkpt lat="49.04355" lon="1.11395">
        <ele>108</ele>
        <time>2016-11-11T10:13:49Z</time>
      </trkpt>
      <trkpt lat="49.04365" lon="1.11391">
        <ele>108.8</ele>
        <time>2016-11-11T10:13:53Z</time>
      </trkpt>
      <trkpt lat="49.04375" lon="1.11386">
        <ele>109.5</ele>
        <time>2016-11-11T10:13:57Z</time>
      </trkpt>
      <trkpt lat="49.04386" lon="1.11387">
        <ele>110.2</ele>
        <time>2016-11-11T10:14:01Z</time>
      </trkpt>
      <trkpt lat="49.04396" lon="1.11394">
        <ele>110.9</ele>
        <time>2016-11-11T10:14:06Z</time>
      </trkpt>
      <trkpt lat="49.04405" lon="1.114">
        <ele>111.4</ele>
        <time>2016-11-11T10:14:10Z</time>
      </trkpt>
      <trkpt lat="49.04415" lon="1.11403">
        <ele>111.8</ele>
        <time>2016-11-11T10:14:13Z</time>
      </trkpt>
      <trkpt lat="49.04425" lon="1.11408">
        <ele>112.2</ele>
        <time>2016-11-11T10:14:17Z</time>
      </trkpt>
      <trkpt lat="49.04436" lon="1.11414">
        <ele>112.6</ele>
        <time>2016-11-11T10:14:21Z</time>
      </trkpt>
      <trkpt lat="49.04445" lon="1.1142">
        <ele>113.1</ele>
        <time>2016-11-11T10:14:26Z</time>
      </trkpt>
      <trkpt lat="49.04454" lon="1.11424">
        <ele>113.4</ele>
        <time>2016-11-11T10:14:29Z</time>
      </trkpt>
      <trkpt lat="49.04463" lon="1.11431">
        <ele>113.8</ele>
        <time>2016-11-11T10:14:33Z</time>
      </trkpt>
      <trkpt lat="49.04476" lon="1.11435">
        <ele>114.2</ele>
        <time>2016-11-11T10:14:36Z</time>
      </trkpt>
      <trkpt lat="49.04486" lon="1.11439">
        <ele>114.4</ele>
        <time>2016-11-11T10:14:39Z</time>
      </trkpt>
      <trkpt lat="49.04494" lon="1.11447">
        <ele>114.7</ele>
        <time>2016-11-11T10:14:42Z</time>
      </trkpt>
      <trkpt lat="49.04504" lon="1.1145">
        <ele>115</ele>
        <time>2016-11-11T10:14:45Z</time>
      </trkpt>
      <trkpt lat="49.04514" lon="1.11456">
        <ele>115.3</ele>
        <time>2016-11-11T10:14:48Z</time>
      </trkpt>
      <trkpt lat="49.04523" lon="1.11459">
        <ele>115.5</ele>
        <time>2016-11-11T10:14:51Z</time>
      </trkpt>
      <trkpt lat="49.04534" lon="1.11467">
        <ele>115.8</ele>
        <time>2016-11-11T10:14:54Z</time>
      </trkpt>
      <trkpt lat="49.04546" lon="1.11472">
        <ele>116.1</ele>
        <time>2016-11-11T10:14:57Z</time>
      </trkpt>
      <trkpt lat="49.04556" lon="1.11477">
        <ele>116.4</ele>
        <time>2016-11-11T10:15:01Z</time>
      </trkpt>
      <trkpt lat="49.04568" lon="1.11481">
        <ele>116.5</ele>
        <time>2016-11-11T10:15:04Z</time>
      </trkpt>
      <trkpt lat="49.04582" lon="1.11478">
        <ele>116.7</ele>
        <time>2016-11-11T10:15:08Z</time>
      </trkpt>
      <trkpt lat="49.04592" lon="1.11474">
        <ele>116.9</ele>
        <time>2016-11-11T10:15:11Z</time>
      </trkpt>
      <trkpt lat="49.04586" lon="1.1146">
        <ele>117.1</ele>
        <time>2016-11-11T10:15:17Z</time>
      </trkpt>
      <trkpt lat="49.04582" lon="1.11447">
        <ele>117.1</ele>
        <time>2016-11-11T10:15:20Z</time>
      </trkpt>
      <trkpt lat="49.04579" lon="1.11432">
        <ele>117.2</ele>
        <time>2016-11-11T10:15:23Z</time>
      </trkpt>
      <trkpt lat="49.04577" lon="1.11414">
        <ele>117.3</ele>
        <time>2016-11-11T10:15:27Z</time>
      </trkpt>
      <trkpt lat="49.04576" lon="1.11399">
        <ele>117.3</ele>
        <time>2016-11-11T10:15:31Z</time>
      </trkpt>
      <trkpt lat="49.04572" lon="1.11386">
        <ele>117.4</ele>
        <time>2016-11-11T10:15:34Z</time>
      </trkpt>
      <trkpt lat="49.04566" lon="1.11373">
        <ele>117.4</ele>
        <time>2016-11-11T10:15:37Z</time>
      </trkpt>
      <trkpt lat="49.04561" lon="1.11355">
        <ele>117.4</ele>
        <time>2016-11-11T10:15:41Z</time>
      </trkpt>
      <trkpt lat="49.04555" lon="1.11338">
        <ele>117.4</ele>
        <time>2016-11-11T10:15:44Z</time>
      </trkpt>
      <trkpt lat="49.04551" lon="1.11323">
        <ele>117.4</ele>
        <time>2016-11-11T10:15:46Z</time>
      </trkpt>
      <trkpt lat="49.04545" lon="1.11307">
        <ele>117.4</ele>
        <time>2016-11-11T10:15:49Z</time>
      </trkpt>
      <trkpt lat="49.0454" lon="1.11288">
        <ele>117.5</ele>
        <time>2016-11-11T10:15:52Z</time>
      </trkpt>
      <trkpt lat="49.04536" lon="1.11267">
        <ele>117.4</ele>
        <time>2016-11-11T10:15:55Z</time>
      </trkpt>
      <trkpt lat="49.04532" lon="1.11254">
        <ele>117.4</ele>
        <time>2016-11-11T10:15:57Z</time>
      </trkpt>
      <trkpt lat="49.04528" lon="1.11238">
        <ele>117.3</ele>
        <time>2016-11-11T10:15:59Z</time>
      </trkpt>
      <trkpt lat="49.04525" lon="1.11223">
        <ele>117.2</ele>
        <time>2016-11-11T10:16:01Z</time>
      </trkpt>
      <trkpt lat="49.04522" lon="1.11209">
        <ele>117.1</ele>
        <time>2016-11-11T10:16:03Z</time>
      </trkpt>
      <trkpt lat="49.04519" lon="1.11195">
        <ele>117</ele>
        <time>2016-11-11T10:16:05Z</time>
      </trkpt>
      <trkpt lat="49.04513" lon="1.11181">
        <ele>116.9</ele>
        <time>2016-11-11T10:16:07Z</time>
      </trkpt>
      <trkpt lat="49.04517" lon="1.11165">
        <ele>116.6</ele>
        <time>2016-11-11T10:16:11Z</time>
      </trkpt>
      <trkpt lat="49.04526" lon="1.11156">
        <ele>116.5</ele>
        <time>2016-11-11T10:16:14Z</time>
      </trkpt>
      <trkpt lat="49.04536" lon="1.11144">
        <ele>116.4</ele>
        <time>2016-11-11T10:16:17Z</time>
      </trkpt>
      <trkpt lat="49.04546" lon="1.11133">
        <ele>116.3</ele>
        <time>2016-11-11T10:16:20Z</time>
      </trkpt>
      <trkpt lat="49.04555" lon="1.11121">
        <ele>116.2</ele>
        <time>2016-11-11T10:16:23Z</time>
      </trkpt>
      <trkpt lat="49.04565" lon="1.11109">
        <ele>116.2</ele>
        <time>2016-11-11T10:16:26Z</time>
      </trkpt>
      <trkpt lat="49.04571" lon="1.11094">
        <ele>116.3</ele>
        <time>2016-11-11T10:16:29Z</time>
      </trkpt>
      <trkpt lat="49.04575" lon="1.11081">
        <ele>116.4</ele>
        <time>2016-11-11T10:16:31Z</time>
      </trkpt>
      <trkpt lat="49.04584" lon="1.11069">
        <ele>116.5</ele>
        <time>2016-11-11T10:16:34Z</time>
      </trkpt>
      <trkpt lat="49.0459" lon="1.11059">
        <ele>116.6</ele>
        <time>2016-11-11T10:16:36Z</time>
      </trkpt>
      <trkpt lat="49.04597" lon="1.1105">
        <ele>116.7</ele>
        <time>2016-11-11T10:16:38Z</time>
      </trkpt>
      <trkpt lat="49.04607" lon="1.1104">
        <ele>116.8</ele>
        <time>2016-11-11T10:16:41Z</time>
      </trkpt>
      <trkpt lat="49.04617" lon="1.11029">
        <ele>117</ele>
        <time>2016-11-11T10:16:44Z</time>
      </trkpt>
      <trkpt lat="49.04622" lon="1.11017">
        <ele>117.1</ele>
        <time>2016-11-11T10:16:46Z</time>
      </trkpt>
      <trkpt lat="49.04628" lon="1.11006">
        <ele>117.1</ele>
        <time>2016-11-11T10:16:48Z</time>
      </trkpt>
      <trkpt lat="49.04635" lon="1.10999">
        <ele>117.2</ele>
        <time>2016-11-11T10:16:50Z</time>
      </trkpt>
      <trkpt lat="49.04646" lon="1.10986">
        <ele>117.3</ele>
        <time>2016-11-11T10:16:53Z</time>
      </trkpt>
      <trkpt lat="49.04654" lon="1.10978">
        <ele>117.4</ele>
        <time>2016-11-11T10:16:55Z</time>
      </trkpt>
      <trkpt lat="49.04662" lon="1.10971">
        <ele>117.4</ele>
        <time>2016-11-11T10:16:57Z</time>
      </trkpt>
      <trkpt lat="49.0467" lon="1.10962">
        <ele>117.5</ele>
        <time>2016-11-11T10:16:59Z</time>
      </trkpt>
      <trkpt lat="49.04677" lon="1.10952">
        <ele>117.5</ele>
        <time>2016-11-11T10:17:01Z</time>
      </trkpt>
      <trkpt lat="49.04682" lon="1.10939">
        <ele>117.6</ele>
        <time>2016-11-11T10:17:03Z</time>
      </trkpt>
      <trkpt lat="49.04688" lon="1.10926">
        <ele>117.7</ele>
        <time>2016-11-11T10:17:05Z</time>
      </trkpt>
      <trkpt lat="49.04693" lon="1.10912">
        <ele>117.8</ele>
        <time>2016-11-11T10:17:07Z</time>
      </trkpt>
      <trkpt lat="49.04698" lon="1.10901">
        <ele>117.9</ele>
        <time>2016-11-11T10:17:09Z</time>
      </trkpt>
      <trkpt lat="49.04707" lon="1.10887">
        <ele>118.1</ele>
        <time>2016-11-11T10:17:12Z</time>
      </trkpt>
      <trkpt lat="49.04712" lon="1.10872">
        <ele>118.3</ele>
        <time>2016-11-11T10:17:15Z</time>
      </trkpt>
      <trkpt lat="49.04713" lon="1.10859">
        <ele>118.4</ele>
        <time>2016-11-11T10:17:17Z</time>
      </trkpt>
      <trkpt lat="49.04716" lon="1.10845">
        <ele>118.6</ele>
        <time>2016-11-11T10:17:19Z</time>
      </trkpt>
      <trkpt lat="49.04719" lon="1.10832">
        <ele>118.7</ele>
        <time>2016-11-11T10:17:21Z</time>
      </trkpt>
      <trkpt lat="49.0472" lon="1.10817">
        <ele>118.8</ele>
        <time>2016-11-11T10:17:23Z</time>
      </trkpt>
      <trkpt lat="49.04721" lon="1.10797">
        <ele>119</ele>
        <time>2016-11-11T10:17:26Z</time>
      </trkpt>
      <trkpt lat="49.04718" lon="1.10783">
        <ele>119.3</ele>
        <time>2016-11-11T10:17:29Z</time>
      </trkpt>
      <trkpt lat="49.0471" lon="1.10774">
        <ele>119.5</ele>
        <time>2016-11-11T10:17:32Z</time>
      </trkpt>
      <trkpt lat="49.04712" lon="1.1076">
        <ele>119.7</ele>
        <time>2016-11-11T10:17:36Z</time>
      </trkpt>
      <trkpt lat="49.04716" lon="1.10747">
        <ele>119.8</ele>
        <time>2016-11-11T10:17:41Z</time>
      </trkpt>
      <trkpt lat="49.04729" lon="1.1074">
        <ele>119.8</ele>
        <time>2016-11-11T10:17:46Z</time>
      </trkpt>
      <trkpt lat="49.04739" lon="1.10736">
        <ele>120</ele>
        <time>2016-11-11T10:17:49Z</time>
      </trkpt>
      <trkpt lat="49.04749" lon="1.10732">
        <ele>120.2</ele>
        <time>2016-11-11T10:17:52Z</time>
      </trkpt>
      <trkpt lat="49.04757" lon="1.10724">
        <ele>120.4</ele>
        <time>2016-11-11T10:17:55Z</time>
      </trkpt>
      <trkpt lat="49.04763" lon="1.1071">
        <ele>120.5</ele>
        <time>2016-11-11T10:17:58Z</time>
      </trkpt>
      <trkpt lat="49.04773" lon="1.10711">
        <ele>120.9</ele>
        <time>2016-11-11T10:18:03Z</time>
      </trkpt>
      <trkpt lat="49.04783" lon="1.10704">
        <ele>121.1</ele>
        <time>2016-11-11T10:18:06Z</time>
      </trkpt>
      <trkpt lat="49.0479" lon="1.10693">
        <ele>121.4</ele>
        <time>2016-11-11T10:18:09Z</time>
      </trkpt>
      <trkpt lat="49.04792" lon="1.10679">
        <ele>121.5</ele>
        <time>2016-11-11T10:18:12Z</time>
      </trkpt>
      <trkpt lat="49.04795" lon="1.10665">
        <ele>121.7</ele>
        <time>2016-11-11T10:18:15Z</time>
      </trkpt>
      <trkpt lat="49.04802" lon="1.10649">
        <ele>121.8</ele>
        <time>2016-11-11T10:18:18Z</time>
      </trkpt>
      <trkpt lat="49.04811" lon="1.10644">
        <ele>121.9</ele>
        <time>2016-11-11T10:18:21Z</time>
      </trkpt>
      <trkpt lat="49.04814" lon="1.10629">
        <ele>121.9</ele>
        <time>2016-11-11T10:18:25Z</time>
      </trkpt>
      <trkpt lat="49.04808" lon="1.10619">
        <ele>121.9</ele>
        <time>2016-11-11T10:18:28Z</time>
      </trkpt>
      <trkpt lat="49.04799" lon="1.1061">
        <ele>121.8</ele>
        <time>2016-11-11T10:18:32Z</time>
      </trkpt>
      <trkpt lat="49.04793" lon="1.10599">
        <ele>121.8</ele>
        <time>2016-11-11T10:18:35Z</time>
      </trkpt>
      <trkpt lat="49.04785" lon="1.10608">
        <ele>121.7</ele>
        <time>2016-11-11T10:18:39Z</time>
      </trkpt>
      <trkpt lat="49.04784" lon="1.10622">
        <ele>121.7</ele>
        <time>2016-11-11T10:18:42Z</time>
      </trkpt>
      <trkpt lat="49.04785" lon="1.10638">
        <ele>121.7</ele>
        <time>2016-11-11T10:18:45Z</time>
      </trkpt>
      <trkpt lat="49.0478" lon="1.10652">
        <ele>121.8</ele>
        <time>2016-11-11T10:18:49Z</time>
      </trkpt>
      <trkpt lat="49.04769" lon="1.10651">
        <ele>121.8</ele>
        <time>2016-11-11T10:18:52Z</time>
      </trkpt>
      <trkpt lat="49.04759" lon="1.10653">
        <ele>121.8</ele>
        <time>2016-11-11T10:18:55Z</time>
      </trkpt>
      <trkpt lat="49.0476" lon="1.10667">
        <ele>121.8</ele>
        <time>2016-11-11T10:18:58Z</time>
      </trkpt>
      <trkpt lat="49.0475" lon="1.10678">
        <ele>121.9</ele>
        <time>2016-11-11T10:19:02Z</time>
      </trkpt>
      <trkpt lat="49.04741" lon="1.10684">
        <ele>121.9</ele>
        <time>2016-11-11T10:19:05Z</time>
      </trkpt>
      <trkpt lat="49.04731" lon="1.10698">
        <ele>121.9</ele>
        <time>2016-11-11T10:19:08Z</time>
      </trkpt>
      <trkpt lat="49.04722" lon="1.10704">
        <ele>121.9</ele>
        <time>2016-11-11T10:19:10Z</time>
      </trkpt>
      <trkpt lat="49.04713" lon="1.10714">
        <ele>121.9</ele>
        <time>2016-11-11T10:19:13Z</time>
      </trkpt>
      <trkpt lat="49.04715" lon="1.10728">
        <ele>121.7</ele>
        <time>2016-11-11T10:19:18Z</time>
      </trkpt>
      <trkpt lat="49.04709" lon="1.10739">
        <ele>121.4</ele>
        <time>2016-11-11T10:19:22Z</time>
      </trkpt>
      <trkpt lat="49.04701" lon="1.1075">
        <ele>121.2</ele>
        <time>2016-11-11T10:19:26Z</time>
      </trkpt>
      <trkpt lat="49.04691" lon="1.10747">
        <ele>121.1</ele>
        <time>2016-11-11T10:19:30Z</time>
      </trkpt>
      <trkpt lat="49.04681" lon="1.10738">
        <ele>120.8</ele>
        <time>2016-11-11T10:19:35Z</time>
      </trkpt>
      <trkpt lat="49.04673" lon="1.10744">
        <ele>120.7</ele>
        <time>2016-11-11T10:19:38Z</time>
      </trkpt>
      <trkpt lat="49.04667" lon="1.10758">
        <ele>120.5</ele>
        <time>2016-11-11T10:19:42Z</time>
      </trkpt>
      <trkpt lat="49.0466" lon="1.10768">
        <ele>120.1</ele>
        <time>2016-11-11T10:19:47Z</time>
      </trkpt>
      <trkpt lat="49.04653" lon="1.10779">
        <ele>119</ele>
        <time>2016-11-11T10:20:15Z</time>
      </trkpt>
      <trkpt lat="49.04645" lon="1.10766">
        <ele>119</ele>
        <time>2016-11-11T10:20:20Z</time>
      </trkpt>
      <trkpt lat="49.04641" lon="1.10751">
        <ele>119</ele>
        <time>2016-11-11T10:20:23Z</time>
      </trkpt>
      <trkpt lat="49.04634" lon="1.10738">
        <ele>118.9</ele>
        <time>2016-11-11T10:20:27Z</time>
      </trkpt>
      <trkpt lat="49.04626" lon="1.10729">
        <ele>118.9</ele>
        <time>2016-11-11T10:20:30Z</time>
      </trkpt>
      <trkpt lat="49.04618" lon="1.10719">
        <ele>118.8</ele>
        <time>2016-11-11T10:20:33Z</time>
      </trkpt>
      <trkpt lat="49.04605" lon="1.10718">
        <ele>118.8</ele>
        <time>2016-11-11T10:20:36Z</time>
      </trkpt>
      <trkpt lat="49.04595" lon="1.10719">
        <ele>118.7</ele>
        <time>2016-11-11T10:20:38Z</time>
      </trkpt>
      <trkpt lat="49.04585" lon="1.1072">
        <ele>118.6</ele>
        <time>2016-11-11T10:20:40Z</time>
      </trkpt>
      <trkpt lat="49.04576" lon="1.10721">
        <ele>118.5</ele>
        <time>2016-11-11T10:20:42Z</time>
      </trkpt>
      <trkpt lat="49.04566" lon="1.1072">
        <ele>118.4</ele>
        <time>2016-11-11T10:20:44Z</time>
      </trkpt>
      <trkpt lat="49.04556" lon="1.10715">
        <ele>118.2</ele>
        <time>2016-11-11T10:20:46Z</time>
      </trkpt>
      <trkpt lat="49.04547" lon="1.1071">
        <ele>118</ele>
        <time>2016-11-11T10:20:48Z</time>
      </trkpt>
      <trkpt lat="49.04538" lon="1.10708">
        <ele>117.8</ele>
        <time>2016-11-11T10:20:50Z</time>
      </trkpt>
      <trkpt lat="49.04528" lon="1.10705">
        <ele>117.6</ele>
        <time>2016-11-11T10:20:52Z</time>
      </trkpt>
      <trkpt lat="49.04518" lon="1.10703">
        <ele>117.3</ele>
        <time>2016-11-11T10:20:54Z</time>
      </trkpt>
      <trkpt lat="49.04508" lon="1.10704">
        <ele>116.9</ele>
        <time>2016-11-11T10:20:56Z</time>
      </trkpt>
      <trkpt lat="49.04501" lon="1.10716">
        <ele>116.3</ele>
        <time>2016-11-11T10:20:59Z</time>
      </trkpt>
      <trkpt lat="49.045" lon="1.10734">
        <ele>115.9</ele>
        <time>2016-11-11T10:21:02Z</time>
      </trkpt>
      <trkpt lat="49.04498" lon="1.10753">
        <ele>115.5</ele>
        <time>2016-11-11T10:21:05Z</time>
      </trkpt>
      <trkpt lat="49.04497" lon="1.10768">
        <ele>115.1</ele>
        <time>2016-11-11T10:21:07Z</time>
      </trkpt>
      <trkpt lat="49.04496" lon="1.10787">
        <ele>114.7</ele>
        <time>2016-11-11T10:21:10Z</time>
      </trkpt>
      <trkpt lat="49.04495" lon="1.10801">
        <ele>114.4</ele>
        <time>2016-11-11T10:21:12Z</time>
      </trkpt>
      <trkpt lat="49.04494" lon="1.10815">
        <ele>114.1</ele>
        <time>2016-11-11T10:21:14Z</time>
      </trkpt>
      <trkpt lat="49.04495" lon="1.1083">
        <ele>113.9</ele>
        <time>2016-11-11T10:21:16Z</time>
      </trkpt>
      <trkpt lat="49.04494" lon="1.10844">
        <ele>113.7</ele>
        <time>2016-11-11T10:21:18Z</time>
      </trkpt>
      <trkpt lat="49.04491" lon="1.10857">
        <ele>113.6</ele>
        <time>2016-11-11T10:21:20Z</time>
      </trkpt>
      <trkpt lat="49.0449" lon="1.10873">
        <ele>113.4</ele>
        <time>2016-11-11T10:21:22Z</time>
      </trkpt>
      <trkpt lat="49.04488" lon="1.10887">
        <ele>113.2</ele>
        <time>2016-11-11T10:21:24Z</time>
      </trkpt>
      <trkpt lat="49.04487" lon="1.10901">
        <ele>113.1</ele>
        <time>2016-11-11T10:21:26Z</time>
      </trkpt>
      <trkpt lat="49.04485" lon="1.10916">
        <ele>113</ele>
        <time>2016-11-11T10:21:28Z</time>
      </trkpt>
      <trkpt lat="49.04484" lon="1.1093">
        <ele>112.9</ele>
        <time>2016-11-11T10:21:30Z</time>
      </trkpt>
      <trkpt lat="49.04483" lon="1.10944">
        <ele>112.9</ele>
        <time>2016-11-11T10:21:32Z</time>
      </trkpt>
      <trkpt lat="49.04481" lon="1.10965">
        <ele>112.9</ele>
        <time>2016-11-11T10:21:35Z</time>
      </trkpt>
      <trkpt lat="49.0448" lon="1.1098">
        <ele>112.9</ele>
        <time>2016-11-11T10:21:37Z</time>
      </trkpt>
      <trkpt lat="49.04479" lon="1.10995">
        <ele>112.9</ele>
        <time>2016-11-11T10:21:39Z</time>
      </trkpt>
      <trkpt lat="49.04478" lon="1.1101">
        <ele>113</ele>
        <time>2016-11-11T10:21:41Z</time>
      </trkpt>
      <trkpt lat="49.04477" lon="1.11025">
        <ele>113</ele>
        <time>2016-11-11T10:21:43Z</time>
      </trkpt>
      <trkpt lat="49.04477" lon="1.1104">
        <ele>113.1</ele>
        <time>2016-11-11T10:21:45Z</time>
      </trkpt>
      <trkpt lat="49.04476" lon="1.11054">
        <ele>113.1</ele>
        <time>2016-11-11T10:21:47Z</time>
      </trkpt>
      <trkpt lat="49.04475" lon="1.11072">
        <ele>113.2</ele>
        <time>2016-11-11T10:21:50Z</time>
      </trkpt>
      <trkpt lat="49.04466" lon="1.11078">
        <ele>113.3</ele>
        <time>2016-11-11T10:21:53Z</time>
      </trkpt>
      <trkpt lat="49.04454" lon="1.11083">
        <ele>113.4</ele>
        <time>2016-11-11T10:21:56Z</time>
      </trkpt>
      <trkpt lat="49.04444" lon="1.11076">
        <ele>113.5</ele>
        <time>2016-11-11T10:21:59Z</time>
      </trkpt>
      <trkpt lat="49.04433" lon="1.11065">
        <ele>113.4</ele>
        <time>2016-11-11T10:22:02Z</time>
      </trkpt>
      <trkpt lat="49.04423" lon="1.11053">
        <ele>113</ele>
        <time>2016-11-11T10:22:05Z</time>
      </trkpt>
      <trkpt lat="49.04415" lon="1.11045">
        <ele>112.7</ele>
        <time>2016-11-11T10:22:07Z</time>
      </trkpt>
      <trkpt lat="49.04407" lon="1.11039">
        <ele>112.3</ele>
        <time>2016-11-11T10:22:09Z</time>
      </trkpt>
      <trkpt lat="49.04399" lon="1.11029">
        <ele>111.5</ele>
        <time>2016-11-11T10:22:12Z</time>
      </trkpt>
      <trkpt lat="49.04388" lon="1.1102">
        <ele>110</ele>
        <time>2016-11-11T10:22:16Z</time>
      </trkpt>
      <trkpt lat="49.04378" lon="1.11011">
        <ele>108.5</ele>
        <time>2016-11-11T10:22:19Z</time>
      </trkpt>
      <trkpt lat="49.04368" lon="1.11005">
        <ele>106.6</ele>
        <time>2016-11-11T10:22:22Z</time>
      </trkpt>
      <trkpt lat="49.04366" lon="1.11019">
        <ele>102.7</ele>
        <time>2016-11-11T10:22:29Z</time>
      </trkpt>
      <trkpt lat="49.04369" lon="1.11033">
        <ele>100.1</ele>
        <time>2016-11-11T10:22:36Z</time>
      </trkpt>
      <trkpt lat="49.04372" lon="1.11048">
        <ele>99.1</ele>
        <time>2016-11-11T10:22:40Z</time>
      </trkpt>
      <trkpt lat="49.04374" lon="1.11063">
        <ele>98.1</ele>
        <time>2016-11-11T10:22:45Z</time>
      </trkpt>
      <trkpt lat="49.0437" lon="1.11076">
        <ele>97.5</ele>
        <time>2016-11-11T10:22:52Z</time>
      </trkpt>
      <trkpt lat="49.04367" lon="1.11093">
        <ele>97.2</ele>
        <time>2016-11-11T10:22:57Z</time>
      </trkpt>
      <trkpt lat="49.04364" lon="1.1111">
        <ele>97</ele>
        <time>2016-11-11T10:23:01Z</time>
      </trkpt>
      <trkpt lat="49.04362" lon="1.11127">
        <ele>97.1</ele>
        <time>2016-11-11T10:23:05Z</time>
      </trkpt>
      <trkpt lat="49.04357" lon="1.11144">
        <ele>97.3</ele>
        <time>2016-11-11T10:23:09Z</time>
      </trkpt>
      <trkpt lat="49.04351" lon="1.11156">
        <ele>97.6</ele>
        <time>2016-11-11T10:23:13Z</time>
      </trkpt>
      <trkpt lat="49.04344" lon="1.11169">
        <ele>98</ele>
        <time>2016-11-11T10:23:17Z</time>
      </trkpt>
      <trkpt lat="49.04336" lon="1.11183">
        <ele>98.4</ele>
        <time>2016-11-11T10:23:21Z</time>
      </trkpt>
      <trkpt lat="49.04329" lon="1.11197">
        <ele>98.8</ele>
        <time>2016-11-11T10:23:25Z</time>
      </trkpt>
      <trkpt lat="49.04324" lon="1.11209">
        <ele>99.1</ele>
        <time>2016-11-11T10:23:28Z</time>
      </trkpt>
      <trkpt lat="49.04322" lon="1.11223">
        <ele>99.4</ele>
        <time>2016-11-11T10:23:31Z</time>
      </trkpt>
      <trkpt lat="49.0432" lon="1.11236">
        <ele>99.8</ele>
        <time>2016-11-11T10:23:34Z</time>
      </trkpt>
      <trkpt lat="49.04319" lon="1.11252">
        <ele>100.1</ele>
        <time>2016-11-11T10:23:37Z</time>
      </trkpt>
      <trkpt lat="49.04319" lon="1.11267">
        <ele>100.5</ele>
        <time>2016-11-11T10:23:40Z</time>
      </trkpt>
      <trkpt lat="49.0432" lon="1.11281">
        <ele>100.9</ele>
        <time>2016-11-11T10:23:43Z</time>
      </trkpt>
      <trkpt lat="49.04318" lon="1.11297">
        <ele>101.3</ele>
        <time>2016-11-11T10:23:46Z</time>
      </trkpt>
      <trkpt lat="49.04317" lon="1.11313">
        <ele>101.8</ele>
        <time>2016-11-11T10:23:49Z</time>
      </trkpt>
      <trkpt lat="49.04315" lon="1.11329">
        <ele>102.3</ele>
        <time>2016-11-11T10:23:52Z</time>
      </trkpt>
      <trkpt lat="49.04314" lon="1.11346">
        <ele>102.7</ele>
        <time>2016-11-11T10:23:55Z</time>
      </trkpt>
      <trkpt lat="49.04316" lon="1.11363">
        <ele>103.2</ele>
        <time>2016-11-11T10:23:58Z</time>
      </trkpt>
      <trkpt lat="49.04319" lon="1.11377">
        <ele>103.7</ele>
        <time>2016-11-11T10:24:01Z</time>
      </trkpt>
      <trkpt lat="49.04314" lon="1.11393">
        <ele>104.5</ele>
        <time>2016-11-11T10:24:05Z</time>
      </trkpt>
      <trkpt lat="49.04307" lon="1.11401">
        <ele>105</ele>
        <time>2016-11-11T10:24:08Z</time>
      </trkpt>
      <trkpt lat="49.04299" lon="1.11411">
        <ele>105.5</ele>
        <time>2016-11-11T10:24:11Z</time>
      </trkpt>
      <trkpt lat="49.04292" lon="1.11421">
        <ele>106</ele>
        <time>2016-11-11T10:24:14Z</time>
      </trkpt>
      <trkpt lat="49.04282" lon="1.11431">
        <ele>106.8</ele>
        <time>2016-11-11T10:24:18Z</time>
      </trkpt>
      <trkpt lat="49.04272" lon="1.11443">
        <ele>107.6</ele>
        <time>2016-11-11T10:24:22Z</time>
      </trkpt>
      <trkpt lat="49.04271" lon="1.11458">
        <ele>108.7</ele>
        <time>2016-11-11T10:24:27Z</time>
      </trkpt>
      <trkpt lat="49.04269" lon="1.11473">
        <ele>109.9</ele>
        <time>2016-11-11T10:24:33Z</time>
      </trkpt>
      <trkpt lat="49.04261" lon="1.11481">
        <ele>110.7</ele>
        <time>2016-11-11T10:24:37Z</time>
      </trkpt>
      <trkpt lat="49.04253" lon="1.1149">
        <ele>111.5</ele>
        <time>2016-11-11T10:24:41Z</time>
      </trkpt>
      <trkpt lat="49.04247" lon="1.11501">
        <ele>112.2</ele>
        <time>2016-11-11T10:24:45Z</time>
      </trkpt>
      <trkpt lat="49.0424" lon="1.11513">
        <ele>112.7</ele>
        <time>2016-11-11T10:24:49Z</time>
      </trkpt>
      <trkpt lat="49.04249" lon="1.11513">
        <ele>113.8</ele>
        <time>2016-11-11T10:24:59Z</time>
      </trkpt>
      <trkpt lat="49.04258" lon="1.11503">
        <ele>114.1</ele>
        <time>2016-11-11T10:25:03Z</time>
      </trkpt>
      <trkpt lat="49.04266" lon="1.11495">
        <ele>114.2</ele>
        <time>2016-11-11T10:25:07Z</time>
      </trkpt>
      <trkpt lat="49.04276" lon="1.11498">
        <ele>114.2</ele>
        <time>2016-11-11T10:25:14Z</time>
      </trkpt>
      <trkpt lat="49.04279" lon="1.11513">
        <ele>114</ele>
        <time>2016-11-11T10:25:18Z</time>
      </trkpt>
      <trkpt lat="49.04279" lon="1.11531">
        <ele>113.9</ele>
        <time>2016-11-11T10:25:22Z</time>
      </trkpt>
      <trkpt lat="49.04275" lon="1.11548">
        <ele>113.8</ele>
        <time>2016-11-11T10:25:26Z</time>
      </trkpt>
      <trkpt lat="49.04269" lon="1.1156">
        <ele>113.7</ele>
        <time>2016-11-11T10:25:29Z</time>
      </trkpt>
      <trkpt lat="49.04264" lon="1.11575">
        <ele>113.7</ele>
        <time>2016-11-11T10:25:32Z</time>
      </trkpt>
      <trkpt lat="49.0426" lon="1.11592">
        <ele>113.7</ele>
        <time>2016-11-11T10:25:35Z</time>
      </trkpt>
      <trkpt lat="49.04253" lon="1.11608">
        <ele>113.8</ele>
        <time>2016-11-11T10:25:38Z</time>
      </trkpt>
      <trkpt lat="49.04247" lon="1.11624">
        <ele>114</ele>
        <time>2016-11-11T10:25:41Z</time>
      </trkpt>
      <trkpt lat="49.04245" lon="1.1164">
        <ele>114.3</ele>
        <time>2016-11-11T10:25:45Z</time>
      </trkpt>
      <trkpt lat="49.0425" lon="1.11652">
        <ele>114.6</ele>
        <time>2016-11-11T10:25:48Z</time>
      </trkpt>
      <trkpt lat="49.04252" lon="1.11668">
        <ele>114.8</ele>
        <time>2016-11-11T10:25:53Z</time>
      </trkpt>
      <trkpt lat="49.04246" lon="1.11678">
        <ele>115</ele>
        <time>2016-11-11T10:25:57Z</time>
      </trkpt>
      <trkpt lat="49.0424" lon="1.11692">
        <ele>115.2</ele>
        <time>2016-11-11T10:26:02Z</time>
      </trkpt>
      <trkpt lat="49.04234" lon="1.11706">
        <ele>115.3</ele>
        <time>2016-11-11T10:26:07Z</time>
      </trkpt>
      <trkpt lat="49.04232" lon="1.11723">
        <ele>115.5</ele>
        <time>2016-11-11T10:26:12Z</time>
      </trkpt>
      <trkpt lat="49.04234" lon="1.1174">
        <ele>115.6</ele>
        <time>2016-11-11T10:26:16Z</time>
      </trkpt>
      <trkpt lat="49.04235" lon="1.11754">
        <ele>115.7</ele>
        <time>2016-11-11T10:26:19Z</time>
      </trkpt>
      <trkpt lat="49.0424" lon="1.11771">
        <ele>115.8</ele>
        <time>2016-11-11T10:26:23Z</time>
      </trkpt>
      <trkpt lat="49.04244" lon="1.11786">
        <ele>115.8</ele>
        <time>2016-11-11T10:26:26Z</time>
      </trkpt>
      <trkpt lat="49.04244" lon="1.11802">
        <ele>115.9</ele>
        <time>2016-11-11T10:26:29Z</time>
      </trkpt>
      <trkpt lat="49.04238" lon="1.11812">
        <ele>116</ele>
        <time>2016-11-11T10:26:34Z</time>
      </trkpt>
      <trkpt lat="49.0423" lon="1.11821">
        <ele>116.2</ele>
        <time>2016-11-11T10:26:39Z</time>
      </trkpt>
      <trkpt lat="49.04219" lon="1.11816">
        <ele>116.4</ele>
        <time>2016-11-11T10:26:44Z</time>
      </trkpt>
      <trkpt lat="49.04209" lon="1.1181">
        <ele>116.6</ele>
        <time>2016-11-11T10:26:47Z</time>
      </trkpt>
      <trkpt lat="49.04202" lon="1.118">
        <ele>116.7</ele>
        <time>2016-11-11T10:26:50Z</time>
      </trkpt>
      <trkpt lat="49.0419" lon="1.11798">
        <ele>116.9</ele>
        <time>2016-11-11T10:26:54Z</time>
      </trkpt>
      <trkpt lat="49.0418" lon="1.11795">
        <ele>117</ele>
        <time>2016-11-11T10:26:57Z</time>
      </trkpt>
      <trkpt lat="49.04169" lon="1.11792">
        <ele>117.2</ele>
        <time>2016-11-11T10:27:00Z</time>
      </trkpt>
      <trkpt lat="49.0416" lon="1.11784">
        <ele>117.3</ele>
        <time>2016-11-11T10:27:05Z</time>
      </trkpt>
      <trkpt lat="49.04151" lon="1.11775">
        <ele>117.5</ele>
        <time>2016-11-11T10:27:10Z</time>
      </trkpt>
      <trkpt lat="49.04141" lon="1.11777">
        <ele>117.6</ele>
        <time>2016-11-11T10:27:15Z</time>
      </trkpt>
      <trkpt lat="49.04135" lon="1.11791">
        <ele>117.6</ele>
        <time>2016-11-11T10:27:19Z</time>
      </trkpt>
      <trkpt lat="49.04132" lon="1.11805">
        <ele>117.7</ele>
        <time>2016-11-11T10:27:22Z</time>
      </trkpt>
      <trkpt lat="49.04126" lon="1.11819">
        <ele>117.7</ele>
        <time>2016-11-11T10:27:25Z</time>
      </trkpt>
      <trkpt lat="49.04119" lon="1.11835">
        <ele>117.8</ele>
        <time>2016-11-11T10:27:28Z</time>
      </trkpt>
      <trkpt lat="49.04113" lon="1.11846">
        <ele>117.8</ele>
        <time>2016-11-11T10:27:30Z</time>
      </trkpt>
      <trkpt lat="49.04108" lon="1.11862">
        <ele>117.9</ele>
        <time>2016-11-11T10:27:33Z</time>
      </trkpt>
      <trkpt lat="49.04102" lon="1.11877">
        <ele>118</ele>
        <time>2016-11-11T10:27:36Z</time>
      </trkpt>
      <trkpt lat="49.04102" lon="1.11894">
        <ele>118.2</ele>
        <time>2016-11-11T10:27:40Z</time>
      </trkpt>
      <trkpt lat="49.04107" lon="1.11911">
        <ele>118.6</ele>
        <time>2016-11-11T10:27:44Z</time>
      </trkpt>
      <trkpt lat="49.04108" lon="1.11927">
        <ele>118.9</ele>
        <time>2016-11-11T10:27:47Z</time>
      </trkpt>
      <trkpt lat="49.04108" lon="1.11941">
        <ele>119.2</ele>
        <time>2016-11-11T10:27:50Z</time>
      </trkpt>
      <trkpt lat="49.04108" lon="1.11957">
        <ele>119.5</ele>
        <time>2016-11-11T10:27:53Z</time>
      </trkpt>
      <trkpt lat="49.0411" lon="1.11973">
        <ele>119.8</ele>
        <time>2016-11-11T10:27:56Z</time>
      </trkpt>
      <trkpt lat="49.04111" lon="1.1199">
        <ele>120.1</ele>
        <time>2016-11-11T10:27:59Z</time>
      </trkpt>
      <trkpt lat="49.04118" lon="1.12003">
        <ele>120.4</ele>
        <time>2016-11-11T10:28:03Z</time>
      </trkpt>
      <trkpt lat="49.04123" lon="1.1202">
        <ele>120.6</ele>
        <time>2016-11-11T10:28:06Z</time>
      </trkpt>
      <trkpt lat="49.04124" lon="1.12035">
        <ele>120.8</ele>
        <time>2016-11-11T10:28:09Z</time>
      </trkpt>
      <trkpt lat="49.04125" lon="1.12049">
        <ele>121.1</ele>
        <time>2016-11-11T10:28:12Z</time>
      </trkpt>
      <trkpt lat="49.04133" lon="1.12061">
        <ele>121.4</ele>
        <time>2016-11-11T10:28:15Z</time>
      </trkpt>
      <trkpt lat="49.04139" lon="1.12076">
        <ele>121.7</ele>
        <time>2016-11-11T10:28:18Z</time>
      </trkpt>
      <trkpt lat="49.04145" lon="1.1209">
        <ele>122</ele>
        <time>2016-11-11T10:28:21Z</time>
      </trkpt>
      <trkpt lat="49.04151" lon="1.12106">
        <ele>122.4</ele>
        <time>2016-11-11T10:28:24Z</time>
      </trkpt>
      <trkpt lat="49.04156" lon="1.1212">
        <ele>122.6</ele>
        <time>2016-11-11T10:28:27Z</time>
      </trkpt>
      <trkpt lat="49.04161" lon="1.12132">
        <ele>122.9</ele>
        <time>2016-11-11T10:28:30Z</time>
      </trkpt>
      <trkpt lat="49.04167" lon="1.12147">
        <ele>123.2</ele>
        <time>2016-11-11T10:28:34Z</time>
      </trkpt>
      <trkpt lat="49.04168" lon="1.12163">
        <ele>123.4</ele>
        <time>2016-11-11T10:28:37Z</time>
      </trkpt>
      <trkpt lat="49.04167" lon="1.12179">
        <ele>123.6</ele>
        <time>2016-11-11T10:28:41Z</time>
      </trkpt>
      <trkpt lat="49.04159" lon="1.12188">
        <ele>123.8</ele>
        <time>2016-11-11T10:28:47Z</time>
      </trkpt>
      <trkpt lat="49.04153" lon="1.12202">
        <ele>124.2</ele>
        <time>2016-11-11T10:29:03Z</time>
      </trkpt>
      <trkpt lat="49.04144" lon="1.12212">
        <ele>124.3</ele>
        <time>2016-11-11T10:29:07Z</time>
      </trkpt>
      <trkpt lat="49.04137" lon="1.12221">
        <ele>124.3</ele>
        <time>2016-11-11T10:29:10Z</time>
      </trkpt>
      <trkpt lat="49.04128" lon="1.12232">
        <ele>124.4</ele>
        <time>2016-11-11T10:29:14Z</time>
      </trkpt>
      <trkpt lat="49.04119" lon="1.12243">
        <ele>124.4</ele>
        <time>2016-11-11T10:29:17Z</time>
      </trkpt>
      <trkpt lat="49.04109" lon="1.12256">
        <ele>124.4</ele>
        <time>2016-11-11T10:29:20Z</time>
      </trkpt>
      <trkpt lat="49.04097" lon="1.12264">
        <ele>124.4</ele>
        <time>2016-11-11T10:29:23Z</time>
      </trkpt>
      <trkpt lat="49.04087" lon="1.12274">
        <ele>124.5</ele>
        <time>2016-11-11T10:29:26Z</time>
      </trkpt>
      <trkpt lat="49.04078" lon="1.12287">
        <ele>124.5</ele>
        <time>2016-11-11T10:29:29Z</time>
      </trkpt>
      <trkpt lat="49.04071" lon="1.12301">
        <ele>124.5</ele>
        <time>2016-11-11T10:29:32Z</time>
      </trkpt>
      <trkpt lat="49.04063" lon="1.12309">
        <ele>124.5</ele>
        <time>2016-11-11T10:29:35Z</time>
      </trkpt>
      <trkpt lat="49.04052" lon="1.1232">
        <ele>124.5</ele>
        <time>2016-11-11T10:29:38Z</time>
      </trkpt>
      <trkpt lat="49.04043" lon="1.12335">
        <ele>124.3</ele>
        <time>2016-11-11T10:29:41Z</time>
      </trkpt>
      <trkpt lat="49.04036" lon="1.12344">
        <ele>124.2</ele>
        <time>2016-11-11T10:29:43Z</time>
      </trkpt>
      <trkpt lat="49.04026" lon="1.12356">
        <ele>124</ele>
        <time>2016-11-11T10:29:46Z</time>
      </trkpt>
      <trkpt lat="49.0402" lon="1.12364">
        <ele>123.9</ele>
        <time>2016-11-11T10:29:48Z</time>
      </trkpt>
      <trkpt lat="49.04008" lon="1.12377">
        <ele>123.7</ele>
        <time>2016-11-11T10:29:51Z</time>
      </trkpt>
      <trkpt lat="49.04001" lon="1.12387">
        <ele>123.6</ele>
        <time>2016-11-11T10:29:53Z</time>
      </trkpt>
      <trkpt lat="49.03992" lon="1.12397">
        <ele>123.4</ele>
        <time>2016-11-11T10:29:55Z</time>
      </trkpt>
      <trkpt lat="49.03985" lon="1.12406">
        <ele>123.2</ele>
        <time>2016-11-11T10:29:57Z</time>
      </trkpt>
      <trkpt lat="49.03977" lon="1.12416">
        <ele>123.1</ele>
        <time>2016-11-11T10:29:59Z</time>
      </trkpt>
      <trkpt lat="49.03969" lon="1.12427">
        <ele>122.9</ele>
        <time>2016-11-11T10:30:01Z</time>
      </trkpt>
      <trkpt lat="49.0396" lon="1.12438">
        <ele>122.8</ele>
        <time>2016-11-11T10:30:03Z</time>
      </trkpt>
      <trkpt lat="49.03951" lon="1.1245">
        <ele>122.6</ele>
        <time>2016-11-11T10:30:05Z</time>
      </trkpt>
      <trkpt lat="49.03944" lon="1.12459">
        <ele>122.5</ele>
        <time>2016-11-11T10:30:07Z</time>
      </trkpt>
      <trkpt lat="49.03936" lon="1.12469">
        <ele>122.3</ele>
        <time>2016-11-11T10:30:09Z</time>
      </trkpt>
      <trkpt lat="49.03927" lon="1.12479">
        <ele>122.1</ele>
        <time>2016-11-11T10:30:11Z</time>
      </trkpt>
      <trkpt lat="49.03917" lon="1.1249">
        <ele>121.9</ele>
        <time>2016-11-11T10:30:13Z</time>
      </trkpt>
      <trkpt lat="49.03909" lon="1.12502">
        <ele>121.7</ele>
        <time>2016-11-11T10:30:15Z</time>
      </trkpt>
      <trkpt lat="49.03901" lon="1.12512">
        <ele>121.6</ele>
        <time>2016-11-11T10:30:17Z</time>
      </trkpt>
      <trkpt lat="49.03892" lon="1.12524">
        <ele>121.4</ele>
        <time>2016-11-11T10:30:19Z</time>
      </trkpt>
      <trkpt lat="49.03884" lon="1.12534">
        <ele>121.2</ele>
        <time>2016-11-11T10:30:21Z</time>
      </trkpt>
      <trkpt lat="49.03876" lon="1.12544">
        <ele>121</ele>
        <time>2016-11-11T10:30:23Z</time>
      </trkpt>
      <trkpt lat="49.03867" lon="1.12554">
        <ele>120.8</ele>
        <time>2016-11-11T10:30:25Z</time>
      </trkpt>
      <trkpt lat="49.03858" lon="1.12564">
        <ele>120.6</ele>
        <time>2016-11-11T10:30:27Z</time>
      </trkpt>
      <trkpt lat="49.03849" lon="1.12575">
        <ele>120.4</ele>
        <time>2016-11-11T10:30:29Z</time>
      </trkpt>
      <trkpt lat="49.03839" lon="1.12586">
        <ele>120.2</ele>
        <time>2016-11-11T10:30:31Z</time>
      </trkpt>
      <trkpt lat="49.03829" lon="1.12598">
        <ele>120</ele>
        <time>2016-11-11T10:30:33Z</time>
      </trkpt>
      <trkpt lat="49.03821" lon="1.12609">
        <ele>119.8</ele>
        <time>2016-11-11T10:30:35Z</time>
      </trkpt>
      <trkpt lat="49.03813" lon="1.1262">
        <ele>119.5</ele>
        <time>2016-11-11T10:30:37Z</time>
      </trkpt>
      <trkpt lat="49.03805" lon="1.1263">
        <ele>119.3</ele>
        <time>2016-11-11T10:30:39Z</time>
      </trkpt>
      <trkpt lat="49.03796" lon="1.1264">
        <ele>119</ele>
        <time>2016-11-11T10:30:41Z</time>
      </trkpt>
      <trkpt lat="49.03787" lon="1.12649">
        <ele>118.8</ele>
        <time>2016-11-11T10:30:43Z</time>
      </trkpt>
      <trkpt lat="49.03777" lon="1.12663">
        <ele>118.6</ele>
        <time>2016-11-11T10:30:45Z</time>
      </trkpt>
      <trkpt lat="49.03769" lon="1.12674">
        <ele>118.3</ele>
        <time>2016-11-11T10:30:47Z</time>
      </trkpt>
      <trkpt lat="49.0376" lon="1.12686">
        <ele>117.8</ele>
        <time>2016-11-11T10:30:50Z</time>
      </trkpt>
      <trkpt lat="49.03752" lon="1.12696">
        <ele>117.5</ele>
        <time>2016-11-11T10:30:52Z</time>
      </trkpt>
      <trkpt lat="49.03744" lon="1.12707">
        <ele>117.3</ele>
        <time>2016-11-11T10:30:54Z</time>
      </trkpt>
      <trkpt lat="49.03736" lon="1.12719">
        <ele>117</ele>
        <time>2016-11-11T10:30:56Z</time>
      </trkpt>
      <trkpt lat="49.03727" lon="1.12729">
        <ele>116.7</ele>
        <time>2016-11-11T10:30:58Z</time>
      </trkpt>
      <trkpt lat="49.03719" lon="1.12739">
        <ele>116.4</ele>
        <time>2016-11-11T10:31:00Z</time>
      </trkpt>
      <trkpt lat="49.03708" lon="1.12752">
        <ele>116.1</ele>
        <time>2016-11-11T10:31:03Z</time>
      </trkpt>
      <trkpt lat="49.03699" lon="1.12763">
        <ele>115.8</ele>
        <time>2016-11-11T10:31:05Z</time>
      </trkpt>
      <trkpt lat="49.03692" lon="1.12773">
        <ele>115.5</ele>
        <time>2016-11-11T10:31:07Z</time>
      </trkpt>
      <trkpt lat="49.03685" lon="1.12781">
        <ele>115.3</ele>
        <time>2016-11-11T10:31:09Z</time>
      </trkpt>
      <trkpt lat="49.03676" lon="1.12789">
        <ele>115.2</ele>
        <time>2016-11-11T10:31:11Z</time>
      </trkpt>
      <trkpt lat="49.03668" lon="1.12798">
        <ele>115</ele>
        <time>2016-11-11T10:31:13Z</time>
      </trkpt>
      <trkpt lat="49.03661" lon="1.12808">
        <ele>114.9</ele>
        <time>2016-11-11T10:31:15Z</time>
      </trkpt>
      <trkpt lat="49.03653" lon="1.12818">
        <ele>114.8</ele>
        <time>2016-11-11T10:31:17Z</time>
      </trkpt>
      <trkpt lat="49.03646" lon="1.12827">
        <ele>114.6</ele>
        <time>2016-11-11T10:31:19Z</time>
      </trkpt>
      <trkpt lat="49.03639" lon="1.12841">
        <ele>114.4</ele>
        <time>2016-11-11T10:31:22Z</time>
      </trkpt>
      <trkpt lat="49.0364" lon="1.12859">
        <ele>114.3</ele>
        <time>2016-11-11T10:31:25Z</time>
      </trkpt>
      <trkpt lat="49.03646" lon="1.12869">
        <ele>114.2</ele>
        <time>2016-11-11T10:31:28Z</time>
      </trkpt>
      <trkpt lat="49.03653" lon="1.1288">
        <ele>114.1</ele>
        <time>2016-11-11T10:31:31Z</time>
      </trkpt>
      <trkpt lat="49.03661" lon="1.12889">
        <ele>114</ele>
        <time>2016-11-11T10:31:34Z</time>
      </trkpt>
      <trkpt lat="49.03668" lon="1.12899">
        <ele>113.9</ele>
        <time>2016-11-11T10:31:37Z</time>
      </trkpt>
      <trkpt lat="49.03671" lon="1.12914">
        <ele>113.8</ele>
        <time>2016-11-11T10:31:40Z</time>
      </trkpt>
      <trkpt lat="49.0367" lon="1.12928">
        <ele>113.8</ele>
        <time>2016-11-11T10:31:43Z</time>
      </trkpt>
      <trkpt lat="49.03677" lon="1.12938">
        <ele>113.7</ele>
        <time>2016-11-11T10:31:48Z</time>
      </trkpt>
      <trkpt lat="49.03687" lon="1.12939">
        <ele>113.7</ele>
        <time>2016-11-11T10:31:57Z</time>
      </trkpt>
      <trkpt lat="49.03697" lon="1.12941">
        <ele>113.6</ele>
        <time>2016-11-11T10:32:01Z</time>
      </trkpt>
      <trkpt lat="49.03708" lon="1.12945">
        <ele>113.6</ele>
        <time>2016-11-11T10:32:04Z</time>
      </trkpt>
      <trkpt lat="49.03718" lon="1.12955">
        <ele>113.6</ele>
        <time>2016-11-11T10:32:08Z</time>
      </trkpt>
      <trkpt lat="49.03724" lon="1.12969">
        <ele>113.6</ele>
        <time>2016-11-11T10:32:12Z</time>
      </trkpt>
      <trkpt lat="49.03715" lon="1.12981">
        <ele>113.6</ele>
        <time>2016-11-11T10:32:16Z</time>
      </trkpt>
      <trkpt lat="49.03705" lon="1.1299">
        <ele>113.6</ele>
        <time>2016-11-11T10:32:19Z</time>
      </trkpt>
      <trkpt lat="49.03697" lon="1.12999">
        <ele>113.6</ele>
        <time>2016-11-11T10:32:22Z</time>
      </trkpt>
      <trkpt lat="49.03688" lon="1.13007">
        <ele>113.6</ele>
        <time>2016-11-11T10:32:25Z</time>
      </trkpt>
      <trkpt lat="49.03686" lon="1.13021">
        <ele>113.6</ele>
        <time>2016-11-11T10:32:28Z</time>
      </trkpt>
      <trkpt lat="49.03698" lon="1.13019">
        <ele>113.6</ele>
        <time>2016-11-11T10:32:32Z</time>
      </trkpt>
      <trkpt lat="49.03707" lon="1.13013">
        <ele>113.6</ele>
        <time>2016-11-11T10:32:35Z</time>
      </trkpt>
      <trkpt lat="49.03717" lon="1.13008">
        <ele>113.6</ele>
        <time>2016-11-11T10:32:38Z</time>
      </trkpt>
      <trkpt lat="49.03728" lon="1.13001">
        <ele>113.7</ele>
        <time>2016-11-11T10:32:41Z</time>
      </trkpt>
      <trkpt lat="49.0374" lon="1.12996">
        <ele>113.7</ele>
        <time>2016-11-11T10:32:44Z</time>
      </trkpt>
      <trkpt lat="49.0375" lon="1.12991">
        <ele>113.8</ele>
        <time>2016-11-11T10:32:47Z</time>
      </trkpt>
      <trkpt lat="49.03761" lon="1.12986">
        <ele>113.8</ele>
        <time>2016-11-11T10:32:50Z</time>
      </trkpt>
      <trkpt lat="49.03771" lon="1.12979">
        <ele>113.9</ele>
        <time>2016-11-11T10:32:53Z</time>
      </trkpt>
      <trkpt lat="49.03779" lon="1.12965">
        <ele>113.9</ele>
        <time>2016-11-11T10:32:56Z</time>
      </trkpt>
      <trkpt lat="49.03788" lon="1.1296">
        <ele>114</ele>
        <time>2016-11-11T10:32:59Z</time>
      </trkpt>
      <trkpt lat="49.03799" lon="1.1296">
        <ele>114.1</ele>
        <time>2016-11-11T10:33:02Z</time>
      </trkpt>
      <trkpt lat="49.03807" lon="1.12948">
        <ele>114.1</ele>
        <time>2016-11-11T10:33:05Z</time>
      </trkpt>
      <trkpt lat="49.03814" lon="1.12935">
        <ele>114.2</ele>
        <time>2016-11-11T10:33:08Z</time>
      </trkpt>
      <trkpt lat="49.0382" lon="1.1292">
        <ele>114.2</ele>
        <time>2016-11-11T10:33:11Z</time>
      </trkpt>
      <trkpt lat="49.03815" lon="1.12906">
        <ele>114.3</ele>
        <time>2016-11-11T10:33:15Z</time>
      </trkpt>
      <trkpt lat="49.03804" lon="1.12903">
        <ele>114.3</ele>
        <time>2016-11-11T10:33:18Z</time>
      </trkpt>
      <trkpt lat="49.03802" lon="1.12887">
        <ele>114.3</ele>
        <time>2016-11-11T10:33:21Z</time>
      </trkpt>
      <trkpt lat="49.0381" lon="1.12874">
        <ele>114.4</ele>
        <time>2016-11-11T10:33:24Z</time>
      </trkpt>
      <trkpt lat="49.03819" lon="1.12862">
        <ele>114.4</ele>
        <time>2016-11-11T10:33:27Z</time>
      </trkpt>
      <trkpt lat="49.03827" lon="1.12849">
        <ele>114.4</ele>
        <time>2016-11-11T10:33:30Z</time>
      </trkpt>
      <trkpt lat="49.03831" lon="1.12832">
        <ele>114.5</ele>
        <time>2016-11-11T10:33:33Z</time>
      </trkpt>
      <trkpt lat="49.03833" lon="1.12813">
        <ele>114.6</ele>
        <time>2016-11-11T10:33:36Z</time>
      </trkpt>
      <trkpt lat="49.0384" lon="1.12799">
        <ele>114.6</ele>
        <time>2016-11-11T10:33:39Z</time>
      </trkpt>
      <trkpt lat="49.0385" lon="1.12792">
        <ele>114.7</ele>
        <time>2016-11-11T10:33:42Z</time>
      </trkpt>
      <trkpt lat="49.03859" lon="1.12782">
        <ele>114.7</ele>
        <time>2016-11-11T10:33:45Z</time>
      </trkpt>
      <trkpt lat="49.03863" lon="1.12769">
        <ele>114.8</ele>
        <time>2016-11-11T10:33:49Z</time>
      </trkpt>
      <trkpt lat="49.03857" lon="1.12783">
        <ele>114.9</ele>
        <time>2016-11-11T10:33:56Z</time>
      </trkpt>
      <trkpt lat="49.03857" lon="1.128">
        <ele>115</ele>
        <time>2016-11-11T10:33:59Z</time>
      </trkpt>
      <trkpt lat="49.03858" lon="1.1282">
        <ele>115</ele>
        <time>2016-11-11T10:34:02Z</time>
      </trkpt>
      <trkpt lat="49.03862" lon="1.12838">
        <ele>115.1</ele>
        <time>2016-11-11T10:34:05Z</time>
      </trkpt>
      <trkpt lat="49.03872" lon="1.12838">
        <ele>115.1</ele>
        <time>2016-11-11T10:34:08Z</time>
      </trkpt>
      <trkpt lat="49.03881" lon="1.12823">
        <ele>115.1</ele>
        <time>2016-11-11T10:34:11Z</time>
      </trkpt>
      <trkpt lat="49.03886" lon="1.12805">
        <ele>115.1</ele>
        <time>2016-11-11T10:34:14Z</time>
      </trkpt>
      <trkpt lat="49.03893" lon="1.12789">
        <ele>115.2</ele>
        <time>2016-11-11T10:34:17Z</time>
      </trkpt>
      <trkpt lat="49.03898" lon="1.12773">
        <ele>115.2</ele>
        <time>2016-11-11T10:34:20Z</time>
      </trkpt>
      <trkpt lat="49.03904" lon="1.12758">
        <ele>115.3</ele>
        <time>2016-11-11T10:34:23Z</time>
      </trkpt>
      <trkpt lat="49.03911" lon="1.12744">
        <ele>115.4</ele>
        <time>2016-11-11T10:34:26Z</time>
      </trkpt>
      <trkpt lat="49.03916" lon="1.12729">
        <ele>115.5</ele>
        <time>2016-11-11T10:34:29Z</time>
      </trkpt>
      <trkpt lat="49.03912" lon="1.12712">
        <ele>115.7</ele>
        <time>2016-11-11T10:34:32Z</time>
      </trkpt>
      <trkpt lat="49.03913" lon="1.12696">
        <ele>115.9</ele>
        <time>2016-11-11T10:34:35Z</time>
      </trkpt>
      <trkpt lat="49.03923" lon="1.12687">
        <ele>116.1</ele>
        <time>2016-11-11T10:34:38Z</time>
      </trkpt>
      <trkpt lat="49.03934" lon="1.12679">
        <ele>116.3</ele>
        <time>2016-11-11T10:34:41Z</time>
      </trkpt>
      <trkpt lat="49.03944" lon="1.12667">
        <ele>116.4</ele>
        <time>2016-11-11T10:34:44Z</time>
      </trkpt>
      <trkpt lat="49.0394" lon="1.12651">
        <ele>116.7</ele>
        <time>2016-11-11T10:34:48Z</time>
      </trkpt>
      <trkpt lat="49.03934" lon="1.12637">
        <ele>116.8</ele>
        <time>2016-11-11T10:34:52Z</time>
      </trkpt>
      <trkpt lat="49.03941" lon="1.12625">
        <ele>117</ele>
        <time>2016-11-11T10:34:57Z</time>
      </trkpt>
      <trkpt lat="49.03952" lon="1.12618">
        <ele>117.3</ele>
        <time>2016-11-11T10:35:01Z</time>
      </trkpt>
      <trkpt lat="49.03962" lon="1.12608">
        <ele>117.5</ele>
        <time>2016-11-11T10:35:05Z</time>
      </trkpt>
      <trkpt lat="49.03974" lon="1.12602">
        <ele>117.7</ele>
        <time>2016-11-11T10:35:08Z</time>
      </trkpt>
      <trkpt lat="49.03982" lon="1.12598">
        <ele>117.8</ele>
        <time>2016-11-11T10:35:11Z</time>
      </trkpt>
      <trkpt lat="49.03992" lon="1.12593">
        <ele>118.1</ele>
        <time>2016-11-11T10:35:17Z</time>
      </trkpt>
      <trkpt lat="49.04002" lon="1.1259">
        <ele>118.2</ele>
        <time>2016-11-11T10:35:22Z</time>
      </trkpt>
      <trkpt lat="49.04012" lon="1.12586">
        <ele>118.3</ele>
        <time>2016-11-11T10:35:27Z</time>
      </trkpt>
      <trkpt lat="49.04021" lon="1.12585">
        <ele>118.4</ele>
        <time>2016-11-11T10:35:31Z</time>
      </trkpt>
      <trkpt lat="49.04033" lon="1.12582">
        <ele>118.7</ele>
        <time>2016-11-11T10:35:35Z</time>
      </trkpt>
      <trkpt lat="49.04042" lon="1.12581">
        <ele>118.9</ele>
        <time>2016-11-11T10:35:38Z</time>
      </trkpt>
      <trkpt lat="49.04053" lon="1.12579">
        <ele>119</ele>
        <time>2016-11-11T10:35:41Z</time>
      </trkpt>
      <trkpt lat="49.04065" lon="1.12581">
        <ele>119.2</ele>
        <time>2016-11-11T10:35:45Z</time>
      </trkpt>
      <trkpt lat="49.04074" lon="1.12583">
        <ele>119.3</ele>
        <time>2016-11-11T10:35:49Z</time>
      </trkpt>
      <trkpt lat="49.04079" lon="1.12595">
        <ele>119.4</ele>
        <time>2016-11-11T10:35:53Z</time>
      </trkpt>
      <trkpt lat="49.04087" lon="1.12606">
        <ele>119.6</ele>
        <time>2016-11-11T10:35:57Z</time>
      </trkpt>
      <trkpt lat="49.04097" lon="1.12605">
        <ele>119.7</ele>
        <time>2016-11-11T10:36:01Z</time>
      </trkpt>
      <trkpt lat="49.04105" lon="1.12598">
        <ele>119.8</ele>
        <time>2016-11-11T10:36:06Z</time>
      </trkpt>
      <trkpt lat="49.04111" lon="1.12586">
        <ele>119.8</ele>
        <time>2016-11-11T10:36:10Z</time>
      </trkpt>
      <trkpt lat="49.04117" lon="1.12576">
        <ele>119.9</ele>
        <time>2016-11-11T10:36:13Z</time>
      </trkpt>
      <trkpt lat="49.04124" lon="1.12565">
        <ele>120.1</ele>
        <time>2016-11-11T10:36:17Z</time>
      </trkpt>
      <trkpt lat="49.04132" lon="1.12572">
        <ele>120.3</ele>
        <time>2016-11-11T10:36:22Z</time>
      </trkpt>
      <trkpt lat="49.0414" lon="1.12581">
        <ele>120.4</ele>
        <time>2016-11-11T10:36:26Z</time>
      </trkpt>
      <trkpt lat="49.0415" lon="1.12588">
        <ele>120.5</ele>
        <time>2016-11-11T10:36:30Z</time>
      </trkpt>
      <trkpt lat="49.04161" lon="1.12594">
        <ele>120.5</ele>
        <time>2016-11-11T10:36:34Z</time>
      </trkpt>
      <trkpt lat="49.04168" lon="1.12603">
        <ele>120.6</ele>
        <time>2016-11-11T10:36:37Z</time>
      </trkpt>
      <trkpt lat="49.04174" lon="1.12615">
        <ele>120.6</ele>
        <time>2016-11-11T10:36:40Z</time>
      </trkpt>
      <trkpt lat="49.04178" lon="1.1263">
        <ele>120.6</ele>
        <time>2016-11-11T10:36:43Z</time>
      </trkpt>
      <trkpt lat="49.0418" lon="1.12646">
        <ele>120.6</ele>
        <time>2016-11-11T10:36:46Z</time>
      </trkpt>
      <trkpt lat="49.04182" lon="1.12662">
        <ele>120.7</ele>
        <time>2016-11-11T10:36:49Z</time>
      </trkpt>
      <trkpt lat="49.04184" lon="1.12679">
        <ele>120.7</ele>
        <time>2016-11-11T10:36:52Z</time>
      </trkpt>
      <trkpt lat="49.04187" lon="1.12695">
        <ele>120.7</ele>
        <time>2016-11-11T10:36:55Z</time>
      </trkpt>
      <trkpt lat="49.0419" lon="1.12712">
        <ele>120.7</ele>
        <time>2016-11-11T10:36:58Z</time>
      </trkpt>
      <trkpt lat="49.04194" lon="1.12729">
        <ele>120.7</ele>
        <time>2016-11-11T10:37:01Z</time>
      </trkpt>
      <trkpt lat="49.04198" lon="1.12746">
        <ele>120.7</ele>
        <time>2016-11-11T10:37:04Z</time>
      </trkpt>
      <trkpt lat="49.04202" lon="1.12764">
        <ele>120.7</ele>
        <time>2016-11-11T10:37:07Z</time>
      </trkpt>
      <trkpt lat="49.04206" lon="1.12781">
        <ele>120.5</ele>
        <time>2016-11-11T10:37:10Z</time>
      </trkpt>
      <trkpt lat="49.0421" lon="1.12799">
        <ele>120.4</ele>
        <time>2016-11-11T10:37:13Z</time>
      </trkpt>
      <trkpt lat="49.04211" lon="1.12816">
        <ele>120.3</ele>
        <time>2016-11-11T10:37:16Z</time>
      </trkpt>
      <trkpt lat="49.04213" lon="1.12834">
        <ele>120.2</ele>
        <time>2016-11-11T10:37:19Z</time>
      </trkpt>
      <trkpt lat="49.04209" lon="1.12851">
        <ele>120.1</ele>
        <time>2016-11-11T10:37:22Z</time>
      </trkpt>
      <trkpt lat="49.04203" lon="1.12866">
        <ele>120</ele>
        <time>2016-11-11T10:37:25Z</time>
      </trkpt>
      <trkpt lat="49.04196" lon="1.12881">
        <ele>119.9</ele>
        <time>2016-11-11T10:37:28Z</time>
      </trkpt>
      <trkpt lat="49.04187" lon="1.12891">
        <ele>119.8</ele>
        <time>2016-11-11T10:37:31Z</time>
      </trkpt>
      <trkpt lat="49.04176" lon="1.12898">
        <ele>119.6</ele>
        <time>2016-11-11T10:37:34Z</time>
      </trkpt>
      <trkpt lat="49.04164" lon="1.12901">
        <ele>119.4</ele>
        <time>2016-11-11T10:37:37Z</time>
      </trkpt>
      <trkpt lat="49.04153" lon="1.12905">
        <ele>119.3</ele>
        <time>2016-11-11T10:37:40Z</time>
      </trkpt>
      <trkpt lat="49.04142" lon="1.12908">
        <ele>119.1</ele>
        <time>2016-11-11T10:37:43Z</time>
      </trkpt>
      <trkpt lat="49.04131" lon="1.12911">
        <ele>119</ele>
        <time>2016-11-11T10:37:46Z</time>
      </trkpt>
      <trkpt lat="49.04121" lon="1.12917">
        <ele>118.8</ele>
        <time>2016-11-11T10:37:50Z</time>
      </trkpt>
      <trkpt lat="49.04113" lon="1.12928">
        <ele>118.7</ele>
        <time>2016-11-11T10:37:54Z</time>
      </trkpt>
      <trkpt lat="49.04103" lon="1.12941">
        <ele>118.5</ele>
        <time>2016-11-11T10:37:58Z</time>
      </trkpt>
      <trkpt lat="49.04099" lon="1.12956">
        <ele>118.5</ele>
        <time>2016-11-11T10:38:01Z</time>
      </trkpt>
      <trkpt lat="49.04105" lon="1.12972">
        <ele>118.4</ele>
        <time>2016-11-11T10:38:05Z</time>
      </trkpt>
      <trkpt lat="49.0411" lon="1.12984">
        <ele>118.3</ele>
        <time>2016-11-11T10:38:08Z</time>
      </trkpt>
      <trkpt lat="49.04109" lon="1.12999">
        <ele>118.3</ele>
        <time>2016-11-11T10:38:11Z</time>
      </trkpt>
      <trkpt lat="49.04108" lon="1.13016">
        <ele>118.2</ele>
        <time>2016-11-11T10:38:14Z</time>
      </trkpt>
      <trkpt lat="49.04108" lon="1.13031">
        <ele>118.2</ele>
        <time>2016-11-11T10:38:17Z</time>
      </trkpt>
      <trkpt lat="49.04111" lon="1.13046">
        <ele>118.2</ele>
        <time>2016-11-11T10:38:20Z</time>
      </trkpt>
      <trkpt lat="49.04114" lon="1.1306">
        <ele>118.2</ele>
        <time>2016-11-11T10:38:23Z</time>
      </trkpt>
      <trkpt lat="49.04117" lon="1.13074">
        <ele>118.1</ele>
        <time>2016-11-11T10:38:26Z</time>
      </trkpt>
      <trkpt lat="49.04128" lon="1.13077">
        <ele>118.1</ele>
        <time>2016-11-11T10:38:31Z</time>
      </trkpt>
      <trkpt lat="49.04136" lon="1.13071">
        <ele>118</ele>
        <time>2016-11-11T10:38:34Z</time>
      </trkpt>
      <trkpt lat="49.04145" lon="1.13067">
        <ele>118</ele>
        <time>2016-11-11T10:38:37Z</time>
      </trkpt>
      <trkpt lat="49.04155" lon="1.1306">
        <ele>117.9</ele>
        <time>2016-11-11T10:38:40Z</time>
      </trkpt>
      <trkpt lat="49.04164" lon="1.13055">
        <ele>117.9</ele>
        <time>2016-11-11T10:38:43Z</time>
      </trkpt>
      <trkpt lat="49.04173" lon="1.13066">
        <ele>117.9</ele>
        <time>2016-11-11T10:38:47Z</time>
      </trkpt>
      <trkpt lat="49.04178" lon="1.13083">
        <ele>117.8</ele>
        <time>2016-11-11T10:38:50Z</time>
      </trkpt>
      <trkpt lat="49.04182" lon="1.13102">
        <ele>117.8</ele>
        <time>2016-11-11T10:38:53Z</time>
      </trkpt>
      <trkpt lat="49.04185" lon="1.13115">
        <ele>117.8</ele>
        <time>2016-11-11T10:38:55Z</time>
      </trkpt>
      <trkpt lat="49.04189" lon="1.13129">
        <ele>117.8</ele>
        <time>2016-11-11T10:38:57Z</time>
      </trkpt>
      <trkpt lat="49.04192" lon="1.13143">
        <ele>117.8</ele>
        <time>2016-11-11T10:38:59Z</time>
      </trkpt>
      <trkpt lat="49.04196" lon="1.13158">
        <ele>117.8</ele>
        <time>2016-11-11T10:39:01Z</time>
      </trkpt>
      <trkpt lat="49.042" lon="1.13173">
        <ele>117.8</ele>
        <time>2016-11-11T10:39:03Z</time>
      </trkpt>
      <trkpt lat="49.04204" lon="1.13187">
        <ele>117.8</ele>
        <time>2016-11-11T10:39:05Z</time>
      </trkpt>
      <trkpt lat="49.04207" lon="1.13201">
        <ele>117.8</ele>
        <time>2016-11-11T10:39:07Z</time>
      </trkpt>
      <trkpt lat="49.04211" lon="1.13214">
        <ele>117.8</ele>
        <time>2016-11-11T10:39:09Z</time>
      </trkpt>
      <trkpt lat="49.04214" lon="1.13227">
        <ele>117.8</ele>
        <time>2016-11-11T10:39:11Z</time>
      </trkpt>
      <trkpt lat="49.0422" lon="1.13245">
        <ele>117.8</ele>
        <time>2016-11-11T10:39:14Z</time>
      </trkpt>
      <trkpt lat="49.04226" lon="1.13257">
        <ele>117.7</ele>
        <time>2016-11-11T10:39:21Z</time>
      </trkpt>
      <trkpt lat="49.04226" lon="1.13272">
        <ele>117.7</ele>
        <time>2016-11-11T10:39:25Z</time>
      </trkpt>
      <trkpt lat="49.04229" lon="1.13287">
        <ele>117.7</ele>
        <time>2016-11-11T10:39:28Z</time>
      </trkpt>
      <trkpt lat="49.04229" lon="1.13307">
        <ele>117.7</ele>
        <time>2016-11-11T10:39:31Z</time>
      </trkpt>
      <trkpt lat="49.04225" lon="1.1332">
        <ele>117.7</ele>
        <time>2016-11-11T10:39:33Z</time>
      </trkpt>
      <trkpt lat="49.04217" lon="1.13331">
        <ele>117.7</ele>
        <time>2016-11-11T10:39:35Z</time>
      </trkpt>
      <trkpt lat="49.04207" lon="1.13329">
        <ele>117.7</ele>
        <time>2016-11-11T10:39:37Z</time>
      </trkpt>
      <trkpt lat="49.04202" lon="1.13312">
        <ele>117.7</ele>
        <time>2016-11-11T10:39:39Z</time>
      </trkpt>
      <trkpt lat="49.04198" lon="1.13294">
        <ele>117.6</ele>
        <time>2016-11-11T10:39:41Z</time>
      </trkpt>
      <trkpt lat="49.0419" lon="1.13283">
        <ele>117.5</ele>
        <time>2016-11-11T10:39:44Z</time>
      </trkpt>
      <trkpt lat="49.04181" lon="1.13288">
        <ele>117.4</ele>
        <time>2016-11-11T10:39:47Z</time>
      </trkpt>
      <trkpt lat="49.04171" lon="1.13291">
        <ele>117.4</ele>
        <time>2016-11-11T10:39:50Z</time>
      </trkpt>
      <trkpt lat="49.04163" lon="1.13296">
        <ele>117.2</ele>
        <time>2016-11-11T10:40:00Z</time>
      </trkpt>
      <trkpt lat="49.04153" lon="1.13304">
        <ele>117.1</ele>
        <time>2016-11-11T10:40:04Z</time>
      </trkpt>
      <trkpt lat="49.04143" lon="1.13312">
        <ele>117.1</ele>
        <time>2016-11-11T10:40:07Z</time>
      </trkpt>
      <trkpt lat="49.04132" lon="1.1332">
        <ele>117</ele>
        <time>2016-11-11T10:40:10Z</time>
      </trkpt>
      <trkpt lat="49.04123" lon="1.13328">
        <ele>117</ele>
        <time>2016-11-11T10:40:13Z</time>
      </trkpt>
      <trkpt lat="49.04113" lon="1.13334">
        <ele>117</ele>
        <time>2016-11-11T10:40:16Z</time>
      </trkpt>
      <trkpt lat="49.04103" lon="1.13343">
        <ele>116.9</ele>
        <time>2016-11-11T10:40:19Z</time>
      </trkpt>
      <trkpt lat="49.04095" lon="1.13353">
        <ele>116.9</ele>
        <time>2016-11-11T10:40:22Z</time>
      </trkpt>
      <trkpt lat="49.04098" lon="1.13368">
        <ele>116.9</ele>
        <time>2016-11-11T10:40:25Z</time>
      </trkpt>
      <trkpt lat="49.04096" lon="1.13381">
        <ele>116.9</ele>
        <time>2016-11-11T10:40:28Z</time>
      </trkpt>
      <trkpt lat="49.04086" lon="1.13388">
        <ele>116.9</ele>
        <time>2016-11-11T10:40:31Z</time>
      </trkpt>
      <trkpt lat="49.04076" lon="1.13393">
        <ele>116.8</ele>
        <time>2016-11-11T10:40:34Z</time>
      </trkpt>
      <trkpt lat="49.04066" lon="1.13399">
        <ele>116.6</ele>
        <time>2016-11-11T10:40:38Z</time>
      </trkpt>
      <trkpt lat="49.04057" lon="1.13404">
        <ele>116.5</ele>
        <time>2016-11-11T10:40:44Z</time>
      </trkpt>
      <trkpt lat="49.04048" lon="1.1341">
        <ele>116.4</ele>
        <time>2016-11-11T10:40:51Z</time>
      </trkpt>
      <trkpt lat="49.04038" lon="1.13417">
        <ele>116.2</ele>
        <time>2016-11-11T10:40:57Z</time>
      </trkpt>
      <trkpt lat="49.0403" lon="1.13424">
        <ele>116.2</ele>
        <time>2016-11-11T10:41:03Z</time>
      </trkpt>
      <trkpt lat="49.04022" lon="1.13429">
        <ele>116.1</ele>
        <time>2016-11-11T10:41:09Z</time>
      </trkpt>
      <trkpt lat="49.04012" lon="1.13435">
        <ele>116.1</ele>
        <time>2016-11-11T10:41:14Z</time>
      </trkpt>
      <trkpt lat="49.04004" lon="1.13441">
        <ele>116</ele>
        <time>2016-11-11T10:41:19Z</time>
      </trkpt>
      <trkpt lat="49.03993" lon="1.13447">
        <ele>116</ele>
        <time>2016-11-11T10:41:24Z</time>
      </trkpt>
      <trkpt lat="49.03983" lon="1.13453">
        <ele>116</ele>
        <time>2016-11-11T10:41:28Z</time>
      </trkpt>
      <trkpt lat="49.03971" lon="1.13461">
        <ele>116</ele>
        <time>2016-11-11T10:41:31Z</time>
      </trkpt>
      <trkpt lat="49.03962" lon="1.13467">
        <ele>116</ele>
        <time>2016-11-11T10:41:33Z</time>
      </trkpt>
      <trkpt lat="49.03953" lon="1.13474">
        <ele>116</ele>
        <time>2016-11-11T10:41:35Z</time>
      </trkpt>
      <trkpt lat="49.03943" lon="1.13482">
        <ele>116</ele>
        <time>2016-11-11T10:41:37Z</time>
      </trkpt>
      <trkpt lat="49.03934" lon="1.13489">
        <ele>115.9</ele>
        <time>2016-11-11T10:41:39Z</time>
      </trkpt>
      <trkpt lat="49.03931" lon="1.13503">
        <ele>115.8</ele>
        <time>2016-11-11T10:41:41Z</time>
      </trkpt>
      <trkpt lat="49.03935" lon="1.13516">
        <ele>115.7</ele>
        <time>2016-11-11T10:41:43Z</time>
      </trkpt>
      <trkpt lat="49.03941" lon="1.13529">
        <ele>115.5</ele>
        <time>2016-11-11T10:41:45Z</time>
      </trkpt>
      <trkpt lat="49.03946" lon="1.13542">
        <ele>115.4</ele>
        <time>2016-11-11T10:41:47Z</time>
      </trkpt>
      <trkpt lat="49.03951" lon="1.13554">
        <ele>115.3</ele>
        <time>2016-11-11T10:41:49Z</time>
      </trkpt>
      <trkpt lat="49.03956" lon="1.13568">
        <ele>115.2</ele>
        <time>2016-11-11T10:41:51Z</time>
      </trkpt>
      <trkpt lat="49.03962" lon="1.13581">
        <ele>115.1</ele>
        <time>2016-11-11T10:41:53Z</time>
      </trkpt>
      <trkpt lat="49.03967" lon="1.13593">
        <ele>115</ele>
        <time>2016-11-11T10:41:55Z</time>
      </trkpt>
      <trkpt lat="49.03972" lon="1.13605">
        <ele>114.9</ele>
        <time>2016-11-11T10:41:57Z</time>
      </trkpt>
      <trkpt lat="49.03977" lon="1.13617">
        <ele>114.8</ele>
        <time>2016-11-11T10:41:59Z</time>
      </trkpt>
      <trkpt lat="49.03982" lon="1.1363">
        <ele>114.8</ele>
        <time>2016-11-11T10:42:01Z</time>
      </trkpt>
      <trkpt lat="49.03988" lon="1.13642">
        <ele>114.7</ele>
        <time>2016-11-11T10:42:03Z</time>
      </trkpt>
      <trkpt lat="49.03991" lon="1.13655">
        <ele>114.7</ele>
        <time>2016-11-11T10:42:05Z</time>
      </trkpt>
      <trkpt lat="49.03991" lon="1.13673">
        <ele>114.7</ele>
        <time>2016-11-11T10:42:08Z</time>
      </trkpt>
      <trkpt lat="49.0399" lon="1.13688">
        <ele>114.6</ele>
        <time>2016-11-11T10:42:11Z</time>
      </trkpt>
      <trkpt lat="49.03989" lon="1.13703">
        <ele>114.6</ele>
        <time>2016-11-11T10:42:15Z</time>
      </trkpt>
      <trkpt lat="49.03988" lon="1.13718">
        <ele>114.5</ele>
        <time>2016-11-11T10:42:21Z</time>
      </trkpt>
      <trkpt lat="49.03981" lon="1.13727">
        <ele>114.5</ele>
        <time>2016-11-11T10:42:24Z</time>
      </trkpt>
      <trkpt lat="49.03969" lon="1.13731">
        <ele>114.5</ele>
        <time>2016-11-11T10:42:27Z</time>
      </trkpt>
      <trkpt lat="49.03957" lon="1.13732">
        <ele>114.5</ele>
        <time>2016-11-11T10:42:30Z</time>
      </trkpt>
      <trkpt lat="49.03945" lon="1.13729">
        <ele>114.5</ele>
        <time>2016-11-11T10:42:33Z</time>
      </trkpt>
      <trkpt lat="49.03933" lon="1.13726">
        <ele>114.4</ele>
        <time>2016-11-11T10:42:36Z</time>
      </trkpt>
      <trkpt lat="49.03922" lon="1.13722">
        <ele>114.4</ele>
        <time>2016-11-11T10:42:39Z</time>
      </trkpt>
      <trkpt lat="49.03909" lon="1.13717">
        <ele>114.4</ele>
        <time>2016-11-11T10:42:42Z</time>
      </trkpt>
      <trkpt lat="49.039" lon="1.13714">
        <ele>114.4</ele>
        <time>2016-11-11T10:42:44Z</time>
      </trkpt>
      <trkpt lat="49.03891" lon="1.13711">
        <ele>114.4</ele>
        <time>2016-11-11T10:42:46Z</time>
      </trkpt>
      <trkpt lat="49.03881" lon="1.13707">
        <ele>114.4</ele>
        <time>2016-11-11T10:42:48Z</time>
      </trkpt>
      <trkpt lat="49.03872" lon="1.13705">
        <ele>114.4</ele>
        <time>2016-11-11T10:42:50Z</time>
      </trkpt>
      <trkpt lat="49.03863" lon="1.13701">
        <ele>114.4</ele>
        <time>2016-11-11T10:42:52Z</time>
      </trkpt>
      <trkpt lat="49.03854" lon="1.13698">
        <ele>114.4</ele>
        <time>2016-11-11T10:42:54Z</time>
      </trkpt>
      <trkpt lat="49.03844" lon="1.13695">
        <ele>114.4</ele>
        <time>2016-11-11T10:42:56Z</time>
      </trkpt>
      <trkpt lat="49.03835" lon="1.13692">
        <ele>114.4</ele>
        <time>2016-11-11T10:42:58Z</time>
      </trkpt>
      <trkpt lat="49.03822" lon="1.13687">
        <ele>114.4</ele>
        <time>2016-11-11T10:43:01Z</time>
      </trkpt>
      <trkpt lat="49.03813" lon="1.13684">
        <ele>114.4</ele>
        <time>2016-11-11T10:43:03Z</time>
      </trkpt>
      <trkpt lat="49.03803" lon="1.13681">
        <ele>114.4</ele>
        <time>2016-11-11T10:43:05Z</time>
      </trkpt>
      <trkpt lat="49.03793" lon="1.13677">
        <ele>114.4</ele>
        <time>2016-11-11T10:43:07Z</time>
      </trkpt>
      <trkpt lat="49.03783" lon="1.13673">
        <ele>114.3</ele>
        <time>2016-11-11T10:43:09Z</time>
      </trkpt>
      <trkpt lat="49.03773" lon="1.13669">
        <ele>114.2</ele>
        <time>2016-11-11T10:43:11Z</time>
      </trkpt>
      <trkpt lat="49.03763" lon="1.13665">
        <ele>114.2</ele>
        <time>2016-11-11T10:43:13Z</time>
      </trkpt>
      <trkpt lat="49.03752" lon="1.13662">
        <ele>114</ele>
        <time>2016-11-11T10:43:15Z</time>
      </trkpt>
      <trkpt lat="49.03742" lon="1.13659">
        <ele>113.8</ele>
        <time>2016-11-11T10:43:17Z</time>
      </trkpt>
      <trkpt lat="49.03732" lon="1.13655">
        <ele>113.6</ele>
        <time>2016-11-11T10:43:19Z</time>
      </trkpt>
      <trkpt lat="49.03722" lon="1.13652">
        <ele>113.5</ele>
        <time>2016-11-11T10:43:21Z</time>
      </trkpt>
      <trkpt lat="49.03713" lon="1.1365">
        <ele>113.3</ele>
        <time>2016-11-11T10:43:23Z</time>
      </trkpt>
      <trkpt lat="49.03703" lon="1.13647">
        <ele>113.1</ele>
        <time>2016-11-11T10:43:26Z</time>
      </trkpt>
      <trkpt lat="49.03698" lon="1.1366">
        <ele>112.7</ele>
        <time>2016-11-11T10:43:33Z</time>
      </trkpt>
      <trkpt lat="49.03704" lon="1.13674">
        <ele>112.5</ele>
        <time>2016-11-11T10:43:37Z</time>
      </trkpt>
      <trkpt lat="49.03711" lon="1.13683">
        <ele>112.4</ele>
        <time>2016-11-11T10:43:40Z</time>
      </trkpt>
      <trkpt lat="49.0372" lon="1.13689">
        <ele>112.3</ele>
        <time>2016-11-11T10:43:43Z</time>
      </trkpt>
      <trkpt lat="49.0373" lon="1.13697">
        <ele>112.2</ele>
        <time>2016-11-11T10:43:46Z</time>
      </trkpt>
      <trkpt lat="49.03739" lon="1.13705">
        <ele>112.2</ele>
        <time>2016-11-11T10:43:48Z</time>
      </trkpt>
      <trkpt lat="49.03749" lon="1.13712">
        <ele>112.2</ele>
        <time>2016-11-11T10:43:50Z</time>
      </trkpt>
      <trkpt lat="49.03758" lon="1.1372">
        <ele>112.2</ele>
        <time>2016-11-11T10:43:52Z</time>
      </trkpt>
      <trkpt lat="49.03768" lon="1.13729">
        <ele>112.2</ele>
        <time>2016-11-11T10:43:54Z</time>
      </trkpt>
      <trkpt lat="49.03781" lon="1.13737">
        <ele>112.4</ele>
        <time>2016-11-11T10:43:56Z</time>
      </trkpt>
      <trkpt lat="49.03792" lon="1.13745">
        <ele>112.6</ele>
        <time>2016-11-11T10:43:58Z</time>
      </trkpt>
      <trkpt lat="49.03803" lon="1.13751">
        <ele>112.8</ele>
        <time>2016-11-11T10:44:00Z</time>
      </trkpt>
      <trkpt lat="49.03814" lon="1.13757">
        <ele>112.9</ele>
        <time>2016-11-11T10:44:02Z</time>
      </trkpt>
      <trkpt lat="49.03825" lon="1.13766">
        <ele>113</ele>
        <time>2016-11-11T10:44:04Z</time>
      </trkpt>
      <trkpt lat="49.03834" lon="1.13774">
        <ele>113.2</ele>
        <time>2016-11-11T10:44:06Z</time>
      </trkpt>
      <trkpt lat="49.03843" lon="1.13781">
        <ele>113.3</ele>
        <time>2016-11-11T10:44:08Z</time>
      </trkpt>
      <trkpt lat="49.03855" lon="1.13791">
        <ele>113.5</ele>
        <time>2016-11-11T10:44:11Z</time>
      </trkpt>
      <trkpt lat="49.03867" lon="1.13799">
        <ele>113.7</ele>
        <time>2016-11-11T10:44:14Z</time>
      </trkpt>
      <trkpt lat="49.03879" lon="1.13808">
        <ele>114</ele>
        <time>2016-11-11T10:44:17Z</time>
      </trkpt>
      <trkpt lat="49.03887" lon="1.13814">
        <ele>114.1</ele>
        <time>2016-11-11T10:44:19Z</time>
      </trkpt>
      <trkpt lat="49.03896" lon="1.13823">
        <ele>114.2</ele>
        <time>2016-11-11T10:44:21Z</time>
      </trkpt>
      <trkpt lat="49.03906" lon="1.13831">
        <ele>114.3</ele>
        <time>2016-11-11T10:44:23Z</time>
      </trkpt>
      <trkpt lat="49.03916" lon="1.13838">
        <ele>114.4</ele>
        <time>2016-11-11T10:44:25Z</time>
      </trkpt>
      <trkpt lat="49.03923" lon="1.13846">
        <ele>114.5</ele>
        <time>2016-11-11T10:44:27Z</time>
      </trkpt>
      <trkpt lat="49.03935" lon="1.13854">
        <ele>114.7</ele>
        <time>2016-11-11T10:44:30Z</time>
      </trkpt>
      <trkpt lat="49.03947" lon="1.13862">
        <ele>114.8</ele>
        <time>2016-11-11T10:44:33Z</time>
      </trkpt>
      <trkpt lat="49.03958" lon="1.13875">
        <ele>114.8</ele>
        <time>2016-11-11T10:44:35Z</time>
      </trkpt>
      <trkpt lat="49.03967" lon="1.13882">
        <ele>114.9</ele>
        <time>2016-11-11T10:44:37Z</time>
      </trkpt>
      <trkpt lat="49.03974" lon="1.1389">
        <ele>114.9</ele>
        <time>2016-11-11T10:44:39Z</time>
      </trkpt>
      <trkpt lat="49.03982" lon="1.13898">
        <ele>114.9</ele>
        <time>2016-11-11T10:44:41Z</time>
      </trkpt>
      <trkpt lat="49.03991" lon="1.13903">
        <ele>115</ele>
        <time>2016-11-11T10:44:43Z</time>
      </trkpt>
      <trkpt lat="49.04001" lon="1.13913">
        <ele>115</ele>
        <time>2016-11-11T10:44:45Z</time>
      </trkpt>
      <trkpt lat="49.04008" lon="1.13923">
        <ele>115</ele>
        <time>2016-11-11T10:44:47Z</time>
      </trkpt>
      <trkpt lat="49.04011" lon="1.13937">
        <ele>114.9</ele>
        <time>2016-11-11T10:44:51Z</time>
      </trkpt>
      <trkpt lat="49.04007" lon="1.13955">
        <ele>114.9</ele>
        <time>2016-11-11T10:44:55Z</time>
      </trkpt>
      <trkpt lat="49.04002" lon="1.13972">
        <ele>114.9</ele>
        <time>2016-11-11T10:44:58Z</time>
      </trkpt>
      <trkpt lat="49.03996" lon="1.13987">
        <ele>114.9</ele>
        <time>2016-11-11T10:45:01Z</time>
      </trkpt>
      <trkpt lat="49.03992" lon="1.14001">
        <ele>114.9</ele>
        <time>2016-11-11T10:45:03Z</time>
      </trkpt>
      <trkpt lat="49.03995" lon="1.14021">
        <ele>114.9</ele>
        <time>2016-11-11T10:45:06Z</time>
      </trkpt>
      <trkpt lat="49.03996" lon="1.14037">
        <ele>114.9</ele>
        <time>2016-11-11T10:45:08Z</time>
      </trkpt>
      <trkpt lat="49.03994" lon="1.14054">
        <ele>114.9</ele>
        <time>2016-11-11T10:45:10Z</time>
      </trkpt>
      <trkpt lat="49.03986" lon="1.14068">
        <ele>114.9</ele>
        <time>2016-11-11T10:45:13Z</time>
      </trkpt>
      <trkpt lat="49.0398" lon="1.14079">
        <ele>114.9</ele>
        <time>2016-11-11T10:45:16Z</time>
      </trkpt>
      <trkpt lat="49.03975" lon="1.14096">
        <ele>114.9</ele>
        <time>2016-11-11T10:45:19Z</time>
      </trkpt>
      <trkpt lat="49.0397" lon="1.14109">
        <ele>114.8</ele>
        <time>2016-11-11T10:45:22Z</time>
      </trkpt>
      <trkpt lat="49.03963" lon="1.14121">
        <ele>114.8</ele>
        <time>2016-11-11T10:45:25Z</time>
      </trkpt>
      <trkpt lat="49.03956" lon="1.14131">
        <ele>114.8</ele>
        <time>2016-11-11T10:45:27Z</time>
      </trkpt>
      <trkpt lat="49.0395" lon="1.14142">
        <ele>114.7</ele>
        <time>2016-11-11T10:45:29Z</time>
      </trkpt>
      <trkpt lat="49.03939" lon="1.1415">
        <ele>114.7</ele>
        <time>2016-11-11T10:45:32Z</time>
      </trkpt>
      <trkpt lat="49.03932" lon="1.14158">
        <ele>114.6</ele>
        <time>2016-11-11T10:45:34Z</time>
      </trkpt>
      <trkpt lat="49.03922" lon="1.14162">
        <ele>114.6</ele>
        <time>2016-11-11T10:45:36Z</time>
      </trkpt>
      <trkpt lat="49.03911" lon="1.14168">
        <ele>114.5</ele>
        <time>2016-11-11T10:45:38Z</time>
      </trkpt>
      <trkpt lat="49.03901" lon="1.14179">
        <ele>114.5</ele>
        <time>2016-11-11T10:45:40Z</time>
      </trkpt>
      <trkpt lat="49.03892" lon="1.1419">
        <ele>114.5</ele>
        <time>2016-11-11T10:45:42Z</time>
      </trkpt>
      <trkpt lat="49.03884" lon="1.142">
        <ele>114.4</ele>
        <time>2016-11-11T10:45:44Z</time>
      </trkpt>
      <trkpt lat="49.03879" lon="1.14216">
        <ele>114.3</ele>
        <time>2016-11-11T10:45:46Z</time>
      </trkpt>
      <trkpt lat="49.03876" lon="1.14233">
        <ele>114.3</ele>
        <time>2016-11-11T10:45:48Z</time>
      </trkpt>
      <trkpt lat="49.03879" lon="1.14252">
        <ele>114.2</ele>
        <time>2016-11-11T10:45:51Z</time>
      </trkpt>
      <trkpt lat="49.03884" lon="1.14269">
        <ele>114.1</ele>
        <time>2016-11-11T10:45:53Z</time>
      </trkpt>
      <trkpt lat="49.03886" lon="1.14288">
        <ele>114</ele>
        <time>2016-11-11T10:45:55Z</time>
      </trkpt>
      <trkpt lat="49.03884" lon="1.14306">
        <ele>114</ele>
        <time>2016-11-11T10:45:57Z</time>
      </trkpt>
      <trkpt lat="49.03884" lon="1.14325">
        <ele>113.9</ele>
        <time>2016-11-11T10:45:59Z</time>
      </trkpt>
      <trkpt lat="49.03887" lon="1.14343">
        <ele>113.8</ele>
        <time>2016-11-11T10:46:01Z</time>
      </trkpt>
      <trkpt lat="49.03884" lon="1.14358">
        <ele>113.7</ele>
        <time>2016-11-11T10:46:03Z</time>
      </trkpt>
      <trkpt lat="49.0388" lon="1.14375">
        <ele>113.6</ele>
        <time>2016-11-11T10:46:05Z</time>
      </trkpt>
      <trkpt lat="49.03874" lon="1.14395">
        <ele>113.5</ele>
        <time>2016-11-11T10:46:07Z</time>
      </trkpt>
      <trkpt lat="49.03866" lon="1.14407">
        <ele>113.3</ele>
        <time>2016-11-11T10:46:09Z</time>
      </trkpt>
      <trkpt lat="49.03858" lon="1.14419">
        <ele>113.2</ele>
        <time>2016-11-11T10:46:11Z</time>
      </trkpt>
      <trkpt lat="49.03855" lon="1.14432">
        <ele>113</ele>
        <time>2016-11-11T10:46:13Z</time>
      </trkpt>
      <trkpt lat="49.03856" lon="1.14448">
        <ele>112.9</ele>
        <time>2016-11-11T10:46:15Z</time>
      </trkpt>
      <trkpt lat="49.03858" lon="1.14465">
        <ele>112.8</ele>
        <time>2016-11-11T10:46:17Z</time>
      </trkpt>
      <trkpt lat="49.03855" lon="1.1448">
        <ele>112.7</ele>
        <time>2016-11-11T10:46:19Z</time>
      </trkpt>
      <trkpt lat="49.03848" lon="1.14495">
        <ele>112.6</ele>
        <time>2016-11-11T10:46:21Z</time>
      </trkpt>
      <trkpt lat="49.03845" lon="1.1451">
        <ele>112.4</ele>
        <time>2016-11-11T10:46:23Z</time>
      </trkpt>
      <trkpt lat="49.0384" lon="1.14527">
        <ele>112.3</ele>
        <time>2016-11-11T10:46:25Z</time>
      </trkpt>
      <trkpt lat="49.03833" lon="1.14541">
        <ele>112.2</ele>
        <time>2016-11-11T10:46:27Z</time>
      </trkpt>
      <trkpt lat="49.0383" lon="1.14558">
        <ele>112</ele>
        <time>2016-11-11T10:46:29Z</time>
      </trkpt>
      <trkpt lat="49.03831" lon="1.14578">
        <ele>111.8</ele>
        <time>2016-11-11T10:46:31Z</time>
      </trkpt>
      <trkpt lat="49.03827" lon="1.14597">
        <ele>111.6</ele>
        <time>2016-11-11T10:46:33Z</time>
      </trkpt>
      <trkpt lat="49.03821" lon="1.14611">
        <ele>111.5</ele>
        <time>2016-11-11T10:46:35Z</time>
      </trkpt>
      <trkpt lat="49.03814" lon="1.14625">
        <ele>111.4</ele>
        <time>2016-11-11T10:46:37Z</time>
      </trkpt>
      <trkpt lat="49.03807" lon="1.14641">
        <ele>111.2</ele>
        <time>2016-11-11T10:46:39Z</time>
      </trkpt>
      <trkpt lat="49.038" lon="1.14656">
        <ele>111</ele>
        <time>2016-11-11T10:46:41Z</time>
      </trkpt>
      <trkpt lat="49.03793" lon="1.1467">
        <ele>110.8</ele>
        <time>2016-11-11T10:46:43Z</time>
      </trkpt>
      <trkpt lat="49.03792" lon="1.14688">
        <ele>110.6</ele>
        <time>2016-11-11T10:46:45Z</time>
      </trkpt>
      <trkpt lat="49.03791" lon="1.14702">
        <ele>110.4</ele>
        <time>2016-11-11T10:46:47Z</time>
      </trkpt>
      <trkpt lat="49.03781" lon="1.14714">
        <ele>110.2</ele>
        <time>2016-11-11T10:46:50Z</time>
      </trkpt>
      <trkpt lat="49.03772" lon="1.1472">
        <ele>110.1</ele>
        <time>2016-11-11T10:46:52Z</time>
      </trkpt>
      <trkpt lat="49.03765" lon="1.1473">
        <ele>110</ele>
        <time>2016-11-11T10:46:54Z</time>
      </trkpt>
      <trkpt lat="49.03756" lon="1.14732">
        <ele>109.8</ele>
        <time>2016-11-11T10:46:57Z</time>
      </trkpt>
      <trkpt lat="49.03747" lon="1.14738">
        <ele>109.6</ele>
        <time>2016-11-11T10:46:59Z</time>
      </trkpt>
      <trkpt lat="49.03737" lon="1.14743">
        <ele>109.5</ele>
        <time>2016-11-11T10:47:01Z</time>
      </trkpt>
      <trkpt lat="49.03726" lon="1.14747">
        <ele>109.3</ele>
        <time>2016-11-11T10:47:03Z</time>
      </trkpt>
      <trkpt lat="49.03715" lon="1.14758">
        <ele>109.1</ele>
        <time>2016-11-11T10:47:05Z</time>
      </trkpt>
      <trkpt lat="49.03706" lon="1.14767">
        <ele>108.9</ele>
        <time>2016-11-11T10:47:07Z</time>
      </trkpt>
      <trkpt lat="49.03694" lon="1.14771">
        <ele>108.3</ele>
        <time>2016-11-11T10:47:11Z</time>
      </trkpt>
      <trkpt lat="49.03685" lon="1.14781">
        <ele>107.9</ele>
        <time>2016-11-11T10:47:14Z</time>
      </trkpt>
      <trkpt lat="49.03676" lon="1.14787">
        <ele>107.6</ele>
        <time>2016-11-11T10:47:16Z</time>
      </trkpt>
      <trkpt lat="49.03664" lon="1.14789">
        <ele>107.4</ele>
        <time>2016-11-11T10:47:18Z</time>
      </trkpt>
      <trkpt lat="49.03653" lon="1.14793">
        <ele>107.1</ele>
        <time>2016-11-11T10:47:20Z</time>
      </trkpt>
      <trkpt lat="49.0364" lon="1.14796">
        <ele>106.8</ele>
        <time>2016-11-11T10:47:22Z</time>
      </trkpt>
      <trkpt lat="49.0363" lon="1.14797">
        <ele>106.3</ele>
        <time>2016-11-11T10:47:24Z</time>
      </trkpt>
      <trkpt lat="49.03621" lon="1.14803">
        <ele>104.7</ele>
        <time>2016-11-11T10:47:31Z</time>
      </trkpt>
      <trkpt lat="49.03612" lon="1.14809">
        <ele>102.9</ele>
        <time>2016-11-11T10:47:46Z</time>
      </trkpt>
      <trkpt lat="49.03602" lon="1.14808">
        <ele>101.8</ele>
        <time>2016-11-11T10:48:31Z</time>
      </trkpt>
      <trkpt lat="49.03594" lon="1.14804">
        <ele>101.8</ele>
        <time>2016-11-11T10:48:34Z</time>
      </trkpt>
      <trkpt lat="49.03584" lon="1.14792">
        <ele>101.6</ele>
        <time>2016-11-11T10:48:37Z</time>
      </trkpt>
      <trkpt lat="49.03576" lon="1.14778">
        <ele>101.4</ele>
        <time>2016-11-11T10:48:40Z</time>
      </trkpt>
      <trkpt lat="49.03569" lon="1.14762">
        <ele>101.1</ele>
        <time>2016-11-11T10:48:43Z</time>
      </trkpt>
      <trkpt lat="49.03562" lon="1.14745">
        <ele>100.7</ele>
        <time>2016-11-11T10:48:46Z</time>
      </trkpt>
      <trkpt lat="49.03557" lon="1.14732">
        <ele>100.4</ele>
        <time>2016-11-11T10:48:48Z</time>
      </trkpt>
      <trkpt lat="49.0355" lon="1.14717">
        <ele>100.1</ele>
        <time>2016-11-11T10:48:51Z</time>
      </trkpt>
      <trkpt lat="49.03543" lon="1.14704">
        <ele>99.7</ele>
        <time>2016-11-11T10:48:54Z</time>
      </trkpt>
      <trkpt lat="49.03537" lon="1.1469">
        <ele>99.2</ele>
        <time>2016-11-11T10:48:57Z</time>
      </trkpt>
      <trkpt lat="49.03529" lon="1.14675">
        <ele>98.6</ele>
        <time>2016-11-11T10:49:00Z</time>
      </trkpt>
      <trkpt lat="49.03522" lon="1.1466">
        <ele>97.8</ele>
        <time>2016-11-11T10:49:04Z</time>
      </trkpt>
      <trkpt lat="49.03516" lon="1.14647">
        <ele>97.6</ele>
        <time>2016-11-11T10:49:07Z</time>
      </trkpt>
      <trkpt lat="49.03508" lon="1.14633">
        <ele>97.6</ele>
        <time>2016-11-11T10:49:10Z</time>
      </trkpt>
      <trkpt lat="49.035" lon="1.14624">
        <ele>97.7</ele>
        <time>2016-11-11T10:49:12Z</time>
      </trkpt>
      <trkpt lat="49.03493" lon="1.14616">
        <ele>97.9</ele>
        <time>2016-11-11T10:49:14Z</time>
      </trkpt>
      <trkpt lat="49.03485" lon="1.14608">
        <ele>98.1</ele>
        <time>2016-11-11T10:49:16Z</time>
      </trkpt>
      <trkpt lat="49.03474" lon="1.14598">
        <ele>98.3</ele>
        <time>2016-11-11T10:49:19Z</time>
      </trkpt>
      <trkpt lat="49.03469" lon="1.14586">
        <ele>98.5</ele>
        <time>2016-11-11T10:49:22Z</time>
      </trkpt>
      <trkpt lat="49.03462" lon="1.14576">
        <ele>98.7</ele>
        <time>2016-11-11T10:49:25Z</time>
      </trkpt>
      <trkpt lat="49.03454" lon="1.14567">
        <ele>98.8</ele>
        <time>2016-11-11T10:49:28Z</time>
      </trkpt>
      <trkpt lat="49.03447" lon="1.14558">
        <ele>98.9</ele>
        <time>2016-11-11T10:49:31Z</time>
      </trkpt>
      <trkpt lat="49.03437" lon="1.1455">
        <ele>99.1</ele>
        <time>2016-11-11T10:49:36Z</time>
      </trkpt>
      <trkpt lat="49.03429" lon="1.14545">
        <ele>99.2</ele>
        <time>2016-11-11T10:49:44Z</time>
      </trkpt>
      <trkpt lat="49.03421" lon="1.14539">
        <ele>99</ele>
        <time>2016-11-11T10:50:02Z</time>
      </trkpt>
      <trkpt lat="49.03414" lon="1.14528">
        <ele>98.7</ele>
        <time>2016-11-11T10:50:13Z</time>
      </trkpt>
      <trkpt lat="49.03407" lon="1.14517">
        <ele>98.4</ele>
        <time>2016-11-11T10:50:26Z</time>
      </trkpt>
      <trkpt lat="49.03401" lon="1.14507">
        <ele>98.3</ele>
        <time>2016-11-11T10:50:37Z</time>
      </trkpt>
      <trkpt lat="49.03392" lon="1.14498">
        <ele>98.3</ele>
        <time>2016-11-11T10:50:41Z</time>
      </trkpt>
      <trkpt lat="49.03381" lon="1.14493">
        <ele>98.1</ele>
        <time>2016-11-11T10:50:45Z</time>
      </trkpt>
      <trkpt lat="49.03372" lon="1.14486">
        <ele>97.5</ele>
        <time>2016-11-11T10:50:49Z</time>
      </trkpt>
      <trkpt lat="49.03363" lon="1.14483">
        <ele>96.4</ele>
        <time>2016-11-11T10:50:56Z</time>
      </trkpt>
      <trkpt lat="49.03359" lon="1.1447">
        <ele>95</ele>
        <time>2016-11-11T10:51:10Z</time>
      </trkpt>
      <trkpt lat="49.0335" lon="1.14463">
        <ele>95</ele>
        <time>2016-11-11T10:51:18Z</time>
      </trkpt>
      <trkpt lat="49.0334" lon="1.14462">
        <ele>95</ele>
        <time>2016-11-11T10:51:21Z</time>
      </trkpt>
      <trkpt lat="49.03331" lon="1.14455">
        <ele>95</ele>
        <time>2016-11-11T10:51:24Z</time>
      </trkpt>
      <trkpt lat="49.03326" lon="1.14443">
        <ele>94.9</ele>
        <time>2016-11-11T10:51:27Z</time>
      </trkpt>
      <trkpt lat="49.03334" lon="1.14434">
        <ele>94.7</ele>
        <time>2016-11-11T10:51:46Z</time>
      </trkpt>
      <trkpt lat="49.03343" lon="1.14428">
        <ele>95.7</ele>
        <time>2016-11-11T10:51:54Z</time>
      </trkpt>
      <trkpt lat="49.03343" lon="1.14413">
        <ele>98.3</ele>
        <time>2016-11-11T10:52:14Z</time>
      </trkpt>
      <trkpt lat="49.03341" lon="1.14398">
        <ele>98.8</ele>
        <time>2016-11-11T10:52:20Z</time>
      </trkpt>
      <trkpt lat="49.03345" lon="1.14385">
        <ele>99.3</ele>
        <time>2016-11-11T10:52:26Z</time>
      </trkpt>
      <trkpt lat="49.03351" lon="1.14372">
        <ele>100</ele>
        <time>2016-11-11T10:52:33Z</time>
      </trkpt>
      <trkpt lat="49.03355" lon="1.14359">
        <ele>100.9</ele>
        <time>2016-11-11T10:52:39Z</time>
      </trkpt>
      <trkpt lat="49.0336" lon="1.14347">
        <ele>101.8</ele>
        <time>2016-11-11T10:52:45Z</time>
      </trkpt>
      <trkpt lat="49.03366" lon="1.14336">
        <ele>102.7</ele>
        <time>2016-11-11T10:52:51Z</time>
      </trkpt>
      <trkpt lat="49.03372" lon="1.14325">
        <ele>103.6</ele>
        <time>2016-11-11T10:52:57Z</time>
      </trkpt>
      <trkpt lat="49.03379" lon="1.14312">
        <ele>104.2</ele>
        <time>2016-11-11T10:53:03Z</time>
      </trkpt>
      <trkpt lat="49.03381" lon="1.14298">
        <ele>104.5</ele>
        <time>2016-11-11T10:53:07Z</time>
      </trkpt>
      <trkpt lat="49.03382" lon="1.14284">
        <ele>104.8</ele>
        <time>2016-11-11T10:53:11Z</time>
      </trkpt>
      <trkpt lat="49.03389" lon="1.14274">
        <ele>105</ele>
        <time>2016-11-11T10:53:15Z</time>
      </trkpt>
      <trkpt lat="49.03394" lon="1.1426">
        <ele>105.3</ele>
        <time>2016-11-11T10:53:19Z</time>
      </trkpt>
      <trkpt lat="49.03398" lon="1.14245">
        <ele>105.6</ele>
        <time>2016-11-11T10:53:23Z</time>
      </trkpt>
      <trkpt lat="49.03402" lon="1.14232">
        <ele>105.8</ele>
        <time>2016-11-11T10:53:27Z</time>
      </trkpt>
      <trkpt lat="49.03406" lon="1.14219">
        <ele>106.1</ele>
        <time>2016-11-11T10:53:34Z</time>
      </trkpt>
      <trkpt lat="49.0341" lon="1.14206">
        <ele>106.4</ele>
        <time>2016-11-11T10:53:45Z</time>
      </trkpt>
      <trkpt lat="49.03413" lon="1.14191">
        <ele>106.8</ele>
        <time>2016-11-11T10:54:00Z</time>
      </trkpt>
      <trkpt lat="49.03419" lon="1.14177">
        <ele>106.9</ele>
        <time>2016-11-11T10:54:04Z</time>
      </trkpt>
      <trkpt lat="49.03426" lon="1.14168">
        <ele>107.1</ele>
        <time>2016-11-11T10:54:10Z</time>
      </trkpt>
      <trkpt lat="49.03431" lon="1.14156">
        <ele>107.3</ele>
        <time>2016-11-11T10:54:14Z</time>
      </trkpt>
      <trkpt lat="49.03435" lon="1.14143">
        <ele>107.6</ele>
        <time>2016-11-11T10:54:18Z</time>
      </trkpt>
      <trkpt lat="49.03435" lon="1.14125">
        <ele>107.9</ele>
        <time>2016-11-11T10:54:22Z</time>
      </trkpt>
      <trkpt lat="49.03434" lon="1.14109">
        <ele>108.1</ele>
        <time>2016-11-11T10:54:26Z</time>
      </trkpt>
      <trkpt lat="49.03428" lon="1.14094">
        <ele>108.3</ele>
        <time>2016-11-11T10:54:30Z</time>
      </trkpt>
      <trkpt lat="49.03421" lon="1.14083">
        <ele>108.4</ele>
        <time>2016-11-11T10:54:33Z</time>
      </trkpt>
      <trkpt lat="49.03411" lon="1.1408">
        <ele>108.5</ele>
        <time>2016-11-11T10:54:37Z</time>
      </trkpt>
      <trkpt lat="49.03403" lon="1.14087">
        <ele>108.5</ele>
        <time>2016-11-11T10:54:42Z</time>
      </trkpt>
      <trkpt lat="49.03392" lon="1.14084">
        <ele>108.3</ele>
        <time>2016-11-11T10:54:47Z</time>
      </trkpt>
      <trkpt lat="49.03381" lon="1.14086">
        <ele>108.2</ele>
        <time>2016-11-11T10:54:50Z</time>
      </trkpt>
      <trkpt lat="49.03369" lon="1.14089">
        <ele>108.1</ele>
        <time>2016-11-11T10:54:53Z</time>
      </trkpt>
      <trkpt lat="49.0336" lon="1.14086">
        <ele>108</ele>
        <time>2016-11-11T10:54:56Z</time>
      </trkpt>
      <trkpt lat="49.03347" lon="1.14083">
        <ele>107.7</ele>
        <time>2016-11-11T10:54:59Z</time>
      </trkpt>
      <trkpt lat="49.03338" lon="1.1409">
        <ele>106.9</ele>
        <time>2016-11-11T10:55:05Z</time>
      </trkpt>
      <trkpt lat="49.03332" lon="1.14101">
        <ele>106</ele>
        <time>2016-11-11T10:55:11Z</time>
      </trkpt>
      <trkpt lat="49.03329" lon="1.14116">
        <ele>105.6</ele>
        <time>2016-11-11T10:55:15Z</time>
      </trkpt>
      <trkpt lat="49.0333" lon="1.14131">
        <ele>105.2</ele>
        <time>2016-11-11T10:55:18Z</time>
      </trkpt>
      <trkpt lat="49.03328" lon="1.14149">
        <ele>104.9</ele>
        <time>2016-11-11T10:55:21Z</time>
      </trkpt>
      <trkpt lat="49.03325" lon="1.14164">
        <ele>104.5</ele>
        <time>2016-11-11T10:55:24Z</time>
      </trkpt>
      <trkpt lat="49.03329" lon="1.14177">
        <ele>103.8</ele>
        <time>2016-11-11T10:55:29Z</time>
      </trkpt>
      <trkpt lat="49.03335" lon="1.14192">
        <ele>103.3</ele>
        <time>2016-11-11T10:55:33Z</time>
      </trkpt>
      <trkpt lat="49.03335" lon="1.1421">
        <ele>102.9</ele>
        <time>2016-11-11T10:55:37Z</time>
      </trkpt>
      <trkpt lat="49.03336" lon="1.14226">
        <ele>102.6</ele>
        <time>2016-11-11T10:55:41Z</time>
      </trkpt>
      <trkpt lat="49.03343" lon="1.1424">
        <ele>102.3</ele>
        <time>2016-11-11T10:55:45Z</time>
      </trkpt>
      <trkpt lat="49.03352" lon="1.1425">
        <ele>102.2</ele>
        <time>2016-11-11T10:55:48Z</time>
      </trkpt>
      <trkpt lat="49.03358" lon="1.1426">
        <ele>102.4</ele>
        <time>2016-11-11T10:55:51Z</time>
      </trkpt>
      <trkpt lat="49.03366" lon="1.14269">
        <ele>102.7</ele>
        <time>2016-11-11T10:55:55Z</time>
      </trkpt>
      <trkpt lat="49.03376" lon="1.14274">
        <ele>103.1</ele>
        <time>2016-11-11T10:56:00Z</time>
      </trkpt>
      <trkpt lat="49.03381" lon="1.14286">
        <ele>103.5</ele>
        <time>2016-11-11T10:56:04Z</time>
      </trkpt>
      <trkpt lat="49.03388" lon="1.14298">
        <ele>104.1</ele>
        <time>2016-11-11T10:56:11Z</time>
      </trkpt>
      <trkpt lat="49.0339" lon="1.14312">
        <ele>105.4</ele>
        <time>2016-11-11T10:57:33Z</time>
      </trkpt>
      <trkpt lat="49.0338" lon="1.14319">
        <ele>105.4</ele>
        <time>2016-11-11T10:57:57Z</time>
      </trkpt>
      <trkpt lat="49.03373" lon="1.14329">
        <ele>105.4</ele>
        <time>2016-11-11T10:58:01Z</time>
      </trkpt>
      <trkpt lat="49.03366" lon="1.14342">
        <ele>105.3</ele>
        <time>2016-11-11T10:58:04Z</time>
      </trkpt>
      <trkpt lat="49.03359" lon="1.14359">
        <ele>105.1</ele>
        <time>2016-11-11T10:58:07Z</time>
      </trkpt>
      <trkpt lat="49.03353" lon="1.14373">
        <ele>104.9</ele>
        <time>2016-11-11T10:58:09Z</time>
      </trkpt>
      <trkpt lat="49.03347" lon="1.14387">
        <ele>104.4</ele>
        <time>2016-11-11T10:58:11Z</time>
      </trkpt>
      <trkpt lat="49.03345" lon="1.14402">
        <ele>103.7</ele>
        <time>2016-11-11T10:58:14Z</time>
      </trkpt>
      <trkpt lat="49.03343" lon="1.14418">
        <ele>102.3</ele>
        <time>2016-11-11T10:58:19Z</time>
      </trkpt>
      <trkpt lat="49.03334" lon="1.14428">
        <ele>100.6</ele>
        <time>2016-11-11T10:58:24Z</time>
      </trkpt>
      <trkpt lat="49.03325" lon="1.14437">
        <ele>99.6</ele>
        <time>2016-11-11T10:58:26Z</time>
      </trkpt>
      <trkpt lat="49.03317" lon="1.14445">
        <ele>98.7</ele>
        <time>2016-11-11T10:58:28Z</time>
      </trkpt>
      <trkpt lat="49.03307" lon="1.14453">
        <ele>97.8</ele>
        <time>2016-11-11T10:58:30Z</time>
      </trkpt>
      <trkpt lat="49.03297" lon="1.14459">
        <ele>97.1</ele>
        <time>2016-11-11T10:58:32Z</time>
      </trkpt>
      <trkpt lat="49.03286" lon="1.14466">
        <ele>96.1</ele>
        <time>2016-11-11T10:58:35Z</time>
      </trkpt>
      <trkpt lat="49.03277" lon="1.1447">
        <ele>95</ele>
        <time>2016-11-11T10:58:38Z</time>
      </trkpt>
      <trkpt lat="49.0327" lon="1.14481">
        <ele>93.9</ele>
        <time>2016-11-11T10:58:42Z</time>
      </trkpt>
      <trkpt lat="49.03274" lon="1.14496">
        <ele>93.1</ele>
        <time>2016-11-11T10:58:45Z</time>
      </trkpt>
      <trkpt lat="49.03281" lon="1.14513">
        <ele>92.5</ele>
        <time>2016-11-11T10:58:48Z</time>
      </trkpt>
      <trkpt lat="49.03286" lon="1.14526">
        <ele>92</ele>
        <time>2016-11-11T10:58:50Z</time>
      </trkpt>
      <trkpt lat="49.03293" lon="1.14538">
        <ele>91.6</ele>
        <time>2016-11-11T10:58:52Z</time>
      </trkpt>
      <trkpt lat="49.03299" lon="1.14551">
        <ele>91.2</ele>
        <time>2016-11-11T10:58:54Z</time>
      </trkpt>
      <trkpt lat="49.03306" lon="1.14565">
        <ele>90.7</ele>
        <time>2016-11-11T10:58:56Z</time>
      </trkpt>
      <trkpt lat="49.03313" lon="1.1458">
        <ele>90.3</ele>
        <time>2016-11-11T10:58:58Z</time>
      </trkpt>
      <trkpt lat="49.03322" lon="1.14595">
        <ele>89.8</ele>
        <time>2016-11-11T10:59:00Z</time>
      </trkpt>
      <trkpt lat="49.0333" lon="1.14612">
        <ele>89.4</ele>
        <time>2016-11-11T10:59:02Z</time>
      </trkpt>
      <trkpt lat="49.03339" lon="1.14629">
        <ele>88.9</ele>
        <time>2016-11-11T10:59:04Z</time>
      </trkpt>
      <trkpt lat="49.03349" lon="1.14645">
        <ele>88.3</ele>
        <time>2016-11-11T10:59:06Z</time>
      </trkpt>
      <trkpt lat="49.0336" lon="1.14661">
        <ele>87.8</ele>
        <time>2016-11-11T10:59:08Z</time>
      </trkpt>
      <trkpt lat="49.03371" lon="1.14676">
        <ele>87.1</ele>
        <time>2016-11-11T10:59:10Z</time>
      </trkpt>
      <trkpt lat="49.03382" lon="1.14692">
        <ele>86.3</ele>
        <time>2016-11-11T10:59:12Z</time>
      </trkpt>
      <trkpt lat="49.03395" lon="1.14709">
        <ele>85.6</ele>
        <time>2016-11-11T10:59:14Z</time>
      </trkpt>
      <trkpt lat="49.03407" lon="1.14725">
        <ele>85</ele>
        <time>2016-11-11T10:59:16Z</time>
      </trkpt>
      <trkpt lat="49.03418" lon="1.14743">
        <ele>84.3</ele>
        <time>2016-11-11T10:59:18Z</time>
      </trkpt>
      <trkpt lat="49.03428" lon="1.14763">
        <ele>83.6</ele>
        <time>2016-11-11T10:59:20Z</time>
      </trkpt>
      <trkpt lat="49.03435" lon="1.14786">
        <ele>82.8</ele>
        <time>2016-11-11T10:59:22Z</time>
      </trkpt>
      <trkpt lat="49.03441" lon="1.14811">
        <ele>81.9</ele>
        <time>2016-11-11T10:59:24Z</time>
      </trkpt>
      <trkpt lat="49.03444" lon="1.14837">
        <ele>81.1</ele>
        <time>2016-11-11T10:59:26Z</time>
      </trkpt>
      <trkpt lat="49.03444" lon="1.14864">
        <ele>80.3</ele>
        <time>2016-11-11T10:59:28Z</time>
      </trkpt>
      <trkpt lat="49.03443" lon="1.14879">
        <ele>79.8</ele>
        <time>2016-11-11T10:59:29Z</time>
      </trkpt>
      <trkpt lat="49.03441" lon="1.14893">
        <ele>79.3</ele>
        <time>2016-11-11T10:59:30Z</time>
      </trkpt>
      <trkpt lat="49.03439" lon="1.14907">
        <ele>78.9</ele>
        <time>2016-11-11T10:59:31Z</time>
      </trkpt>
      <trkpt lat="49.03436" lon="1.1492">
        <ele>78.4</ele>
        <time>2016-11-11T10:59:32Z</time>
      </trkpt>
      <trkpt lat="49.03433" lon="1.14934">
        <ele>77.9</ele>
        <time>2016-11-11T10:59:33Z</time>
      </trkpt>
      <trkpt lat="49.03431" lon="1.14949">
        <ele>77.4</ele>
        <time>2016-11-11T10:59:34Z</time>
      </trkpt>
      <trkpt lat="49.03428" lon="1.14963">
        <ele>76.9</ele>
        <time>2016-11-11T10:59:35Z</time>
      </trkpt>
      <trkpt lat="49.03426" lon="1.14978">
        <ele>76.4</ele>
        <time>2016-11-11T10:59:36Z</time>
      </trkpt>
      <trkpt lat="49.03423" lon="1.14992">
        <ele>75.8</ele>
        <time>2016-11-11T10:59:37Z</time>
      </trkpt>
      <trkpt lat="49.0342" lon="1.15007">
        <ele>75.2</ele>
        <time>2016-11-11T10:59:38Z</time>
      </trkpt>
      <trkpt lat="49.03418" lon="1.15022">
        <ele>74.7</ele>
        <time>2016-11-11T10:59:39Z</time>
      </trkpt>
      <trkpt lat="49.03415" lon="1.15037">
        <ele>74.1</ele>
        <time>2016-11-11T10:59:40Z</time>
      </trkpt>
      <trkpt lat="49.03413" lon="1.15052">
        <ele>73.5</ele>
        <time>2016-11-11T10:59:41Z</time>
      </trkpt>
      <trkpt lat="49.0341" lon="1.15067">
        <ele>73</ele>
        <time>2016-11-11T10:59:42Z</time>
      </trkpt>
      <trkpt lat="49.03409" lon="1.15082">
        <ele>72.4</ele>
        <time>2016-11-11T10:59:43Z</time>
      </trkpt>
      <trkpt lat="49.03408" lon="1.15099">
        <ele>71.8</ele>
        <time>2016-11-11T10:59:44Z</time>
      </trkpt>
      <trkpt lat="49.03406" lon="1.15114">
        <ele>71.2</ele>
        <time>2016-11-11T10:59:45Z</time>
      </trkpt>
      <trkpt lat="49.03405" lon="1.15131">
        <ele>70.6</ele>
        <time>2016-11-11T10:59:46Z</time>
      </trkpt>
      <trkpt lat="49.03404" lon="1.15148">
        <ele>70</ele>
        <time>2016-11-11T10:59:47Z</time>
      </trkpt>
      <trkpt lat="49.03404" lon="1.15165">
        <ele>69.3</ele>
        <time>2016-11-11T10:59:48Z</time>
      </trkpt>
      <trkpt lat="49.03403" lon="1.15182">
        <ele>68.7</ele>
        <time>2016-11-11T10:59:49Z</time>
      </trkpt>
      <trkpt lat="49.03402" lon="1.15199">
        <ele>68.1</ele>
        <time>2016-11-11T10:59:50Z</time>
      </trkpt>
      <trkpt lat="49.03402" lon="1.15216">
        <ele>67.5</ele>
        <time>2016-11-11T10:59:51Z</time>
      </trkpt>
      <trkpt lat="49.03402" lon="1.15232">
        <ele>66.8</ele>
        <time>2016-11-11T10:59:52Z</time>
      </trkpt>
      <trkpt lat="49.03402" lon="1.1525">
        <ele>66.2</ele>
        <time>2016-11-11T10:59:53Z</time>
      </trkpt>
      <trkpt lat="49.03403" lon="1.15267">
        <ele>65.6</ele>
        <time>2016-11-11T10:59:54Z</time>
      </trkpt>
      <trkpt lat="49.03405" lon="1.15285">
        <ele>64.9</ele>
        <time>2016-11-11T10:59:55Z</time>
      </trkpt>
      <trkpt lat="49.03407" lon="1.15302">
        <ele>64.2</ele>
        <time>2016-11-11T10:59:56Z</time>
      </trkpt>
      <trkpt lat="49.0341" lon="1.15319">
        <ele>63.6</ele>
        <time>2016-11-11T10:59:57Z</time>
      </trkpt>
      <trkpt lat="49.03415" lon="1.15334">
        <ele>62.9</ele>
        <time>2016-11-11T10:59:58Z</time>
      </trkpt>
      <trkpt lat="49.0342" lon="1.1535">
        <ele>62.2</ele>
        <time>2016-11-11T10:59:59Z</time>
      </trkpt>
      <trkpt lat="49.03425" lon="1.15365">
        <ele>61.4</ele>
        <time>2016-11-11T11:00:00Z</time>
      </trkpt>
      <trkpt lat="49.03431" lon="1.1538">
        <ele>60.7</ele>
        <time>2016-11-11T11:00:01Z</time>
      </trkpt>
      <trkpt lat="49.03436" lon="1.15395">
        <ele>60</ele>
        <time>2016-11-11T11:00:02Z</time>
      </trkpt>
      <trkpt lat="49.03442" lon="1.1541">
        <ele>59.3</ele>
        <time>2016-11-11T11:00:03Z</time>
      </trkpt>
      <trkpt lat="49.03448" lon="1.15425">
        <ele>58.7</ele>
        <time>2016-11-11T11:00:04Z</time>
      </trkpt>
      <trkpt lat="49.03454" lon="1.1544">
        <ele>57.9</ele>
        <time>2016-11-11T11:00:05Z</time>
      </trkpt>
      <trkpt lat="49.0346" lon="1.15456">
        <ele>57.1</ele>
        <time>2016-11-11T11:00:06Z</time>
      </trkpt>
      <trkpt lat="49.03466" lon="1.15471">
        <ele>56.4</ele>
        <time>2016-11-11T11:00:07Z</time>
      </trkpt>
      <trkpt lat="49.0347" lon="1.15485">
        <ele>55.7</ele>
        <time>2016-11-11T11:00:08Z</time>
      </trkpt>
      <trkpt lat="49.03471" lon="1.15499">
        <ele>55</ele>
        <time>2016-11-11T11:00:09Z</time>
      </trkpt>
      <trkpt lat="49.03468" lon="1.15524">
        <ele>53.6</ele>
        <time>2016-11-11T11:00:11Z</time>
      </trkpt>
      <trkpt lat="49.03458" lon="1.1554">
        <ele>52.1</ele>
        <time>2016-11-11T11:00:13Z</time>
      </trkpt>
      <trkpt lat="49.03447" lon="1.15542">
        <ele>50.8</ele>
        <time>2016-11-11T11:00:15Z</time>
      </trkpt>
      <trkpt lat="49.03438" lon="1.15535">
        <ele>49.5</ele>
        <time>2016-11-11T11:00:17Z</time>
      </trkpt>
      <trkpt lat="49.03427" lon="1.15525">
        <ele>47.8</ele>
        <time>2016-11-11T11:00:20Z</time>
      </trkpt>
      <trkpt lat="49.03419" lon="1.15519">
        <ele>46.8</ele>
        <time>2016-11-11T11:00:22Z</time>
      </trkpt>
      <trkpt lat="49.0341" lon="1.15513">
        <ele>45.8</ele>
        <time>2016-11-11T11:00:24Z</time>
      </trkpt>
      <trkpt lat="49.03401" lon="1.15505">
        <ele>45</ele>
        <time>2016-11-11T11:00:26Z</time>
      </trkpt>
      <trkpt lat="49.03393" lon="1.15497">
        <ele>44.3</ele>
        <time>2016-11-11T11:00:28Z</time>
      </trkpt>
      <trkpt lat="49.03383" lon="1.1549">
        <ele>43.7</ele>
        <time>2016-11-11T11:00:30Z</time>
      </trkpt>
      <trkpt lat="49.03374" lon="1.15482">
        <ele>43.2</ele>
        <time>2016-11-11T11:00:32Z</time>
      </trkpt>
      <trkpt lat="49.03365" lon="1.15474">
        <ele>42.7</ele>
        <time>2016-11-11T11:00:34Z</time>
      </trkpt>
      <trkpt lat="49.03356" lon="1.15466">
        <ele>42.3</ele>
        <time>2016-11-11T11:00:36Z</time>
      </trkpt>
      <trkpt lat="49.03347" lon="1.15458">
        <ele>41.9</ele>
        <time>2016-11-11T11:00:38Z</time>
      </trkpt>
      <trkpt lat="49.03339" lon="1.1545">
        <ele>41.6</ele>
        <time>2016-11-11T11:00:40Z</time>
      </trkpt>
      <trkpt lat="49.03331" lon="1.15442">
        <ele>41.1</ele>
        <time>2016-11-11T11:00:43Z</time>
      </trkpt>
      <trkpt lat="49.03326" lon="1.15431">
        <ele>40.8</ele>
        <time>2016-11-11T11:00:46Z</time>
      </trkpt>
      <trkpt lat="49.03318" lon="1.15413">
        <ele>40.5</ele>
        <time>2016-11-11T11:00:49Z</time>
      </trkpt>
      <trkpt lat="49.03311" lon="1.15399">
        <ele>40.4</ele>
        <time>2016-11-11T11:00:51Z</time>
      </trkpt>
      <trkpt lat="49.03305" lon="1.15384">
        <ele>40.2</ele>
        <time>2016-11-11T11:00:53Z</time>
      </trkpt>
      <trkpt lat="49.03298" lon="1.1537">
        <ele>40.2</ele>
        <time>2016-11-11T11:00:55Z</time>
      </trkpt>
      <trkpt lat="49.03291" lon="1.15356">
        <ele>40.1</ele>
        <time>2016-11-11T11:00:57Z</time>
      </trkpt>
      <trkpt lat="49.03285" lon="1.15341">
        <ele>40.1</ele>
        <time>2016-11-11T11:00:59Z</time>
      </trkpt>
      <trkpt lat="49.03279" lon="1.15329">
        <ele>40.1</ele>
        <time>2016-11-11T11:01:01Z</time>
      </trkpt>
      <trkpt lat="49.03273" lon="1.15316">
        <ele>40.1</ele>
        <time>2016-11-11T11:01:03Z</time>
      </trkpt>
      <trkpt lat="49.03267" lon="1.15303">
        <ele>40.2</ele>
        <time>2016-11-11T11:01:05Z</time>
      </trkpt>
      <trkpt lat="49.0326" lon="1.15289">
        <ele>40.2</ele>
        <time>2016-11-11T11:01:07Z</time>
      </trkpt>
      <trkpt lat="49.03253" lon="1.15275">
        <ele>40.2</ele>
        <time>2016-11-11T11:01:09Z</time>
      </trkpt>
      <trkpt lat="49.03247" lon="1.15261">
        <ele>40.3</ele>
        <time>2016-11-11T11:01:11Z</time>
      </trkpt>
      <trkpt lat="49.0324" lon="1.15245">
        <ele>40.3</ele>
        <time>2016-11-11T11:01:13Z</time>
      </trkpt>
      <trkpt lat="49.03233" lon="1.15228">
        <ele>40.3</ele>
        <time>2016-11-11T11:01:15Z</time>
      </trkpt>
      <trkpt lat="49.03226" lon="1.15212">
        <ele>40.3</ele>
        <time>2016-11-11T11:01:17Z</time>
      </trkpt>
      <trkpt lat="49.03219" lon="1.15197">
        <ele>40.3</ele>
        <time>2016-11-11T11:01:19Z</time>
      </trkpt>
      <trkpt lat="49.03211" lon="1.1518">
        <ele>40.3</ele>
        <time>2016-11-11T11:01:21Z</time>
      </trkpt>
      <trkpt lat="49.03205" lon="1.15165">
        <ele>40.3</ele>
        <time>2016-11-11T11:01:23Z</time>
      </trkpt>
      <trkpt lat="49.03198" lon="1.15149">
        <ele>40.4</ele>
        <time>2016-11-11T11:01:25Z</time>
      </trkpt>
      <trkpt lat="49.03191" lon="1.15134">
        <ele>40.4</ele>
        <time>2016-11-11T11:01:27Z</time>
      </trkpt>
      <trkpt lat="49.03185" lon="1.15118">
        <ele>40.4</ele>
        <time>2016-11-11T11:01:29Z</time>
      </trkpt>
      <trkpt lat="49.03178" lon="1.15103">
        <ele>40.4</ele>
        <time>2016-11-11T11:01:31Z</time>
      </trkpt>
      <trkpt lat="49.03171" lon="1.15086">
        <ele>40.4</ele>
        <time>2016-11-11T11:01:33Z</time>
      </trkpt>
      <trkpt lat="49.03164" lon="1.15071">
        <ele>40.4</ele>
        <time>2016-11-11T11:01:35Z</time>
      </trkpt>
      <trkpt lat="49.03157" lon="1.15055">
        <ele>40.4</ele>
        <time>2016-11-11T11:01:37Z</time>
      </trkpt>
      <trkpt lat="49.0315" lon="1.15039">
        <ele>40.4</ele>
        <time>2016-11-11T11:01:39Z</time>
      </trkpt>
      <trkpt lat="49.03143" lon="1.15022">
        <ele>40.4</ele>
        <time>2016-11-11T11:01:41Z</time>
      </trkpt>
      <trkpt lat="49.03136" lon="1.15006">
        <ele>40.4</ele>
        <time>2016-11-11T11:01:43Z</time>
      </trkpt>
      <trkpt lat="49.03129" lon="1.14989">
        <ele>40.4</ele>
        <time>2016-11-11T11:01:45Z</time>
      </trkpt>
      <trkpt lat="49.03122" lon="1.14972">
        <ele>40.5</ele>
        <time>2016-11-11T11:01:47Z</time>
      </trkpt>
      <trkpt lat="49.03115" lon="1.14954">
        <ele>40.5</ele>
        <time>2016-11-11T11:01:49Z</time>
      </trkpt>
      <trkpt lat="49.03107" lon="1.14937">
        <ele>40.5</ele>
        <time>2016-11-11T11:01:51Z</time>
      </trkpt>
      <trkpt lat="49.031" lon="1.14918">
        <ele>40.6</ele>
        <time>2016-11-11T11:01:53Z</time>
      </trkpt>
      <trkpt lat="49.03093" lon="1.149">
        <ele>40.6</ele>
        <time>2016-11-11T11:01:55Z</time>
      </trkpt>
      <trkpt lat="49.03086" lon="1.14882">
        <ele>40.6</ele>
        <time>2016-11-11T11:01:57Z</time>
      </trkpt>
      <trkpt lat="49.03078" lon="1.14865">
        <ele>40.6</ele>
        <time>2016-11-11T11:01:59Z</time>
      </trkpt>
      <trkpt lat="49.03072" lon="1.14847">
        <ele>40.6</ele>
        <time>2016-11-11T11:02:01Z</time>
      </trkpt>
      <trkpt lat="49.03065" lon="1.1483">
        <ele>40.6</ele>
        <time>2016-11-11T11:02:03Z</time>
      </trkpt>
      <trkpt lat="49.03058" lon="1.14811">
        <ele>40.6</ele>
        <time>2016-11-11T11:02:05Z</time>
      </trkpt>
      <trkpt lat="49.03051" lon="1.14793">
        <ele>40.6</ele>
        <time>2016-11-11T11:02:07Z</time>
      </trkpt>
      <trkpt lat="49.03044" lon="1.14777">
        <ele>40.6</ele>
        <time>2016-11-11T11:02:09Z</time>
      </trkpt>
      <trkpt lat="49.03039" lon="1.14762">
        <ele>40.6</ele>
        <time>2016-11-11T11:02:11Z</time>
      </trkpt>
      <trkpt lat="49.03034" lon="1.14749">
        <ele>40.6</ele>
        <time>2016-11-11T11:02:13Z</time>
      </trkpt>
      <trkpt lat="49.03028" lon="1.14738">
        <ele>40.6</ele>
        <time>2016-11-11T11:02:16Z</time>
      </trkpt>
      <trkpt lat="49.03018" lon="1.14742">
        <ele>40.6</ele>
        <time>2016-11-11T11:02:19Z</time>
      </trkpt>
      <trkpt lat="49.03007" lon="1.14753">
        <ele>40.6</ele>
        <time>2016-11-11T11:02:22Z</time>
      </trkpt>
      <trkpt lat="49.02999" lon="1.1476">
        <ele>40.6</ele>
        <time>2016-11-11T11:02:24Z</time>
      </trkpt>
      <trkpt lat="49.02987" lon="1.14761">
        <ele>40.5</ele>
        <time>2016-11-11T11:02:27Z</time>
      </trkpt>
      <trkpt lat="49.02979" lon="1.14755">
        <ele>40.5</ele>
        <time>2016-11-11T11:02:29Z</time>
      </trkpt>
      <trkpt lat="49.02969" lon="1.14751">
        <ele>40.5</ele>
        <time>2016-11-11T11:02:31Z</time>
      </trkpt>
      <trkpt lat="49.02958" lon="1.14746">
        <ele>40.4</ele>
        <time>2016-11-11T11:02:33Z</time>
      </trkpt>
      <trkpt lat="49.02949" lon="1.14741">
        <ele>40.4</ele>
        <time>2016-11-11T11:02:35Z</time>
      </trkpt>
      <trkpt lat="49.02941" lon="1.14735">
        <ele>40.4</ele>
        <time>2016-11-11T11:02:37Z</time>
      </trkpt>
      <trkpt lat="49.02928" lon="1.14726">
        <ele>40.3</ele>
        <time>2016-11-11T11:02:40Z</time>
      </trkpt>
      <trkpt lat="49.02918" lon="1.14717">
        <ele>40.2</ele>
        <time>2016-11-11T11:02:42Z</time>
      </trkpt>
      <trkpt lat="49.02908" lon="1.14706">
        <ele>40.1</ele>
        <time>2016-11-11T11:02:44Z</time>
      </trkpt>
      <trkpt lat="49.02897" lon="1.14695">
        <ele>40.1</ele>
        <time>2016-11-11T11:02:46Z</time>
      </trkpt>
      <trkpt lat="49.02888" lon="1.14685">
        <ele>40</ele>
        <time>2016-11-11T11:02:48Z</time>
      </trkpt>
      <trkpt lat="49.0288" lon="1.14669">
        <ele>40</ele>
        <time>2016-11-11T11:02:50Z</time>
      </trkpt>
      <trkpt lat="49.02873" lon="1.14652">
        <ele>39.9</ele>
        <time>2016-11-11T11:02:52Z</time>
      </trkpt>
      <trkpt lat="49.0287" lon="1.14637">
        <ele>39.9</ele>
        <time>2016-11-11T11:02:54Z</time>
      </trkpt>
      <trkpt lat="49.02869" lon="1.14622">
        <ele>39.8</ele>
        <time>2016-11-11T11:02:56Z</time>
      </trkpt>
      <trkpt lat="49.02872" lon="1.14603">
        <ele>39.8</ele>
        <time>2016-11-11T11:02:59Z</time>
      </trkpt>
      <trkpt lat="49.0287" lon="1.1459">
        <ele>39.8</ele>
        <time>2016-11-11T11:03:01Z</time>
      </trkpt>
      <trkpt lat="49.02865" lon="1.14575">
        <ele>39.8</ele>
        <time>2016-11-11T11:03:03Z</time>
      </trkpt>
      <trkpt lat="49.02861" lon="1.14558">
        <ele>39.8</ele>
        <time>2016-11-11T11:03:05Z</time>
      </trkpt>
      <trkpt lat="49.02859" lon="1.14544">
        <ele>39.8</ele>
        <time>2016-11-11T11:03:07Z</time>
      </trkpt>
      <trkpt lat="49.02857" lon="1.1453">
        <ele>39.8</ele>
        <time>2016-11-11T11:03:09Z</time>
      </trkpt>
      <trkpt lat="49.02849" lon="1.14516">
        <ele>39.8</ele>
        <time>2016-11-11T11:03:12Z</time>
      </trkpt>
      <trkpt lat="49.02838" lon="1.14513">
        <ele>39.8</ele>
        <time>2016-11-11T11:03:14Z</time>
      </trkpt>
      <trkpt lat="49.02828" lon="1.14515">
        <ele>39.8</ele>
        <time>2016-11-11T11:03:16Z</time>
      </trkpt>
      <trkpt lat="49.02817" lon="1.14522">
        <ele>39.7</ele>
        <time>2016-11-11T11:03:19Z</time>
      </trkpt>
      <trkpt lat="49.02805" lon="1.14523">
        <ele>39.7</ele>
        <time>2016-11-11T11:03:22Z</time>
      </trkpt>
      <trkpt lat="49.02797" lon="1.14514">
        <ele>39.7</ele>
        <time>2016-11-11T11:03:25Z</time>
      </trkpt>
      <trkpt lat="49.02792" lon="1.14496">
        <ele>39.7</ele>
        <time>2016-11-11T11:03:28Z</time>
      </trkpt>
      <trkpt lat="49.02789" lon="1.14483">
        <ele>39.7</ele>
        <time>2016-11-11T11:03:30Z</time>
      </trkpt>
      <trkpt lat="49.02786" lon="1.14469">
        <ele>39.7</ele>
        <time>2016-11-11T11:03:32Z</time>
      </trkpt>
      <trkpt lat="49.02782" lon="1.14457">
        <ele>39.6</ele>
        <time>2016-11-11T11:03:34Z</time>
      </trkpt>
      <trkpt lat="49.02777" lon="1.14439">
        <ele>39.6</ele>
        <time>2016-11-11T11:03:37Z</time>
      </trkpt>
      <trkpt lat="49.02773" lon="1.14424">
        <ele>39.6</ele>
        <time>2016-11-11T11:03:41Z</time>
      </trkpt>
      <trkpt lat="49.02769" lon="1.1441">
        <ele>39.6</ele>
        <time>2016-11-11T11:03:52Z</time>
      </trkpt>
      <trkpt lat="49.02764" lon="1.14391">
        <ele>39.6</ele>
        <time>2016-11-11T11:03:55Z</time>
      </trkpt>
      <trkpt lat="49.02759" lon="1.14374">
        <ele>39.6</ele>
        <time>2016-11-11T11:03:57Z</time>
      </trkpt>
      <trkpt lat="49.02753" lon="1.14355">
        <ele>39.6</ele>
        <time>2016-11-11T11:03:59Z</time>
      </trkpt>
      <trkpt lat="49.02745" lon="1.14326">
        <ele>39</ele>
        <time>2016-11-11T11:04:02Z</time>
      </trkpt>
      <trkpt lat="49.02735" lon="1.14295">
        <ele>39.6</ele>
        <time>2016-11-11T11:04:05Z</time>
      </trkpt>
      <trkpt lat="49.02729" lon="1.14275">
        <ele>39.6</ele>
        <time>2016-11-11T11:04:07Z</time>
      </trkpt>
      <trkpt lat="49.02723" lon="1.14255">
        <ele>39.6</ele>
        <time>2016-11-11T11:04:09Z</time>
      </trkpt>
      <trkpt lat="49.02717" lon="1.14235">
        <ele>39.7</ele>
        <time>2016-11-11T11:04:11Z</time>
      </trkpt>
      <trkpt lat="49.02712" lon="1.14214">
        <ele>39.7</ele>
        <time>2016-11-11T11:04:13Z</time>
      </trkpt>
      <trkpt lat="49.02707" lon="1.14193">
        <ele>39.7</ele>
        <time>2016-11-11T11:04:15Z</time>
      </trkpt>
      <trkpt lat="49.02702" lon="1.14172">
        <ele>39.7</ele>
        <time>2016-11-11T11:04:17Z</time>
      </trkpt>
      <trkpt lat="49.02697" lon="1.14152">
        <ele>39.7</ele>
        <time>2016-11-11T11:04:19Z</time>
      </trkpt>
      <trkpt lat="49.02686" lon="1.14141">
        <ele>39.7</ele>
        <time>2016-11-11T11:04:21Z</time>
      </trkpt>
      <trkpt lat="49.02673" lon="1.14145">
        <ele>39.7</ele>
        <time>2016-11-11T11:04:23Z</time>
      </trkpt>
      <trkpt lat="49.02663" lon="1.14159">
        <ele>39.7</ele>
        <time>2016-11-11T11:04:25Z</time>
      </trkpt>
      <trkpt lat="49.02656" lon="1.14179">
        <ele>39.7</ele>
        <time>2016-11-11T11:04:27Z</time>
      </trkpt>
      <trkpt lat="49.02649" lon="1.14199">
        <ele>39.7</ele>
        <time>2016-11-11T11:04:29Z</time>
      </trkpt>
      <trkpt lat="49.02641" lon="1.14217">
        <ele>39.8</ele>
        <time>2016-11-11T11:04:31Z</time>
      </trkpt>
      <trkpt lat="49.02631" lon="1.14233">
        <ele>39.8</ele>
        <time>2016-11-11T11:04:33Z</time>
      </trkpt>
      <trkpt lat="49.02621" lon="1.14248">
        <ele>39.8</ele>
        <time>2016-11-11T11:04:35Z</time>
      </trkpt>
      <trkpt lat="49.02608" lon="1.14262">
        <ele>39.8</ele>
        <time>2016-11-11T11:04:37Z</time>
      </trkpt>
      <trkpt lat="49.02595" lon="1.14275">
        <ele>39.9</ele>
        <time>2016-11-11T11:04:39Z</time>
      </trkpt>
      <trkpt lat="49.02582" lon="1.14285">
        <ele>39.9</ele>
        <time>2016-11-11T11:04:41Z</time>
      </trkpt>
      <trkpt lat="49.02568" lon="1.14293">
        <ele>40</ele>
        <time>2016-11-11T11:04:43Z</time>
      </trkpt>
      <trkpt lat="49.02554" lon="1.143">
        <ele>40.1</ele>
        <time>2016-11-11T11:04:45Z</time>
      </trkpt>
      <trkpt lat="49.0254" lon="1.14307">
        <ele>40.3</ele>
        <time>2016-11-11T11:04:47Z</time>
      </trkpt>
      <trkpt lat="49.02526" lon="1.14312">
        <ele>40.4</ele>
        <time>2016-11-11T11:04:49Z</time>
      </trkpt>
      <trkpt lat="49.02511" lon="1.14319">
        <ele>40.5</ele>
        <time>2016-11-11T11:04:51Z</time>
      </trkpt>
      <trkpt lat="49.02497" lon="1.14325">
        <ele>40.6</ele>
        <time>2016-11-11T11:04:53Z</time>
      </trkpt>
      <trkpt lat="49.02482" lon="1.1433">
        <ele>40.7</ele>
        <time>2016-11-11T11:04:55Z</time>
      </trkpt>
      <trkpt lat="49.02468" lon="1.14333">
        <ele>40.7</ele>
        <time>2016-11-11T11:04:57Z</time>
      </trkpt>
      <trkpt lat="49.02454" lon="1.14337">
        <ele>40.8</ele>
        <time>2016-11-11T11:04:59Z</time>
      </trkpt>
      <trkpt lat="49.02439" lon="1.14342">
        <ele>40.9</ele>
        <time>2016-11-11T11:05:01Z</time>
      </trkpt>
      <trkpt lat="49.02426" lon="1.1435">
        <ele>40.9</ele>
        <time>2016-11-11T11:05:03Z</time>
      </trkpt>
      <trkpt lat="49.02415" lon="1.14361">
        <ele>41</ele>
        <time>2016-11-11T11:05:05Z</time>
      </trkpt>
      <trkpt lat="49.02404" lon="1.14371">
        <ele>40.9</ele>
        <time>2016-11-11T11:05:07Z</time>
      </trkpt>
      <trkpt lat="49.02393" lon="1.14374">
        <ele>40.9</ele>
        <time>2016-11-11T11:05:09Z</time>
      </trkpt>
      <trkpt lat="49.02383" lon="1.14363">
        <ele>40.9</ele>
        <time>2016-11-11T11:05:11Z</time>
      </trkpt>
      <trkpt lat="49.02374" lon="1.14345">
        <ele>40.9</ele>
        <time>2016-11-11T11:05:13Z</time>
      </trkpt>
      <trkpt lat="49.02365" lon="1.14328">
        <ele>40.9</ele>
        <time>2016-11-11T11:05:15Z</time>
      </trkpt>
      <trkpt lat="49.02356" lon="1.14309">
        <ele>40.9</ele>
        <time>2016-11-11T11:05:17Z</time>
      </trkpt>
      <trkpt lat="49.02349" lon="1.14287">
        <ele>40.9</ele>
        <time>2016-11-11T11:05:19Z</time>
      </trkpt>
      <trkpt lat="49.02343" lon="1.14266">
        <ele>40.9</ele>
        <time>2016-11-11T11:05:21Z</time>
      </trkpt>
      <trkpt lat="49.02338" lon="1.14244">
        <ele>40.9</ele>
        <time>2016-11-11T11:05:23Z</time>
      </trkpt>
      <trkpt lat="49.02333" lon="1.14222">
        <ele>41</ele>
        <time>2016-11-11T11:05:25Z</time>
      </trkpt>
      <trkpt lat="49.02329" lon="1.14201">
        <ele>41</ele>
        <time>2016-11-11T11:05:27Z</time>
      </trkpt>
      <trkpt lat="49.02325" lon="1.14179">
        <ele>41</ele>
        <time>2016-11-11T11:05:29Z</time>
      </trkpt>
      <trkpt lat="49.02322" lon="1.14156">
        <ele>41</ele>
        <time>2016-11-11T11:05:31Z</time>
      </trkpt>
      <trkpt lat="49.02319" lon="1.14134">
        <ele>41</ele>
        <time>2016-11-11T11:05:33Z</time>
      </trkpt>
      <trkpt lat="49.02315" lon="1.14112">
        <ele>41</ele>
        <time>2016-11-11T11:05:35Z</time>
      </trkpt>
      <trkpt lat="49.02313" lon="1.14091">
        <ele>41</ele>
        <time>2016-11-11T11:05:37Z</time>
      </trkpt>
      <trkpt lat="49.02308" lon="1.14071">
        <ele>41.1</ele>
        <time>2016-11-11T11:05:39Z</time>
      </trkpt>
      <trkpt lat="49.02297" lon="1.14065">
        <ele>41.1</ele>
        <time>2016-11-11T11:05:41Z</time>
      </trkpt>
      <trkpt lat="49.02286" lon="1.14068">
        <ele>41.1</ele>
        <time>2016-11-11T11:05:43Z</time>
      </trkpt>
      <trkpt lat="49.02274" lon="1.14071">
        <ele>41.2</ele>
        <time>2016-11-11T11:05:45Z</time>
      </trkpt>
      <trkpt lat="49.02263" lon="1.14076">
        <ele>41.2</ele>
        <time>2016-11-11T11:05:47Z</time>
      </trkpt>
      <trkpt lat="49.02251" lon="1.1408">
        <ele>41.3</ele>
        <time>2016-11-11T11:05:49Z</time>
      </trkpt>
      <trkpt lat="49.0224" lon="1.14085">
        <ele>41.4</ele>
        <time>2016-11-11T11:05:51Z</time>
      </trkpt>
      <trkpt lat="49.0223" lon="1.14088">
        <ele>41.4</ele>
        <time>2016-11-11T11:05:53Z</time>
      </trkpt>
      <trkpt lat="49.02219" lon="1.14088">
        <ele>41.5</ele>
        <time>2016-11-11T11:05:57Z</time>
      </trkpt>
      <trkpt lat="49.0221" lon="1.14095">
        <ele>41.5</ele>
        <time>2016-11-11T11:06:01Z</time>
      </trkpt>
      <trkpt lat="49.022" lon="1.14098">
        <ele>41.6</ele>
        <time>2016-11-11T11:06:04Z</time>
      </trkpt>
      <trkpt lat="49.02192" lon="1.14086">
        <ele>41.6</ele>
        <time>2016-11-11T11:06:07Z</time>
      </trkpt>
      <trkpt lat="49.02188" lon="1.14073">
        <ele>41.6</ele>
        <time>2016-11-11T11:06:09Z</time>
      </trkpt>
      <trkpt lat="49.02181" lon="1.14059">
        <ele>41.6</ele>
        <time>2016-11-11T11:06:11Z</time>
      </trkpt>
      <trkpt lat="49.02174" lon="1.14046">
        <ele>41.6</ele>
        <time>2016-11-11T11:06:13Z</time>
      </trkpt>
      <trkpt lat="49.02169" lon="1.14033">
        <ele>41.6</ele>
        <time>2016-11-11T11:06:15Z</time>
      </trkpt>
      <trkpt lat="49.02166" lon="1.1402">
        <ele>41.4</ele>
        <time>2016-11-11T11:06:18Z</time>
      </trkpt>
      <trkpt lat="49.0216" lon="1.14005">
        <ele>39.6</ele>
        <time>2016-11-11T11:07:40Z</time>
      </trkpt>
      <trkpt lat="49.02162" lon="1.1399">
        <ele>39.6</ele>
        <time>2016-11-11T11:07:43Z</time>
      </trkpt>
      <trkpt lat="49.02164" lon="1.13976">
        <ele>39.6</ele>
        <time>2016-11-11T11:07:45Z</time>
      </trkpt>
      <trkpt lat="49.02162" lon="1.13962">
        <ele>39.6</ele>
        <time>2016-11-11T11:07:47Z</time>
      </trkpt>
      <trkpt lat="49.02156" lon="1.13949">
        <ele>39.6</ele>
        <time>2016-11-11T11:07:49Z</time>
      </trkpt>
      <trkpt lat="49.02151" lon="1.13934">
        <ele>39.6</ele>
        <time>2016-11-11T11:07:51Z</time>
      </trkpt>
      <trkpt lat="49.02145" lon="1.13919">
        <ele>39.6</ele>
        <time>2016-11-11T11:07:53Z</time>
      </trkpt>
      <trkpt lat="49.0214" lon="1.13902">
        <ele>39.7</ele>
        <time>2016-11-11T11:07:55Z</time>
      </trkpt>
      <trkpt lat="49.02134" lon="1.13885">
        <ele>39.7</ele>
        <time>2016-11-11T11:07:57Z</time>
      </trkpt>
      <trkpt lat="49.02128" lon="1.13869">
        <ele>39.7</ele>
        <time>2016-11-11T11:07:59Z</time>
      </trkpt>
      <trkpt lat="49.02123" lon="1.13855">
        <ele>39.7</ele>
        <time>2016-11-11T11:08:01Z</time>
      </trkpt>
      <trkpt lat="49.02121" lon="1.13839">
        <ele>39.8</ele>
        <time>2016-11-11T11:08:03Z</time>
      </trkpt>
      <trkpt lat="49.02126" lon="1.13825">
        <ele>39.8</ele>
        <time>2016-11-11T11:08:05Z</time>
      </trkpt>
      <trkpt lat="49.02135" lon="1.13813">
        <ele>39.8</ele>
        <time>2016-11-11T11:08:07Z</time>
      </trkpt>
      <trkpt lat="49.02142" lon="1.13805">
        <ele>39.9</ele>
        <time>2016-11-11T11:08:09Z</time>
      </trkpt>
      <trkpt lat="49.02154" lon="1.13798">
        <ele>40.2</ele>
        <time>2016-11-11T11:08:12Z</time>
      </trkpt>
      <trkpt lat="49.02166" lon="1.13796">
        <ele>40.5</ele>
        <time>2016-11-11T11:08:15Z</time>
      </trkpt>
      <trkpt lat="49.02175" lon="1.1379">
        <ele>40.9</ele>
        <time>2016-11-11T11:08:19Z</time>
      </trkpt>
      <trkpt lat="49.02179" lon="1.13783">
        <ele>41.7</ele>
        <time>2016-11-11T11:08:55Z</time>
      </trkpt>
    </trkseg>
  </trk>
</gpx>